# Wetter Temperatur Luftdruck Luftfeuchtigkeit Sichtweite Windgeschwindigkeit Windrichtung Zeit
1 Clouds 22 1018 33 10000 4.6 120 11:23 08.04.2020
2 Clouds 23 1018 33 10000 5.1 130 10:58 08.04.2020
3 Clouds 23 1018 33 10000 5.1 130 10:39 08.04.2020
4 Clouds 24 1017 29 10000 6.2 130 10:20 08.04.2020
5 Clouds 24 1017 29 10000 6.2 130 09:57 08.04.2020
6 Clouds 24 1017 29 10000 6.2 130 09:39 08.04.2020
7 Clouds 24 1017 29 10000 6.2 130 09:18 08.04.2020
8 Clouds 24 1017 29 10000 6.2 130 09:18 08.04.2020
9 Clouds 25 1017 27 10000 6.2 130 08:56 08.04.2020
10 Clouds 25 1017 29 10000 6.2 120 08:38 08.04.2020
11 Clouds 25 1017 29 10000 6.2 120 08:20 08.04.2020
12 Clouds 24 1017 29 10000 5.7 130 07:42 08.04.2020
13 Clouds 24 1018 29 10000 5.7 140 07:20 08.04.2020
14 Clouds 24 1018 31 10000 5.1 130 06:22 08.04.2020
15 Clouds 22 1020 33 10000 4.6 100 04:44 08.04.2020
16 Clouds 21 1019 35 10000 5.1 90 02:49 08.04.2020
17 Clouds 19 1020 42 10000 2.6 110 02:21 08.04.2020
18 Clouds 18 1020 45 10000 6.31 110 01:51 08.04.2020
19 Clouds 17 1020 48 10000 6.31 110 01:27 08.04.2020
20 Clouds 15 1019 54 10000 1.5 250 00:41 08.04.2020
21 Clouds 15 1019 54 10000 1.5 250 00:22 08.04.2020
22 Clouds 14 1018 58 10000 2.1 10 23:40 07.04.2020
23 Clouds 14 1018 58 10000 2.1 10 23:40 07.04.2020
24 Clouds 14 1018 58 10000 2.1 10 23:21 07.04.2020
25 Clouds 13 1018 58 10000 2.1 90 22:57 07.04.2020
26 Clouds 13 1018 58 10000 3.79 107 22:39 07.04.2020
27 Clouds 13 1018 58 10000 3.79 107 22:19 07.04.2020
28 Clouds 13 1018 58 10000 2.1 270 21:56 07.04.2020
29 Clouds 13 1018 58 10000 1.5 270 21:38 07.04.2020
30 Clouds 13 1018 58 10000 1.5 270 21:20 07.04.2020
31 Clouds 14 1017 54 10000 2.1 330 20:56 07.04.2020
32 Clouds 14 1017 54 10000 2.1 330 20:38 07.04.2020
33 Clouds 14 1017 54 10000 2.1 330 20:20 07.04.2020
34 Clouds 13 1018 54 10000 2.6 280 19:56 07.04.2020
35 Clouds 13 1018 54 10000 2.6 280 19:56 07.04.2020
36 Clouds 13 1018 54 10000 2.6 280 19:36 07.04.2020
37 Clouds 13 1018 54 10000 2.6 280 19:18 07.04.2020
38 Clouds 13 1018 54 10000 2.6 260 18:54 07.04.2020
39 Clouds 14 1018 50 10000 2.1 260 18:36 07.04.2020
40 Clouds 14 1018 50 10000 2.1 260 18:18 07.04.2020
41 Clouds 15 1018 47 10000 0.5 340 17:41 07.04.2020
42 Clouds 16 1018 44 10000 2.1 280 17:20 07.04.2020
43 Clouds 16 1018 44 10000 0.5 260 16:45 07.04.2020
44 Clouds 16 1018 44 10000 0.5 260 16:27 07.04.2020
45 Clouds 17 1018 42 10000 4.75 138 15:55 07.04.2020
46 Clouds 18 1019 36 10000 2.1 100 15:36 07.04.2020
47 Clouds 18 1019 36 10000 2.1 100 15:18 07.04.2020
48 Clouds 20 1019 32 10000 2.6 100 14:39 07.04.2020
49 Clouds 20 1019 32 10000 2.6 100 14:20 07.04.2020
50 Clouds 21 1018 30 10000 3.1 120 13:43 07.04.2020
51 Clouds 21 1018 30 10000 3.1 130 13:21 07.04.2020
52 Clouds 21 1018 30 10000 3.1 130 12:59 07.04.2020
53 Clouds 22 1017 26 10000 3.6 130 12:40 07.04.2020
54 Clouds 23 1017 25 10000 3.6 120 12:21 07.04.2020
55 Clouds 23 1017 25 10000 3.6 120 11:59 07.04.2020
56 Clouds 23 1017 25 10000 3.6 120 11:59 07.04.2020
57 Clouds 23 1017 25 10000 4.1 130 11:41 07.04.2020
58 Clouds 23 1017 25 10000 4.1 130 11:21 07.04.2020
59 Clouds 24 1016 22 10000 4.6 120 10:55 07.04.2020
60 Clouds 25 1016 22 10000 5.1 130 10:36 07.04.2020
61 Clouds 25 1016 23 10000 4.6 130 10:18 07.04.2020
62 Clouds 25 1016 20 10000 4.1 130 09:43 07.04.2020
63 Clouds 25 1016 20 10000 4.1 130 09:18 07.04.2020
64 Clouds 25 1016 22 10000 5.1 110 08:41 07.04.2020
65 Clouds 25 1016 22 10000 5.1 110 08:23 07.04.2020
66 Clouds 25 1016 23 10000 3.6 150 07:57 07.04.2020
67 Clouds 25 1016 23 10000 3.6 160 07:38 07.04.2020
68 Clouds 26 1017 24 10000 4.1 150 07:20 07.04.2020
69 Clouds 25 1017 22 10000 4.6 120 06:42 07.04.2020
70 Clouds 25 1018 23 10000 4.1 120 06:18 07.04.2020
71 Clouds 25 1018 23 10000 4.1 100 05:29 07.04.2020
72 Clouds 23 1019 28 10000 3.6 130 04:35 07.04.2020
73 Clouds 22 1020 33 10000 4.6 100 03:24 07.04.2020
74 Clouds 20 1020 37 10000 3.6 90 02:47 07.04.2020
75 Clouds 17 1021 48 10000 1.5 100 01:43 07.04.2020
76 Clouds 15 1020 54 10000 5.26 102 01:23 07.04.2020
77 Clouds 12 1020 66 10000 3.09 127 00:26 07.04.2020
78 Clouds 10 1019 76 10000 3.09 127 23:44 06.04.2020
79 Clouds 10 1019 76 10000 3.09 127 23:23 06.04.2020
80 Clouds 10 1019 76 10000 3.09 127 22:56 06.04.2020
81 Clouds 10 1018 76 10000 3.09 127 22:37 06.04.2020
82 Clouds 10 1018 76 10000 3.09 127 22:19 06.04.2020
83 Clouds 11 1018 71 10000 1 190 21:56 06.04.2020
84 Clouds 11 1018 71 10000 2.1 190 21:37 06.04.2020
85 Clouds 12 1018 66 10000 3.78 120 21:18 06.04.2020
86 Clouds 12 1018 66 10000 2.6 360 20:41 06.04.2020
87 Clouds 12 1018 66 10000 2.6 360 20:21 06.04.2020
88 Clouds 12 1019 62 10000 2.1 310 19:58 06.04.2020
89 Clouds 12 1019 66 10000 2.6 260 19:39 06.04.2020
90 Clouds 13 1019 62 10000 2.1 210 19:20 06.04.2020
91 Clouds 13 1019 62 10000 3.78 120 18:45 06.04.2020
92 Clouds 13 1019 62 10000 0.5 220 18:24 06.04.2020
93 Clouds 13 1019 62 10000 0.5 220 17:59 06.04.2020
94 Clouds 13 1019 58 10000 2.1 230 17:41 06.04.2020
95 Clouds 14 1018 54 10000 4.6 122 17:19 06.04.2020
96 Clouds 15 1018 54 10000 4.6 122 16:49 06.04.2020
97 Clouds 15 1018 54 10000 4.6 122 16:30 06.04.2020
98 Clouds 18 1019 42 10000 1.5 20 14:59 06.04.2020
99 Clouds 18 1019 42 10000 1.5 20 14:59 06.04.2020
100 Clouds 18 1019 42 10000 1.5 20 14:59 06.04.2020
101 Clouds 18 1019 42 10000 1.5 20 14:59 06.04.2020
102 Clouds 18 1019 42 10000 1.5 20 14:59 06.04.2020
103 Clouds 20 1019 37 10000 2.6 110 13:45 06.04.2020
104 Clouds 20 1019 34 10000 3.6 120 13:22 06.04.2020
105 Clouds 21 1019 35 10000 4.1 110 12:46 06.04.2020
106 Clouds 22 1018 30 10000 4.1 120 12:20 06.04.2020
107 Clouds 22 1018 30 10000 4.1 110 11:43 06.04.2020
108 Clouds 23 1018 27 10000 4.6 110 11:25 06.04.2020
109 Clouds 23 1018 27 10000 4.6 110 11:25 06.04.2020
110 Clouds 23 1018 27 10000 4.6 110 11:25 06.04.2020
111 Clouds 23 1018 27 10000 4.6 110 11:24 06.04.2020
112 Clouds 23 1018 27 10000 4.6 110 11:24 06.04.2020
113 Clouds 24 1017 25 10000 5.1 110 10:43 06.04.2020
114 Clouds 24 1018 25 10000 4.6 120 10:43 06.04.2020
115 Clouds 24 1017 25 10000 5.1 110 10:43 06.04.2020
116 Clouds 24 1018 25 10000 4.6 120 10:43 06.04.2020
117 Clouds 24 1018 25 10000 4.6 120 10:42 06.04.2020
118 Clouds 24 1017 25 10000 5.1 110 10:21 06.04.2020
119 Clouds 24 1017 25 10000 5.1 110 10:21 06.04.2020
120 Clouds 24 1017 25 10000 5.1 110 10:21 06.04.2020
121 Clouds 24 1017 25 10000 5.1 110 10:21 06.04.2020
122 Clouds 24 1017 25 10000 5.1 110 10:21 06.04.2020
123 Clouds 25 1017 25 10000 5.7 110 09:40 06.04.2020
124 Clouds 25 1017 25 10000 5.7 110 09:40 06.04.2020
125 Clouds 25 1017 25 10000 5.7 120 09:20 06.04.2020
126 Clouds 25 1017 25 10000 5.7 120 09:20 06.04.2020
127 Clouds 25 1017 23 10000 5.7 90 08:47 06.04.2020
128 Clouds 25 1017 23 10000 4.6 80 08:29 06.04.2020
129 Clouds 25 1017 23 10000 4.6 80 08:29 06.04.2020
130 Clouds 25 1017 23 10000 4.6 80 08:29 06.04.2020
131 Clouds 25 1017 23 10000 4.6 80 08:29 06.04.2020
132 Clouds 25 1017 23 10000 4.6 80 08:29 06.04.2020
133 Clouds 26 1018 22 10000 6.2 100 07:23 06.04.2020
134 Clouds 25 1019 25 10000 5.7 90 06:27 06.04.2020
135 Clouds 24 1019 27 10000 6.2 80 05:54 06.04.2020
136 Clouds 23 1021 31 10000 5.7 110 03:57 06.04.2020
137 Clouds 22 1022 33 10000 5.7 80 02:52 06.04.2020
138 Clouds 19 1022 39 10000 5.7 70 01:56 06.04.2020
139 Clouds 19 1022 39 10000 5.7 70 01:56 06.04.2020
140 Clouds 19 1022 39 10000 5.7 70 01:56 06.04.2020
141 Clouds 16 1021 51 10000 2.6 100 00:55 06.04.2020
142 Clouds 12 1021 66 10000 1.5 170 00:28 06.04.2020
143 Clouds 12 1021 66 10000 1.5 170 00:28 06.04.2020
144 Clouds 10 1020 76 10000 3.6 180 23:52 05.04.2020
145 Clouds 10 1020 76 10000 3.87 98 23:33 05.04.2020
146 Clouds 10 1020 76 10000 3.87 98 22:58 05.04.2020
147 Clouds 10 1020 76 10000 3.87 98 22:58 05.04.2020
148 Clouds 10 1020 76 10000 3.87 98 22:40 05.04.2020
149 Clouds 10 1020 76 10000 3.87 98 22:22 05.04.2020
150 Clouds 11 1019 71 10000 3.87 98 21:59 05.04.2020
151 Clouds 11 1019 71 10000 3.87 98 21:41 05.04.2020
152 Clouds 11 1019 71 10000 3.87 98 21:41 05.04.2020
153 Clouds 11 1019 71 10000 3.87 98 21:23 05.04.2020
154 Clouds 12 1019 66 10000 1 160 20:22 05.04.2020
155 Clouds 12 1019 66 10000 1 180 19:43 05.04.2020
156 Clouds 13 1020 58 10000 2.6 190 19:22 05.04.2020
157 Clouds 13 1020 62 10000 2.6 230 18:48 05.04.2020
158 Clouds 13 1020 62 10000 4.57 108 18:18 05.04.2020
159 Clouds 14 1020 58 10000 4.57 108 17:42 05.04.2020
160 Clouds 14 1020 58 10000 4.57 108 17:42 05.04.2020
161 Clouds 14 1020 58 10000 4.57 108 17:42 05.04.2020
162 Clouds 14 1020 54 10000 4.57 108 17:42 05.04.2020
163 Clouds 14 1020 54 10000 4.57 108 17:42 05.04.2020
164 Clouds 14 1020 54 10000 4.57 108 17:21 05.04.2020
165 Clouds 14 1020 54 10000 4.57 108 17:21 05.04.2020
166 Clouds 14 1020 54 10000 4.57 108 17:21 05.04.2020
167 Clouds 15 1020 54 10000 0.5 360 16:47 05.04.2020
168 Clouds 15 1020 54 10000 0.5 360 16:47 05.04.2020
169 Clouds 15 1020 54 10000 0.5 360 16:47 05.04.2020
170 Clouds 16 1020 51 10000 2.1 350 16:18 05.04.2020
171 Clouds 16 1020 48 10000 0.5 90 15:45 05.04.2020
172 Clouds 17 1020 45 10000 1.5 110 15:25 05.04.2020
173 Clouds 18 1020 39 10000 3.1 110 14:48 05.04.2020
174 Clouds 18 1020 39 10000 3.1 110 14:48 05.04.2020
175 Clouds 18 1020 39 10000 3.1 110 14:48 05.04.2020
176 Clouds 18 1020 39 10000 3.1 110 14:48 05.04.2020
177 Clouds 18 1020 39 10000 3.1 110 14:48 05.04.2020
178 Clouds 20 1020 34 10000 3.6 120 13:58 05.04.2020
179 Clouds 20 1019 34 10000 3.6 120 13:40 05.04.2020
180 Clouds 20 1019 34 10000 3.6 120 13:40 05.04.2020
181 Clouds 20 1019 34 10000 3.6 120 13:40 05.04.2020
182 Clouds 20 1019 34 10000 3.6 120 13:37 05.04.2020
183 Clouds 20 1019 34 10000 3.6 120 13:37 05.04.2020
184 Clouds 22 1018 28 10000 3.6 130 11:58 05.04.2020
185 Clouds 23 1018 27 10000 5.1 130 11:39 05.04.2020
186 Clouds 23 1018 27 10000 5.1 130 11:19 05.04.2020
187 Clouds 24 1017 25 10000 5.7 110 10:45 05.04.2020
188 Clouds 24 1017 25 10000 5.7 110 10:45 05.04.2020
189 Clouds 25 1017 23 10000 5.1 130 10:21 05.04.2020
190 Clouds 25 1016 22 10000 5.1 130 09:52 05.04.2020
191 Clouds 25 1016 22 10000 5.1 130 09:52 05.04.2020
192 Clouds 26 1016 22 10000 5.1 140 09:25 05.04.2020
193 Clouds 26 1016 22 10000 5.1 140 09:25 05.04.2020
194 Clouds 26 1016 22 10000 5.1 140 09:25 05.04.2020
195 Clouds 26 1016 22 10000 5.1 140 09:25 05.04.2020
196 Clouds 26 1016 22 10000 5.1 140 09:25 05.04.2020
197 Clouds 25 1017 22 10000 4.6 120 07:58 05.04.2020
198 Clear 23 1019 28 10000 5.1 120 05:12 05.04.2020
199 Clear 21 1020 32 10000 6.2 110 03:58 05.04.2020
200 Clear 19 1021 39 10000 5.1 120 02:56 05.04.2020
201 Clear 18 1021 45 10000 5.1 70 01:52 05.04.2020
202 Clear 18 1021 45 10000 5.1 70 01:52 05.04.2020
203 Clear 17 1021 48 10000 3.6 90 01:33 05.04.2020
204 Clear 16 1021 51 10000 2.1 90 00:52 05.04.2020
205 Clear 13 1020 66 10000 1.5 110 00:22 05.04.2020
206 Clear 10 1020 76 10000 1 110 23:58 04.04.2020
207 Clear 10 1020 76 10000 1 110 23:58 04.04.2020
208 Clear 11 1020 71 10000 2.1 100 23:38 04.04.2020
209 Clear 11 1020 71 10000 2.1 100 23:20 04.04.2020
210 Clear 11 1020 71 10000 1.5 130 22:56 04.04.2020
211 Clear 11 1019 71 10000 2.1 140 22:38 04.04.2020
212 Clear 11 1019 71 10000 2.1 140 22:19 04.04.2020
213 Clear 11 1019 71 10000 2.1 140 22:19 04.04.2020
214 Clear 11 1019 71 10000 2.6 130 21:55 04.04.2020
215 Clear 12 1019 66 10000 2.1 110 21:36 04.04.2020
216 Clouds 12 1019 66 10000 2.1 110 21:18 04.04.2020
217 Clouds 12 1019 62 10000 1.5 30 20:42 04.04.2020
218 Clouds 12 1019 62 10000 1.5 40 20:23 04.04.2020
219 Clouds 12 1019 62 10000 2.6 120 19:59 04.04.2020
220 Clouds 12 1019 62 10000 3.1 130 19:38 04.04.2020
221 Clouds 12 1019 62 10000 3.1 130 19:20 04.04.2020
222 Clouds 13 1019 58 10000 2.6 120 18:58 04.04.2020
223 Clouds 14 1019 54 10000 2.6 130 18:39 04.04.2020
224 Clouds 14 1019 54 10000 2.6 130 18:19 04.04.2020
225 Clouds 15 1019 47 10000 2.1 110 17:56 04.04.2020
226 Clouds 15 1019 47 10000 2.1 100 17:38 04.04.2020
227 Clouds 15 1019 47 10000 2.1 100 17:18 04.04.2020
228 Clouds 16 1019 44 10000 2.6 130 16:42 04.04.2020
229 Clouds 16 1019 44 10000 2.6 130 16:23 04.04.2020
230 Clouds 17 1019 42 10000 3.1 120 15:57 04.04.2020
231 Clouds 17 1019 39 10000 2.6 110 15:38 04.04.2020
232 Clear 17 1019 39 10000 2.6 110 15:19 04.04.2020
233 Clear 18 1019 36 10000 3.1 130 14:44 04.04.2020
234 Clear 18 1019 34 10000 2.6 130 14:23 04.04.2020
235 Clear 19 1019 32 10000 2.6 140 13:57 04.04.2020
236 Clear 20 1018 28 10000 3.1 140 13:38 04.04.2020
237 Clear 20 1018 28 10000 3.1 140 13:20 04.04.2020
238 Clear 21 1018 27 10000 3.1 140 12:46 04.04.2020
239 Clear 21 1017 22 10000 3.6 130 12:27 04.04.2020
240 Clear 22 1017 19 10000 4.1 130 11:59 04.04.2020
241 Clear 23 1016 20 10000 4.6 130 11:40 04.04.2020
242 Clear 23 1016 20 10000 4.6 130 11:21 04.04.2020
243 Clear 24 1016 23 10000 5.1 140 10:57 04.04.2020
244 Clear 24 1016 23 10000 5.1 140 10:39 04.04.2020
245 Clear 24 1016 25 10000 5.7 130 10:21 04.04.2020
246 Clear 24 1016 29 10000 5.1 130 09:55 04.04.2020
247 Clear 25 1016 27 10000 5.7 160 09:37 04.04.2020
248 Clear 25 1016 27 10000 5.7 160 09:19 04.04.2020
249 Clear 24 1016 29 10000 6.2 130 08:42 04.04.2020
250 Clear 24 1016 29 10000 6.2 130 08:21 04.04.2020
251 Clear 25 1016 31 10000 5.7 110 07:47 04.04.2020
252 Clear 24 1016 33 10000 5.7 120 07:27 04.04.2020
253 Clear 24 1016 36 10000 5.7 130 06:56 04.04.2020
254 Clear 23 1016 38 10000 6.7 120 06:20 04.04.2020
255 Clear 23 1017 40 10000 6.7 110 05:43 04.04.2020
256 Clear 23 1017 40 10000 6.2 120 05:24 04.04.2020
257 Clear 22 1018 43 10000 6.2 120 04:32 04.04.2020
258 Clear 22 1019 46 10000 8.47 148 03:53 04.04.2020
259 Clear 20 1019 52 10000 7.2 120 02:54 04.04.2020
260 Clear 20 1019 52 10000 7.2 120 02:34 04.04.2020
261 Clear 20 1019 52 10000 7.7 140 01:57 04.04.2020
262 Clear 20 1018 56 10000 7.7 110 01:25 04.04.2020
263 Clear 20 1018 56 10000 8.7 130 00:50 04.04.2020
264 Clear 20 1017 56 10000 4.6 120 00:30 04.04.2020
265 Clear 20 1016 56 10000 5.1 140 23:40 03.04.2020
266 Clear 20 1016 56 10000 5.1 140 23:21 03.04.2020
267 Clear 21 1015 52 10000 5.1 120 22:59 03.04.2020
268 Clear 21 1015 52 10000 5.1 120 22:39 03.04.2020
269 Clear 21 1015 52 10000 5.1 120 22:39 03.04.2020
270 Clear 21 1015 52 10000 6.2 130 22:19 03.04.2020
271 Clear 22 1014 49 10000 6.7 140 21:44 03.04.2020
272 Clear 22 1014 49 10000 5.1 150 21:25 03.04.2020
273 Clear 23 1013 43 10000 5.7 150 20:57 03.04.2020
274 Clear 24 1013 41 10000 4.6 140 20:38 03.04.2020
275 Clear 24 1013 41 10000 4.6 140 20:20 03.04.2020
276 Clear 24 1012 47 10000 4.1 130 19:57 03.04.2020
277 Clear 23 1012 53 10000 2.6 150 19:39 03.04.2020
278 Clear 23 1012 53 10000 2.6 150 19:39 03.04.2020
279 Clear 23 1012 53 10000 2.6 150 19:21 03.04.2020
280 Clear 24 1012 47 10000 3.6 120 18:59 03.04.2020
281 Clear 24 1012 47 10000 3.6 120 18:59 03.04.2020
282 Clear 25 1012 47 10000 3.6 130 18:41 03.04.2020
283 Clear 25 1012 47 10000 3.6 130 18:23 03.04.2020
284 Clear 26 1012 47 10000 4.6 120 17:55 03.04.2020
285 Clear 26 1011 39 10000 3.6 160 17:37 03.04.2020
286 Clear 26 1011 39 10000 3.6 160 17:18 03.04.2020
287 Clear 27 1011 36 10000 5.1 170 16:44 03.04.2020
288 Clear 27 1011 42 10000 3.6 170 16:22 03.04.2020
289 Clear 28 1011 39 7000 5.1 190 15:58 03.04.2020
290 Clear 25 1010 61 10000 8.55 159 15:40 03.04.2020
291 Clear 25 1010 61 10000 8.55 159 15:21 03.04.2020
292 Clouds 28 1008 27 0 3.87 160 14:56 03.04.2020
293 Clouds 28 1008 27 0 3.87 160 14:37 03.04.2020
294 Clouds 29 1009 37 10000 1 130 14:19 03.04.2020
295 Clouds 29 1009 37 10000 1 130 13:43 03.04.2020
296 Clouds 29 1009 37 10000 1 130 13:25 03.04.2020
297 Clouds 29 1009 37 10000 1.5 140 12:55 03.04.2020
298 Clouds 30 1009 33 10000 2.1 160 12:37 03.04.2020
299 Clouds 31 1008 31 10000 3.6 180 12:18 03.04.2020
300 Clouds 31 1008 31 10000 5.1 180 11:41 03.04.2020
301 Clouds 31 1008 31 10000 5.1 180 11:23 03.04.2020
302 Clouds 32 1008 31 10000 5.7 180 10:59 03.04.2020
303 Clouds 32 1007 33 10000 4.6 160 10:40 03.04.2020
304 Clouds 32 1007 33 10000 4.6 160 10:21 03.04.2020
305 Clouds 32 1007 33 10000 5.7 170 09:59 03.04.2020
306 Clouds 33 1007 31 10000 6.7 170 09:40 03.04.2020
307 Clouds 33 1007 31 10000 6.7 170 09:22 03.04.2020
308 Clouds 34 1006 30 10000 6.7 170 08:57 03.04.2020
309 Clouds 35 1007 26 10000 5.7 180 08:38 03.04.2020
310 Clouds 35 1007 26 10000 5.7 180 08:20 03.04.2020
311 Clouds 34 1007 28 10000 5.7 190 07:48 03.04.2020
312 Clouds 34 1007 28 10000 3.6 190 07:29 03.04.2020
313 Clouds 34 1008 32 10000 2.6 200 06:42 03.04.2020
314 Clouds 34 1008 32 10000 2.6 200 06:23 03.04.2020
315 Clouds 31 1009 35 10000 3.6 150 05:39 03.04.2020
316 Clouds 29 1010 54 10000 3.1 190 03:42 03.04.2020
317 Clouds 27 1010 65 10000 3.1 210 02:56 03.04.2020
318 Clouds 26 1010 69 10000 3.6 210 02:27 03.04.2020
319 Clouds 25 1010 73 10000 3.6 210 01:22 03.04.2020
320 Clouds 24 1009 73 10000 2.6 180 00:37 03.04.2020
321 Clouds 24 1009 73 10000 2.6 180 00:19 03.04.2020
322 Clouds 25 1009 65 10000 3.1 220 23:42 02.04.2020
323 Clouds 25 1008 65 10000 3.6 320 23:23 02.04.2020
324 Clouds 24 1008 69 10000 2.51 193 22:58 02.04.2020
325 Clouds 23 1008 73 10000 2.6 180 22:38 02.04.2020
326 Clouds 23 1008 73 10000 2.6 180 22:20 02.04.2020
327 Clouds 26 1007 61 10000 5.7 330 21:39 02.04.2020
328 Clouds 26 1007 61 10000 5.7 330 21:20 02.04.2020
329 Clouds 26 1007 61 10000 6.7 340 20:58 02.04.2020
330 Clouds 26 1007 57 10000 5.7 340 20:40 02.04.2020
331 Clouds 26 1007 57 10000 5.7 340 20:21 02.04.2020
332 Clouds 27 1007 54 10000 6.2 330 19:44 02.04.2020
333 Clouds 27 1007 54 10000 6.2 330 19:21 02.04.2020
334 Clouds 27 1007 54 10000 6.7 340 18:58 02.04.2020
335 Clouds 27 1008 54 10000 8.2 340 18:39 02.04.2020
336 Clouds 27 1008 54 10000 8.2 340 18:39 02.04.2020
337 Clouds 27 1008 54 10000 8.2 340 18:39 02.04.2020
338 Clouds 27 1008 54 10000 8.2 340 18:20 02.04.2020
339 Clouds 28 1008 48 10000 5.1 330 17:56 02.04.2020
340 Clouds 28 1008 48 10000 4.1 340 17:38 02.04.2020
341 Clouds 28 1008 48 10000 4.1 340 17:19 02.04.2020
342 Clouds 29 1008 45 10000 6.2 340 16:55 02.04.2020
343 Clouds 27 1008 54 10000 3.6 290 16:37 02.04.2020
344 Clouds 27 1008 54 10000 3.6 290 16:19 02.04.2020
345 Clouds 27 1008 57 10000 3.6 340 15:44 02.04.2020
346 Clouds 27 1008 57 10000 5.7 350 15:21 02.04.2020
347 Clouds 28 1009 54 10000 4.1 360 14:59 02.04.2020
348 Clouds 28 1009 54 10000 4.1 360 14:40 02.04.2020
349 Clouds 28 1009 54 10000 4.1 10 14:19 02.04.2020
350 Rain 28 1009 51 10000 5.1 360 13:56 02.04.2020
351 Clouds 29 1009 48 10000 4.1 10 13:38 02.04.2020
352 Clouds 29 1009 48 10000 4.1 10 13:20 02.04.2020
353 Clouds 29 1009 48 10000 3.6 40 12:55 02.04.2020
354 Clouds 29 1009 48 10000 3.6 40 12:55 02.04.2020
355 Clouds 30 1008 45 10000 3.1 340 12:36 02.04.2020
356 Clouds 30 1008 45 10000 3.1 340 12:18 02.04.2020
357 Clouds 31 1008 40 10000 4.1 10 11:55 02.04.2020
358 Clouds 31 1008 40 10000 4.1 10 11:55 02.04.2020
359 Clouds 32 1007 35 10000 4.1 350 11:36 02.04.2020
360 Clouds 32 1007 35 10000 4.1 350 11:18 02.04.2020
361 Clouds 33 1006 31 10000 6.2 350 10:54 02.04.2020
362 Rain 35 1006 28 10000 6.2 310 10:36 02.04.2020
363 Rain 35 1006 28 10000 6.2 310 10:18 02.04.2020
364 Rain 35 1006 26 10000 7.2 290 09:42 02.04.2020
365 Rain 36 1006 25 10000 7.7 300 09:24 02.04.2020
366 Rain 36 1006 26 10000 6.7 310 08:58 02.04.2020
367 Rain 36 1006 26 10000 6.7 310 08:39 02.04.2020
368 Clouds 36 1006 28 10000 7.2 320 08:19 02.04.2020
369 Rain 36 1007 30 10000 6.7 300 07:42 02.04.2020
370 Rain 36 1007 30 10000 6.7 300 07:19 02.04.2020
371 Rain 35 1008 32 10000 7.7 320 06:46 02.04.2020
372 Rain 35 1008 32 10000 8.2 320 06:20 02.04.2020
373 Rain 33 1010 38 10000 9.3 310 05:41 02.04.2020
374 Rain 30 1011 45 10000 9.8 330 02:59 02.04.2020
375 Clouds 27 1011 54 10000 8.2 330 01:30 02.04.2020
376 Clouds 26 1011 57 10000 8.2 330 00:42 02.04.2020
377 Clouds 26 1011 54 10000 7.7 340 00:24 02.04.2020
378 Rain 26 1011 54 10000 6.2 340 23:41 01.04.2020
379 Rain 26 1011 54 10000 6.7 330 23:20 01.04.2020
380 Rain 26 1010 54 10000 6.7 340 22:58 01.04.2020
381 Rain 26 1010 54 10000 6.7 340 22:58 01.04.2020
382 Rain 26 1010 54 10000 6.7 340 22:39 01.04.2020
383 Rain 26 1010 54 10000 5.7 340 22:21 01.04.2020
384 Rain 25 1010 61 10000 5.7 350 21:42 01.04.2020
385 Clouds 24 1010 69 10000 4.6 350 21:22 01.04.2020
386 Clouds 24 1010 73 10000 4.1 330 20:58 01.04.2020
387 Clouds 24 1010 73 10000 4.1 330 20:58 01.04.2020
388 Clouds 24 1010 73 10000 4.1 330 20:40 01.04.2020
389 Clouds 24 1010 73 10000 3.6 350 20:21 01.04.2020
390 Clouds 23 1010 78 10000 4.1 360 20:00 01.04.2020
391 Clouds 23 1010 78 10000 4.6 360 19:41 01.04.2020
392 Clouds 23 1010 78 10000 4.6 360 19:21 01.04.2020
393 Clouds 23 1011 78 10000 4.6 350 18:46 01.04.2020
394 Clouds 23 1011 78 10000 2.6 10 18:26 01.04.2020
395 Clouds 23 1011 83 10000 5.1 360 17:58 01.04.2020
396 Clouds 22 1012 88 10000 3.1 360 17:39 01.04.2020
397 Clouds 22 1012 88 10000 3.1 360 17:20 01.04.2020
398 Clouds 22 1012 88 10000 2.1 50 16:59 01.04.2020
399 Rain 22 1012 88 10000 2.6 40 16:40 01.04.2020
400 Rain 22 1012 88 10000 2.6 40 16:22 01.04.2020
401 Rain 22 1013 83 10000 3.1 360 15:58 01.04.2020
402 Clouds 22 1012 88 10000 4.6 10 15:38 01.04.2020
403 Clouds 22 1012 88 10000 4.6 10 15:20 01.04.2020
404 Rain 21 1012 94 10000 5.1 30 14:56 01.04.2020
405 Rain 22 1014 88 10000 7.2 330 14:38 01.04.2020
406 Rain 22 1014 88 10000 7.2 330 14:19 01.04.2020
407 Rain 22 1014 94 10000 3.6 350 13:57 01.04.2020
408 Rain 23 1014 83 10000 6.2 200 13:37 01.04.2020
409 Clouds 28 1013 45 10000 6.2 240 13:18 01.04.2020
410 Clouds 28 1013 45 10000 6.2 240 12:43 01.04.2020
411 Clouds 29 1011 42 10000 4.1 320 12:24 01.04.2020
412 Clouds 29 1010 39 10000 5.7 360 11:59 01.04.2020
413 Clouds 29 1009 39 10000 4.6 10 11:40 01.04.2020
414 Clouds 29 1009 39 10000 4.6 10 11:21 01.04.2020
415 Clouds 29 1009 39 10000 7.2 360 10:56 01.04.2020
416 Clouds 30 1010 37 10000 8.2 350 10:37 01.04.2020
417 Clouds 30 1010 37 10000 8.2 350 10:18 01.04.2020
418 Clouds 30 1010 37 10000 7.2 350 09:40 01.04.2020
419 Clouds 31 1010 35 10000 7.7 350 09:22 01.04.2020
420 Clouds 31 1009 33 10000 8.2 360 08:59 01.04.2020
421 Clouds 31 1009 33 10000 8.2 360 08:40 01.04.2020
422 Clouds 31 1009 33 10000 8.2 360 08:40 01.04.2020
423 Clouds 31 1010 35 10000 8.7 360 08:18 01.04.2020
424 Clouds 31 1011 38 10000 7.2 10 07:42 01.04.2020
425 Clouds 31 1011 38 10000 7.2 10 07:20 01.04.2020
426 Clouds 31 1011 38 10000 7.7 360 06:47 01.04.2020
427 Clouds 31 1011 35 10000 7.7 360 06:22 01.04.2020
428 Clouds 29 1012 54 10000 7.2 60 05:53 01.04.2020
429 Clouds 26 1014 69 10000 7.2 80 04:30 01.04.2020
430 Clouds 24 1016 73 10000 5.1 150 03:27 01.04.2020
431 Clouds 24 1015 69 10000 5.1 80 02:46 01.04.2020
432 Clouds 23 1014 73 10000 6.7 40 01:53 01.04.2020
433 Clouds 22 1014 78 10000 6.7 50 01:29 01.04.2020
434 Clouds 21 1014 83 10000 5.7 70 00:48 01.04.2020
435 Clouds 20 1014 88 10000 4.6 80 00:25 01.04.2020
436 Rain 20 1014 88 10000 5.1 30 23:59 31.03.2020
437 Clouds 21 1014 83 10000 2.6 110 23:41 31.03.2020
438 Clouds 21 1014 83 10000 2.6 110 23:22 31.03.2020
439 Clouds 21 1014 83 10000 10.3 200 22:41 31.03.2020
440 Clouds 21 1014 83 10000 3.1 180 22:22 31.03.2020
441 Clouds 21 1014 83 10000 3.1 180 21:58 31.03.2020
442 Clouds 21 1011 77 10000 5.7 30 21:40 31.03.2020
443 Clouds 21 1011 77 10000 5.7 30 21:21 31.03.2020
444 Clouds 21 1011 77 10000 5.1 50 20:58 31.03.2020
445 Clouds 21 1011 77 10000 5.1 50 20:38 31.03.2020
446 Rain 21 1012 77 10000 3.6 110 20:19 31.03.2020
447 Rain 21 1012 77 10000 3.6 110 19:57 31.03.2020
448 Clouds 22 1012 73 10000 4.1 40 19:38 31.03.2020
449 Clouds 21 1012 77 10000 5.1 60 19:19 31.03.2020
450 Clouds 22 1013 73 10000 4.1 30 18:44 31.03.2020
451 Clouds 21 1013 77 10000 5.7 30 18:21 31.03.2020
452 Rain 21 1013 77 10000 5.7 30 17:58 31.03.2020
453 Clouds 20 1014 82 10000 7.7 30 17:39 31.03.2020
454 Clouds 20 1014 82 10000 7.7 30 17:21 31.03.2020
455 Rain 20 1014 88 10000 9.8 20 16:56 31.03.2020
456 Rain 19 1015 93 10000 9.3 50 16:37 31.03.2020
457 Rain 19 1015 93 10000 9.3 50 16:18 31.03.2020
458 Rain 19 1017 93 10000 4.6 60 15:56 31.03.2020
459 Rain 20 1018 88 10000 3.6 120 15:37 31.03.2020
460 Rain 20 1018 88 10000 3.6 120 15:37 31.03.2020
461 Rain 20 1018 88 10000 3.6 120 15:18 31.03.2020
462 Rain 20 1018 88 10000 5.7 180 14:42 31.03.2020
463 Rain 20 1018 88 10000 4.6 200 14:23 31.03.2020
464 Rain 20 1018 88 10000 5.1 180 13:59 31.03.2020
465 Rain 20 1018 88 10000 5.1 180 13:40 31.03.2020
466 Rain 21 1018 83 10000 6.2 180 13:19 31.03.2020
467 Rain 22 1017 78 10000 5.1 180 12:46 31.03.2020
468 Rain 23 1017 69 10000 5.1 200 12:20 31.03.2020
469 Clouds 23 1017 69 10000 5.1 190 11:58 31.03.2020
470 Rain 24 1016 60 10000 6.7 200 11:38 31.03.2020
471 Rain 24 1016 60 10000 6.7 200 11:19 31.03.2020
472 Clouds 25 1016 53 10000 3.6 210 10:55 31.03.2020
473 Clouds 25 1016 53 10000 3.6 210 10:55 31.03.2020
474 Rain 29 1014 37 10000 2.6 210 10:37 31.03.2020
475 Rain 29 1014 37 10000 2.6 210 10:18 31.03.2020
476 Rain 29 1013 35 10000 3.6 230 09:43 31.03.2020
477 Clouds 30 1012 33 10000 5.1 230 09:25 31.03.2020
478 Clouds 32 1013 25 10000 5.1 290 08:58 31.03.2020
479 Clouds 32 1013 25 10000 5.1 290 08:40 31.03.2020
480 Clouds 32 1011 25 10000 5.1 190 08:20 31.03.2020
481 Clouds 32 1011 25 10000 5.1 190 08:20 31.03.2020
482 Clouds 33 1011 24 10000 4.1 230 07:57 31.03.2020
483 Clouds 33 1012 24 10000 2.6 250 07:38 31.03.2020
484 Clouds 33 1012 24 10000 2.6 250 07:20 31.03.2020
485 Clouds 33 1012 24 10000 3.1 350 06:51 31.03.2020
486 Clouds 32 1012 25 10000 4.1 10 06:30 31.03.2020
487 Clear 30 1014 28 10000 3.6 80 05:40 31.03.2020
488 Clouds 26 1016 34 10000 6.2 70 03:43 31.03.2020
489 Clouds 24 1017 41 10000 5.7 100 02:25 31.03.2020
490 Clouds 23 1017 43 10000 3.6 110 01:46 31.03.2020
491 Clouds 22 1017 46 10000 2.6 150 00:52 31.03.2020
492 Clouds 21 1017 49 10000 3.6 220 00:25 31.03.2020
493 Clear 21 1016 49 10000 0.5 310 23:59 30.03.2020
494 Clear 20 1016 52 10000 3.76 120 23:38 30.03.2020
495 Clear 20 1016 52 10000 3.76 120 23:18 30.03.2020
496 Clear 19 1015 55 10000 3.76 120 22:56 30.03.2020
497 Clear 19 1015 52 10000 3.76 120 22:37 30.03.2020
498 Clear 19 1015 52 10000 3.76 120 22:18 30.03.2020
499 Clear 19 1015 52 10000 0.5 330 21:55 30.03.2020
500 Clear 20 1015 52 10000 1.5 280 21:36 30.03.2020
501 Clouds 20 1015 52 10000 1.5 280 21:18 30.03.2020
502 Clouds 20 1014 49 10000 1.5 180 20:42 30.03.2020
503 Clouds 20 1014 49 10000 1.5 180 20:24 30.03.2020
504 Clouds 20 1014 49 10000 1.5 180 20:24 30.03.2020
505 Clouds 20 1014 49 10000 4.47 105 19:59 30.03.2020
506 Clouds 20 1014 49 10000 2.6 150 19:40 30.03.2020
507 Clouds 20 1014 49 10000 2.6 150 19:21 30.03.2020
508 Clouds 21 1014 46 10000 2.6 130 18:57 30.03.2020
509 Clouds 22 1014 43 10000 2.6 120 18:38 30.03.2020
510 Clouds 22 1014 43 10000 2.6 120 18:20 30.03.2020
511 Clouds 23 1014 40 10000 3.1 130 17:56 30.03.2020
512 Clouds 23 1015 40 10000 3.6 160 17:37 30.03.2020
513 Clouds 23 1015 40 10000 3.6 160 17:37 30.03.2020
514 Clouds 23 1015 40 10000 3.6 160 17:18 30.03.2020
515 Clouds 23 1014 40 10000 2.1 110 16:54 30.03.2020
516 Clouds 25 1014 36 10000 3.1 110 16:36 30.03.2020
517 Clouds 25 1014 36 10000 3.1 110 16:36 30.03.2020
518 Clouds 25 1014 36 10000 3.1 110 16:18 30.03.2020
519 Clouds 26 1015 34 10000 4.6 110 15:41 30.03.2020
520 Clouds 26 1015 34 10000 4.6 110 15:22 30.03.2020
521 Clouds 27 1015 30 10000 4.1 130 14:59 30.03.2020
522 Clouds 28 1015 28 10000 3.6 100 14:38 30.03.2020
523 Clouds 28 1015 28 10000 3.6 100 14:19 30.03.2020
524 Clouds 28 1015 26 10000 4.6 90 13:58 30.03.2020
525 Clouds 28 1015 26 10000 4.6 90 13:58 30.03.2020
526 Clouds 28 1015 26 10000 4.6 90 13:39 30.03.2020
527 Clouds 29 1014 26 10000 5.1 100 13:20 30.03.2020
528 Clouds 29 1014 25 10000 4.6 110 12:45 30.03.2020
529 Clouds 30 1014 23 10000 4.1 120 12:22 30.03.2020
530 Clouds 30 1014 23 10000 4.6 110 11:59 30.03.2020
531 Clouds 31 1014 20 10000 4.6 120 11:41 30.03.2020
532 Clouds 31 1014 20 10000 4.6 120 11:22 30.03.2020
533 Clouds 32 1014 19 10000 4.6 120 10:57 30.03.2020
534 Clouds 33 1013 18 10000 5.1 120 10:37 30.03.2020
535 Clouds 33 1013 18 10000 5.1 120 10:19 30.03.2020
536 Clouds 33 1013 18 10000 4.1 130 09:40 30.03.2020
537 Clouds 33 1013 18 10000 4.6 150 09:40 30.03.2020
538 Clouds 33 1013 18 10000 4.1 130 09:20 30.03.2020
539 Clouds 33 1013 19 10000 4.6 110 08:57 30.03.2020
540 Clouds 34 1013 18 10000 5.7 110 08:38 30.03.2020
541 Clouds 34 1013 18 10000 5.7 110 08:19 30.03.2020
542 Clouds 33 1013 19 10000 3.6 110 07:43 30.03.2020
543 Clouds 33 1013 18 10000 2.6 100 07:21 30.03.2020
544 Clouds 32 1014 21 10000 4.1 150 06:43 30.03.2020
545 Clouds 32 1014 21 10000 4.1 150 06:25 30.03.2020
546 Clouds 31 1015 22 10000 3.1 130 05:43 30.03.2020
547 Clouds 30 1016 23 10000 4.1 110 04:29 30.03.2020
548 Clouds 29 1016 25 10000 4.6 140 03:57 30.03.2020
549 Clouds 29 1016 25 10000 4.1 120 02:45 30.03.2020
550 Clouds 28 1016 26 10000 4.6 130 01:57 30.03.2020
551 Clouds 24 1015 33 10000 0.5 140 00:59 30.03.2020
552 Clouds 22 1015 37 10000 2.1 200 00:28 30.03.2020
553 Clouds 22 1014 35 10000 3.18 162 23:56 29.03.2020
554 Clouds 23 1014 33 10000 2.6 350 23:37 29.03.2020
555 Clouds 23 1014 33 10000 2.6 350 23:18 29.03.2020
556 Clouds 23 1014 33 10000 0.5 40 22:40 29.03.2020
557 Clouds 25 1013 29 10000 3.1 150 22:20 29.03.2020
558 Clouds 24 1013 31 10000 3.6 160 21:59 29.03.2020
559 Clouds 23 1012 33 10000 3.18 162 21:38 29.03.2020
560 Clouds 23 1012 33 10000 2.85 21 21:20 29.03.2020
561 Clouds 23 1012 33 10000 2.1 270 20:55 29.03.2020
562 Clouds 23 1012 33 10000 2.1 270 20:55 29.03.2020
563 Clouds 23 1012 33 10000 2.6 300 20:37 29.03.2020
564 Clouds 23 1012 33 10000 2.6 300 20:18 29.03.2020
565 Clouds 22 1012 35 10000 0.5 260 19:56 29.03.2020
566 Clouds 23 1012 33 10000 3.34 11 19:38 29.03.2020
567 Clouds 23 1012 33 10000 3.34 11 19:19 29.03.2020
568 Clouds 25 1012 29 10000 2.1 50 18:55 29.03.2020
569 Clouds 25 1012 29 10000 2.1 50 18:55 29.03.2020
570 Clouds 25 1012 29 10000 2.1 50 18:37 29.03.2020
571 Clouds 25 1012 29 10000 2.1 40 18:18 29.03.2020
572 Clouds 25 1012 29 10000 2.1 40 17:55 29.03.2020
573 Clouds 25 1012 27 10000 1 30 17:36 29.03.2020
574 Clouds 25 1012 27 10000 1 30 17:18 29.03.2020
575 Clouds 25 1012 27 10000 1 30 17:18 29.03.2020
576 Clouds 26 1013 26 10000 1.5 90 16:55 29.03.2020
577 Clouds 27 1013 26 10000 1 30 16:36 29.03.2020
578 Clouds 27 1013 26 10000 1 30 16:36 29.03.2020
579 Clouds 27 1013 26 10000 1 30 16:36 29.03.2020
580 Clouds 27 1013 26 10000 1 30 16:36 29.03.2020
581 Clouds 27 1013 26 10000 1 30 16:36 29.03.2020
582 Clouds 27 1013 26 10000 1 30 16:18 29.03.2020
583 Clouds 28 1013 23 10000 3.1 70 15:40 29.03.2020
584 Clouds 28 1013 23 10000 3.1 70 15:21 29.03.2020
585 Clouds 30 1013 20 10000 3.6 80 14:57 29.03.2020
586 Clouds 31 1013 18 10000 4.6 70 14:38 29.03.2020
587 Clear 31 1013 19 10000 4.1 70 14:19 29.03.2020
588 Clear 31 1013 19 10000 4.1 70 13:55 29.03.2020
589 Clear 31 1012 18 10000 4.1 80 13:37 29.03.2020
590 Clear 31 1012 18 10000 4.1 80 13:19 29.03.2020
591 Clear 33 1012 18 10000 3.1 130 12:54 29.03.2020
592 Clear 33 1012 18 10000 3.1 130 12:54 29.03.2020
593 Clear 33 1012 18 10000 3.1 130 12:36 29.03.2020
594 Clear 34 1011 16 10000 3.1 130 12:18 29.03.2020
595 Clear 35 1011 15 10000 3.1 130 11:39 29.03.2020
596 Clear 35 1011 15 10000 3.1 130 11:21 29.03.2020
597 Clear 36 1011 14 10000 5.7 200 10:40 29.03.2020
598 Clear 36 1011 14 10000 5.7 200 10:21 29.03.2020
599 Clear 37 1011 13 10000 3.1 170 09:59 29.03.2020
600 Clouds 38 1010 13 10000 4.6 210 09:38 29.03.2020
601 Clouds 38 1010 13 10000 4.6 210 09:19 29.03.2020
602 Clouds 37 1010 13 10000 8.2 220 08:48 29.03.2020
603 Clouds 37 1010 13 10000 4.1 170 08:27 29.03.2020
604 Clouds 37 1011 13 10000 2.1 40 07:56 29.03.2020
605 Clouds 37 1011 13 10000 2.6 140 07:37 29.03.2020
606 Clouds 37 1011 13 10000 4.1 210 07:19 29.03.2020
607 Clear 35 1013 13 10000 3.1 10 04:58 29.03.2020
608 Clear 33 1014 15 10000 3.6 350 03:42 29.03.2020
609 Clear 33 1014 16 10000 4.6 330 03:23 29.03.2020
610 Clear 32 1015 17 10000 4.6 320 01:50 29.03.2020
611 Clear 31 1015 19 10000 5.1 340 01:23 29.03.2020
612 Clear 30 1015 20 10000 4.6 330 00:53 29.03.2020
613 Clear 28 1014 24 10000 5.7 350 00:29 29.03.2020
614 Clear 26 1014 27 10000 4.1 350 23:41 28.03.2020
615 Clear 26 1014 27 10000 4.1 350 23:41 28.03.2020
616 Clear 26 1014 27 10000 4.1 350 23:23 28.03.2020
617 Clear 25 1013 29 10000 3.6 330 22:56 28.03.2020
618 Clear 25 1013 29 10000 4.1 340 22:37 28.03.2020
619 Clear 25 1013 29 10000 4.1 340 22:18 28.03.2020
620 Clear 24 1013 31 10000 4.6 350 21:41 28.03.2020
621 Clear 24 1013 31 10000 4.6 350 21:23 28.03.2020
622 Clear 25 1012 29 10000 4.1 330 20:58 28.03.2020
623 Clear 24 1012 31 10000 2.6 350 20:39 28.03.2020
624 Clear 24 1012 31 10000 2.6 350 20:20 28.03.2020
625 Clear 24 1012 31 10000 3.1 340 19:56 28.03.2020
626 Clear 24 1012 31 10000 3.1 360 19:36 28.03.2020
627 Clear 24 1012 31 10000 3.6 10 19:18 28.03.2020
628 Clear 23 1012 33 10000 3.1 30 18:42 28.03.2020
629 Clear 23 1012 33 10000 3.1 30 18:22 28.03.2020
630 Clear 24 1012 31 10000 2.1 30 17:56 28.03.2020
631 Clear 22 1013 35 10000 3.71 15 17:36 28.03.2020
632 Clear 23 1013 33 10000 2.6 50 17:18 28.03.2020
633 Clear 24 1013 31 10000 2.6 60 16:40 28.03.2020
634 Clear 24 1013 31 10000 2.6 60 16:20 28.03.2020
635 Clear 24 1013 31 10000 3.1 70 15:55 28.03.2020
636 Clear 26 1014 27 10000 4.1 70 15:37 28.03.2020
637 Clear 26 1014 27 10000 4.1 70 15:18 28.03.2020
638 Clear 26 1014 27 10000 3.6 70 14:41 28.03.2020
639 Clear 27 1014 26 10000 4.6 80 14:22 28.03.2020
640 Clear 28 1014 24 10000 4.1 70 13:44 28.03.2020
641 Clear 28 1014 24 10000 4.1 70 13:25 28.03.2020
642 Clear 28 1014 23 10000 3.6 70 12:57 28.03.2020
643 Clear 29 1014 23 10000 3.6 80 12:37 28.03.2020
644 Clear 29 1014 23 10000 3.6 80 12:18 28.03.2020
645 Clear 30 1013 20 10000 4.1 90 11:42 28.03.2020
646 Clear 31 1013 19 10000 4.1 110 11:21 28.03.2020
647 Clear 33 1012 17 10000 4.6 110 10:40 28.03.2020
648 Clear 33 1012 17 10000 4.6 110 10:22 28.03.2020
649 Clear 33 1012 18 10000 3.6 150 09:56 28.03.2020
650 Clear 34 1012 16 10000 4.1 160 09:37 28.03.2020
651 Clear 34 1012 16 10000 4.1 160 09:19 28.03.2020
652 Clear 34 1012 17 10000 4.1 140 08:42 28.03.2020
653 Clear 35 1012 16 10000 4.1 130 08:22 28.03.2020
654 Clear 34 1012 16 10000 2.6 150 07:46 28.03.2020
655 Clear 34 1013 16 10000 3.6 120 07:28 28.03.2020
656 Clear 34 1014 15 10000 3.1 50 06:37 28.03.2020
657 Clear 33 1014 16 10000 2.6 50 06:18 28.03.2020
658 Clear 33 1015 15 10000 2.6 170 05:21 28.03.2020
659 Clouds 32 1016 17 10000 3.6 60 04:42 28.03.2020
660 Clouds 31 1016 16 10000 3.1 90 03:55 28.03.2020
661 Clouds 29 1017 17 10000 3.1 80 02:26 28.03.2020
662 Clear 28 1017 20 10000 3.1 60 01:43 28.03.2020
663 Clear 27 1018 21 10000 3.6 60 01:18 28.03.2020
664 Clear 26 1018 24 10000 2.6 10 00:45 28.03.2020
665 Clear 21 1017 35 10000 3.04 59 23:59 27.03.2020
666 Clear 19 1017 39 10000 1.5 250 23:41 27.03.2020
667 Clear 19 1017 39 10000 1.5 250 23:41 27.03.2020
668 Clear 19 1017 39 10000 1.5 250 23:21 27.03.2020
669 Clear 17 1016 48 10000 1.5 230 22:56 27.03.2020
670 Clear 17 1016 48 10000 0.5 350 22:38 27.03.2020
671 Clear 17 1016 48 10000 0.5 350 22:20 27.03.2020
672 Clear 17 1016 45 10000 3.32 60 21:45 27.03.2020
673 Clear 17 1016 45 10000 0.5 40 21:25 27.03.2020
674 Clear 18 1016 42 10000 2.6 70 20:59 27.03.2020
675 Clear 19 1016 37 10000 2.6 70 20:41 27.03.2020
676 Clear 19 1016 37 10000 2.6 70 20:21 27.03.2020
677 Clear 19 1016 37 10000 2.6 60 19:58 27.03.2020
678 Clear 20 1016 34 10000 3.1 90 19:40 27.03.2020
679 Clear 20 1016 34 10000 3.1 90 19:20 27.03.2020
680 Clear 21 1016 32 10000 3.1 90 18:44 27.03.2020
681 Clear 21 1016 32 10000 3.1 90 18:25 27.03.2020
682 Clear 22 1017 30 10000 3.1 90 17:59 27.03.2020
683 Clear 22 1017 33 10000 3.1 100 17:39 27.03.2020
684 Clear 22 1017 33 10000 2.6 60 17:20 27.03.2020
685 Clear 22 1017 33 10000 3.1 80 16:44 27.03.2020
686 Clear 22 1017 33 10000 3.1 80 16:25 27.03.2020
687 Clear 23 1017 31 10000 3.1 70 15:56 27.03.2020
688 Clear 23 1017 33 10000 3.6 80 15:38 27.03.2020
689 Clear 23 1017 33 10000 3.6 80 15:19 27.03.2020
690 Clear 24 1018 31 10000 3.1 80 14:43 27.03.2020
691 Clear 25 1018 29 10000 3.6 90 14:24 27.03.2020
692 Clear 26 1018 27 10000 4.1 100 13:55 27.03.2020
693 Clear 27 1018 28 10000 4.6 110 13:37 27.03.2020
694 Clear 27 1018 28 10000 4.6 110 13:18 27.03.2020
695 Clear 28 1017 26 10000 5.7 100 12:43 27.03.2020
696 Clear 28 1017 26 10000 5.7 100 12:19 27.03.2020
697 Clear 29 1016 25 10000 6.2 110 11:55 27.03.2020
698 Clear 29 1016 25 10000 6.2 110 11:36 27.03.2020
699 Clear 30 1016 23 10000 4.6 120 11:18 27.03.2020
700 Clear 30 1015 23 10000 6.2 120 10:42 27.03.2020
701 Clear 30 1015 23 10000 6.2 120 10:22 27.03.2020
702 Clouds 31 1015 23 10000 6.2 130 09:59 27.03.2020
703 Clouds 32 1015 22 10000 5.1 140 09:40 27.03.2020
704 Clouds 32 1015 22 10000 5.1 140 09:22 27.03.2020
705 Clouds 32 1015 22 10000 5.1 130 08:59 27.03.2020
706 Clouds 32 1015 22 10000 5.1 130 08:59 27.03.2020
707 Clear 33 1015 21 10000 5.7 150 08:40 27.03.2020
708 Clear 33 1015 21 10000 5.7 150 08:21 27.03.2020
709 Clear 32 1015 22 10000 5.7 130 07:55 27.03.2020
710 Clear 32 1015 22 10000 4.6 120 07:37 27.03.2020
711 Clear 32 1015 22 10000 4.6 120 07:19 27.03.2020
712 Clear 33 1016 21 10000 6.2 110 06:38 27.03.2020
713 Clear 32 1016 22 10000 5.1 100 05:44 27.03.2020
714 Clear 29 1019 28 10000 5.1 90 02:52 27.03.2020
715 Clear 27 1019 32 10000 6.7 90 01:55 27.03.2020
716 Clear 25 1019 36 10000 7.2 80 00:58 27.03.2020
717 Clear 24 1019 38 10000 4.6 90 00:37 27.03.2020
718 Clear 23 1019 40 10000 4.6 100 00:18 27.03.2020
719 Clear 23 1019 40 10000 4.6 100 00:18 27.03.2020
720 Clear 22 1019 43 10000 3.1 90 23:36 26.03.2020
721 Clear 20 1019 45 10000 2.6 40 23:18 26.03.2020
722 Clear 20 1019 45 10000 2.6 40 22:54 26.03.2020
723 Clear 19 1018 48 10000 2.1 70 22:36 26.03.2020
724 Clear 19 1018 48 10000 2.1 70 22:18 26.03.2020
725 Clear 21 1018 43 10000 3.1 120 21:39 26.03.2020
726 Clear 21 1018 43 10000 3.1 120 21:21 26.03.2020
727 Clear 21 1018 43 10000 3.1 100 20:58 26.03.2020
728 Clear 21 1017 43 10000 4.1 110 20:39 26.03.2020
729 Clear 21 1017 43 10000 4.1 110 20:20 26.03.2020
730 Clear 21 1017 43 10000 3.1 90 19:57 26.03.2020
731 Clear 21 1017 46 10000 2.1 80 19:39 26.03.2020
732 Clear 21 1017 46 10000 2.1 80 19:20 26.03.2020
733 Clear 21 1018 46 10000 3.1 50 18:57 26.03.2020
734 Clear 21 1018 49 10000 2.6 50 18:39 26.03.2020
735 Clear 21 1018 49 10000 2.6 50 18:21 26.03.2020
736 Clear 22 1018 46 10000 2.6 70 17:43 26.03.2020
737 Clear 22 1018 46 10000 2.6 80 17:19 26.03.2020
738 Clear 23 1018 43 10000 2.6 80 16:46 26.03.2020
739 Clear 23 1018 43 10000 2.6 80 16:28 26.03.2020
740 Clear 24 1019 41 10000 3.1 80 15:59 26.03.2020
741 Clear 24 1019 41 10000 3.6 100 15:41 26.03.2020
742 Clear 24 1019 41 10000 3.6 100 15:22 26.03.2020
743 Clear 25 1019 36 10000 3.6 90 14:58 26.03.2020
744 Clear 26 1019 36 10000 4.1 110 14:39 26.03.2020
745 Clear 26 1019 36 10000 4.1 110 14:19 26.03.2020
746 Clear 26 1019 36 10000 4.6 110 13:43 26.03.2020
747 Clear 27 1018 34 10000 4.6 120 13:23 26.03.2020
748 Clear 27 1018 34 10000 4.6 120 12:57 26.03.2020
749 Clear 27 1018 34 10000 4.6 110 12:38 26.03.2020
750 Clear 28 1018 32 10000 4.6 110 12:19 26.03.2020
751 Clear 28 1017 32 10000 4.6 110 11:45 26.03.2020
752 Clear 28 1017 32 10000 4.6 110 11:21 26.03.2020
753 Clear 29 1017 30 10000 4.6 110 10:56 26.03.2020
754 Clear 30 1017 28 10000 5.1 100 10:37 26.03.2020
755 Clear 30 1017 28 10000 5.1 100 10:18 26.03.2020
756 Clear 31 1017 29 10000 4.6 100 09:43 26.03.2020
757 Clear 31 1016 27 10000 4.6 90 09:19 26.03.2020
758 Clear 31 1016 27 10000 4.6 90 09:19 26.03.2020
759 Clouds 31 1016 27 10000 4.6 50 08:54 26.03.2020
760 Clouds 31 1016 27 10000 4.6 70 08:36 26.03.2020
761 Clouds 31 1016 27 10000 4.6 70 08:18 26.03.2020
762 Clouds 31 1017 27 10000 4.6 50 07:41 26.03.2020
763 -273 0 0 0 0 0 07:20 26.03.2020
764 Clear 32 1017 25 10000 6.2 90 06:47 26.03.2020
765 Clouds 30 1018 30 10000 5.1 80 05:52 26.03.2020
766 Clear 29 1019 30 10000 6.2 100 03:58 26.03.2020
767 Clear 28 1020 32 10000 6.2 80 03:35 26.03.2020
768 Clear 28 1020 32 10000 6.7 100 02:53 26.03.2020
769 Clear 26 1020 31 10000 6.2 120 01:44 26.03.2020
770 Clear 24 1020 38 10000 5.1 120 00:43 26.03.2020
771 Clear 21 1020 52 10000 2.6 140 23:45 25.03.2020
772 Clear 21 1020 52 10000 2.6 140 23:27 25.03.2020
773 Clear 18 1019 63 10000 1.5 140 22:57 25.03.2020
774 Clear 18 1019 63 10000 1.5 130 22:38 25.03.2020
775 Clear 18 1019 63 10000 1.5 130 22:19 25.03.2020
776 Clear 19 1019 59 10000 2.1 110 21:54 25.03.2020
777 Clear 20 1018 56 10000 5.75 107 21:36 25.03.2020
778 Clear 20 1018 56 10000 5.75 107 21:18 25.03.2020
779 Clear 21 1018 52 10000 1.5 100 20:39 25.03.2020
780 Clear 21 1018 52 10000 1.5 100 20:20 25.03.2020
781 Clear 22 1018 49 10000 3.6 120 19:57 25.03.2020
782 Clear 22 1018 49 10000 4.1 80 19:38 25.03.2020
783 Clear 22 1018 49 10000 4.1 80 19:20 25.03.2020
784 Clear 22 1018 49 10000 4.1 80 18:54 25.03.2020
785 Clear 23 1019 46 10000 4.6 80 18:36 25.03.2020
786 Clear 24 1019 41 10000 4.6 90 18:18 25.03.2020
787 Clear 24 1019 41 10000 4.1 90 17:41 25.03.2020
788 Clear 24 1019 41 10000 4.6 90 17:22 25.03.2020
789 Clear 24 1019 41 10000 4.6 90 16:58 25.03.2020
790 Clear 24 1020 41 10000 3.1 100 16:39 25.03.2020
791 Clear 24 1020 41 10000 3.1 100 16:20 25.03.2020
792 Clear 25 1019 36 10000 4.6 100 15:43 25.03.2020
793 Clear 25 1019 36 10000 4.6 100 15:21 25.03.2020
794 Clear 25 1019 36 10000 4.6 100 14:57 25.03.2020
795 Clear 25 1019 36 10000 4.6 100 14:57 25.03.2020
796 Clear 26 1019 34 10000 4.1 100 14:39 25.03.2020
797 Clear 26 1019 34 10000 4.1 100 14:39 25.03.2020
798 Clear 26 1019 34 10000 4.1 100 14:39 25.03.2020
799 Clear 26 1019 34 10000 4.1 100 14:19 25.03.2020
800 Clear 26 1019 34 10000 3.6 100 13:44 25.03.2020
801 Clear 26 1019 34 10000 4.1 110 13:24 25.03.2020
802 Clear 26 1019 34 10000 4.1 110 13:24 25.03.2020
803 Clear 27 1018 32 10000 4.6 120 12:39 25.03.2020
804 Clear 27 1018 32 10000 4.6 120 12:21 25.03.2020
805 Clear 28 1018 30 10000 4.6 130 11:57 25.03.2020
806 Clear 29 1017 28 10000 6.2 120 11:39 25.03.2020
807 Clear 29 1017 28 10000 6.2 120 11:21 25.03.2020
808 Clear 29 1017 28 10000 6.2 120 11:21 25.03.2020
809 Clear 29 1017 28 10000 6.2 120 10:58 25.03.2020
810 Clear 30 1017 27 10000 6.7 120 10:39 25.03.2020
811 Clear 30 1017 27 10000 6.7 120 10:39 25.03.2020
812 Clear 30 1017 27 10000 6.7 120 10:39 25.03.2020
813 Clear 30 1017 27 10000 6.7 120 10:18 25.03.2020
814 Clear 31 1016 25 10000 6.2 130 09:43 25.03.2020
815 Clear 31 1016 25 10000 6.7 100 09:25 25.03.2020
816 Clear 31 1016 25 10000 6.7 100 09:25 25.03.2020
817 Clear 32 1016 24 10000 5.7 90 08:58 25.03.2020
818 Clear 32 1016 24 10000 5.7 90 08:58 25.03.2020
819 Clear 32 1016 24 10000 5.7 90 08:40 25.03.2020
820 Clear 31 1016 25 10000 4.1 80 08:20 25.03.2020
821 Clear 32 1016 24 10000 5.7 80 07:55 25.03.2020
822 Clear 32 1016 24 10000 5.7 60 07:36 25.03.2020
823 Clear 32 1016 24 10000 5.7 60 07:18 25.03.2020
824 Clear 31 1016 25 10000 7.7 100 06:41 25.03.2020
825 Clear 31 1016 25 10000 7.7 100 06:22 25.03.2020
826 Clear 30 1017 27 10000 6.2 90 05:47 25.03.2020
827 Clear 29 1018 28 10000 6.7 100 04:42 25.03.2020
828 Clear 28 1019 30 10000 7.2 90 03:57 25.03.2020
829 Clear 28 1019 30 10000 7.2 70 03:30 25.03.2020
830 Clouds 25 1020 36 10000 7.2 90 01:40 25.03.2020
831 Clouds 24 1020 38 10000 6.7 100 00:50 25.03.2020
832 Clouds 23 1020 40 10000 8.2 100 00:27 25.03.2020
833 Clouds 22 1019 40 10000 5.7 100 23:55 24.03.2020
834 Clouds 20 1019 37 10000 3.6 90 23:28 24.03.2020
835 Clouds 20 1019 37 10000 3.6 90 22:58 24.03.2020
836 Clouds 21 1019 32 10000 2.6 110 22:38 24.03.2020
837 Clouds 21 1019 32 10000 2.6 110 22:38 24.03.2020
838 Clouds 21 1019 32 10000 2.6 110 22:20 24.03.2020
839 Clouds 21 1018 32 10000 4.1 100 21:58 24.03.2020
840 Clouds 22 1018 30 10000 4.6 100 21:40 24.03.2020
841 Clouds 22 1018 30 10000 4.6 100 21:18 24.03.2020
842 Clouds 22 1018 30 10000 4.6 100 21:18 24.03.2020
843 Clouds 22 1018 28 10000 6.7 100 20:58 24.03.2020
844 Clouds 22 1018 28 10000 7.2 100 20:39 24.03.2020
845 Clouds 22 1018 28 10000 7.2 100 20:21 24.03.2020
846 Clouds 22 1018 28 10000 7.2 110 19:46 24.03.2020
847 Clouds 23 1018 27 8000 5.1 120 19:20 24.03.2020
848 Clouds 23 1018 25 7000 7.2 110 18:56 24.03.2020
849 Clouds 23 1018 25 6000 6.2 110 18:38 24.03.2020
850 Clouds 23 1017 27 5000 6.2 120 18:19 24.03.2020
851 Clouds 23 1017 27 5000 6.2 120 17:56 24.03.2020
852 Clouds 23 1018 25 5000 6.7 120 17:37 24.03.2020
853 Clouds 24 1018 23 6000 6.2 140 17:19 24.03.2020
854 Clouds 24 1018 23 6000 6.2 140 16:54 24.03.2020
855 Clouds 25 1018 22 6000 5.7 140 16:36 24.03.2020
856 Clouds 25 1018 22 6000 5.7 140 16:36 24.03.2020
857 Clouds 25 1018 22 6000 5.7 140 16:18 24.03.2020
858 Clouds 26 1017 24 10000 7.7 120 15:42 24.03.2020
859 Clouds 27 1017 24 10000 8.7 110 15:23 24.03.2020
860 Clouds 28 1016 23 10000 8.7 120 14:44 24.03.2020
861 Clouds 28 1016 23 10000 8.7 120 14:22 24.03.2020
862 Clouds 29 1016 25 10000 8.2 120 13:58 24.03.2020
863 Clouds 30 1015 27 10000 4.6 110 13:40 24.03.2020
864 Clouds 30 1015 27 10000 4.6 110 13:21 24.03.2020
865 Clouds 31 1015 23 10000 5.1 110 12:42 24.03.2020
866 Clouds 31 1015 23 10000 5.1 110 12:23 24.03.2020
867 Clouds 32 1014 21 10000 4.6 120 11:41 24.03.2020
868 Clouds 32 1014 21 10000 4.6 120 11:21 24.03.2020
869 Clouds 33 1014 19 10000 5.1 130 10:59 24.03.2020
870 Clouds 33 1013 19 10000 6.2 130 10:40 24.03.2020
871 Clouds 33 1013 19 10000 6.2 130 10:40 24.03.2020
872 Clouds 33 1013 19 10000 6.2 130 10:18 24.03.2020
873 Clouds 33 1013 19 10000 6.2 130 10:18 24.03.2020
874 Clouds 34 1013 18 10000 4.6 130 09:44 24.03.2020
875 Clouds 35 1013 16 10000 5.7 140 09:25 24.03.2020
876 Clouds 35 1013 17 10000 6.7 110 08:57 24.03.2020
877 Clouds 35 1013 17 10000 4.6 90 08:37 24.03.2020
878 Clouds 35 1013 17 10000 4.6 90 08:18 24.03.2020
879 Clouds 36 1013 14 10000 3.6 130 07:44 24.03.2020
880 Clouds 36 1013 14 10000 3.6 80 07:22 24.03.2020
881 Clouds 36 1013 14 10000 3.6 80 07:22 24.03.2020
882 Clouds 36 1013 15 10000 3.6 60 06:38 24.03.2020
883 Clouds 35 1014 19 10000 3.6 90 05:42 24.03.2020
884 Clouds 34 1014 20 10000 5.1 80 04:51 24.03.2020
885 Clouds 33 1016 24 10000 5.1 110 03:21 24.03.2020
886 Clouds 31 1016 25 10000 4.6 110 02:37 24.03.2020
887 Clouds 28 1017 32 10000 5.7 70 00:54 24.03.2020
888 Clouds 27 1017 32 10000 4.6 100 00:27 24.03.2020
889 Clouds 25 1017 36 10000 3.6 130 23:55 23.03.2020
890 Clouds 21 1016 49 10000 1.5 160 23:37 23.03.2020
891 Clouds 19 1016 52 10000 1 160 23:19 23.03.2020
892 Clouds 19 1016 52 10000 2.1 80 22:43 23.03.2020
893 Clouds 19 1016 52 10000 2.1 80 22:22 23.03.2020
894 Clouds 20 1016 49 10000 4.1 170 21:55 23.03.2020
895 Clouds 20 1016 49 10000 2.6 120 21:37 23.03.2020
896 Clouds 20 1016 49 10000 2.6 120 21:18 23.03.2020
897 Clouds 20 1015 49 10000 2.6 90 20:42 23.03.2020
898 Clouds 21 1015 43 10000 2.6 130 20:24 23.03.2020
899 Clouds 23 1015 40 10000 2.6 80 19:55 23.03.2020
900 Clouds 23 1015 38 10000 3.6 60 19:37 23.03.2020
901 Clouds 23 1015 38 10000 3.1 90 19:19 23.03.2020
902 Clouds 24 1016 36 10000 3.1 80 18:43 23.03.2020
903 Clouds 24 1016 36 10000 3.1 80 18:24 23.03.2020
904 Clouds 24 1016 36 10000 3.1 80 17:59 23.03.2020
905 Clouds 23 1016 38 10000 3.1 70 17:40 23.03.2020
906 Clear 24 1016 33 10000 3.6 60 17:19 23.03.2020
907 Clear 24 1016 33 10000 3.1 50 16:43 23.03.2020
908 Clear 24 1016 33 10000 3.1 50 16:25 23.03.2020
909 Clear 24 1016 33 10000 3.1 50 16:25 23.03.2020
910 Clear 24 1016 36 10000 3.1 60 15:54 23.03.2020
911 Clear 25 1017 31 10000 2.6 50 15:36 23.03.2020
912 Clear 25 1017 31 10000 2.6 50 15:18 23.03.2020
913 Clear 25 1017 31 10000 2.6 50 15:18 23.03.2020
914 Clear 26 1017 31 10000 2.6 40 14:37 23.03.2020
915 Clouds 26 1017 31 10000 2.6 40 14:19 23.03.2020
916 Clouds 26 1017 31 10000 2.6 40 14:19 23.03.2020
917 Clouds 26 1017 29 10000 2.1 80 13:55 23.03.2020
918 Clouds 28 1017 26 10000 3.1 110 13:37 23.03.2020
919 Clouds 28 1017 26 10000 3.1 110 13:19 23.03.2020
920 Clouds 29 1017 25 10000 3.1 110 12:42 23.03.2020
921 Clouds 29 1017 25 10000 3.1 110 12:22 23.03.2020
922 Clouds 29 1017 25 10000 3.1 110 12:22 23.03.2020
923 Clouds 30 1016 23 10000 3.6 110 11:56 23.03.2020
924 Clouds 30 1016 22 10000 3.1 100 11:37 23.03.2020
925 Clouds 31 1015 20 10000 3.6 90 11:18 23.03.2020
926 Clouds 32 1015 19 10000 4.6 90 10:41 23.03.2020
927 Clouds 32 1015 19 10000 4.6 90 10:23 23.03.2020
928 Clouds 33 1015 18 10000 4.1 100 09:59 23.03.2020
929 Clouds 34 1015 17 10000 4.1 90 09:40 23.03.2020
930 Clouds 34 1015 17 10000 4.1 90 09:19 23.03.2020
931 Clouds 34 1015 17 10000 4.1 100 08:38 23.03.2020
932 Clear 34 1015 17 10000 4.1 100 08:19 23.03.2020
933 Clear 34 1015 17 10000 4.1 120 07:51 23.03.2020
934 Clear 34 1015 17 10000 6.7 90 07:32 23.03.2020
935 Clear 34 1015 17 10000 5.1 40 06:55 23.03.2020
936 Clear 34 1015 17 10000 5.1 40 06:33 23.03.2020
937 Clear 34 1016 20 10000 5.7 80 05:43 23.03.2020
938 Clear 32 1018 19 10000 7.2 110 03:54 23.03.2020
939 Clear 30 1020 20 10000 7.2 90 02:43 23.03.2020
940 Clouds 28 1020 23 10000 6.7 90 01:39 23.03.2020
941 Clouds 25 1020 27 10000 3.6 90 00:45 23.03.2020
942 Clouds 24 1020 31 10000 3.6 100 23:58 22.03.2020
943 Clouds 20 1020 45 10000 1 80 23:40 22.03.2020
944 Clouds 20 1020 45 10000 1 80 23:22 22.03.2020
945 Clear 18 1020 52 10000 1.5 80 22:40 22.03.2020
946 Clear 18 1020 52 10000 1.5 80 22:20 22.03.2020
947 Clear 20 1019 42 10000 5.12 117 21:40 22.03.2020
948 Clear 20 1019 42 10000 5.12 117 21:21 22.03.2020
949 Clear 19 1019 48 10000 1.5 340 20:58 22.03.2020
950 Clear 20 1018 45 10000 5.12 117 20:39 22.03.2020
951 Clear 20 1018 45 10000 4.83 123 20:21 22.03.2020
952 Clear 19 1018 48 10000 2.6 260 19:56 22.03.2020
953 Clear 20 1018 45 10000 5.14 109 19:37 22.03.2020
954 Clear 20 1018 45 10000 5.14 109 19:37 22.03.2020
955 Clear 20 1018 45 10000 5.14 109 19:19 22.03.2020
956 Clear 20 1018 45 10000 5.14 109 18:56 22.03.2020
957 Clear 20 1018 49 10000 2.1 220 18:38 22.03.2020
958 Clear 20 1018 49 10000 2.1 220 18:18 22.03.2020
959 Clear 21 1018 46 10000 5.14 109 17:56 22.03.2020
960 Clear 22 1018 40 10000 2.1 90 17:36 22.03.2020
961 Clear 22 1018 40 10000 2.1 90 17:36 22.03.2020
962 Clear 22 1018 40 10000 2.1 90 17:36 22.03.2020
963 Clear 22 1018 40 10000 2.1 90 17:18 22.03.2020
964 Clear 23 1018 38 10000 2.6 90 16:54 22.03.2020
965 Clear 25 1019 31 10000 2.1 90 16:36 22.03.2020
966 Clear 25 1019 31 10000 2.1 90 16:36 22.03.2020
967 Clear 25 1019 31 10000 2.1 90 16:18 22.03.2020
968 Clear 25 1019 31 10000 2.1 70 15:39 22.03.2020
969 Clear 26 1019 29 10000 2.1 40 14:48 22.03.2020
970 Clear 26 1019 29 10000 2.1 50 14:20 22.03.2020
971 Clear 27 1019 28 10000 2.6 80 13:58 22.03.2020
972 Clear 27 1019 28 10000 2.6 80 13:58 22.03.2020
973 Clear 28 1019 26 10000 3.6 130 13:40 22.03.2020
974 Clear 28 1019 26 10000 3.6 130 13:19 22.03.2020
975 Clear 29 1018 25 10000 4.1 120 12:47 22.03.2020
976 Clear 30 1018 23 10000 4.1 120 12:23 22.03.2020
977 Clear 31 1018 20 10000 4.6 120 11:58 22.03.2020
978 Clear 31 1018 20 10000 5.1 110 11:39 22.03.2020
979 Clear 31 1018 20 10000 5.1 110 11:21 22.03.2020
980 Clear 33 1017 18 10000 7.2 110 10:44 22.03.2020
981 Clear 33 1017 18 10000 7.2 110 10:24 22.03.2020
982 Clear 33 1017 18 10000 7.2 110 10:24 22.03.2020
983 Clear 34 1017 17 10000 7.7 110 10:00 22.03.2020
984 Clear 34 1016 17 10000 8.2 100 09:40 22.03.2020
985 Clear 34 1016 17 10000 8.2 100 09:19 22.03.2020
986 Clear 35 1016 16 10000 7.2 120 08:42 22.03.2020
987 Clear 35 1016 15 10000 7.7 90 08:24 22.03.2020
988 Clear 35 1016 15 10000 7.7 120 07:50 22.03.2020
989 Clear 35 1016 16 10000 8.2 90 07:22 22.03.2020
990 Clear 35 1017 17 10000 7.7 70 05:57 22.03.2020
991 Clear 35 1018 16 10000 7.7 70 05:21 22.03.2020
992 Clear 32 1021 22 10000 5.1 100 02:58 22.03.2020
993 Clear 28 1021 24 10000 4.1 90 01:26 22.03.2020
994 Clear 26 1021 27 10000 4.6 130 00:41 22.03.2020
995 Clear 26 1021 27 10000 4.6 130 00:23 22.03.2020
996 Clear 22 1021 46 10000 1.5 260 23:42 21.03.2020
997 Clear 20 1020 49 10000 4.61 153 23:19 21.03.2020
998 Clear 20 1020 49 10000 4.61 153 22:39 21.03.2020
999 Clear 20 1020 49 10000 4.61 153 22:39 21.03.2020
1000 Clear 20 1020 49 10000 4.61 153 22:21 21.03.2020
1001 Clear 19 1020 55 10000 1.5 210 21:59 21.03.2020
1002 Clear 19 1020 55 10000 1.5 210 21:41 21.03.2020
1003 Clear 20 1019 49 10000 1 330 21:22 21.03.2020
1004 Clear 20 1019 49 10000 1 330 21:22 21.03.2020
1005 Clear 19 1019 52 10000 4.61 153 20:56 21.03.2020
1006 Clear 21 1019 46 10000 1.5 110 20:38 21.03.2020
1007 Clear 21 1019 46 10000 1.5 110 20:18 21.03.2020
1008 Clear 21 1019 46 10000 3.6 170 19:43 21.03.2020
1009 Clear 20 1018 49 10000 3.1 210 19:23 21.03.2020
1010 Clear 21 1018 46 10000 2.6 270 18:55 21.03.2020
1011 Clear 21 1018 46 10000 2.1 290 18:37 21.03.2020
1012 Clear 21 1018 46 10000 2.1 290 18:19 21.03.2020
1013 Clear 22 1018 43 10000 3.25 119 17:43 21.03.2020
1014 Clear 22 1018 43 10000 3.25 119 17:43 21.03.2020
1015 Clear 22 1018 43 10000 3.25 119 17:23 21.03.2020
1016 Clear 22 1019 43 10000 0.5 330 16:57 21.03.2020
1017 Clear 23 1019 40 10000 2.1 320 16:38 21.03.2020
1018 Clear 23 1019 40 10000 2.1 320 16:18 21.03.2020
1019 Clear 23 1019 40 10000 2.1 320 16:18 21.03.2020
1020 Clear 24 1019 36 10000 3.87 95 15:42 21.03.2020
1021 Clear 24 1019 36 10000 3.87 95 15:23 21.03.2020
1022 Clear 25 1019 31 10000 3.87 95 14:58 21.03.2020
1023 Clear 26 1019 29 10000 2.1 70 14:40 21.03.2020
1024 Clear 26 1019 29 10000 2.1 70 14:20 21.03.2020
1025 Clear 26 1019 29 10000 2.1 120 13:59 21.03.2020
1026 Clear 27 1019 28 10000 3.1 140 13:40 21.03.2020
1027 Clear 27 1019 28 10000 3.1 140 13:22 21.03.2020
1028 Clear 27 1019 28 10000 3.1 140 12:59 21.03.2020
1029 Clear 29 1018 23 10000 3.1 120 12:38 21.03.2020
1030 Clear 30 1018 22 10000 3.1 110 12:19 21.03.2020
1031 Clear 30 1018 22 10000 3.1 110 12:19 21.03.2020
1032 Clear 30 1018 22 10000 3.1 110 11:56 21.03.2020
1033 Clear 31 1018 20 10000 3.6 110 11:38 21.03.2020
1034 Clear 32 1017 19 10000 5.1 100 11:19 21.03.2020
1035 Clear 32 1017 19 10000 5.1 100 11:19 21.03.2020
1036 Clear 32 1017 19 10000 5.1 100 10:57 21.03.2020
1037 Clear 33 1017 18 10000 6.7 110 10:38 21.03.2020
1038 Clear 33 1017 18 10000 6.7 110 10:19 21.03.2020
1039 Clear 34 1017 17 10000 6.7 90 09:55 21.03.2020
1040 Clear 35 1017 15 10000 7.7 100 09:37 21.03.2020
1041 Clear 35 1017 15 10000 7.7 100 09:18 21.03.2020
1042 Clear 35 1016 15 10000 6.7 90 08:43 21.03.2020
1043 Clear 35 1016 14 10000 6.2 70 08:24 21.03.2020
1044 Clear 35 1016 14 10000 7.2 110 07:43 21.03.2020
1045 Clear 35 1016 15 10000 6.2 110 07:23 21.03.2020
1046 Clear 35 1017 15 10000 6.2 100 06:47 21.03.2020
1047 Clear 35 1017 15 10000 6.2 100 06:27 21.03.2020
1048 Clear 35 1018 14 10000 6.7 90 05:46 21.03.2020
1049 Clear 34 1018 15 10000 7.7 60 04:46 21.03.2020
1050 Clear 32 1020 19 10000 4.6 110 02:48 21.03.2020
1051 Clear 32 1021 19 10000 6.2 100 02:30 21.03.2020
1052 Clear 30 1021 22 10000 2.1 70 01:32 21.03.2020
1053 Clear 27 1021 28 10000 6.4 91 00:48 21.03.2020
1054 Clear 26 1020 29 10000 6.4 91 00:25 21.03.2020
1055 Clear 23 1020 35 10000 1.5 310 23:49 20.03.2020
1056 Clear 20 1020 45 10000 1.5 290 23:26 20.03.2020
1057 Clear 18 1020 48 10000 1.5 300 22:56 20.03.2020
1058 Clear 18 1020 52 10000 2.6 310 22:37 20.03.2020
1059 Clear 18 1020 52 10000 2.6 310 22:19 20.03.2020
1060 Clear 18 1019 52 10000 2.6 320 21:54 20.03.2020
1061 Clear 18 1019 48 10000 2.1 300 21:36 20.03.2020
1062 Clear 18 1019 48 10000 2.1 300 21:18 20.03.2020
1063 Clear 18 1019 48 10000 2.1 300 21:18 20.03.2020
1064 Clear 19 1019 45 10000 2.1 310 20:42 20.03.2020
1065 Clear 19 1019 45 10000 2.1 310 20:21 20.03.2020
1066 Clear 19 1019 48 10000 2.1 310 19:59 20.03.2020
1067 Clear 19 1018 45 10000 2.1 310 19:40 20.03.2020
1068 Clear 19 1018 45 10000 2.1 310 19:18 20.03.2020
1069 Clear 20 1019 42 10000 2.1 300 18:54 20.03.2020
1070 Clear 20 1019 42 10000 2.1 300 18:36 20.03.2020
1071 Clear 20 1019 42 10000 2.1 300 18:18 20.03.2020
1072 Clear 21 1019 37 10000 2.1 290 17:39 20.03.2020
1073 Clear 21 1019 40 10000 2.1 250 17:21 20.03.2020
1074 Clear 22 1019 35 10000 2.6 210 16:43 20.03.2020
1075 Clear 22 1019 35 10000 2.6 210 16:22 20.03.2020
1076 Clear 22 1019 37 10000 2.1 220 15:59 20.03.2020
1077 Clear 22 1019 37 10000 1.5 230 15:41 20.03.2020
1078 Clear 22 1019 37 10000 1.5 230 15:21 20.03.2020
1079 Clear 24 1020 31 10000 2.1 10 14:43 20.03.2020
1080 Clear 24 1020 31 10000 2.1 70 14:23 20.03.2020
1081 Clear 25 1020 29 10000 2.1 70 13:55 20.03.2020
1082 Clear 25 1020 29 10000 2.1 70 13:55 20.03.2020
1083 Clear 26 1020 26 10000 2.1 60 13:37 20.03.2020
1084 Clear 26 1020 26 10000 2.1 60 13:19 20.03.2020
1085 Clear 28 1019 23 10000 3.1 130 12:39 20.03.2020
1086 Clear 28 1019 23 10000 3.1 130 12:20 20.03.2020
1087 Clear 28 1019 23 10000 3.1 130 12:20 20.03.2020
1088 Clear 28 1019 23 10000 3.1 130 11:54 20.03.2020
1089 Clear 31 1019 18 10000 4.6 110 11:36 20.03.2020
1090 Clear 32 1018 17 10000 4.6 120 11:18 20.03.2020
1091 Clear 33 1018 15 10000 6.2 100 10:41 20.03.2020
1092 Clear 33 1018 15 10000 6.2 100 10:21 20.03.2020
1093 -273 0 0 0 0 0 10:21 20.03.2020
1094 Clear 34 1017 13 10000 7.2 110 09:55 20.03.2020
1095 Clear 34 1017 14 10000 6.7 120 09:37 20.03.2020
1096 Clear 34 1017 14 10000 6.7 120 09:18 20.03.2020
1097 Clear 35 1017 12 10000 7.2 90 08:41 20.03.2020
1098 Clear 35 1017 12 10000 7.2 90 08:22 20.03.2020
1099 Clear 35 1017 13 10000 7.7 100 07:48 20.03.2020
1100 Clear 35 1017 13 10000 7.7 100 07:26 20.03.2020
1101 Clear 35 1017 14 10000 7.7 80 06:51 20.03.2020
1102 Clear 36 1017 13 10000 5.7 100 06:32 20.03.2020
1103 Clear 34 1019 15 10000 6.2 110 04:51 20.03.2020
1104 Clear 33 1020 17 10000 7.7 110 03:20 20.03.2020
1105 Clouds 31 1021 20 10000 3.6 40 01:51 20.03.2020
1106 Clouds 28 1021 24 10000 3.1 60 00:46 20.03.2020
1107 Clouds 28 1021 24 10000 3.1 60 00:26 20.03.2020
1108 Clouds 20 1020 52 10000 2.6 70 23:45 19.03.2020
1109 Clouds 18 1020 59 10000 1.5 130 23:26 19.03.2020
1110 Clouds 20 1020 52 10000 2.6 70 23:26 19.03.2020
1111 Clouds 18 1020 59 10000 1.5 130 22:56 19.03.2020
1112 Clouds 17 1020 59 10000 3.96 52 22:38 19.03.2020
1113 Clouds 17 1020 59 10000 3.96 52 22:38 19.03.2020
1114 Clouds 17 1020 59 10000 3.96 52 22:18 19.03.2020
1115 Clouds 19 1019 52 10000 3.96 52 21:41 19.03.2020
1116 Clouds 19 1019 52 10000 3.96 52 21:20 19.03.2020
1117 Clouds 19 1019 52 10000 0.5 60 20:58 19.03.2020
1118 Clouds 19 1019 55 10000 3.96 52 20:39 19.03.2020
1119 Clouds 19 1019 55 10000 3.98 62 20:20 19.03.2020
1120 Clouds 21 1019 46 10000 2.1 350 19:55 19.03.2020
1121 Clouds 21 1019 46 10000 2.1 350 19:37 19.03.2020
1122 Clouds 20 1019 49 10000 1 350 19:18 19.03.2020
1123 Clouds 20 1019 49 10000 3.98 62 18:42 19.03.2020
1124 Clouds 20 1019 49 10000 3.98 62 18:22 19.03.2020
1125 Clouds 21 1019 43 10000 3.98 62 17:58 19.03.2020
1126 Clouds 21 1019 43 10000 3.98 62 17:39 19.03.2020
1127 Clear 22 1019 40 10000 4.55 69 17:19 19.03.2020
1128 Clear 23 1019 35 10000 2.1 50 16:43 19.03.2020
1129 Clear 23 1019 35 10000 2.1 50 16:23 19.03.2020
1130 Clear 24 1019 33 10000 2.6 70 15:45 19.03.2020
1131 Clear 24 1019 33 10000 2.6 80 15:26 19.03.2020
1132 Clear 25 1020 31 10000 3.1 80 14:55 19.03.2020
1133 Clear 25 1020 31 10000 3.1 110 14:37 19.03.2020
1134 Clear 25 1020 31 10000 3.1 110 14:18 19.03.2020
1135 Clear 27 1020 28 10000 3.6 80 13:39 19.03.2020
1136 Clear 27 1020 28 10000 3.6 80 13:19 19.03.2020
1137 Clear 28 1019 24 10000 3.1 80 12:44 19.03.2020
1138 Clear 28 1019 24 10000 3.1 80 12:24 19.03.2020
1139 Clear 28 1019 24 10000 3.1 80 11:59 19.03.2020
1140 Clear 31 1018 19 10000 5.1 100 11:41 19.03.2020
1141 Clear 33 1018 16 10000 4.1 110 11:23 19.03.2020
1142 Clear 34 1017 14 10000 5.1 90 10:44 19.03.2020
1143 Clear 34 1017 14 10000 5.1 90 10:22 19.03.2020
1144 Clear 35 1017 14 10000 5.1 100 09:59 19.03.2020
1145 Clear 35 1017 15 10000 4.1 100 09:40 19.03.2020
1146 Clear 35 1017 15 10000 4.1 100 09:22 19.03.2020
1147 Clear 35 1017 15 10000 4.1 90 08:47 19.03.2020
1148 Clear 36 1017 12 10000 4.1 100 08:23 19.03.2020
1149 Clear 36 1017 13 10000 2.6 100 07:49 19.03.2020
1150 Clear 35 1017 15 10000 5.1 70 07:31 19.03.2020
1151 Clear 35 1018 14 10000 2.6 130 06:55 19.03.2020
1152 Clear 35 1018 15 10000 5.7 70 06:18 19.03.2020
1153 Clear 34 1019 18 10000 5.1 60 05:23 19.03.2020
1154 Clear 34 1020 18 10000 3.6 120 04:41 19.03.2020
1155 Clear 33 1020 19 10000 3.6 70 03:39 19.03.2020
1156 Clear 31 1021 25 10000 3.6 40 01:45 19.03.2020
1157 Clear 26 1021 36 10000 2.6 80 00:38 19.03.2020
1158 Clear 23 1021 46 10000 7.13 32 23:58 18.03.2020
1159 Clear 21 1021 56 10000 7.13 32 23:39 18.03.2020
1160 Clear 19 1020 59 10000 5.5 44 23:18 18.03.2020
1161 Clear 19 1020 59 10000 2.1 260 22:42 18.03.2020
1162 Clear 19 1020 59 10000 2.1 260 22:22 18.03.2020
1163 Clear 19 1020 59 10000 2.1 260 21:55 18.03.2020
1164 Clear 19 1019 59 10000 1 310 21:37 18.03.2020
1165 Clear 19 1019 59 10000 1 310 21:18 18.03.2020
1166 Clear 19 1019 59 10000 5.5 44 20:54 18.03.2020
1167 Clear 20 1019 60 10000 5.5 44 20:36 18.03.2020
1168 Clear 20 1019 60 10000 4.22 68 20:18 18.03.2020
1169 Clear 21 1018 52 10000 4.22 68 19:40 18.03.2020
1170 Clear 21 1018 52 10000 4.22 68 19:21 18.03.2020
1171 Clear 21 1018 52 10000 1.5 350 18:56 18.03.2020
1172 Clear 22 1018 49 10000 4.22 68 18:37 18.03.2020
1173 Clear 22 1018 49 10000 4.22 68 18:18 18.03.2020
1174 Clear 23 1019 43 10000 2.6 140 17:41 18.03.2020
1175 Clear 24 1019 41 10000 2.6 140 17:22 18.03.2020
1176 Clear 24 1019 41 10000 2.6 140 16:59 18.03.2020
1177 Clear 24 1019 41 10000 2.6 140 16:59 18.03.2020
1178 Clear 25 1019 36 10000 2.6 90 16:40 18.03.2020
1179 Clear 25 1019 36 10000 2.6 90 16:20 18.03.2020
1180 Clear 25 1019 36 10000 2.6 70 15:56 18.03.2020
1181 Clear 25 1019 36 10000 2.6 70 15:37 18.03.2020
1182 Clear 25 1019 36 10000 2.6 70 15:18 18.03.2020
1183 Clear 26 1019 31 10000 3.1 60 14:42 18.03.2020
1184 Clear 26 1019 31 10000 3.1 60 14:21 18.03.2020
1185 Clear 27 1019 32 10000 2.6 100 13:40 18.03.2020
1186 Clear 27 1019 32 10000 2.6 100 13:19 18.03.2020
1187 Clear 27 1019 32 10000 2.6 100 13:19 18.03.2020
1188 Clear 29 1018 26 10000 3.6 90 12:43 18.03.2020
1189 Clear 29 1018 26 10000 3.6 90 12:21 18.03.2020
1190 Clear 29 1018 26 10000 3.6 90 11:58 18.03.2020
1191 Clear 32 1017 22 10000 4.6 90 11:37 18.03.2020
1192 Clear 32 1017 21 10000 5.1 80 11:18 18.03.2020
1193 Clear 32 1017 21 10000 5.1 80 10:55 18.03.2020
1194 Clear 34 1017 18 10000 4.6 80 10:36 18.03.2020
1195 Clear 34 1017 18 10000 4.6 80 10:18 18.03.2020
1196 Clear 35 1016 17 10000 3.6 100 09:41 18.03.2020
1197 Clear 35 1016 17 10000 3.6 100 09:22 18.03.2020
1198 Clear 35 1016 16 10000 3.6 160 08:54 18.03.2020
1199 Clear 35 1016 17 10000 2.6 150 08:36 18.03.2020
1200 Clear 35 1016 17 10000 2.6 150 08:18 18.03.2020
1201 Clear 35 1016 17 10000 6.2 110 07:39 18.03.2020
1202 Clear 35 1016 16 10000 3.6 130 07:21 18.03.2020
1203 Clear 36 1017 18 10000 2.6 350 06:42 18.03.2020
1204 Clear 34 1017 20 10000 2.6 150 05:43 18.03.2020
1205 Clear 34 1018 21 10000 2.1 330 04:58 18.03.2020
1206 Clear 33 1019 21 10000 5.7 50 03:21 18.03.2020
1207 Clear 32 1020 25 10000 6.2 40 02:37 18.03.2020
1208 Clear 31 1020 25 10000 6.2 60 01:43 18.03.2020
1209 Clear 27 1020 32 10000 4.6 100 00:45 18.03.2020
1210 Clear 27 1020 32 10000 4.6 100 00:21 18.03.2020
1211 Clear 26 1020 36 10000 3.6 90 23:42 17.03.2020
1212 Clear 22 1020 49 10000 2.6 80 23:21 17.03.2020
1213 Clear 19 1019 63 10000 1.5 110 22:46 17.03.2020
1214 Clear 19 1019 63 10000 1.5 110 22:28 17.03.2020
1215 Clear 20 1019 56 10000 2.1 110 21:46 17.03.2020
1216 Clear 21 1019 49 10000 5.66 51 21:25 17.03.2020
1217 Clear 20 1018 56 10000 1.5 80 20:58 17.03.2020
1218 Clear 20 1018 56 10000 5.66 51 20:38 17.03.2020
1219 Clear 20 1018 56 10000 5.26 70 20:19 17.03.2020
1220 Clear 20 1018 56 10000 0.5 130 19:42 17.03.2020
1221 Clear 20 1018 56 10000 2.6 170 19:20 17.03.2020
1222 Clear 20 1018 56 10000 2.6 170 18:58 17.03.2020
1223 Clear 21 1018 52 10000 0.5 200 18:39 17.03.2020
1224 Clear 21 1018 52 10000 5.26 70 18:21 17.03.2020
1225 Clear 21 1018 52 10000 5.26 70 17:56 17.03.2020
1226 Clear 21 1018 52 10000 5.26 70 17:38 17.03.2020
1227 Clear 22 1018 49 10000 3.94 99 17:18 17.03.2020
1228 Clear 22 1018 49 10000 3.94 99 16:42 17.03.2020
1229 Clear 22 1018 49 10000 3.94 99 16:19 17.03.2020
1230 Clear 22 1018 49 10000 3.94 99 16:19 17.03.2020
1231 Clear 23 1019 40 10000 2.1 90 15:45 17.03.2020
1232 Clear 23 1019 40 10000 2.1 90 15:22 17.03.2020
1233 Clear 25 1019 33 10000 2.1 90 14:44 17.03.2020
1234 Clear 26 1019 31 10000 3.1 90 14:26 17.03.2020
1235 Clear 26 1019 31 10000 3.6 90 13:58 17.03.2020
1236 Clear 27 1018 30 10000 3.6 90 13:39 17.03.2020
1237 Clear 27 1018 30 10000 3.6 90 13:21 17.03.2020
1238 Clear 28 1018 28 10000 3.6 80 12:44 17.03.2020
1239 Clear 28 1018 28 10000 3.6 80 12:24 17.03.2020
1240 Clear 30 1017 23 10000 4.1 80 11:48 17.03.2020
1241 Clear 30 1017 23 10000 4.1 80 11:29 17.03.2020
1242 Clear 31 1017 22 10000 4.1 80 10:58 17.03.2020
1243 Clear 31 1017 22 10000 4.1 80 10:58 17.03.2020
1244 Clear 32 1017 19 10000 5.1 70 10:40 17.03.2020
1245 Clear 32 1017 19 10000 5.1 70 10:22 17.03.2020
1246 Clear 33 1016 19 10000 4.6 60 09:59 17.03.2020
1247 Clear 33 1016 18 10000 4.1 120 09:40 17.03.2020
1248 Clear 33 1016 18 10000 4.1 120 09:19 17.03.2020
1249 Clear 34 1016 18 10000 5.1 70 08:48 17.03.2020
1250 Clear 33 1016 18 10000 5.1 90 08:23 17.03.2020
1251 Clear 34 1016 17 10000 4.6 80 07:56 17.03.2020
1252 Clear 33 1016 18 10000 4.6 90 07:38 17.03.2020
1253 Clear 33 1016 18 10000 4.6 90 07:19 17.03.2020
1254 Clear 33 1016 18 10000 7.7 80 06:38 17.03.2020
1255 Clear 32 1017 19 10000 3.6 130 05:58 17.03.2020
1256 Clear 30 1019 22 10000 3.6 50 03:56 17.03.2020
1257 Clear 30 1020 25 10000 7.7 90 02:46 17.03.2020
1258 Clear 28 1020 26 10000 6.2 80 01:44 17.03.2020
1259 Clear 27 1021 26 10000 6.2 80 01:25 17.03.2020
1260 Clear 24 1020 27 10000 6.94 95 00:38 17.03.2020
1261 Clear 18 1020 42 10000 1.5 290 23:45 16.03.2020
1262 Clear 18 1020 42 10000 1.5 290 23:27 16.03.2020
1263 Clear 16 1019 44 10000 2.1 320 22:41 16.03.2020
1264 Clear 16 1019 44 10000 2.1 320 22:23 16.03.2020
1265 Clear 16 1019 44 10000 2.1 290 21:57 16.03.2020
1266 Clear 16 1019 41 10000 2.1 290 21:39 16.03.2020
1267 Clear 16 1019 41 10000 2.1 290 21:21 16.03.2020
1268 Clear 16 1018 44 10000 2.1 300 20:56 16.03.2020
1269 Clear 17 1018 39 10000 2.1 310 20:37 16.03.2020
1270 Clear 17 1018 39 10000 2.1 310 20:18 16.03.2020
1271 Clear 16 1018 38 10000 2.6 290 19:40 16.03.2020
1272 Clear 16 1018 38 10000 2.6 290 19:20 16.03.2020
1273 Clear 17 1018 39 10000 2.6 260 18:43 16.03.2020
1274 Clear 18 1018 36 10000 2.1 260 18:21 16.03.2020
1275 Clear 18 1018 36 10000 2.1 260 17:55 16.03.2020
1276 Clear 18 1018 36 10000 1.5 230 17:37 16.03.2020
1277 Clear 18 1018 39 10000 3.85 121 17:18 16.03.2020
1278 Clear 18 1018 34 10000 3.85 121 16:42 16.03.2020
1279 Clear 18 1018 34 10000 3.85 121 16:24 16.03.2020
1280 Clear 19 1018 29 10000 3.85 121 15:44 16.03.2020
1281 Clear 20 1019 28 10000 3.85 121 15:26 16.03.2020
1282 Clear 21 1019 22 10000 2.1 90 14:49 16.03.2020
1283 Clear 22 1019 18 10000 2.6 80 14:27 16.03.2020
1284 Clear 22 1019 18 10000 2.1 90 13:57 16.03.2020
1285 Clear 23 1019 16 10000 2.6 90 13:39 16.03.2020
1286 Clear 23 1019 16 10000 2.6 90 13:20 16.03.2020
1287 Clear 25 1018 13 10000 3.1 80 12:44 16.03.2020
1288 Clear 25 1018 13 10000 3.1 80 12:23 16.03.2020
1289 Clear 27 1018 11 10000 3.6 140 11:46 16.03.2020
1290 Clear 27 1018 11 10000 3.6 140 11:27 16.03.2020
1291 Clear 28 1017 10 10000 4.1 130 10:55 16.03.2020
1292 Clear 29 1017 9 10000 5.1 130 10:37 16.03.2020
1293 Clear 29 1017 9 10000 5.1 130 10:18 16.03.2020
1294 Clear 31 1016 10 10000 4.6 140 09:40 16.03.2020
1295 Clear 31 1016 10 10000 4.6 140 09:20 16.03.2020
1296 Clear 31 1016 10 10000 4.6 110 08:47 16.03.2020
1297 Clear 31 1016 10 10000 5.7 110 08:24 16.03.2020
1298 Clear 31 1016 10 10000 4.1 130 07:45 16.03.2020
1299 Clear 31 1016 10 10000 5.1 130 07:21 16.03.2020
1300 Clear 31 1016 10 10000 4.1 130 06:46 16.03.2020
1301 Clear 31 1016 10 10000 4.1 130 06:23 16.03.2020
1302 Clear 29 1018 13 10000 6.7 90 04:53 16.03.2020
1303 Clear 25 1020 15 10000 6.2 100 01:49 16.03.2020
1304 Clear 24 1020 17 10000 5.7 80 00:48 16.03.2020
1305 Clear 23 1019 18 10000 4.1 90 00:28 16.03.2020
1306 Clear 18 1019 39 10000 6.66 99 23:41 15.03.2020
1307 Clear 18 1019 39 10000 4 101 23:19 15.03.2020
1308 Clear 16 1018 51 10000 4 101 22:42 15.03.2020
1309 Clear 16 1018 51 10000 4 101 22:42 15.03.2020
1310 Clear 16 1018 51 10000 4 101 22:22 15.03.2020
1311 Clear 17 1018 45 10000 4 101 21:40 15.03.2020
1312 Clear 17 1018 45 10000 4 101 21:22 15.03.2020
1313 Clear 17 1018 45 10000 4 101 20:58 15.03.2020
1314 Clear 17 1018 45 10000 4 101 20:58 15.03.2020
1315 Clear 18 1018 36 10000 1 50 20:40 15.03.2020
1316 Clear 18 1018 36 10000 1 50 20:20 15.03.2020
1317 Clear 19 1017 20 10000 0.5 10 19:56 15.03.2020
1318 Clear 18 1017 36 10000 1 90 19:38 15.03.2020
1319 Clear 18 1017 36 10000 1 90 19:19 15.03.2020
1320 Clear 18 1017 39 10000 2.1 110 18:55 15.03.2020
1321 Clear 20 1017 28 10000 3.1 130 18:36 15.03.2020
1322 Clear 20 1017 28 10000 3.1 130 18:18 15.03.2020
1323 Clear 21 1018 26 10000 3.1 120 17:40 15.03.2020
1324 Clear 21 1018 30 10000 2.6 130 17:20 15.03.2020
1325 Clear 21 1018 30 10000 2.6 130 16:56 15.03.2020
1326 Clear 20 1018 37 10000 2.6 130 16:37 15.03.2020
1327 Clear 20 1018 37 10000 2.6 130 16:18 15.03.2020
1328 Clear 22 1018 28 10000 2.6 100 15:43 15.03.2020
1329 Clear 22 1018 28 10000 2.6 100 15:25 15.03.2020
1330 Clear 22 1018 28 10000 2.6 100 14:47 15.03.2020
1331 Clear 23 1018 27 10000 2.1 100 14:28 15.03.2020
1332 Clear 24 1018 25 10000 3.1 90 13:59 15.03.2020
1333 Clear 25 1018 23 10000 3.6 90 13:39 15.03.2020
1334 Clear 25 1018 23 10000 3.6 90 13:21 15.03.2020
1335 Clear 26 1018 19 10000 3.6 110 12:57 15.03.2020
1336 Clear 26 1017 21 10000 4.1 110 12:38 15.03.2020
1337 Clear 27 1017 19 10000 4.1 120 12:20 15.03.2020
1338 Clouds 28 1017 20 10000 4.6 130 11:40 15.03.2020
1339 Clouds 28 1016 20 10000 5.1 120 11:22 15.03.2020
1340 Clouds 28 1016 20 10000 5.1 120 10:56 15.03.2020
1341 Clouds 29 1016 20 10000 5.7 120 10:38 15.03.2020
1342 Clouds 29 1016 20 10000 5.7 120 10:20 15.03.2020
1343 Clouds 30 1015 20 10000 7.2 130 09:40 15.03.2020
1344 Clouds 30 1015 20 10000 7.2 130 09:22 15.03.2020
1345 Clouds 31 1015 19 10000 6.2 140 08:45 15.03.2020
1346 Clouds 32 1015 19 10000 5.7 140 08:21 15.03.2020
1347 Clouds 32 1015 18 10000 6.7 120 07:51 15.03.2020
1348 Clouds 32 1015 19 10000 5.7 120 07:32 15.03.2020
1349 Clouds 31 1015 20 9000 4.6 100 06:53 15.03.2020
1350 Clouds 32 1016 21 10000 5.7 140 06:18 15.03.2020
1351 Clouds 30 1016 23 7000 3.1 130 05:19 15.03.2020
1352 Clouds 30 1016 23 7000 3.1 130 04:43 15.03.2020
1353 Clouds 30 1017 25 7000 3.6 140 04:24 15.03.2020
1354 Clouds 28 1017 28 7000 3.1 90 03:48 15.03.2020
1355 Clouds 26 1018 34 5000 4.1 100 02:38 15.03.2020
1356 Clouds 25 1019 36 5000 4.6 110 01:34 15.03.2020
1357 Clouds 24 1019 41 5000 4.1 110 00:46 15.03.2020
1358 Clouds 23 1018 43 5000 5.1 110 00:24 15.03.2020
1359 Clouds 23 1018 43 6000 3.6 110 23:55 14.03.2020
1360 Clouds 22 1018 49 6000 3.1 120 23:37 14.03.2020
1361 Clouds 20 1018 56 8000 3.1 150 23:18 14.03.2020
1362 Clouds 21 1017 49 8000 2.6 110 22:42 14.03.2020
1363 Clouds 21 1017 49 8000 2.6 110 22:23 14.03.2020
1364 Clouds 21 1017 49 9000 1.5 90 21:56 14.03.2020
1365 Clouds 21 1017 49 10000 2.1 100 21:36 14.03.2020
1366 Clouds 21 1017 49 10000 2.1 100 21:18 14.03.2020
1367 Clouds 22 1016 46 10000 2.6 110 20:58 14.03.2020
1368 Clouds 23 1016 43 10000 4.1 110 20:40 14.03.2020
1369 Clouds 23 1016 43 10000 4.1 110 20:19 14.03.2020
1370 Clouds 23 1016 43 10000 6.2 110 19:43 14.03.2020
1371 Clouds 24 1016 41 10000 5.7 110 19:25 14.03.2020
1372 Clear 24 1016 41 10000 5.1 120 18:42 14.03.2020
1373 Clear 24 1016 41 10000 5.1 120 18:24 14.03.2020
1374 Clear 25 1016 38 10000 3.6 120 17:58 14.03.2020
1375 Clear 25 1016 38 10000 3.6 120 17:38 14.03.2020
1376 Clouds 26 1016 34 10000 3.6 120 17:20 14.03.2020
1377 Clouds 26 1016 34 10000 3.6 120 17:20 14.03.2020
1378 Clouds 26 1016 34 10000 4.6 120 16:41 14.03.2020
1379 Clouds 26 1016 34 10000 4.6 120 16:23 14.03.2020
1380 Clouds 27 1016 30 10000 6.2 130 15:58 14.03.2020
1381 Clouds 27 1016 30 10000 4.6 140 15:27 14.03.2020
1382 Clouds 28 1016 26 10000 4.6 130 14:58 14.03.2020
1383 Clouds 28 1016 26 10000 5.1 130 14:36 14.03.2020
1384 Clouds 28 1016 26 10000 5.1 130 14:18 14.03.2020
1385 Clouds 29 1016 26 10000 6.2 130 13:42 14.03.2020
1386 Clouds 29 1016 26 10000 6.2 130 13:23 14.03.2020
1387 Clouds 30 1015 27 10000 4.6 130 12:47 14.03.2020
1388 Clouds 30 1015 27 10000 4.6 130 12:27 14.03.2020
1389 Clear 30 1014 27 10000 4.6 130 11:59 14.03.2020
1390 Clear 30 1014 27 10000 4.6 130 11:39 14.03.2020
1391 Clear 30 1014 27 10000 4.6 130 11:20 14.03.2020
1392 Clear 32 1013 22 10000 6.7 130 10:46 14.03.2020
1393 Clear 32 1013 22 10000 6.7 130 10:27 14.03.2020
1394 Clear 32 1013 22 10000 6.7 140 09:57 14.03.2020
1395 Clear 33 1013 21 10000 6.7 130 09:39 14.03.2020
1396 Clear 33 1013 21 10000 6.7 130 09:19 14.03.2020
1397 Clear 33 1013 19 10000 8.7 130 08:45 14.03.2020
1398 Clear 34 1013 20 10000 6.7 130 08:22 14.03.2020
1399 Clear 34 1013 20 10000 8.2 100 07:39 14.03.2020
1400 Clear 34 1013 20 10000 8.2 100 07:20 14.03.2020
1401 Clear 35 1013 21 10000 7.7 110 06:41 14.03.2020
1402 Clear 33 1014 22 10000 6.2 120 05:49 14.03.2020
1403 Clear 33 1015 24 10000 3.1 120 04:43 14.03.2020
1404 Clear 32 1016 25 10000 3.6 70 03:24 14.03.2020
1405 Clear 30 1016 28 10000 4.1 110 02:28 14.03.2020
1406 Clear 28 1017 37 10000 3.1 120 01:20 14.03.2020
1407 Clear 25 1017 47 10000 3.1 180 23:56 13.03.2020
1408 Clear 22 1016 60 10000 1.5 270 23:31 13.03.2020
1409 Clear 21 1016 68 10000 0.5 230 22:52 13.03.2020
1410 Clear 20 1016 72 10000 1.5 290 22:27 13.03.2020
1411 Clear 21 1015 68 10000 2.47 69 21:45 13.03.2020
1412 Clear 21 1015 68 10000 2.47 69 21:22 13.03.2020
1413 Clear 22 1015 60 10000 1.5 290 20:59 13.03.2020
1414 Clear 22 1014 60 10000 1 300 20:41 13.03.2020
1415 Clear 22 1014 60 10000 1 300 20:21 13.03.2020
1416 Clear 22 1014 60 10000 4.18 67 19:49 13.03.2020
1417 Clear 22 1014 60 10000 0.5 90 19:30 13.03.2020
1418 Clear 23 1014 53 10000 2.1 100 18:51 13.03.2020
1419 Clouds 24 1014 44 10000 1.5 90 18:32 13.03.2020
1420 Clear 25 1014 41 10000 2.6 90 17:59 13.03.2020
1421 Clear 25 1014 41 10000 3.1 90 17:41 13.03.2020
1422 Clear 25 1014 44 10000 3.1 80 17:20 13.03.2020
1423 Clear 26 1014 41 10000 2.6 80 16:42 13.03.2020
1424 Clear 26 1014 41 10000 2.6 80 16:24 13.03.2020
1425 Clear 26 1015 41 10000 2.1 80 15:59 13.03.2020
1426 Clear 27 1015 36 10000 2.6 100 15:39 13.03.2020
1427 Clear 27 1015 36 10000 2.6 100 15:20 13.03.2020
1428 Clear 27 1015 36 10000 2.1 90 14:44 13.03.2020
1429 Clear 27 1015 36 10000 2.1 80 14:23 13.03.2020
1430 Clear 28 1015 32 10000 1.5 90 13:58 13.03.2020
1431 Clear 28 1015 34 10000 2.6 90 13:39 13.03.2020
1432 Clear 28 1015 34 10000 2.6 90 13:20 13.03.2020
1433 Clear 29 1015 30 10000 3.6 80 12:55 13.03.2020
1434 Clear 30 1014 30 10000 4.1 80 12:36 13.03.2020
1435 Clear 30 1014 30 10000 4.1 80 12:18 13.03.2020
1436 Clear 32 1013 22 10000 4.6 110 11:42 13.03.2020
1437 Clear 33 1013 21 10000 6.7 110 11:24 13.03.2020
1438 Clear 33 1013 21 10000 6.7 110 10:57 13.03.2020
1439 Clear 34 1013 20 10000 6.2 130 10:38 13.03.2020
1440 Clear 34 1013 20 10000 6.2 130 10:20 13.03.2020
1441 Clear 35 1012 17 10000 7.2 110 09:43 13.03.2020
1442 Clear 35 1012 17 10000 7.2 110 09:24 13.03.2020
1443 Clear 35 1012 16 10000 6.7 130 08:46 13.03.2020
1444 Clear 36 1012 15 10000 6.2 140 08:23 13.03.2020
1445 Clear 36 1012 15 10000 6.2 140 08:23 13.03.2020
1446 Clear 36 1012 15 10000 6.7 120 07:52 13.03.2020
1447 Clear 36 1012 15 10000 6.7 130 07:28 13.03.2020
1448 Clear 36 1013 16 10000 4.1 80 06:57 13.03.2020
1449 Clear 36 1013 18 10000 4.6 140 06:32 13.03.2020
1450 Clear 35 1014 19 10000 4.6 150 05:55 13.03.2020
1451 Clear 34 1014 20 10000 4.1 160 05:24 13.03.2020
1452 Clear 34 1015 18 10000 3.1 160 04:38 13.03.2020
1453 Clear 34 1016 21 10000 3.1 110 03:42 13.03.2020
1454 Clear 31 1016 27 10000 3.6 30 01:47 13.03.2020
1455 Clear 30 1016 30 10000 2.1 10 01:19 13.03.2020
1456 Clear 28 1017 34 10000 3 77 00:54 13.03.2020
1457 Clear 26 1016 39 10000 0.5 290 00:27 13.03.2020
1458 Clear 23 1016 53 10000 2.1 280 23:55 12.03.2020
1459 Clear 23 1016 53 10000 2.1 280 23:28 12.03.2020
1460 Clear 21 1016 64 10000 3.1 260 22:57 12.03.2020
1461 Clear 20 1015 68 10000 2.6 270 22:39 12.03.2020
1462 Clear 20 1015 68 10000 2.6 270 22:21 12.03.2020
1463 Clear 21 1015 64 10000 1 210 21:45 12.03.2020
1464 Clear 21 1015 64 10000 2.7 66 21:27 12.03.2020
1465 Clear 22 1014 56 10000 3.1 30 20:57 12.03.2020
1466 Clear 23 1014 49 10000 2.6 40 20:38 12.03.2020
1467 Clear 23 1014 49 10000 2.6 40 20:19 12.03.2020
1468 Clear 22 1014 56 10000 2.02 78 19:40 12.03.2020
1469 Clear 22 1014 56 10000 2.02 78 19:20 12.03.2020
1470 Clear 23 1014 49 10000 2.02 78 18:44 12.03.2020
1471 Clear 23 1014 49 10000 2.02 78 18:24 12.03.2020
1472 Clouds 24 1015 47 10000 2.6 340 17:57 12.03.2020
1473 Clouds 24 1015 47 10000 2.6 340 17:38 12.03.2020
1474 Clouds 24 1015 47 10000 2.87 53 17:19 12.03.2020
1475 Clouds 24 1015 47 10000 2.87 53 16:55 12.03.2020
1476 Clear 25 1015 44 10000 2.1 200 16:37 12.03.2020
1477 Clear 25 1015 44 10000 2.1 200 16:18 12.03.2020
1478 Clear 26 1015 39 10000 2.87 53 15:44 12.03.2020
1479 Clear 27 1014 34 10000 2.87 53 15:26 12.03.2020
1480 Clear 27 1014 34 10000 3.1 50 14:40 12.03.2020
1481 Clear 27 1014 34 10000 3.1 50 14:21 12.03.2020
1482 Clear 27 1014 34 10000 3.1 50 14:21 12.03.2020
1483 Clouds 30 1014 25 10000 3.6 70 13:42 12.03.2020
1484 Clouds 30 1014 25 10000 3.6 70 13:23 12.03.2020
1485 Clouds 30 1014 27 10000 4.1 70 12:56 12.03.2020
1486 Clouds 30 1013 27 10000 4.6 70 12:38 12.03.2020
1487 Clouds 32 1013 22 10000 4.6 90 12:20 12.03.2020
1488 Clouds 32 1013 22 10000 4.6 90 11:56 12.03.2020
1489 Clouds 33 1012 19 10000 5.1 80 11:37 12.03.2020
1490 Clouds 34 1012 18 10000 3.6 160 11:19 12.03.2020
1491 Clouds 34 1012 18 10000 3.6 160 10:58 12.03.2020
1492 Clouds 35 1011 15 10000 5.7 190 10:40 12.03.2020
1493 Clouds 35 1011 15 10000 5.7 190 10:22 12.03.2020
1494 Clouds 36 1011 14 10000 4.6 180 09:45 12.03.2020
1495 Clouds 37 1011 13 10000 6.2 210 09:25 12.03.2020
1496 Clouds 36 1011 14 10000 6.2 210 08:43 12.03.2020
1497 Clouds 37 1011 14 10000 4.1 200 08:20 12.03.2020
1498 Clouds 37 1011 13 10000 7.2 210 07:53 12.03.2020
1499 Clouds 37 1011 13 10000 4.1 140 07:24 12.03.2020
1500 Clouds 37 1012 13 10000 4.6 220 06:59 12.03.2020
1501 Clouds 36 1013 16 10000 2.6 190 05:43 12.03.2020
1502 Clouds 36 1013 18 10000 3.1 90 05:21 12.03.2020
1503 Clouds 33 1016 22 10000 1 20 02:38 12.03.2020
1504 Clouds 30 1016 28 10000 3.1 60 01:31 12.03.2020
1505 Clear 29 1016 32 10000 2.6 30 00:45 12.03.2020
1506 Clear 29 1016 32 10000 2.6 30 00:26 12.03.2020
1507 Clear 25 1016 53 10000 1.5 10 23:45 11.03.2020
1508 Clouds 23 1015 60 10000 2.1 50 23:24 11.03.2020
1509 Clouds 23 1015 60 10000 2.6 30 22:48 11.03.2020
1510 Clouds 23 1015 60 10000 2.6 30 22:29 11.03.2020
1511 Clouds 24 1015 60 10000 2.1 50 21:59 11.03.2020
1512 Clouds 24 1015 60 10000 2.1 340 21:41 11.03.2020
1513 Clouds 24 1015 60 10000 2.1 340 21:22 11.03.2020
1514 Clouds 24 1015 60 10000 2.1 340 21:22 11.03.2020
1515 Clouds 24 1014 60 10000 2.78 61 20:58 11.03.2020
1516 Clouds 24 1014 60 10000 2.1 110 20:39 11.03.2020
1517 Clouds 24 1014 60 10000 2.1 110 20:19 11.03.2020
1518 Clouds 24 1014 57 10000 2.1 130 19:44 11.03.2020
1519 Clouds 24 1014 53 10000 2.1 100 19:25 11.03.2020
1520 Clouds 25 1014 47 10000 1.5 110 18:58 11.03.2020
1521 Clouds 25 1014 50 10000 2.1 90 18:40 11.03.2020
1522 Clouds 25 1014 50 10000 2.1 90 18:40 11.03.2020
1523 Clouds 25 1014 50 10000 2.1 90 18:21 11.03.2020
1524 Clouds 26 1014 47 10000 1.5 30 17:57 11.03.2020
1525 Clouds 26 1014 47 10000 1.5 70 17:39 11.03.2020
1526 Clear 26 1014 47 10000 2.1 60 17:20 11.03.2020
1527 Clear 26 1014 47 10000 2.1 60 16:46 11.03.2020
1528 Clear 27 1014 42 10000 2.1 70 16:22 11.03.2020
1529 Clear 27 1014 42 10000 1.5 90 15:45 11.03.2020
1530 Clear 27 1014 42 10000 2.1 60 15:24 11.03.2020
1531 Clear 27 1014 39 10000 3.6 70 14:58 11.03.2020
1532 Clear 28 1014 37 10000 3.6 80 14:40 11.03.2020
1533 Clear 28 1014 37 10000 3.6 80 14:21 11.03.2020
1534 Clear 28 1014 34 10000 3.6 70 13:44 11.03.2020
1535 Clear 29 1014 32 10000 4.1 90 13:26 11.03.2020
1536 Clear 29 1014 32 10000 4.1 70 12:58 11.03.2020
1537 Clear 30 1014 28 10000 4.1 70 12:39 11.03.2020
1538 Clear 30 1013 30 10000 4.1 70 12:19 11.03.2020
1539 Clear 31 1013 27 10000 4.1 70 11:42 11.03.2020
1540 Clear 31 1013 27 10000 4.1 70 11:24 11.03.2020
1541 Clear 32 1013 25 10000 4.6 70 10:57 11.03.2020
1542 Clear 32 1012 24 10000 4.6 70 10:39 11.03.2020
1543 Clear 32 1012 24 10000 4.6 70 10:18 11.03.2020
1544 Clear 32 1012 24 10000 4.6 70 10:18 11.03.2020
1545 Clear 34 1012 21 10000 5.7 90 09:41 11.03.2020
1546 Clear 34 1012 21 10000 5.7 90 09:23 11.03.2020
1547 Clear 35 1012 20 10000 5.1 90 08:45 11.03.2020
1548 Clear 35 1012 20 10000 5.1 90 08:26 11.03.2020
1549 Clear 35 1012 20 10000 5.1 50 07:48 11.03.2020
1550 Clear 35 1012 20 10000 2.1 110 07:22 11.03.2020
1551 Clear 35 1012 19 10000 3.6 110 06:53 11.03.2020
1552 Clear 35 1012 17 10000 4.6 110 06:35 11.03.2020
1553 Clear 35 1013 20 10000 4.6 50 05:33 11.03.2020
1554 Clear 32 1014 29 10000 3.6 40 03:39 11.03.2020
1555 Clear 30 1015 33 10000 4.1 60 01:56 11.03.2020
1556 Clear 29 1015 35 10000 5.1 60 01:25 11.03.2020
1557 Clear 26 1015 39 10000 2.1 30 00:44 11.03.2020
1558 Clear 21 1014 60 10000 6.39 82 23:50 10.03.2020
1559 Clear 21 1014 60 10000 6.39 82 23:28 10.03.2020
1560 Clear 19 1014 68 10000 3.6 85 22:58 10.03.2020
1561 Clear 19 1014 68 10000 3.6 85 22:58 10.03.2020
1562 Clear 19 1013 72 10000 0.5 170 22:37 10.03.2020
1563 Clear 19 1013 72 10000 0.5 170 22:19 10.03.2020
1564 Clear 19 1013 72 10000 3.6 85 21:56 10.03.2020
1565 Clear 19 1013 63 10000 1.5 50 21:38 10.03.2020
1566 Clear 19 1013 63 10000 1.5 50 21:19 10.03.2020
1567 Clear 19 1013 68 10000 3.6 85 20:44 10.03.2020
1568 Clear 20 1013 64 10000 3.96 94 20:21 10.03.2020
1569 Clear 20 1013 64 10000 3.26 92 19:59 10.03.2020
1570 Clear 20 1013 64 10000 3.26 92 19:41 10.03.2020
1571 Clear 20 1013 64 10000 3.26 92 19:23 10.03.2020
1572 Clear 21 1013 52 10000 3.26 92 18:58 10.03.2020
1573 Clear 21 1013 60 10000 3.26 92 18:40 10.03.2020
1574 Clear 21 1013 60 10000 3.26 92 18:21 10.03.2020
1575 Clear 21 1013 60 10000 3.26 92 17:55 10.03.2020
1576 Clear 22 1014 49 10000 3.26 92 17:37 10.03.2020
1577 Clear 23 1014 35 10000 2.1 30 17:18 10.03.2020
1578 Clear 23 1014 38 10000 3.1 40 16:37 10.03.2020
1579 Clear 23 1014 38 10000 3.1 40 16:18 10.03.2020
1580 Clear 23 1014 38 10000 3.1 40 16:18 10.03.2020
1581 Clear 24 1014 33 10000 2.1 60 15:42 10.03.2020
1582 Clear 24 1014 33 10000 2.1 60 15:20 10.03.2020
1583 Clear 24 1014 29 10000 2.6 70 14:58 10.03.2020
1584 Clear 24 1014 29 10000 2.6 70 14:40 10.03.2020
1585 Clear 24 1014 31 10000 3.1 60 14:19 10.03.2020
1586 Clear 25 1014 29 10000 3.1 70 13:44 10.03.2020
1587 Clear 26 1014 26 10000 3.1 70 13:25 10.03.2020
1588 Clear 26 1014 26 10000 3.1 70 12:55 10.03.2020
1589 Clear 27 1013 22 10000 4.6 90 12:37 10.03.2020
1590 Clear 28 1013 18 10000 3.1 110 12:18 10.03.2020
1591 Clear 29 1012 18 10000 4.1 120 11:42 10.03.2020
1592 Clear 29 1012 18 10000 4.1 120 11:24 10.03.2020
1593 Clear 29 1012 18 10000 4.1 120 11:24 10.03.2020
1594 Clear 31 1012 14 10000 4.1 120 10:56 10.03.2020
1595 Clear 32 1011 13 10000 5.1 120 10:38 10.03.2020
1596 Clear 32 1011 13 10000 5.1 120 10:19 10.03.2020
1597 Clear 32 1011 14 10000 4.6 120 09:45 10.03.2020
1598 Clear 33 1011 14 10000 4.6 130 09:20 10.03.2020
1599 Clear 33 1011 13 10000 4.6 140 08:56 10.03.2020
1600 Clear 33 1011 13 10000 4.6 140 08:36 10.03.2020
1601 Clear 33 1011 13 10000 4.6 140 08:18 10.03.2020
1602 Clear 33 1011 14 10000 3.6 100 07:40 10.03.2020
1603 Clear 33 1011 14 10000 3.6 100 07:21 10.03.2020
1604 Clear 33 1011 14 10000 3.6 100 07:21 10.03.2020
1605 Clear 32 1012 14 10000 3.1 70 06:38 10.03.2020
1606 Clear 32 1013 15 10000 4.6 90 05:42 10.03.2020
1607 Clear 31 1013 19 10000 3.1 100 05:19 10.03.2020
1608 Clear 30 1014 17 10000 2.6 350 04:30 10.03.2020
1609 Clear 29 1015 20 10000 3.6 70 02:58 10.03.2020
1610 Clear 27 1015 28 10000 5.1 70 01:32 10.03.2020
1611 Clear 26 1015 29 10000 4.1 60 00:50 10.03.2020
1612 Clear 23 1015 40 10000 1 70 00:28 10.03.2020
1613 Clear 18 1015 68 10000 6.33 101 23:42 09.03.2020
1614 Clear 16 1014 82 10000 6.33 101 23:22 09.03.2020
1615 Clear 16 1014 82 10000 6.33 101 23:22 09.03.2020
1616 Clear 16 1014 82 10000 3.15 101 22:57 09.03.2020
1617 Clear 16 1014 77 10000 3.15 101 22:38 09.03.2020
1618 Clear 16 1014 77 10000 3.15 101 22:38 09.03.2020
1619 Clear 16 1014 77 10000 3.15 101 22:19 09.03.2020
1620 Clear 16 1014 72 10000 1.5 360 21:43 09.03.2020
1621 Clear 16 1014 72 10000 1.5 360 21:22 09.03.2020
1622 Clear 17 1014 72 10000 2.1 280 20:58 09.03.2020
1623 Clear 16 1014 77 10000 3.1 250 20:40 09.03.2020
1624 Clear 16 1014 77 10000 3.1 250 20:20 09.03.2020
1625 Clear 17 1013 72 10000 2.6 240 19:45 09.03.2020
1626 Clear 17 1013 77 10000 3.1 260 19:26 09.03.2020
1627 Clear 17 1013 77 10000 3.67 105 18:59 09.03.2020
1628 Clear 18 1013 72 10000 2.1 50 18:40 09.03.2020
1629 Clear 18 1013 72 10000 2.1 50 18:21 09.03.2020
1630 Clear 18 1014 77 10000 1 90 17:58 09.03.2020
1631 Clear 18 1014 72 10000 3.67 105 17:39 09.03.2020
1632 Clear 19 1015 68 10000 4.54 121 17:20 09.03.2020
1633 Clear 19 1015 68 10000 4.54 121 16:59 09.03.2020
1634 Clear 20 1015 52 10000 4.54 121 16:41 09.03.2020
1635 Clear 20 1015 52 10000 4.54 121 16:22 09.03.2020
1636 Clear 20 1015 52 10000 4.54 121 15:58 09.03.2020
1637 Clear 20 1015 60 10000 1.5 110 15:39 09.03.2020
1638 Clear 20 1015 60 10000 1.5 110 15:21 09.03.2020
1639 Clear 20 1015 60 10000 1.5 110 15:21 09.03.2020
1640 Clear 21 1015 46 10000 2.1 130 14:57 09.03.2020
1641 Clear 21 1015 46 10000 2.6 130 14:38 09.03.2020
1642 Clear 21 1015 46 10000 2.6 130 14:19 09.03.2020
1643 Clear 23 1015 38 10000 2.1 100 13:57 09.03.2020
1644 Clear 23 1015 31 10000 2.6 90 13:38 09.03.2020
1645 Clear 23 1015 31 10000 2.6 90 13:18 09.03.2020
1646 Clear 24 1015 29 10000 2.6 90 12:43 09.03.2020
1647 Clear 25 1014 27 10000 3.6 80 12:22 09.03.2020
1648 Clear 26 1014 24 10000 3.1 130 11:55 09.03.2020
1649 Clear 27 1014 19 10000 3.6 130 11:37 09.03.2020
1650 Clear 27 1014 19 10000 3.6 130 11:18 09.03.2020
1651 Clear 28 1013 17 10000 4.6 130 10:54 09.03.2020
1652 Clear 29 1013 23 10000 5.7 120 10:36 09.03.2020
1653 Clear 29 1013 23 10000 5.7 120 10:18 09.03.2020
1654 Clear 30 1012 23 10000 5.7 110 09:38 09.03.2020
1655 Clear 30 1012 23 10000 5.7 110 09:19 09.03.2020
1656 Clear 31 1012 23 10000 5.7 150 08:44 09.03.2020
1657 Clear 31 1012 23 10000 7.7 90 08:25 09.03.2020
1658 Clear 31 1012 14 10000 5.7 150 07:42 09.03.2020
1659 Clear 31 1013 15 10000 5.7 130 07:22 09.03.2020
1660 Clear 31 1013 19 10000 6.2 110 06:46 09.03.2020
1661 Clear 31 1013 19 10000 7.2 110 06:26 09.03.2020
1662 Clear 31 1014 19 10000 6.7 150 05:57 09.03.2020
1663 Clear 31 1014 19 10000 7.2 130 05:39 09.03.2020
1664 Clear 31 1014 19 10000 6.2 150 04:43 09.03.2020
1665 Clear 30 1015 22 10000 6.2 130 04:22 09.03.2020
1666 Clear 29 1016 23 10000 6.2 140 03:21 09.03.2020
1667 Clear 27 1016 28 10000 5.7 100 01:49 09.03.2020
1668 Clear 23 1016 49 10000 3.1 110 00:39 09.03.2020
1669 Clear 23 1016 49 10000 3.1 110 00:20 09.03.2020
1670 Clear 22 1016 53 10000 2.6 100 23:51 08.03.2020
1671 Clear 20 1016 64 10000 2.6 130 23:23 08.03.2020
1672 Clear 19 1016 77 10000 2.6 110 22:57 08.03.2020
1673 Clear 18 1015 82 10000 2.1 130 22:38 08.03.2020
1674 Clear 18 1015 82 10000 2.1 130 22:20 08.03.2020
1675 Clear 18 1015 82 10000 1.5 160 21:54 08.03.2020
1676 Clear 18 1015 82 10000 1.5 160 21:54 08.03.2020
1677 Clear 18 1015 82 10000 1.5 160 21:54 08.03.2020
1678 Clear 18 1015 82 10000 3.45 103 21:36 08.03.2020
1679 Clear 18 1015 82 10000 3.45 103 21:36 08.03.2020
1680 Clear 18 1015 82 10000 3.45 103 21:18 08.03.2020
1681 Clear 19 1015 77 10000 2.1 120 20:39 08.03.2020
1682 Clear 19 1015 77 10000 2.1 120 20:21 08.03.2020
1683 Clear 19 1015 77 10000 2.1 120 20:21 08.03.2020
1684 Clear 19 1014 77 10000 2.1 140 20:21 08.03.2020
1685 Clear 19 1014 77 10000 2.1 140 19:56 08.03.2020
1686 Clear 20 1015 72 10000 2.6 110 19:37 08.03.2020
1687 Clear 20 1015 72 10000 2.6 110 19:18 08.03.2020
1688 Clear 21 1015 56 10000 2.1 90 18:41 08.03.2020
1689 Clear 21 1015 56 10000 2.1 90 18:23 08.03.2020
1690 Clear 21 1015 60 10000 2.1 90 17:56 08.03.2020
1691 Clear 21 1015 60 10000 2.1 90 17:37 08.03.2020
1692 Clear 21 1015 60 10000 2.1 90 17:18 08.03.2020
1693 Clear 21 1015 60 10000 2.1 90 16:45 08.03.2020
1694 Clear 22 1015 53 10000 2.1 70 16:27 08.03.2020
1695 Clear 23 1016 46 10000 1.5 60 15:56 08.03.2020
1696 Clear 23 1016 46 10000 1.5 60 15:37 08.03.2020
1697 Clear 23 1016 46 10000 1.5 60 15:18 08.03.2020
1698 Clear 23 1016 46 10000 2.1 90 14:40 08.03.2020
1699 Clear 23 1016 46 10000 2.1 90 14:21 08.03.2020
1700 Clear 24 1016 41 10000 2.6 90 13:56 08.03.2020
1701 Clear 24 1016 41 10000 2.6 90 13:56 08.03.2020
1702 Clear 24 1016 41 10000 2.6 90 13:37 08.03.2020
1703 Clear 25 1016 36 10000 3.1 90 13:18 08.03.2020
1704 Clear 26 1015 31 10000 2.6 100 12:38 08.03.2020
1705 Clear 27 1015 28 10000 3.6 120 12:19 08.03.2020
1706 Clear 29 1014 23 10000 4.6 120 11:44 08.03.2020
1707 Clear 29 1014 23 10000 4.6 120 11:24 08.03.2020
1708 Clear 29 1014 23 10000 4.6 120 10:58 08.03.2020
1709 Clear 29 1014 23 10000 4.6 120 10:58 08.03.2020
1710 Clear 29 1014 23 10000 4.6 120 10:40 08.03.2020
1711 Clear 30 1014 22 10000 5.1 130 10:21 08.03.2020
1712 Clear 30 1013 22 10000 6.2 130 09:40 08.03.2020
1713 Clear 31 1013 19 10000 7.2 130 09:22 08.03.2020
1714 Clear 32 1013 18 10000 6.2 120 08:49 08.03.2020
1715 Clear 32 1013 18 10000 6.2 120 08:49 08.03.2020
1716 Clear 32 1013 18 10000 6.2 120 08:24 08.03.2020
1717 Clear 32 1013 19 10000 6.7 130 07:50 08.03.2020
1718 Clear 32 1013 18 10000 5.7 120 07:28 08.03.2020
1719 Clear 31 1013 20 10000 6.2 140 06:46 08.03.2020
1720 Clear 31 1013 20 10000 6.2 140 06:27 08.03.2020
1721 Clear 30 1014 25 10000 5.7 120 05:48 08.03.2020
1722 Clear 28 1015 30 10000 5.1 110 03:52 08.03.2020
1723 Clear 27 1016 34 10000 4.6 90 02:59 08.03.2020
1724 Clear 25 1016 44 10000 4.1 50 01:38 08.03.2020
1725 Clear 25 1016 44 10000 4.1 50 01:19 08.03.2020
1726 Clear 24 1016 47 10000 2.6 70 00:41 08.03.2020
1727 Clear 23 1016 53 10000 1.5 50 23:59 07.03.2020
1728 Clear 20 1016 68 10000 1.5 120 23:41 07.03.2020
1729 Clear 20 1016 68 10000 1.5 120 23:19 07.03.2020
1730 Clear 18 1015 77 10000 2.6 90 22:38 07.03.2020
1731 Clear 18 1015 77 10000 2.6 90 22:19 07.03.2020
1732 Clear 19 1015 68 10000 3.1 50 21:45 07.03.2020
1733 Clear 19 1015 68 10000 3.1 50 21:24 07.03.2020
1734 Clear 20 1015 64 10000 3.1 40 20:41 07.03.2020
1735 Clear 20 1015 64 10000 3.1 40 20:22 07.03.2020
1736 Clear 20 1015 64 10000 3.1 40 19:55 07.03.2020
1737 Clear 21 1015 60 10000 4.1 50 19:36 07.03.2020
1738 Clear 21 1015 60 10000 4.1 50 19:18 07.03.2020
1739 Clear 19 1016 82 10000 1.5 30 18:40 07.03.2020
1740 Clear 19 1016 82 10000 1.5 30 18:21 07.03.2020
1741 Clear 20 1016 77 10000 3.81 70 17:42 07.03.2020
1742 Clear 20 1016 72 10000 4 121 17:20 07.03.2020
1743 Clear 21 1016 68 10000 4 121 16:59 07.03.2020
1744 Clear 21 1016 64 10000 2.1 60 16:40 07.03.2020
1745 Clear 21 1016 64 10000 2.1 60 16:22 07.03.2020
1746 Clear 21 1016 68 10000 2.1 70 15:55 07.03.2020
1747 Clear 21 1016 64 10000 2.1 100 15:37 07.03.2020
1748 Clear 21 1016 64 10000 2.1 100 15:19 07.03.2020
1749 Clear 22 1016 49 10000 2.1 90 14:44 07.03.2020
1750 Clear 23 1016 53 10000 2.1 120 14:23 07.03.2020
1751 Clear 23 1016 46 10000 2.1 100 13:55 07.03.2020
1752 Clear 23 1016 43 10000 2.6 80 13:37 07.03.2020
1753 Clear 23 1016 43 10000 2.6 80 13:18 07.03.2020
1754 Clear 25 1015 33 10000 3.1 90 12:39 07.03.2020
1755 Clear 25 1015 33 10000 3.1 90 12:19 07.03.2020
1756 Clear 27 1015 30 10000 3.6 90 11:55 07.03.2020
1757 Clear 28 1015 23 10000 4.1 120 11:36 07.03.2020
1758 Clear 28 1015 23 10000 4.1 120 11:36 07.03.2020
1759 Clear 28 1015 23 10000 4.1 120 11:18 07.03.2020
1760 Clear 29 1014 20 10000 6.7 100 10:39 07.03.2020
1761 Clear 29 1014 20 10000 6.7 100 10:19 07.03.2020
1762 Clear 30 1014 19 10000 7.2 100 09:41 07.03.2020
1763 Clear 30 1014 19 10000 7.2 100 09:20 07.03.2020
1764 Clear 30 1014 19 10000 4.6 130 08:59 07.03.2020
1765 Clear 31 1014 19 10000 5.7 110 08:41 07.03.2020
1766 Clear 31 1014 19 10000 5.7 110 08:20 07.03.2020
1767 Clear 31 1014 18 10000 5.7 130 07:47 07.03.2020
1768 Clear 29 1013 20 0 7.76 138 07:22 07.03.2020
1769 Clear 29 1013 20 0 7.76 138 06:52 07.03.2020
1770 Clear 29 1013 20 0 7.76 138 06:28 07.03.2020
1771 Clear 29 1017 25 10000 6.7 100 05:41 07.03.2020
1772 Clear 29 1017 23 10000 5.7 110 04:25 07.03.2020
1773 Clear 26 1019 31 10000 4.1 80 02:46 07.03.2020
1774 Clear 26 1019 31 10000 4.1 80 02:18 07.03.2020
1775 Clear 26 1019 39 10000 3.6 80 01:19 07.03.2020
1776 Clear 21 1019 64 10000 5.34 104 00:28 07.03.2020
1777 Clear 20 1019 72 10000 5.34 104 23:59 06.03.2020
1778 Clear 18 1018 82 10000 2.1 190 23:40 06.03.2020
1779 Clear 18 1018 82 10000 2.1 190 23:22 06.03.2020
1780 Clear 16 1018 93 10000 2.6 190 22:46 06.03.2020
1781 Clear 16 1018 93 10000 0.5 210 22:20 06.03.2020
1782 Clear 16 1017 93 10000 0.5 330 21:49 06.03.2020
1783 Clear 17 1017 88 10000 2.96 81 21:21 06.03.2020
1784 Clear 17 1017 88 10000 2.96 81 20:46 06.03.2020
1785 Clear 17 1017 88 10000 2.74 91 20:23 06.03.2020
1786 Clear 17 1017 88 10000 3.27 93 19:59 06.03.2020
1787 Clear 17 1017 88 10000 3.27 93 19:40 06.03.2020
1788 Clear 17 1017 88 10000 3.27 93 19:22 06.03.2020
1789 Clear 18 1017 82 10000 1.5 320 18:42 06.03.2020
1790 Clear 18 1017 82 10000 2.6 320 18:20 06.03.2020
1791 Clear 18 1017 82 10000 2.6 320 17:57 06.03.2020
1792 Clear 19 1017 77 10000 1.5 310 17:39 06.03.2020
1793 Clear 19 1017 77 10000 1.5 310 17:39 06.03.2020
1794 Clear 20 1017 72 10000 2.1 320 17:20 06.03.2020
1795 Clear 20 1017 72 10000 2.1 320 16:54 06.03.2020
1796 Clear 20 1017 72 10000 2.1 320 16:36 06.03.2020
1797 Clear 20 1017 72 10000 2.1 320 16:36 06.03.2020
1798 Clear 20 1017 72 10000 2.1 320 16:18 06.03.2020
1799 Clear 21 1018 64 10000 0.5 190 15:41 06.03.2020
1800 Clear 21 1018 64 10000 0.5 190 15:22 06.03.2020
1801 Clear 21 1017 68 10000 1.5 160 14:40 06.03.2020
1802 Clear 21 1017 68 10000 1.5 160 14:22 06.03.2020
1803 Clear 21 1017 68 10000 1.5 160 14:22 06.03.2020
1804 Clear 22 1017 64 10000 1.5 110 13:55 06.03.2020
1805 Clear 23 1017 46 10000 2.1 90 13:36 06.03.2020
1806 Clear 23 1017 46 10000 2.1 90 13:18 06.03.2020
1807 Clear 25 1016 36 10000 3.1 80 12:40 06.03.2020
1808 Clear 25 1016 36 10000 3.1 80 12:20 06.03.2020
1809 Clear 26 1016 31 10000 3.6 110 11:59 06.03.2020
1810 Clear 27 1015 28 10000 4.6 110 11:40 06.03.2020
1811 Clear 27 1015 28 10000 4.6 110 11:20 06.03.2020
1812 Clear 29 1014 23 10000 5.7 100 10:42 06.03.2020
1813 Clear 29 1014 23 10000 5.7 100 10:21 06.03.2020
1814 Clear 29 1014 21 10000 5.7 120 09:58 06.03.2020
1815 Clear 30 1014 22 10000 7.2 110 09:39 06.03.2020
1816 Clear 30 1014 22 10000 7.2 110 09:21 06.03.2020
1817 Clear 30 1014 23 10000 5.7 110 08:47 06.03.2020
1818 Clear 30 1014 22 10000 6.2 110 08:28 06.03.2020
1819 Clear 30 1014 23 10000 6.2 120 07:59 06.03.2020
1820 Clear 30 1014 25 10000 4.6 130 07:39 06.03.2020
1821 Clear 30 1014 25 10000 4.6 130 07:20 06.03.2020
1822 Clear 30 1014 27 10000 6.2 110 06:41 06.03.2020
1823 Clear 29 1015 26 10000 4.1 130 05:50 06.03.2020
1824 Clear 29 1015 26 10000 4.6 90 05:31 06.03.2020
1825 Clear 29 1016 30 10000 4.1 130 04:58 06.03.2020
1826 Clear 27 1017 32 10000 2.6 150 03:46 06.03.2020
1827 Clear 26 1018 34 10000 3.1 40 01:42 06.03.2020
1828 Clear 24 1018 53 10000 0.5 20 01:23 06.03.2020
1829 Clear 22 1017 64 10000 0.5 310 00:39 06.03.2020
1830 Clear 22 1017 64 10000 0.5 310 00:19 06.03.2020
1831 Clear 18 1016 88 10000 3.77 129 23:42 05.03.2020
1832 Clear 18 1016 88 10000 3.77 129 23:22 05.03.2020
1833 Clear 16 1016 93 10000 1.78 67 22:41 05.03.2020
1834 Clear 16 1016 93 10000 1.78 67 22:23 05.03.2020
1835 Clear 16 1015 93 10000 1.78 67 21:58 05.03.2020
1836 Clear 17 1015 93 10000 1.78 67 21:39 05.03.2020
1837 Clear 17 1015 93 10000 1.78 67 21:21 05.03.2020
1838 Clear 17 1015 93 10000 2.1 140 20:59 05.03.2020
1839 Clear 17 1014 93 10000 2.1 160 20:41 05.03.2020
1840 Clear 17 1014 93 10000 2.1 160 20:20 05.03.2020
1841 Clear 17 1014 93 10000 2.1 190 19:58 05.03.2020
1842 Clear 17 1014 93 10000 1.5 160 19:39 05.03.2020
1843 Clear 17 1014 93 10000 1.5 160 19:39 05.03.2020
1844 Clear 17 1014 93 10000 1.5 160 19:19 05.03.2020
1845 Clear 18 1014 88 10000 2.6 120 18:55 05.03.2020
1846 Clear 20 1014 72 10000 2.1 360 18:36 05.03.2020
1847 Clear 20 1014 72 10000 2.1 360 18:18 05.03.2020
1848 Clear 20 1014 72 10000 3.1 350 17:42 05.03.2020
1849 Clear 20 1014 72 10000 3.1 350 17:42 05.03.2020
1850 Clear 20 1014 68 10000 3.1 360 17:22 05.03.2020
1851 Clear 20 1014 72 10000 2.6 360 16:57 05.03.2020
1852 Clear 20 1014 72 10000 3.1 20 16:38 05.03.2020
1853 Clear 20 1014 72 10000 3.1 20 16:19 05.03.2020
1854 Clear 21 1014 68 10000 3.1 20 15:45 05.03.2020
1855 Clear 21 1014 68 10000 3.1 20 15:23 05.03.2020
1856 Clear 21 1014 73 10000 3.1 60 14:59 05.03.2020
1857 Clear 21 1014 73 10000 2.6 50 14:40 05.03.2020
1858 Clear 21 1014 73 10000 2.6 50 14:21 05.03.2020
1859 Clear 21 1014 73 10000 2.6 60 13:56 05.03.2020
1860 Clear 22 1014 64 10000 2.6 80 13:37 05.03.2020
1861 Clear 22 1014 64 10000 2.6 80 13:37 05.03.2020
1862 Clear 22 1014 64 10000 2.6 80 13:19 05.03.2020
1863 Clear 24 1013 53 10000 2.6 100 12:41 05.03.2020
1864 Clear 24 1013 53 10000 2.6 100 12:20 05.03.2020
1865 Clear 24 1013 57 10000 2.6 120 11:57 05.03.2020
1866 Clear 25 1012 50 10000 3.6 120 11:37 05.03.2020
1867 Clear 25 1012 50 10000 3.6 120 11:37 05.03.2020
1868 Clear 25 1012 50 10000 3.6 120 11:19 05.03.2020
1869 Clouds 25 1012 47 10000 3.6 120 10:57 05.03.2020
1870 Clouds 26 1011 44 10000 4.6 120 10:39 05.03.2020
1871 Clouds 26 1011 44 10000 4.6 120 10:20 05.03.2020
1872 Clouds 27 1011 44 10000 3.6 120 09:45 05.03.2020
1873 Clouds 27 1011 44 10000 3.6 120 09:45 05.03.2020
1874 Clouds 27 1011 42 10000 3.6 160 09:27 05.03.2020
1875 Clouds 27 1011 39 10000 2.6 170 08:48 05.03.2020
1876 Clear 27 1011 39 10000 3.6 160 08:30 05.03.2020
1877 Clouds 27 1011 39 10000 2.6 110 07:50 05.03.2020
1878 Clouds 28 1011 39 10000 3.6 150 07:23 05.03.2020
1879 Clouds 26 1011 44 10000 3.1 150 06:59 05.03.2020
1880 Clouds 27 1011 44 10000 2.6 50 06:41 05.03.2020
1881 Clouds 27 1011 44 10000 2.6 50 06:19 05.03.2020
1882 Clouds 25 1012 50 10000 4.6 130 05:32 05.03.2020
1883 Clouds 25 1013 53 10000 3.6 120 04:23 05.03.2020
1884 Clouds 25 1013 53 10000 3.1 110 03:58 05.03.2020
1885 Clouds 24 1013 60 10000 3.6 110 02:25 05.03.2020
1886 Clouds 23 1013 69 10000 2.6 100 01:24 05.03.2020
1887 Clouds 22 1013 73 10000 1 360 00:43 05.03.2020
1888 Clear 19 1012 100 10000 2.1 250 23:56 04.03.2020
1889 Clear 18 1012 100 10000 2.6 270 23:38 04.03.2020
1890 Clear 18 1012 100 10000 2.6 270 23:19 04.03.2020
1891 Clear 17 1011 100 10000 2.1 270 22:40 04.03.2020
1892 Clear 17 1011 100 10000 2.1 270 22:19 04.03.2020
1893 Clouds 17 1010 100 10000 2.88 160 21:59 04.03.2020
1894 Clouds 17 1010 100 10000 2.88 160 21:41 04.03.2020
1895 Clouds 17 1010 100 10000 2.88 160 21:20 04.03.2020
1896 Clouds 17 1010 100 10000 2.88 160 20:57 04.03.2020
1897 Clouds 17 1010 100 10000 2.6 260 20:39 04.03.2020
1898 Clouds 17 1010 100 10000 2.6 260 20:20 04.03.2020
1899 Clear 17 1009 100 10000 2.1 310 19:42 04.03.2020
1900 Clouds 17 1010 100 10000 1.5 250 19:24 04.03.2020
1901 Clear 18 1010 100 10000 1.5 270 18:57 04.03.2020
1902 Clear 18 1010 100 10000 2.1 250 18:38 04.03.2020
1903 Clear 18 1010 100 10000 2.1 250 18:20 04.03.2020
1904 Clear 18 1010 100 10000 3.08 171 17:56 04.03.2020
1905 Clear 18 1010 100 10000 3.08 171 17:38 04.03.2020
1906 Clear 18 1010 100 10000 2.52 112 17:19 04.03.2020
1907 Clear 18 1010 100 10000 2.52 112 16:44 04.03.2020
1908 Clear 19 1010 93 10000 2.1 20 16:25 04.03.2020
1909 Clear 19 1010 93 10000 2.1 60 15:59 04.03.2020
1910 Clear 19 1011 93 10000 2.1 60 15:41 04.03.2020
1911 Clear 19 1011 93 10000 2.1 60 15:21 04.03.2020
1912 Clear 19 1011 93 10000 1.5 60 14:55 04.03.2020
1913 Clear 19 1011 93 10000 2.1 50 14:37 04.03.2020
1914 Clear 19 1011 93 10000 2.1 50 14:18 04.03.2020
1915 Clear 20 1011 88 10000 2.1 40 13:55 04.03.2020
1916 Clear 20 1011 88 10000 2.6 70 13:36 04.03.2020
1917 Clouds 20 1011 88 10000 2.6 70 13:18 04.03.2020
1918 Clouds 21 1010 83 10000 2.1 90 12:43 04.03.2020
1919 Clouds 21 1010 83 10000 2.1 90 12:24 04.03.2020
1920 Clouds 21 1010 83 10000 2.6 90 11:55 04.03.2020
1921 Clouds 22 1009 78 10000 2.6 130 11:37 04.03.2020
1922 Clouds 22 1009 78 10000 2.6 130 11:19 04.03.2020
1923 Clouds 22 1009 78 10000 4.1 110 10:45 04.03.2020
1924 Clouds 23 1009 73 10000 3.6 130 10:25 04.03.2020
1925 Clouds 23 1008 73 10000 3.6 150 09:58 04.03.2020
1926 Clouds 24 1008 73 10000 5.1 160 09:39 04.03.2020
1927 Clouds 24 1008 73 10000 5.1 160 09:19 04.03.2020
1928 Clouds 23 1008 78 10000 5.7 180 08:42 04.03.2020
1929 Clouds 23 1008 73 10000 5.1 200 08:24 04.03.2020
1930 Clouds 23 1008 78 10000 4.6 170 07:48 04.03.2020
1931 Clouds 22 1008 78 10000 5.1 170 07:29 04.03.2020
1932 Clouds 22 1008 83 10000 6.7 180 06:53 04.03.2020
1933 Clouds 23 1008 78 10000 6.7 170 06:26 04.03.2020
1934 Clouds 23 1008 83 10000 6.2 180 05:59 04.03.2020
1935 Clouds 23 1008 83 10000 6.7 170 05:28 04.03.2020
1936 Clouds 21 1009 88 10000 5.7 170 03:54 04.03.2020
1937 Clouds 20 1010 88 10000 5.1 150 03:35 04.03.2020
1938 Clouds 19 1010 93 10000 5.7 170 02:58 04.03.2020
1939 Clouds 19 1010 93 10000 5.1 160 02:27 04.03.2020
1940 Rain 19 1010 100 10000 4.6 160 01:56 04.03.2020
1941 Rain 18 1010 100 2500 4.6 160 01:33 04.03.2020
1942 Rain 18 1010 100 5000 3.1 140 00:41 04.03.2020
1943 Rain 18 1010 100 5000 3.1 140 00:22 04.03.2020
1944 Rain 18 1010 100 10000 3.6 140 23:43 03.03.2020
1945 Rain 18 1010 100 10000 4.1 140 23:23 03.03.2020
1946 Rain 18 1010 100 8000 3.6 150 22:56 03.03.2020
1947 Rain 18 1009 100 6000 3.6 120 22:37 03.03.2020
1948 Rain 18 1009 100 6000 3.6 120 22:19 03.03.2020
1949 Rain 18 1009 100 8000 3.1 130 21:43 03.03.2020
1950 Rain 18 1009 100 6000 3.1 120 21:22 03.03.2020
1951 Rain 18 1009 100 6000 3.6 110 20:59 03.03.2020
1952 Rain 18 1009 100 10000 4.1 120 20:39 03.03.2020
1953 Rain 18 1009 100 10000 4.1 120 20:19 03.03.2020
1954 Clouds 18 1009 100 3700 5.7 100 19:56 03.03.2020
1955 Rain 18 1009 100 10000 4.1 130 19:37 03.03.2020
1956 Rain 18 1009 100 10000 4.1 130 19:18 03.03.2020
1957 Rain 19 1009 100 9000 4.1 130 18:56 03.03.2020
1958 Rain 19 1009 100 9000 4.1 130 18:56 03.03.2020
1959 Rain 19 1010 100 4200 4.1 130 18:38 03.03.2020
1960 Rain 19 1010 100 4200 4.1 130 18:19 03.03.2020
1961 Rain 18 1010 100 6000 4.1 130 17:54 03.03.2020
1962 Rain 18 1010 100 10000 3.6 120 17:36 03.03.2020
1963 Rain 18 1010 100 10000 3.6 120 17:36 03.03.2020
1964 Rain 18 1010 100 10000 3.6 120 17:18 03.03.2020
1965 Drizzle 19 1011 93 10000 4.6 120 16:39 03.03.2020
1966 Drizzle 19 1011 93 10000 4.6 120 16:21 03.03.2020
1967 Drizzle 19 1011 93 10000 4.6 120 15:59 03.03.2020
1968 Drizzle 19 1011 93 10000 4.6 120 15:59 03.03.2020
1969 Clouds 19 1011 93 10000 5.7 110 15:41 03.03.2020
1970 Clouds 19 1011 93 10000 5.7 110 15:20 03.03.2020
1971 Clouds 19 1012 93 10000 4.6 120 14:43 03.03.2020
1972 Clouds 19 1012 93 7000 5.1 120 14:21 03.03.2020
1973 Clouds 19 1012 93 10000 4.1 130 13:59 03.03.2020
1974 Clouds 19 1012 93 10000 4.1 130 13:41 03.03.2020
1975 Clouds 19 1012 93 10000 4.1 130 13:23 03.03.2020
1976 Clouds 19 1012 93 10000 4.1 130 12:55 03.03.2020
1977 Drizzle 19 1012 93 9000 4.6 120 12:36 03.03.2020
1978 Drizzle 19 1012 93 9000 4.6 120 12:18 03.03.2020
1979 Drizzle 18 1011 100 6000 4.1 120 11:38 03.03.2020
1980 Drizzle 18 1011 100 6000 4.1 120 11:19 03.03.2020
1981 Drizzle 18 1011 100 6000 4.1 120 11:19 03.03.2020
1982 Rain 18 1011 100 8000 4.1 120 10:57 03.03.2020
1983 Rain 18 1011 100 5000 4.6 120 10:38 03.03.2020
1984 Rain 18 1011 100 5000 4.6 120 10:19 03.03.2020
1985 Rain 18 1011 100 10000 4.6 120 09:45 03.03.2020
1986 Rain 18 1010 100 4400 4.6 110 09:23 03.03.2020
1987 Rain 19 1011 93 6000 4.6 120 08:59 03.03.2020
1988 Rain 19 1010 93 10000 4.1 130 08:39 03.03.2020
1989 Rain 19 1010 93 10000 4.1 130 08:39 03.03.2020
1990 Rain 19 1010 93 10000 4.1 130 08:21 03.03.2020
1991 Rain 19 1011 93 4800 6.2 90 07:44 03.03.2020
1992 Clouds 20 1010 82 10000 6.2 90 07:23 03.03.2020
1993 Clouds 19 1011 93 10000 6.7 80 06:53 03.03.2020
1994 Rain 20 1011 88 10000 7.7 90 06:27 03.03.2020
1995 Rain 20 1011 94 10000 6.2 90 05:48 03.03.2020
1996 Rain 19 1011 100 10000 5.7 100 05:29 03.03.2020
1997 Rain 19 1012 93 10000 6.2 90 04:37 03.03.2020
1998 Rain 18 1014 93 5000 5.7 120 01:40 03.03.2020
1999 Rain 18 1014 100 5000 4.6 120 00:59 03.03.2020
2000 Rain 18 1014 100 6000 3.6 120 00:36 03.03.2020
2001 Rain 18 1014 100 6000 3.6 120 00:18 03.03.2020
2002 Rain 18 1014 93 6000 4.1 130 23:41 02.03.2020
2003 Rain 18 1014 93 6000 4.1 130 23:22 02.03.2020
2004 Rain 18 1014 100 8000 4.1 110 22:55 02.03.2020
2005 Rain 17 1014 100 5000 3.1 120 22:37 02.03.2020
2006 Rain 17 1014 100 5000 3.1 120 22:19 02.03.2020
2007 Rain 18 1013 93 10000 3.6 130 21:42 02.03.2020
2008 Rain 18 1013 93 10000 3.6 130 21:24 02.03.2020
2009 Rain 18 1013 93 10000 4.1 110 20:59 02.03.2020
2010 Rain 18 1013 93 9000 4.1 120 20:41 02.03.2020
2011 Rain 18 1013 93 9000 4.1 120 20:21 02.03.2020
2012 Rain 18 1013 100 6000 3.6 80 19:57 02.03.2020
2013 Rain 19 1013 93 6000 3.6 110 19:39 02.03.2020
2014 Rain 19 1013 93 6000 3.6 110 19:20 02.03.2020
2015 Rain 19 1012 93 10000 2.6 130 18:55 02.03.2020
2016 Rain 19 1012 93 10000 2.6 130 18:55 02.03.2020
2017 Rain 19 1013 93 10000 2.6 130 18:37 02.03.2020
2018 Rain 19 1013 93 10000 2.6 130 18:18 02.03.2020
2019 Rain 20 1013 88 10000 3.1 130 17:55 02.03.2020
2020 Rain 20 1013 88 10000 3.6 150 17:37 02.03.2020
2021 Rain 20 1013 88 10000 3.6 150 17:18 02.03.2020
2022 Rain 21 1014 88 10000 2.1 170 16:41 02.03.2020
2023 Rain 21 1014 88 10000 2.1 170 16:22 02.03.2020
2024 Rain 21 1014 88 10000 2.6 170 15:45 02.03.2020
2025 Rain 22 1014 83 10000 2.1 150 15:22 02.03.2020
2026 Rain 22 1015 83 10000 2.1 130 14:57 02.03.2020
2027 Rain 22 1015 78 10000 2.6 140 14:37 02.03.2020
2028 Rain 22 1015 78 10000 2.6 140 14:19 02.03.2020
2029 Clouds 23 1015 69 10000 3.1 170 13:44 02.03.2020
2030 Clouds 23 1014 69 10000 4.1 190 13:19 02.03.2020
2031 Clouds 24 1014 64 10000 3.6 180 12:55 02.03.2020
2032 Clouds 24 1014 64 10000 4.1 170 12:37 02.03.2020
2033 Clouds 24 1014 64 10000 4.1 170 12:18 02.03.2020
2034 Clouds 24 1013 64 10000 5.7 160 11:38 02.03.2020
2035 Clouds 24 1013 64 10000 5.7 160 11:19 02.03.2020
2036 Clouds 25 1012 57 10000 7.2 170 10:55 02.03.2020
2037 Clouds 27 1012 44 10000 5.1 170 10:36 02.03.2020
2038 Clouds 27 1012 44 10000 5.1 170 10:18 02.03.2020
2039 Clouds 27 1011 42 10000 4.6 180 09:45 02.03.2020
2040 Clouds 27 1011 42 10000 4.6 180 09:26 02.03.2020
2041 Clouds 27 1011 42 10000 4.1 190 08:47 02.03.2020
2042 Clouds 27 1011 42 10000 3.6 200 08:22 02.03.2020
2043 Rain 27 1012 42 10000 2.1 230 07:44 02.03.2020
2044 Clouds 27 1012 39 10000 2.1 200 07:20 02.03.2020
2045 Rain 28 1012 37 10000 2.6 120 06:49 02.03.2020
2046 Clouds 27 1013 42 10000 2.1 100 05:57 02.03.2020
2047 Clouds 26 1013 57 10000 3.6 130 04:51 02.03.2020
2048 Clouds 25 1014 65 10000 3.1 160 03:23 02.03.2020
2049 Clouds 24 1014 69 10000 2.6 180 02:49 02.03.2020
2050 Rain 23 1014 73 10000 3.1 290 01:54 02.03.2020
2051 Rain 23 1014 78 10000 2.6 300 01:32 02.03.2020
2052 Rain 24 1013 64 10000 1 230 00:24 02.03.2020
2053 Clouds 24 1012 64 10000 3.1 180 23:59 01.03.2020
2054 Clouds 23 1012 69 10000 3.1 210 23:41 01.03.2020
2055 Clouds 23 1012 69 10000 3.1 210 23:20 01.03.2020
2056 Clouds 23 1012 69 10000 3.1 220 22:43 01.03.2020
2057 Clouds 23 1012 69 10000 3.1 180 22:21 01.03.2020
2058 Clouds 23 1012 69 10000 2.6 170 21:57 01.03.2020
2059 Clouds 23 1012 69 10000 2.6 170 21:57 01.03.2020
2060 Clouds 23 1012 73 10000 3.6 200 21:38 01.03.2020
2061 Clouds 23 1012 73 10000 3.6 200 21:19 01.03.2020
2062 Rain 23 1012 69 10000 4.6 230 20:44 01.03.2020
2063 Rain 24 1012 64 10000 3.6 220 20:25 01.03.2020
2064 Clouds 24 1011 60 10000 3.1 230 19:57 01.03.2020
2065 Clouds 25 1011 53 10000 4.1 220 19:39 01.03.2020
2066 Clouds 25 1011 53 10000 4.1 220 19:21 01.03.2020
2067 Clouds 25 1011 57 10000 4.1 200 18:41 01.03.2020
2068 Clouds 25 1011 57 10000 4.1 200 18:20 01.03.2020
2069 Clouds 25 1011 53 10000 4.1 190 17:58 01.03.2020
2070 Clouds 25 1011 53 10000 7.2 180 17:40 01.03.2020
2071 Clouds 25 1011 53 10000 7.2 180 17:21 01.03.2020
2072 Rain 25 1011 53 9000 8.7 190 16:57 01.03.2020
2073 Rain 25 1011 57 8000 9.8 190 16:39 01.03.2020
2074 Rain 25 1011 57 8000 9.8 190 16:19 01.03.2020
2075 Clouds 26 1011 54 6000 9.8 180 15:57 01.03.2020
2076 Clouds 26 1011 54 2900 9.3 190 15:39 01.03.2020
2077 Clouds 26 1011 54 2900 9.3 190 15:20 01.03.2020
2078 Clouds 27 1012 51 2000 10.3 190 14:57 01.03.2020
2079 Clouds 33 1011 17 10000 6.7 40 14:38 01.03.2020
2080 Clouds 33 1011 17 10000 6.7 40 14:20 01.03.2020
2081 Clouds 33 1011 17 10000 9.3 350 13:56 01.03.2020
2082 Clouds 34 1010 16 10000 10.8 330 13:37 01.03.2020
2083 Clouds 34 1010 16 10000 10.8 330 13:37 01.03.2020
2084 Clouds 34 1010 16 10000 10.8 330 13:18 01.03.2020
2085 Clouds 33 1010 18 10000 4.6 290 12:42 01.03.2020
2086 Clouds 33 1009 18 10000 2.6 290 12:21 01.03.2020
2087 Clouds 33 1008 17 10000 2.6 270 11:44 01.03.2020
2088 Clouds 33 1008 17 10000 2.6 270 11:26 01.03.2020
2089 Clouds 33 1008 17 10000 2.6 270 11:26 01.03.2020
2090 Clouds 34 1008 15 10000 3.1 270 10:58 01.03.2020
2091 Clouds 35 1008 14 10000 3.6 270 10:38 01.03.2020
2092 Clouds 35 1008 14 10000 3.6 270 10:20 01.03.2020
2093 Clouds 35 1008 14 10000 3.6 270 10:20 01.03.2020
2094 Clouds 35 1008 14 10000 4.6 270 09:59 01.03.2020
2095 Clouds 36 1008 12 10000 4.6 290 09:41 01.03.2020
2096 Clouds 36 1008 12 10000 4.6 290 09:21 01.03.2020
2097 Clouds 36 1007 12 10000 5.1 320 08:43 01.03.2020
2098 Clouds 37 1008 13 10000 5.1 320 08:25 01.03.2020
2099 Clouds 37 1008 13 10000 4.1 330 07:43 01.03.2020
2100 Clouds 36 1008 12 10000 4.1 330 07:24 01.03.2020
2101 Clouds 36 1008 12 10000 5.1 300 06:58 01.03.2020
2102 Clouds 36 1008 11 10000 5.7 330 06:39 01.03.2020
2103 Clouds 36 1010 11 10000 6.2 310 04:39 01.03.2020
2104 Clouds 36 1011 9 10000 7.2 330 02:58 01.03.2020
2105 Clouds 33 1011 11 10000 4.6 360 01:54 01.03.2020
2106 Clouds 32 1011 11 10000 5.1 360 01:33 01.03.2020
2107 Clouds 31 1011 11 10000 4.6 20 00:46 01.03.2020
2108 Clouds 28 1011 14 10000 3.1 40 00:22 01.03.2020
2109 Clouds 27 1011 15 10000 2.6 50 23:54 29.02.2020
2110 Clouds 24 1011 12 10000 2.6 60 23:34 29.02.2020
2111 Clouds 19 1011 25 10000 3.1 40 22:45 29.02.2020
2112 Clouds 20 1011 24 10000 1 50 22:25 29.02.2020
2113 Clouds 20 1010 22 10000 3.82 41 21:44 29.02.2020
2114 Clouds 21 1010 22 10000 3.82 41 21:26 29.02.2020
2115 Clouds 21 1010 21 10000 3.82 41 20:45 29.02.2020
2116 Clouds 21 1010 22 10000 3.5 49 20:22 29.02.2020
2117 Clouds 21 1010 22 10000 1.5 20 19:59 29.02.2020
2118 Clouds 23 1010 18 10000 0.5 40 19:41 29.02.2020
2119 Clouds 23 1010 18 10000 0.5 40 19:22 29.02.2020
2120 Clouds 23 1010 20 10000 2.6 100 18:56 29.02.2020
2121 Clouds 23 1010 18 10000 2.6 90 18:38 29.02.2020
2122 Clouds 23 1010 18 10000 2.6 90 18:19 29.02.2020
2123 Clouds 24 1011 19 10000 2.1 30 17:54 29.02.2020
2124 Clouds 24 1011 19 10000 2.1 30 17:54 29.02.2020
2125 Clouds 23 1011 18 10000 3.5 54 17:36 29.02.2020
2126 Clouds 23 1011 18 10000 3.5 54 17:36 29.02.2020
2127 Clouds 23 1011 18 10000 4.28 78 17:18 29.02.2020
2128 Clouds 25 1011 15 10000 3.1 70 16:42 29.02.2020
2129 Clouds 25 1011 15 10000 3.1 70 16:19 29.02.2020
2130 Clouds 25 1012 14 10000 2.6 50 15:42 29.02.2020
2131 Clouds 25 1012 14 10000 2.6 50 15:24 29.02.2020
2132 Clouds 26 1011 12 10000 3.1 50 14:56 29.02.2020
2133 Clouds 27 1011 13 10000 3.6 80 14:38 29.02.2020
2134 Clouds 27 1011 13 10000 3.6 80 14:20 29.02.2020
2135 Clouds 29 1011 12 10000 3.6 120 13:42 29.02.2020
2136 Clouds 29 1011 12 10000 3.6 120 13:23 29.02.2020
2137 Clouds 30 1011 10 10000 3.6 120 12:43 29.02.2020
2138 Clouds 31 1010 10 10000 3.6 120 12:23 29.02.2020
2139 Clouds 32 1010 10 10000 3.6 130 11:59 29.02.2020
2140 Clouds 33 1010 10 10000 4.1 130 11:40 29.02.2020
2141 Clouds 33 1010 10 10000 4.1 130 11:22 29.02.2020
2142 Clear 34 1010 9 10000 4.1 130 10:49 29.02.2020
2143 Clear 34 1009 12 10000 4.1 120 10:29 29.02.2020
2144 Clear 34 1009 12 10000 4.1 120 10:29 29.02.2020
2145 Clear 35 1009 12 10000 4.6 110 09:51 29.02.2020
2146 Clear 35 1009 12 10000 4.1 80 09:27 29.02.2020
2147 Clear 35 1009 12 10000 3.1 100 08:58 29.02.2020
2148 Clear 36 1009 11 10000 4.6 170 08:38 29.02.2020
2149 Clouds 36 1009 11 10000 4.6 170 08:19 29.02.2020
2150 Clouds 35 1009 12 10000 4.1 200 07:45 29.02.2020
2151 Clouds 35 1009 12 10000 2.1 330 07:19 29.02.2020
2152 Clouds 35 1010 11 10000 2.6 100 06:50 29.02.2020
2153 Clouds 35 1010 11 10000 2.6 170 06:26 29.02.2020
2154 Clouds 34 1011 12 10000 4.1 120 05:48 29.02.2020
2155 Clouds 34 1011 13 10000 3.6 90 05:18 29.02.2020
2156 Clouds 32 1013 13 10000 5.1 90 03:43 29.02.2020
2157 Clouds 32 1013 13 10000 3.6 90 03:22 29.02.2020
2158 Clouds 30 1014 13 10000 4.6 80 02:39 29.02.2020
2159 Clouds 30 1014 13 10000 4.6 80 02:39 29.02.2020
2160 Clouds 28 1014 15 10000 6.7 80 01:26 29.02.2020
2161 Clouds 26 1015 14 10000 6.7 90 00:37 29.02.2020
2162 Clouds 25 1015 20 10000 4.1 100 23:56 28.02.2020
2163 Clouds 23 1015 23 10000 2.6 120 23:36 28.02.2020
2164 Clear 23 1015 23 10000 2.6 120 23:18 28.02.2020
2165 Clear 20 1014 30 10000 3.1 110 22:41 28.02.2020
2166 Clear 20 1014 30 10000 3.1 110 22:19 28.02.2020
2167 Clear 19 1013 32 10000 3.1 130 21:41 28.02.2020
2168 Clear 19 1013 32 10000 3.1 130 21:21 28.02.2020
2169 Clear 20 1013 32 10000 2.6 120 20:54 28.02.2020
2170 Clear 20 1013 34 10000 0.5 150 20:36 28.02.2020
2171 Clouds 20 1013 34 10000 0.5 150 20:18 28.02.2020
2172 Clouds 20 1013 32 10000 4.83 108 19:55 28.02.2020
2173 Clouds 20 1013 34 10000 4.83 108 19:37 28.02.2020
2174 Clouds 20 1013 34 10000 4.83 108 19:18 28.02.2020
2175 Clouds 22 1013 30 10000 4.83 108 18:43 28.02.2020
2176 Clouds 23 1013 28 10000 1.5 60 18:22 28.02.2020
2177 Clouds 25 1014 25 10000 3.6 100 17:41 28.02.2020
2178 Clouds 25 1014 25 10000 3.6 100 17:23 28.02.2020
2179 Clouds 24 1014 29 10000 2.6 80 16:55 28.02.2020
2180 Clouds 26 1014 27 10000 3.1 110 16:36 28.02.2020
2181 Clouds 26 1014 27 10000 3.1 110 16:18 28.02.2020
2182 Clouds 26 1014 27 10000 3.1 110 15:42 28.02.2020
2183 Clouds 27 1014 26 10000 3.6 130 15:20 28.02.2020
2184 Clouds 27 1014 26 10000 4.1 130 14:58 28.02.2020
2185 Clouds 28 1014 24 10000 3.6 130 14:39 28.02.2020
2186 Clouds 29 1014 23 10000 3.1 130 14:19 28.02.2020
2187 Clouds 29 1014 23 10000 3.1 130 13:57 28.02.2020
2188 Clouds 29 1013 23 10000 4.1 120 13:39 28.02.2020
2189 Clouds 29 1013 23 10000 4.1 120 13:19 28.02.2020
2190 Clouds 30 1013 22 10000 5.1 130 12:41 28.02.2020
2191 Clouds 30 1013 22 10000 5.1 130 12:23 28.02.2020
2192 Clouds 31 1012 20 10000 5.1 130 11:43 28.02.2020
2193 Clouds 32 1012 19 10000 5.7 130 11:24 28.02.2020
2194 Clouds 33 1011 19 10000 5.7 130 10:59 28.02.2020
2195 Clouds 34 1011 18 10000 5.1 130 10:40 28.02.2020
2196 Clouds 34 1011 18 10000 5.1 130 10:20 28.02.2020
2197 Clouds 34 1011 18 10000 5.7 150 09:46 28.02.2020
2198 Clouds 35 1010 17 10000 6.2 110 09:21 28.02.2020
2199 Clouds 35 1010 16 10000 4.6 120 08:56 28.02.2020
2200 Clouds 35 1010 16 10000 5.7 100 08:37 28.02.2020
2201 Clouds 35 1010 16 10000 5.7 100 08:18 28.02.2020
2202 Clouds 35 1011 17 10000 4.6 150 07:40 28.02.2020
2203 Clouds 35 1011 17 10000 4.6 150 07:20 28.02.2020
2204 Clouds 35 1011 17 10000 4.1 80 06:44 28.02.2020
2205 Clouds 33 1012 19 10000 4.6 40 05:51 28.02.2020
2206 Clouds 33 1014 21 10000 6.2 80 04:34 28.02.2020
2207 Clouds 32 1014 21 10000 5.1 80 03:50 28.02.2020
2208 Clouds 31 1015 23 10000 5.7 100 02:46 28.02.2020
2209 Clouds 31 1015 23 10000 5.7 100 02:46 28.02.2020
2210 Clouds 30 1015 23 10000 7.7 110 02:25 28.02.2020
2211 Clear 28 1016 28 10000 7.7 110 00:46 28.02.2020
2212 Clear 27 1016 30 10000 7.7 110 00:25 28.02.2020
2213 Clear 26 1015 31 10000 4.6 120 23:42 27.02.2020
2214 Clear 26 1015 31 10000 4.6 120 23:19 27.02.2020
2215 Clear 25 1015 33 10000 3.6 130 22:43 27.02.2020
2216 Clear 25 1014 36 10000 4.1 130 22:24 27.02.2020
2217 Clear 25 1014 36 10000 4.1 120 21:56 27.02.2020
2218 Clear 25 1014 36 10000 3.6 130 21:38 27.02.2020
2219 Clear 25 1014 36 10000 3.6 130 21:18 27.02.2020
2220 Clear 26 1013 34 10000 4.6 130 20:56 27.02.2020
2221 Clear 26 1013 34 10000 4.6 130 20:56 27.02.2020
2222 Clear 25 1013 33 10000 4.1 120 20:37 27.02.2020
2223 Clear 25 1013 33 10000 4.1 120 20:37 27.02.2020
2224 Clouds 25 1013 33 10000 4.1 120 20:19 27.02.2020
2225 Clouds 26 1013 31 10000 4.1 90 19:42 27.02.2020
2226 Clouds 26 1013 31 10000 4.1 90 19:23 27.02.2020
2227 Clouds 27 1012 30 10000 4.1 110 18:58 27.02.2020
2228 Clouds 28 1012 28 10000 4.6 100 18:40 27.02.2020
2229 Clouds 28 1012 28 10000 4.6 100 18:21 27.02.2020
2230 Clouds 28 1012 28 10000 3.6 110 17:56 27.02.2020
2231 Clouds 28 1013 28 10000 3.6 100 17:38 27.02.2020
2232 Clouds 28 1013 28 10000 3.6 100 17:19 27.02.2020
2233 Clouds 27 1013 28 10000 2.6 70 16:54 27.02.2020
2234 Clouds 27 1013 28 10000 3.1 90 16:36 27.02.2020
2235 Clouds 27 1013 28 10000 3.1 90 16:18 27.02.2020
2236 Clouds 28 1013 26 10000 2.6 110 15:40 27.02.2020
2237 Clouds 28 1013 26 10000 2.6 110 15:21 27.02.2020
2238 Clouds 29 1013 25 10000 3.1 130 14:59 27.02.2020
2239 Clouds 29 1013 25 10000 2.6 140 14:40 27.02.2020
2240 Clouds 29 1013 25 10000 2.6 140 14:21 27.02.2020
2241 Clouds 30 1013 23 10000 2.6 130 13:55 27.02.2020
2242 Clouds 31 1013 22 10000 3.1 140 13:37 27.02.2020
2243 Clouds 31 1013 22 10000 3.1 140 13:19 27.02.2020
2244 Clouds 33 1012 18 10000 3.6 140 12:43 27.02.2020
2245 Clouds 33 1012 18 10000 3.6 140 12:19 27.02.2020
2246 Clouds 34 1012 17 10000 3.6 130 11:46 27.02.2020
2247 Clouds 34 1011 18 10000 4.1 130 11:23 27.02.2020
2248 Clouds 35 1011 16 10000 4.6 130 10:56 27.02.2020
2249 Clouds 36 1011 14 10000 6.7 140 10:37 27.02.2020
2250 Clouds 36 1011 14 10000 6.7 140 10:18 27.02.2020
2251 Clouds 37 1010 13 10000 7.7 120 09:41 27.02.2020
2252 Clouds 37 1010 13 10000 7.7 120 09:22 27.02.2020
2253 Clouds 37 1010 12 10000 6.7 120 08:44 27.02.2020
2254 Clouds 37 1010 13 10000 6.7 130 08:26 27.02.2020
2255 Clouds 38 1010 13 10000 7.2 110 07:51 27.02.2020
2256 Clouds 38 1010 13 10000 6.7 120 07:30 27.02.2020
2257 Clouds 38 1011 14 10000 4.6 130 06:59 27.02.2020
2258 Clouds 37 1011 13 10000 5.7 100 06:20 27.02.2020
2259 Clouds 37 1013 14 10000 5.7 60 04:22 27.02.2020
2260 Clouds 34 1014 17 10000 8.2 70 02:58 27.02.2020
2261 Clouds 31 1014 22 10000 6.2 100 00:59 27.02.2020
2262 Clouds 30 1014 23 10000 5.1 100 00:37 27.02.2020
2263 Clouds 27 1014 28 10000 2.6 110 23:41 26.02.2020
2264 Clouds 27 1014 28 10000 2.6 110 23:20 26.02.2020
2265 Clouds 25 1013 31 10000 1.5 50 22:59 26.02.2020
2266 Clouds 24 1013 33 10000 0.5 20 22:40 26.02.2020
2267 Clouds 24 1013 33 10000 0.5 20 22:21 26.02.2020
2268 Clouds 24 1012 36 10000 2.6 140 21:57 26.02.2020
2269 Clouds 24 1012 33 10000 2.6 130 21:38 26.02.2020
2270 Clouds 24 1012 33 10000 2.6 130 21:19 26.02.2020
2271 Clouds 24 1012 33 10000 3.1 130 20:55 26.02.2020
2272 Clouds 25 1011 33 10000 4.1 110 20:37 26.02.2020
2273 Clouds 25 1011 33 10000 4.1 110 20:18 26.02.2020
2274 Clouds 24 1011 33 10000 3.6 130 19:47 26.02.2020
2275 Clouds 24 1011 33 10000 2.1 130 19:21 26.02.2020
2276 Clouds 26 1011 29 10000 2.6 90 18:59 26.02.2020
2277 Clouds 26 1011 29 10000 3.1 110 18:41 26.02.2020
2278 Clouds 26 1011 29 10000 3.1 110 18:22 26.02.2020
2279 Clouds 26 1011 31 10000 2.6 130 17:56 26.02.2020
2280 Clouds 27 1012 30 10000 1.5 70 17:37 26.02.2020
2281 Clouds 27 1012 30 10000 1.5 70 17:18 26.02.2020
2282 Clouds 28 1012 28 10000 5.02 41 16:43 26.02.2020
2283 Clouds 29 1012 26 10000 2.6 10 16:22 26.02.2020
2284 Clouds 28 1012 28 10000 3.1 140 15:56 26.02.2020
2285 Clouds 30 1012 23 10000 3.1 130 15:37 26.02.2020
2286 Clouds 30 1012 23 10000 3.1 130 15:18 26.02.2020
2287 Clouds 31 1012 23 10000 3.6 130 14:42 26.02.2020
2288 Clouds 31 1012 23 10000 3.6 130 14:22 26.02.2020
2289 Clouds 31 1012 23 10000 3.6 130 14:22 26.02.2020
2290 Clouds 31 1012 22 10000 3.6 130 13:43 26.02.2020
2291 Clouds 32 1012 21 10000 3.6 120 13:22 26.02.2020
2292 Clouds 33 1011 18 10000 4.6 110 12:42 26.02.2020
2293 Clouds 33 1011 18 10000 4.6 110 12:42 26.02.2020
2294 Clouds 33 1011 18 10000 4.6 110 12:23 26.02.2020
2295 Clouds 34 1011 17 10000 5.7 110 11:59 26.02.2020
2296 Clouds 34 1010 17 10000 6.2 120 11:41 26.02.2020
2297 Clouds 34 1010 17 10000 6.2 120 11:22 26.02.2020
2298 Clouds 35 1010 16 10000 6.2 120 10:43 26.02.2020
2299 Clouds 36 1009 15 10000 7.7 130 10:24 26.02.2020
2300 Clouds 36 1009 16 10000 7.7 110 09:59 26.02.2020
2301 Clouds 37 1009 17 10000 7.7 120 09:41 26.02.2020
2302 Clouds 37 1009 17 10000 7.7 120 09:21 26.02.2020
2303 Clouds 37 1009 17 10000 6.7 130 08:54 26.02.2020
2304 Clouds 37 1009 17 10000 7.7 120 08:36 26.02.2020
2305 Clouds 37 1009 17 10000 7.7 120 08:18 26.02.2020
2306 Clouds 37 1009 17 10000 6.7 100 07:41 26.02.2020
2307 Clouds 37 1009 17 10000 6.7 100 07:21 26.02.2020
2308 Clouds 37 1009 19 10000 7.7 120 06:48 26.02.2020
2309 Clouds 37 1010 20 10000 7.7 120 06:27 26.02.2020
2310 Clouds 37 1010 20 10000 8.2 110 05:48 26.02.2020
2311 Clouds 37 1010 20 10000 8.7 110 05:19 26.02.2020
2312 Clouds 36 1012 25 10000 8.2 80 03:34 26.02.2020
2313 Clouds 34 1013 28 10000 8.7 80 02:18 26.02.2020
2314 Clouds 32 1013 29 10000 8.2 100 01:34 26.02.2020
2315 Clouds 31 1013 31 10000 7.2 100 00:46 26.02.2020
2316 Clouds 31 1013 31 10000 7.2 100 00:46 26.02.2020
2317 Clouds 30 1013 30 10000 6.2 110 00:21 26.02.2020
2318 Clouds 29 1013 32 10000 4.1 120 23:42 25.02.2020
2319 Clouds 27 1012 36 10000 2.6 130 23:24 25.02.2020
2320 Clouds 26 1012 41 10000 3.1 130 22:57 25.02.2020
2321 Clouds 26 1012 41 10000 3.1 140 22:37 25.02.2020
2322 Clouds 26 1012 41 10000 3.1 140 22:18 25.02.2020
2323 Clouds 27 1011 42 10000 3.6 120 21:38 25.02.2020
2324 Clouds 27 1011 42 10000 3.6 120 21:20 25.02.2020
2325 Clouds 26 1011 41 10000 3.1 120 20:57 25.02.2020
2326 Clouds 27 1011 42 10000 3.1 130 20:39 25.02.2020
2327 Clouds 27 1011 42 10000 3.1 130 20:20 25.02.2020
2328 Clouds 28 1011 39 10000 3.1 120 19:56 25.02.2020
2329 Clouds 29 1011 37 10000 4.1 110 19:37 25.02.2020
2330 Clouds 29 1011 37 10000 4.1 110 19:18 25.02.2020
2331 Clouds 29 1011 35 10000 5.7 120 18:40 25.02.2020
2332 Clouds 29 1011 35 10000 5.7 120 18:21 25.02.2020
2333 Clouds 29 1011 35 10000 4.1 120 17:56 25.02.2020
2334 Clouds 30 1011 33 10000 4.1 130 17:37 25.02.2020
2335 Clouds 30 1011 33 10000 4.1 130 17:19 25.02.2020
2336 Clouds 30 1011 33 10000 4.6 130 16:56 25.02.2020
2337 Clouds 30 1011 30 10000 4.6 140 16:38 25.02.2020
2338 Clouds 30 1011 30 10000 4.6 140 16:19 25.02.2020
2339 Clouds 31 1011 29 10000 5.7 140 15:45 25.02.2020
2340 Clouds 31 1011 31 10000 4.1 150 15:20 25.02.2020
2341 Clouds 31 1011 31 10000 4.1 150 15:20 25.02.2020
2342 Clouds 31 1011 31 10000 4.1 150 14:59 25.02.2020
2343 Clouds 31 1011 31 10000 3.1 150 14:39 25.02.2020
2344 Clouds 31 1011 31 10000 3.1 150 14:18 25.02.2020
2345 Clouds 31 1011 31 10000 3.1 150 14:18 25.02.2020
2346 Clouds 31 1011 31 10000 3.6 130 13:58 25.02.2020
2347 Clouds 32 1011 29 10000 4.1 120 13:40 25.02.2020
2348 Clouds 32 1011 29 10000 4.1 120 13:20 25.02.2020
2349 Clouds 33 1011 27 10000 4.6 120 12:59 25.02.2020
2350 Clouds 33 1010 27 10000 5.7 130 12:39 25.02.2020
2351 Clouds 33 1010 27 10000 5.7 130 12:20 25.02.2020
2352 Clouds 34 1010 26 10000 6.2 130 11:56 25.02.2020
2353 Clouds 34 1010 26 10000 6.7 130 11:37 25.02.2020
2354 Clouds 34 1010 26 10000 6.7 130 11:18 25.02.2020
2355 Clouds 35 1009 24 10000 6.2 130 10:42 25.02.2020
2356 Clouds 35 1009 24 10000 6.2 130 10:23 25.02.2020
2357 Clouds 35 1008 24 10000 7.7 150 09:43 25.02.2020
2358 Clouds 35 1008 24 10000 7.7 150 09:23 25.02.2020
2359 Clouds 36 1009 25 10000 7.2 120 09:00 25.02.2020
2360 Clouds 37 1009 23 10000 7.2 120 08:41 25.02.2020
2361 Clouds 37 1009 23 10000 7.2 120 08:22 25.02.2020
2362 Clouds 36 1009 25 10000 7.7 100 07:48 25.02.2020
2363 Clouds 36 1009 26 10000 8.7 110 07:23 25.02.2020
2364 Clouds 36 1009 26 10000 8.7 110 07:23 25.02.2020
2365 Clouds 35 1009 28 10000 8.7 110 06:53 25.02.2020
2366 Clouds 35 1010 28 10000 7.7 120 05:44 25.02.2020
2367 Clouds 34 1012 34 10000 6.7 90 03:56 25.02.2020
2368 Clouds 33 1013 36 10000 8.2 90 02:32 25.02.2020
2369 Clouds 29 1013 39 10000 9.3 110 00:57 25.02.2020
2370 Clouds 28 1013 42 10000 7.2 110 00:31 25.02.2020
2371 Clouds 27 1013 44 10000 7.2 120 23:47 24.02.2020
2372 Clouds 26 1012 47 10000 4.6 120 23:28 24.02.2020
2373 Clouds 26 1012 47 10000 4.6 130 22:56 24.02.2020
2374 Clouds 26 1012 47 10000 3.6 140 22:36 24.02.2020
2375 Clouds 26 1012 47 10000 3.6 140 22:18 24.02.2020
2376 Clouds 25 1012 47 10000 3.6 140 21:54 24.02.2020
2377 Clouds 26 1012 44 10000 3.6 130 21:36 24.02.2020
2378 Clouds 26 1012 44 10000 3.6 130 21:18 24.02.2020
2379 Clouds 26 1012 41 10000 4.6 130 20:41 24.02.2020
2380 Clouds 26 1012 41 10000 4.6 130 20:20 24.02.2020
2381 Clouds 26 1012 41 10000 4.6 130 20:20 24.02.2020
2382 Clouds 27 1011 36 10000 4.6 130 19:58 24.02.2020
2383 Clouds 27 1011 36 10000 4.6 130 19:40 24.02.2020
2384 Clouds 27 1011 36 10000 4.6 130 19:22 24.02.2020
2385 Clouds 27 1011 34 10000 5.1 130 18:56 24.02.2020
2386 Clouds 27 1011 34 10000 5.1 130 18:38 24.02.2020
2387 Clouds 27 1011 34 10000 5.1 130 18:19 24.02.2020
2388 Clouds 28 1012 30 10000 5.1 130 17:42 24.02.2020
2389 Clouds 28 1012 30 10000 5.1 130 17:21 24.02.2020
2390 Clouds 29 1012 28 10000 5.7 130 16:58 24.02.2020
2391 Clouds 29 1012 28 10000 4.6 140 16:39 24.02.2020
2392 Clouds 29 1012 28 10000 4.6 140 16:20 24.02.2020
2393 Clouds 29 1012 26 10000 5.7 130 15:58 24.02.2020
2394 Clouds 29 1012 26 10000 5.1 130 15:40 24.02.2020
2395 Clouds 29 1012 26 10000 5.1 130 15:21 24.02.2020
2396 Clouds 30 1012 25 10000 4.6 130 14:58 24.02.2020
2397 Clouds 30 1012 25 10000 4.6 130 14:58 24.02.2020
2398 Clouds 30 1013 25 10000 4.1 140 14:39 24.02.2020
2399 Clouds 30 1013 25 10000 4.1 140 14:19 24.02.2020
2400 Clouds 30 1013 23 10000 4.6 140 13:56 24.02.2020
2401 Clouds 31 1012 22 10000 4.6 140 13:36 24.02.2020
2402 Clouds 31 1012 22 10000 4.6 140 13:18 24.02.2020
2403 Clouds 31 1012 22 10000 4.6 140 13:18 24.02.2020
2404 Clouds 31 1012 22 10000 5.1 140 12:43 24.02.2020
2405 Clouds 31 1012 22 10000 5.1 140 12:43 24.02.2020
2406 Clouds 32 1012 21 10000 5.7 130 12:24 24.02.2020
2407 Clouds 32 1011 21 10000 6.7 140 11:56 24.02.2020
2408 Clouds 32 1011 19 10000 6.2 130 11:38 24.02.2020
2409 Clear 32 1011 19 10000 6.2 130 11:19 24.02.2020
2410 Clear 34 1010 17 10000 7.7 130 10:41 24.02.2020
2411 Clear 34 1010 17 10000 7.7 130 10:22 24.02.2020
2412 Clear 34 1009 17 10000 8.2 120 09:40 24.02.2020
2413 Clear 34 1009 17 10000 8.2 120 09:19 24.02.2020
2414 Clear 35 1009 17 10000 8.7 110 08:53 24.02.2020
2415 Clear 35 1010 16 10000 9.3 120 08:30 24.02.2020
2416 Clouds 35 1010 17 10000 8.2 130 07:56 24.02.2020
2417 Clouds 35 1010 17 10000 8.2 130 07:56 24.02.2020
2418 Clouds 35 1010 19 10000 7.7 140 07:36 24.02.2020
2419 Clouds 35 1010 19 10000 7.7 140 07:36 24.02.2020
2420 Clouds 35 1010 19 10000 7.7 140 07:36 24.02.2020
2421 Clouds 35 1010 17 10000 7.7 130 06:55 24.02.2020
2422 Clouds 34 1011 20 10000 7.7 120 06:28 24.02.2020
2423 Clouds 34 1011 21 10000 7.7 170 05:46 24.02.2020
2424 Clouds 35 1012 20 10000 7.7 130 05:27 24.02.2020
2425 Clouds 31 1014 29 10000 6.7 110 02:58 24.02.2020
2426 Clouds 31 1014 31 10000 7.7 120 02:31 24.02.2020
2427 Clouds 29 1015 35 10000 7.2 110 01:39 24.02.2020
2428 Clouds 28 1015 39 10000 7.2 100 00:50 24.02.2020
2429 Clouds 27 1014 39 10000 6.2 120 00:21 24.02.2020
2430 Clouds 26 1014 34 10000 3.6 110 23:55 23.02.2020
2431 Clouds 23 1014 38 10000 10.15 122 23:36 23.02.2020
2432 Clouds 23 1014 38 10000 5.72 136 23:18 23.02.2020
2433 Clouds 19 1013 39 10000 1 260 22:42 23.02.2020
2434 Clouds 19 1013 39 10000 1 260 22:22 23.02.2020
2435 Clouds 21 1013 37 10000 1.5 100 21:55 23.02.2020
2436 Clouds 21 1013 37 10000 2.1 110 21:36 23.02.2020
2437 Clouds 21 1013 37 10000 2.1 110 21:18 23.02.2020
2438 Clouds 22 1013 35 10000 3.1 120 20:55 23.02.2020
2439 Clouds 22 1013 33 10000 3.6 150 20:36 23.02.2020
2440 Clouds 22 1013 33 10000 3.6 150 20:18 23.02.2020
2441 Clouds 22 1012 30 10000 3.1 150 19:41 23.02.2020
2442 Clouds 22 1012 30 10000 3.1 150 19:20 23.02.2020
2443 Clouds 24 1013 29 10000 3.1 130 18:59 23.02.2020
2444 Clouds 25 1013 27 10000 3.6 130 18:40 23.02.2020
2445 Clouds 25 1013 27 10000 3.6 130 18:20 23.02.2020
2446 Clouds 25 1013 27 10000 3.6 130 17:58 23.02.2020
2447 Clouds 24 1013 27 10000 3.6 130 17:39 23.02.2020
2448 Clouds 24 1013 27 10000 3.6 130 17:21 23.02.2020
2449 Clear 24 1013 27 10000 3.6 130 17:21 23.02.2020
2450 Clear 25 1013 25 10000 3.1 140 16:56 23.02.2020
2451 Clear 25 1014 23 10000 3.1 130 16:36 23.02.2020
2452 Clear 25 1014 23 10000 3.1 130 16:18 23.02.2020
2453 Clear 27 1014 21 10000 3.6 120 15:40 23.02.2020
2454 Clear 27 1014 21 10000 3.6 120 15:22 23.02.2020
2455 Clear 28 1014 20 10000 3.6 120 14:59 23.02.2020
2456 Clear 28 1013 20 10000 3.1 120 14:41 23.02.2020
2457 Clear 28 1013 20 10000 3.1 120 14:23 23.02.2020
2458 Clear 29 1013 18 10000 3.6 130 13:58 23.02.2020
2459 Clear 30 1013 16 10000 5.1 120 13:39 23.02.2020
2460 Clear 30 1013 16 10000 5.1 120 13:21 23.02.2020
2461 Clear 30 1012 15 10000 4.6 130 12:44 23.02.2020
2462 Clear 31 1012 20 10000 4.6 130 12:24 23.02.2020
2463 Clear 31 1011 14 10000 4.6 120 11:59 23.02.2020
2464 Clear 32 1011 13 10000 6.2 120 11:38 23.02.2020
2465 Clear 32 1011 13 10000 6.2 120 11:19 23.02.2020
2466 Clear 33 1011 13 10000 7.2 110 10:56 23.02.2020
2467 Clear 33 1011 13 10000 6.7 120 10:38 23.02.2020
2468 Clear 33 1011 13 10000 6.7 120 10:20 23.02.2020
2469 Clear 34 1010 12 10000 8.2 110 09:41 23.02.2020
2470 Clear 34 1010 12 10000 8.2 110 09:22 23.02.2020
2471 Clear 35 1010 15 10000 6.7 130 08:59 23.02.2020
2472 Clear 35 1010 15 10000 7.2 140 08:41 23.02.2020
2473 Clear 35 1010 17 10000 7.2 140 08:21 23.02.2020
2474 Clear 35 1010 11 10000 9.3 110 07:40 23.02.2020
2475 Clear 35 1010 11 10000 9.3 110 07:18 23.02.2020
2476 Clear 34 1011 13 10000 7.7 110 05:54 23.02.2020
2477 Clear 34 1012 13 10000 6.2 100 04:48 23.02.2020
2478 Clear 31 1014 14 10000 6.2 130 03:35 23.02.2020
2479 Clear 30 1015 15 10000 7.2 150 02:37 23.02.2020
2480 Clear 28 1015 20 10000 4.6 120 01:26 23.02.2020
2481 Clear 26 1015 16 10000 4.1 120 00:49 23.02.2020
2482 Clear 25 1015 20 10000 3.6 100 00:28 23.02.2020
2483 Clear 24 1015 20 10000 2.6 110 23:59 22.02.2020
2484 Clear 20 1014 20 10000 8.44 131 23:40 22.02.2020
2485 Clear 20 1014 25 10000 4.56 142 23:19 22.02.2020
2486 Clear 16 1014 31 10000 1 340 22:41 22.02.2020
2487 Clear 16 1014 31 10000 1 340 22:19 22.02.2020
2488 Clear 16 1014 31 10000 1.5 310 21:43 22.02.2020
2489 Clear 16 1014 31 10000 0.5 310 21:24 22.02.2020
2490 Clear 17 1013 29 10000 4.56 142 20:47 22.02.2020
2491 Clear 17 1014 27 10000 4.52 133 20:25 22.02.2020
2492 Clear 18 1014 25 10000 2.6 110 19:59 22.02.2020
2493 Clear 18 1014 25 10000 2.6 110 19:59 22.02.2020
2494 Clear 19 1014 25 10000 4.52 133 19:41 22.02.2020
2495 Clear 19 1014 25 10000 4.52 133 19:41 22.02.2020
2496 Clear 19 1014 25 10000 4.52 133 19:21 22.02.2020
2497 Clear 19 1014 24 10000 1 80 18:41 22.02.2020
2498 Clear 19 1014 24 10000 1 80 18:22 22.02.2020
2499 Clear 22 1014 21 10000 0.5 210 17:58 22.02.2020
2500 Clear 19 1014 22 10000 2.1 150 17:39 22.02.2020
2501 Clear 19 1014 22 10000 2.1 150 17:21 22.02.2020
2502 Clear 21 1014 21 10000 2.6 150 16:57 22.02.2020
2503 Clear 22 1015 18 10000 3.1 160 16:39 22.02.2020
2504 Clear 22 1015 18 10000 3.1 160 16:20 22.02.2020
2505 Clear 22 1015 18 10000 3.1 160 15:44 22.02.2020
2506 Clear 22 1015 18 10000 3.1 160 15:25 22.02.2020
2507 Clear 23 1015 16 10000 2.6 140 14:55 22.02.2020
2508 Clear 23 1015 17 10000 2.1 140 14:37 22.02.2020
2509 Clear 23 1015 17 10000 2.1 140 14:18 22.02.2020
2510 Clear 26 1014 13 10000 3.1 130 13:41 22.02.2020
2511 Clear 26 1014 13 10000 3.1 130 13:19 22.02.2020
2512 Clear 27 1014 13 10000 3.6 140 12:46 22.02.2020
2513 Clear 28 1014 13 10000 3.6 130 12:24 22.02.2020
2514 Clear 29 1013 12 10000 3.6 130 11:55 22.02.2020
2515 Clear 30 1013 10 10000 5.1 120 11:36 22.02.2020
2516 Clear 30 1013 10 10000 5.1 120 11:18 22.02.2020
2517 Clear 31 1012 10 10000 5.7 120 10:40 22.02.2020
2518 Clear 31 1012 10 10000 5.7 120 10:20 22.02.2020
2519 Clear 32 1012 11 10000 6.2 120 09:58 22.02.2020
2520 Clear 33 1012 10 10000 6.7 140 09:39 22.02.2020
2521 Clear 33 1012 10 10000 6.7 140 09:20 22.02.2020
2522 Clear 33 1012 10 10000 7.7 120 08:47 22.02.2020
2523 Clear 33 1012 11 10000 5.7 120 08:28 22.02.2020
2524 Clear 33 1012 11 10000 7.7 130 07:48 22.02.2020
2525 Clear 33 1013 12 10000 7.7 130 07:19 22.02.2020
2526 Clear 34 1013 12 10000 5.7 140 06:47 22.02.2020
2527 Clear 34 1013 12 10000 8.2 130 06:28 22.02.2020
2528 Clear 32 1015 14 10000 6.2 150 04:33 22.02.2020
2529 Clear 30 1016 15 10000 6.7 120 03:21 22.02.2020
2530 Clear 29 1017 17 10000 7.7 110 02:28 22.02.2020
2531 Clear 28 1017 17 10000 8.7 110 01:43 22.02.2020
2532 Clear 27 1017 21 10000 8.2 110 01:24 22.02.2020
2533 Clear 27 1017 21 10000 8.2 110 00:43 22.02.2020
2534 Clear 25 1017 21 10000 6.2 100 00:24 22.02.2020
2535 Clear 23 1017 23 10000 0.5 150 23:43 21.02.2020
2536 Clear 23 1017 23 10000 0.5 150 23:21 21.02.2020
2537 Clear 20 1016 30 10000 5.13 128 22:45 21.02.2020
2538 Clear 20 1016 30 10000 2.1 150 22:27 21.02.2020
2539 Clear 21 1016 28 10000 2.6 120 21:58 21.02.2020
2540 Clear 21 1016 28 10000 3.1 130 21:40 21.02.2020
2541 Clear 21 1016 28 10000 3.1 130 21:40 21.02.2020
2542 Clear 21 1016 28 10000 3.1 130 21:21 21.02.2020
2543 Clear 22 1015 26 10000 3.1 130 20:48 21.02.2020
2544 Clear 21 1015 28 10000 2.6 140 20:27 21.02.2020
2545 Clear 24 1015 23 10000 3.6 130 19:41 21.02.2020
2546 Clear 24 1015 23 10000 3.6 130 19:23 21.02.2020
2547 Clear 24 1015 23 10000 3.6 120 18:55 21.02.2020
2548 Clear 24 1015 23 10000 3.6 120 18:55 21.02.2020
2549 Clear 25 1015 22 10000 3.6 110 18:36 21.02.2020
2550 Clear 25 1015 22 10000 3.6 110 18:18 21.02.2020
2551 Clear 25 1016 22 10000 4.1 120 17:39 21.02.2020
2552 Clear 25 1016 22 10000 4.1 120 17:21 21.02.2020
2553 Clear 26 1016 21 10000 3.6 110 16:57 21.02.2020
2554 Clear 27 1016 19 10000 4.6 120 16:39 21.02.2020
2555 Clear 27 1016 19 10000 4.6 120 16:20 21.02.2020
2556 Clear 27 1016 19 10000 3.6 100 15:44 21.02.2020
2557 Clear 28 1016 18 10000 4.1 110 15:19 21.02.2020
2558 Clear 28 1016 18 10000 4.6 130 14:55 21.02.2020
2559 Clear 29 1016 17 10000 4.6 130 14:37 21.02.2020
2560 Clear 29 1016 17 10000 4.6 130 14:18 21.02.2020
2561 Clear 29 1015 18 10000 4.6 130 13:42 21.02.2020
2562 Clear 29 1015 18 10000 4.6 130 13:21 21.02.2020
2563 Clear 30 1015 16 10000 4.1 130 12:47 21.02.2020
2564 Clear 31 1015 16 10000 5.1 130 12:27 21.02.2020
2565 Clear 31 1014 15 10000 5.7 130 11:59 21.02.2020
2566 Clear 31 1014 16 10000 5.7 130 11:40 21.02.2020
2567 Clear 31 1014 16 10000 5.7 130 11:21 21.02.2020
2568 Clear 32 1014 14 10000 6.2 140 10:55 21.02.2020
2569 Clear 33 1013 15 10000 6.2 140 10:36 21.02.2020
2570 Clear 33 1013 15 10000 6.2 140 10:18 21.02.2020
2571 Clear 34 1013 15 10000 6.7 140 09:42 21.02.2020
2572 Clear 34 1013 15 10000 6.7 140 09:23 21.02.2020
2573 Clear 34 1013 14 10000 7.2 150 08:56 21.02.2020
2574 Clear 34 1013 14 10000 7.2 130 08:37 21.02.2020
2575 Clear 34 1013 14 10000 7.2 130 08:19 21.02.2020
2576 Clear 34 1013 13 10000 6.2 130 07:55 21.02.2020
2577 Clear 34 1013 14 10000 7.2 130 07:36 21.02.2020
2578 Clear 34 1013 14 10000 7.2 130 07:18 21.02.2020
2579 Clear 34 1014 14 10000 6.2 140 06:40 21.02.2020
2580 Clear 34 1014 14 10000 6.2 140 06:21 21.02.2020
2581 Clear 34 1014 14 10000 6.7 110 05:35 21.02.2020
2582 Clear 33 1015 14 10000 6.2 150 04:30 21.02.2020
2583 Clear 32 1015 13 10000 7.2 150 03:56 21.02.2020
2584 Clear 32 1015 13 10000 6.7 120 03:19 21.02.2020
2585 Clear 29 1016 16 10000 5.7 120 01:45 21.02.2020
2586 Clear 28 1016 17 10000 6.7 110 01:23 21.02.2020
2587 Clear 26 1016 19 10000 4.6 110 00:39 21.02.2020
2588 Clear 26 1016 19 10000 4.6 110 00:20 21.02.2020
2589 Clear 25 1016 20 10000 3.6 110 23:42 20.02.2020
2590 Clear 23 1015 20 10000 2.6 120 23:22 20.02.2020
2591 Clouds 19 1015 24 10000 0.5 90 22:42 20.02.2020
2592 Clouds 19 1015 24 10000 0.5 90 22:24 20.02.2020
2593 Clouds 19 1014 24 10000 5.01 109 21:58 20.02.2020
2594 Clouds 20 1014 20 10000 5.01 109 21:40 20.02.2020
2595 Clouds 20 1014 20 10000 5.01 109 21:20 20.02.2020
2596 Clouds 19 1014 24 10000 5.01 109 20:57 20.02.2020
2597 Clouds 20 1014 20 10000 1.5 70 20:39 20.02.2020
2598 Clear 20 1014 20 10000 1.5 70 20:20 20.02.2020
2599 Clear 20 1014 20 10000 1.5 70 20:20 20.02.2020
2600 Clear 21 1014 19 10000 2.6 110 19:59 20.02.2020
2601 Clear 23 1014 17 10000 3.1 110 19:41 20.02.2020
2602 Clear 23 1014 17 10000 3.1 110 19:23 20.02.2020
2603 Clear 22 1014 17 10000 3.1 110 18:58 20.02.2020
2604 Clear 21 1014 18 10000 2.1 140 18:37 20.02.2020
2605 Clear 21 1014 18 10000 2.1 140 18:19 20.02.2020
2606 Clear 23 1015 15 10000 2.6 120 17:39 20.02.2020
2607 Clear 24 1015 15 10000 2.6 120 17:20 20.02.2020
2608 Clear 24 1015 15 10000 2.6 120 16:58 20.02.2020
2609 Clear 25 1015 14 10000 3.1 120 16:39 20.02.2020
2610 Clear 25 1015 14 10000 3.1 120 16:19 20.02.2020
2611 Clear 25 1015 13 10000 3.1 120 15:56 20.02.2020
2612 Clear 25 1015 14 10000 2.6 120 15:37 20.02.2020
2613 Clear 25 1015 14 10000 2.6 120 15:19 20.02.2020
2614 Clear 25 1015 13 10000 2.6 130 14:44 20.02.2020
2615 Clear 26 1015 13 10000 3.1 130 14:25 20.02.2020
2616 Clouds 27 1014 11 10000 3.1 130 13:59 20.02.2020
2617 Clouds 27 1014 11 10000 3.1 140 13:41 20.02.2020
2618 Clouds 27 1014 11 10000 3.1 140 13:19 20.02.2020
2619 Clouds 30 1013 9 10000 3.6 140 12:43 20.02.2020
2620 Clouds 30 1013 9 10000 3.6 140 12:21 20.02.2020
2621 Clouds 31 1012 10 10000 4.6 130 11:59 20.02.2020
2622 Clouds 31 1012 10 10000 5.1 130 11:41 20.02.2020
2623 Clouds 31 1012 10 10000 5.1 130 11:22 20.02.2020
2624 Clouds 32 1012 8 10000 5.1 130 10:56 20.02.2020
2625 Clouds 33 1011 9 10000 5.7 140 10:38 20.02.2020
2626 Clouds 33 1011 9 10000 5.7 140 10:19 20.02.2020
2627 Clouds 34 1011 7 10000 5.1 120 09:39 20.02.2020
2628 Clouds 34 1011 7 10000 5.1 120 09:21 20.02.2020
2629 Clouds 34 1011 7 10000 4.1 150 08:44 20.02.2020
2630 Clear 34 1011 7 10000 4.6 130 08:24 20.02.2020
2631 Clear 34 1011 7 10000 4.6 140 07:55 20.02.2020
2632 Clear 34 1011 7 10000 6.2 100 07:37 20.02.2020
2633 Clear 34 1011 7 10000 6.2 100 07:19 20.02.2020
2634 Clear 34 1011 7 10000 5.7 140 06:43 20.02.2020
2635 Clear 33 1012 9 10000 5.7 140 05:58 20.02.2020
2636 Clear 33 1012 9 10000 4.6 100 05:34 20.02.2020
2637 Clear 33 1013 9 10000 6.2 90 04:49 20.02.2020
2638 Clear 30 1014 12 10000 5.7 120 03:47 20.02.2020
2639 Clear 29 1015 14 10000 4.6 80 02:48 20.02.2020
2640 Clear 26 1015 21 10000 8.2 90 01:33 20.02.2020
2641 Clear 25 1016 23 10000 6.7 110 00:47 20.02.2020
2642 Clear 24 1016 25 10000 6.2 110 00:25 20.02.2020
2643 Clear 23 1016 27 10000 5.1 100 23:46 19.02.2020
2644 Clear 23 1016 27 10000 5.1 100 23:46 19.02.2020
2645 Clear 21 1015 30 10000 3.6 110 23:18 19.02.2020
2646 Clear 19 1015 32 10000 1.5 130 22:43 19.02.2020
2647 Clear 19 1015 32 10000 1.5 130 22:43 19.02.2020
2648 Clear 18 1015 31 10000 1.5 150 22:24 19.02.2020
2649 Clear 19 1014 32 10000 2.6 130 21:58 19.02.2020
2650 Clear 18 1014 31 10000 3.1 160 21:40 19.02.2020
2651 Clear 18 1014 31 10000 3.1 160 21:19 19.02.2020
2652 Clear 19 1014 29 10000 3.1 170 20:57 19.02.2020
2653 Clear 19 1014 32 10000 2.6 170 20:38 19.02.2020
2654 Clear 19 1014 29 10000 2.6 170 20:19 19.02.2020
2655 Clear 19 1013 29 10000 2.6 150 19:57 19.02.2020
2656 Clear 20 1013 29 10000 3.1 150 19:37 19.02.2020
2657 Clear 20 1013 29 10000 3.1 150 19:19 19.02.2020
2658 Clear 21 1013 29 10000 2.6 130 18:57 19.02.2020
2659 Clear 21 1013 29 10000 2.6 140 18:39 19.02.2020
2660 Clear 21 1013 29 10000 2.6 140 18:20 19.02.2020
2661 Clear 23 1014 29 10000 3.1 140 17:44 19.02.2020
2662 Clear 23 1014 25 10000 3.1 140 17:20 19.02.2020
2663 Clear 24 1014 25 10000 3.6 130 16:56 19.02.2020
2664 Clear 25 1014 25 10000 4.1 130 16:37 19.02.2020
2665 Clear 25 1014 25 10000 4.1 130 16:37 19.02.2020
2666 Clear 25 1014 25 10000 4.1 130 16:18 19.02.2020
2667 Clear 25 1014 17 10000 2.6 120 15:41 19.02.2020
2668 Clear 25 1014 17 10000 2.6 120 15:23 19.02.2020
2669 Clear 25 1014 16 10000 3.1 120 14:56 19.02.2020
2670 Clear 25 1014 16 10000 3.1 120 14:56 19.02.2020
2671 Clear 26 1014 14 10000 3.6 130 14:37 19.02.2020
2672 Clear 26 1014 14 10000 3.6 130 14:37 19.02.2020
2673 Clear 26 1014 14 10000 3.6 130 14:19 19.02.2020
2674 Clear 27 1013 13 10000 3.6 130 13:41 19.02.2020
2675 Clear 27 1013 13 10000 3.6 130 13:21 19.02.2020
2676 Clear 29 1012 13 10000 3.6 130 12:42 19.02.2020
2677 Clear 29 1012 13 10000 3.6 130 12:19 19.02.2020
2678 Clear 30 1012 11 10000 4.6 130 11:59 19.02.2020
2679 Clear 30 1011 12 10000 4.6 130 11:37 19.02.2020
2680 Clear 31 1011 11 10000 5.1 130 11:19 19.02.2020
2681 Clear 31 1011 11 10000 5.1 130 10:57 19.02.2020
2682 Clear 32 1011 11 10000 6.2 120 10:38 19.02.2020
2683 Clear 32 1011 11 10000 6.2 120 10:19 19.02.2020
2684 Clear 33 1011 10 10000 6.2 110 09:57 19.02.2020
2685 Clear 33 1011 10 10000 6.7 130 09:37 19.02.2020
2686 Clear 33 1011 10 10000 6.7 130 09:18 19.02.2020
2687 Clear 33 1011 10 10000 6.7 130 09:18 19.02.2020
2688 Clear 33 1011 10 10000 6.7 130 09:18 19.02.2020
2689 Clear 33 1011 11 10000 5.7 120 08:44 19.02.2020
2690 Clear 34 1011 10 10000 6.2 120 08:24 19.02.2020
2691 Clear 34 1011 10 10000 6.2 120 08:24 19.02.2020
2692 Clouds 33 1012 17 10000 6.7 160 07:42 19.02.2020
2693 Clouds 33 1012 17 10000 6.7 160 07:21 19.02.2020
2694 Clouds 33 1012 17 10000 5.7 140 06:53 19.02.2020
2695 Clouds 34 1012 17 10000 5.7 150 06:23 19.02.2020
2696 Clear 30 1014 15 10000 6.2 130 04:21 19.02.2020
2697 Clear 28 1015 18 10000 7.2 110 02:56 19.02.2020
2698 Clear 27 1016 19 10000 7.2 110 02:30 19.02.2020
2699 Clouds 27 1016 19 10000 7.7 120 01:24 19.02.2020
2700 Clouds 25 1016 20 10000 6.7 130 00:49 19.02.2020
2701 Clouds 25 1016 20 10000 6.7 130 00:29 19.02.2020
2702 Clouds 24 1016 22 10000 7.7 120 23:44 18.02.2020
2703 Clouds 24 1015 30 10000 7.7 130 23:20 18.02.2020
2704 Clouds 23 1015 23 10000 3.6 140 22:57 18.02.2020
2705 Clouds 23 1015 23 10000 4.6 140 22:39 18.02.2020
2706 Clouds 23 1015 23 10000 4.6 140 22:19 18.02.2020
2707 Clouds 23 1014 25 10000 4.6 150 21:55 18.02.2020
2708 Clouds 23 1014 27 10000 3.6 150 21:37 18.02.2020
2709 Clouds 23 1014 27 10000 3.6 150 21:18 18.02.2020
2710 Clouds 24 1014 27 10000 4.1 140 20:56 18.02.2020
2711 Clouds 24 1014 27 10000 4.1 140 20:56 18.02.2020
2712 Clouds 24 1014 27 10000 4.1 140 20:56 18.02.2020
2713 Clouds 24 1014 27 10000 4.1 140 20:37 18.02.2020
2714 Clouds 24 1014 27 10000 4.1 140 20:19 18.02.2020
2715 Clouds 25 1014 25 10000 4.6 140 19:42 18.02.2020
2716 Clouds 25 1014 27 10000 4.1 150 19:20 18.02.2020
2717 Clouds 25 1014 27 10000 3.6 140 18:59 18.02.2020
2718 Clouds 25 1014 27 10000 3.6 140 18:59 18.02.2020
2719 Clouds 26 1014 26 10000 4.6 150 18:40 18.02.2020
2720 Clouds 26 1014 26 10000 4.6 150 18:20 18.02.2020
2721 Clouds 27 1014 26 10000 4.6 130 17:43 18.02.2020
2722 Clear 27 1014 26 10000 4.1 130 17:20 18.02.2020
2723 Clear 28 1014 26 10000 5.7 120 16:58 18.02.2020
2724 Clear 28 1014 26 10000 4.1 130 16:38 18.02.2020
2725 Clear 28 1014 26 10000 4.1 130 16:18 18.02.2020
2726 Clear 29 1014 26 10000 6.2 130 15:40 18.02.2020
2727 Clear 29 1014 26 10000 6.2 130 15:20 18.02.2020
2728 Clear 30 1014 25 10000 6.2 130 14:57 18.02.2020
2729 Clear 30 1014 25 10000 5.7 140 14:38 18.02.2020
2730 Clear 30 1014 25 10000 5.7 140 14:20 18.02.2020
2731 Clear 31 1014 22 10000 7.2 140 13:41 18.02.2020
2732 Clear 31 1014 22 10000 7.2 140 13:22 18.02.2020
2733 Clear 32 1013 21 10000 4.6 140 12:56 18.02.2020
2734 Clear 32 1013 21 10000 5.1 130 12:38 18.02.2020
2735 Clear 32 1013 21 10000 5.1 130 12:19 18.02.2020
2736 Clear 33 1012 21 10000 5.7 130 11:44 18.02.2020
2737 Clear 33 1011 19 10000 5.7 130 11:26 18.02.2020
2738 Clear 34 1011 18 10000 7.7 130 10:57 18.02.2020
2739 Clear 35 1011 17 10000 7.2 140 10:38 18.02.2020
2740 Clear 35 1011 17 10000 7.2 140 10:18 18.02.2020
2741 Clear 36 1010 16 10000 8.2 120 09:56 18.02.2020
2742 Clear 36 1010 16 10000 7.2 140 09:37 18.02.2020
2743 Clear 36 1010 16 10000 7.2 140 09:18 18.02.2020
2744 Clear 36 1010 16 10000 7.7 130 08:43 18.02.2020
2745 Clouds 37 1010 14 10000 7.7 130 08:21 18.02.2020
2746 Clouds 37 1010 16 10000 7.2 140 07:56 18.02.2020
2747 Clear 38 1010 15 10000 7.7 130 07:33 18.02.2020
2748 Clear 37 1011 13 10000 8.2 140 06:57 18.02.2020
2749 Clear 37 1011 13 10000 8.2 140 06:39 18.02.2020
2750 Clear 37 1011 13 10000 8.2 140 06:19 18.02.2020
2751 Clear 36 1012 13 10000 6.7 120 05:33 18.02.2020
2752 Clear 36 1013 14 10000 7.2 130 04:26 18.02.2020
2753 Clear 34 1014 14 10000 7.2 140 02:59 18.02.2020
2754 Clear 33 1015 13 10000 6.7 130 01:59 18.02.2020
2755 Clear 31 1015 15 10000 7.2 170 00:56 18.02.2020
2756 Clear 30 1014 15 10000 4.6 190 00:22 18.02.2020
2757 Clear 28 1014 20 10000 2.6 210 23:55 17.02.2020
2758 Clear 26 1014 24 10000 2.6 240 23:37 17.02.2020
2759 Clear 26 1014 24 10000 2.6 240 23:18 17.02.2020
2760 Clear 21 1013 30 10000 2.6 320 22:41 17.02.2020
2761 Clear 21 1013 30 10000 2.6 320 22:21 17.02.2020
2762 Clear 21 1013 30 10000 2.6 320 21:58 17.02.2020
2763 Clear 21 1012 30 10000 2.1 320 21:38 17.02.2020
2764 Clear 21 1012 30 10000 2.1 320 21:18 17.02.2020
2765 Clear 22 1012 28 10000 2.1 310 20:41 17.02.2020
2766 Clear 22 1012 28 10000 2.1 310 20:21 17.02.2020
2767 Clear 22 1012 28 10000 2.1 290 19:58 17.02.2020
2768 Clear 24 1012 25 10000 2.6 310 19:38 17.02.2020
2769 Clear 24 1012 25 10000 2.6 310 19:20 17.02.2020
2770 Clear 24 1012 23 10000 0.5 190 18:37 17.02.2020
2771 Clear 24 1012 23 10000 0.5 190 18:37 17.02.2020
2772 Clear 24 1012 23 10000 0.5 190 18:37 17.02.2020
2773 Clear 24 1012 23 10000 0.5 190 18:19 17.02.2020
2774 Clear 25 1012 22 10000 2.6 170 17:57 17.02.2020
2775 Clear 25 1012 23 10000 2.6 160 17:37 17.02.2020
2776 Clear 25 1012 23 10000 2.6 160 17:19 17.02.2020
2777 Clear 26 1012 21 10000 2.6 150 16:55 17.02.2020
2778 Clear 27 1012 19 10000 1.5 90 16:36 17.02.2020
2779 Clear 27 1012 19 10000 1.5 90 16:18 17.02.2020
2780 Clear 29 1013 16 10000 2.6 90 15:42 17.02.2020
2781 Clear 29 1013 16 10000 2.6 90 15:23 17.02.2020
2782 Clear 29 1012 16 10000 2.6 70 14:46 17.02.2020
2783 Clear 29 1012 16 10000 2.6 70 14:46 17.02.2020
2784 Clear 30 1012 15 10000 3.1 120 14:28 17.02.2020
2785 Clear 31 1012 14 10000 3.1 120 13:59 17.02.2020
2786 Clear 31 1012 15 10000 3.6 140 13:40 17.02.2020
2787 Clear 31 1012 15 10000 3.6 140 13:19 17.02.2020
2788 Clear 32 1012 13 10000 3.1 130 12:54 17.02.2020
2789 Clear 32 1012 13 10000 3.1 130 12:54 17.02.2020
2790 Clear 33 1012 13 10000 3.1 140 12:36 17.02.2020
2791 Clear 33 1012 13 10000 3.1 140 12:36 17.02.2020
2792 Clear 33 1012 13 10000 3.1 140 12:18 17.02.2020
2793 Clear 35 1011 11 10000 3.1 130 11:43 17.02.2020
2794 Clear 36 1011 11 10000 4.1 130 11:24 17.02.2020
2795 Clear 37 1010 11 10000 5.1 140 10:56 17.02.2020
2796 Clear 37 1010 10 10000 5.1 130 10:38 17.02.2020
2797 Clear 37 1010 10 10000 5.1 130 10:19 17.02.2020
2798 Clear 39 1010 10 10000 6.7 120 09:55 17.02.2020
2799 Clear 38 1010 10 10000 5.7 150 09:36 17.02.2020
2800 Clear 38 1010 10 10000 5.7 150 09:18 17.02.2020
2801 Clear 39 1010 10 10000 3.6 150 08:41 17.02.2020
2802 Clear 39 1010 10 10000 3.6 150 08:22 17.02.2020
2803 Clear 39 1010 8 10000 6.2 180 07:57 17.02.2020
2804 Clear 39 1010 10 10000 3.6 250 07:26 17.02.2020
2805 Clear 39 1010 9 10000 5.7 150 06:56 17.02.2020
2806 Clear 39 1010 9 10000 5.7 150 06:56 17.02.2020
2807 Clear 38 1010 10 10000 2.6 230 06:36 17.02.2020
2808 Clear 38 1011 10 10000 5.1 190 05:59 17.02.2020
2809 Clear 38 1011 9 10000 4.6 100 05:38 17.02.2020
2810 Clear 37 1012 12 10000 4.1 140 03:53 17.02.2020
2811 Clouds 34 1013 14 10000 4.1 90 02:19 17.02.2020
2812 Clear 32 1014 18 10000 4.6 100 00:55 17.02.2020
2813 Clear 31 1013 20 10000 3.1 100 00:25 17.02.2020
2814 Clear 30 1013 22 10000 2.6 90 23:56 16.02.2020
2815 Clear 26 1013 27 10000 0.5 130 23:34 16.02.2020
2816 Clear 24 1012 33 10000 2.1 80 22:59 16.02.2020
2817 Clear 24 1012 31 10000 3.23 75 22:39 16.02.2020
2818 Clear 24 1012 31 10000 3.23 75 22:21 16.02.2020
2819 Clear 24 1012 31 10000 2.6 140 21:59 16.02.2020
2820 Clear 25 1012 29 10000 2.1 120 21:41 16.02.2020
2821 Clear 25 1012 29 10000 2.1 120 21:23 16.02.2020
2822 Clouds 25 1011 29 10000 2.6 110 20:58 16.02.2020
2823 Clouds 25 1011 29 10000 2.6 130 20:40 16.02.2020
2824 Clouds 25 1011 29 10000 2.6 130 20:22 16.02.2020
2825 Clouds 26 1012 27 10000 1.5 80 19:58 16.02.2020
2826 Clouds 27 1011 26 10000 2.6 80 19:38 16.02.2020
2827 Clouds 27 1011 26 10000 2.6 80 19:19 16.02.2020
2828 Clouds 27 1011 26 10000 3.1 90 18:45 16.02.2020
2829 Clouds 27 1011 26 10000 2.1 100 18:26 16.02.2020
2830 Clouds 28 1012 24 10000 3.1 70 17:58 16.02.2020
2831 Clouds 29 1012 21 10000 4.6 90 17:40 16.02.2020
2832 Clouds 29 1012 21 10000 4.6 90 17:19 16.02.2020
2833 Clouds 30 1012 20 10000 3.6 100 16:56 16.02.2020
2834 Clouds 31 1012 19 10000 5.7 110 16:37 16.02.2020
2835 Clouds 31 1012 19 10000 5.7 110 16:19 16.02.2020
2836 Clouds 32 1011 19 10000 7.2 100 15:41 16.02.2020
2837 Clouds 32 1011 19 10000 7.2 100 15:22 16.02.2020
2838 Clouds 32 1011 21 10000 4.6 110 14:55 16.02.2020
2839 Clouds 33 1011 19 10000 4.6 120 14:36 16.02.2020
2840 Clouds 33 1011 19 10000 4.6 120 14:18 16.02.2020
2841 Clouds 34 1011 20 10000 4.6 120 13:41 16.02.2020
2842 Clear 34 1011 20 10000 4.6 120 13:23 16.02.2020
2843 Clear 35 1010 20 10000 5.1 130 12:40 16.02.2020
2844 Clear 35 1010 20 10000 5.1 130 12:20 16.02.2020
2845 Clear 35 1010 20 10000 6.2 140 11:54 16.02.2020
2846 Clear 36 1009 19 10000 6.7 140 11:36 16.02.2020
2847 Clear 36 1009 19 10000 6.7 140 11:18 16.02.2020
2848 Clear 37 1009 18 10000 6.2 140 10:55 16.02.2020
2849 Clear 37 1009 18 10000 6.2 140 10:55 16.02.2020
2850 Clear 38 1009 17 10000 4.6 130 10:37 16.02.2020
2851 Clear 38 1009 17 10000 4.6 130 10:18 16.02.2020
2852 Clear 38 1009 17 10000 3.6 150 09:39 16.02.2020
2853 Clear 38 1009 17 10000 3.6 150 09:20 16.02.2020
2854 Clear 38 1009 17 10000 5.1 150 08:57 16.02.2020
2855 Clear 38 1009 17 10000 5.1 150 08:57 16.02.2020
2856 Clear 39 1009 16 10000 4.6 140 08:39 16.02.2020
2857 Clouds 39 1009 16 10000 4.6 140 08:19 16.02.2020
2858 Clouds 38 1009 17 10000 2.6 130 07:42 16.02.2020
2859 Clouds 38 1009 18 10000 4.1 60 06:58 16.02.2020
2860 Clouds 38 1010 18 10000 4.6 70 06:31 16.02.2020
2861 Clouds 35 1012 21 10000 3.1 80 04:37 16.02.2020
2862 Clouds 34 1013 23 10000 4.1 70 03:22 16.02.2020
2863 Clear 31 1013 27 10000 5.1 120 01:58 16.02.2020
2864 Clear 30 1013 28 10000 5.7 90 01:38 16.02.2020
2865 Clear 30 1013 28 10000 5.7 90 01:19 16.02.2020
2866 Clear 29 1014 30 10000 6.7 110 00:42 16.02.2020
2867 Clear 29 1014 30 10000 6.7 110 00:22 16.02.2020
2868 Clear 28 1014 32 10000 7.2 110 23:43 15.02.2020
2869 Clear 28 1013 32 10000 6.2 120 23:25 15.02.2020
2870 Clear 27 1013 36 10000 3.1 130 22:57 15.02.2020
2871 Clear 27 1013 36 10000 3.1 130 22:57 15.02.2020
2872 Clear 27 1012 36 10000 3.6 130 22:39 15.02.2020
2873 Clear 27 1012 36 10000 3.6 130 22:19 15.02.2020
2874 Clear 27 1012 36 10000 4.6 120 21:56 15.02.2020
2875 Clear 27 1012 39 10000 3.6 120 21:37 15.02.2020
2876 Clear 27 1012 39 10000 3.6 120 21:19 15.02.2020
2877 Clear 28 1011 37 10000 6.2 110 20:38 15.02.2020
2878 Clear 28 1011 37 10000 6.2 110 20:20 15.02.2020
2879 Clear 29 1011 35 10000 7.2 110 19:43 15.02.2020
2880 Clear 29 1011 35 10000 7.7 110 19:22 15.02.2020
2881 Clear 29 1011 35 10000 5.7 120 18:43 15.02.2020
2882 Clear 29 1011 35 10000 3.6 110 18:22 15.02.2020
2883 Clear 30 1011 33 10000 3.6 90 17:57 15.02.2020
2884 Clear 30 1011 33 10000 3.6 90 17:57 15.02.2020
2885 Clear 31 1011 31 10000 4.6 110 17:37 15.02.2020
2886 Clear 31 1011 31 10000 4.6 110 17:19 15.02.2020
2887 Clear 31 1011 31 10000 6.2 110 16:42 15.02.2020
2888 Clear 31 1011 31 10000 6.2 110 16:24 15.02.2020
2889 Clear 32 1011 29 10000 6.2 110 15:57 15.02.2020
2890 Clear 32 1011 29 10000 4.6 110 15:39 15.02.2020
2891 Clear 32 1011 29 10000 4.6 110 15:20 15.02.2020
2892 Clear 33 1011 27 10000 5.1 120 14:43 15.02.2020
2893 Clear 33 1011 26 10000 4.6 120 14:19 15.02.2020
2894 Clear 33 1011 26 10000 4.6 120 13:43 15.02.2020
2895 Clear 34 1010 24 10000 6.2 120 13:25 15.02.2020
2896 Clear 35 1010 21 10000 6.2 120 12:59 15.02.2020
2897 Clear 35 1010 21 10000 5.1 130 12:41 15.02.2020
2898 Clear 35 1010 21 10000 5.1 130 12:41 15.02.2020
2899 Clear 35 1010 21 10000 5.1 130 12:22 15.02.2020
2900 Clear 36 1009 19 10000 6.2 130 11:48 15.02.2020
2901 Clear 37 1009 18 10000 5.7 120 11:29 15.02.2020
2902 Clear 37 1009 18 10000 6.2 140 10:52 15.02.2020
2903 Clear 38 1008 16 10000 4.6 140 10:30 15.02.2020
2904 Clear 38 1008 16 10000 4.1 90 09:59 15.02.2020
2905 Clear 39 1008 14 10000 6.2 140 09:41 15.02.2020
2906 Clear 39 1008 14 10000 6.2 140 09:23 15.02.2020
2907 Clear 40 1008 14 10000 3.6 90 08:43 15.02.2020
2908 Clear 39 1008 15 10000 5.1 170 08:25 15.02.2020
2909 Clear 39 1009 15 10000 2.6 110 07:56 15.02.2020
2910 Clear 39 1009 15 10000 3.1 110 07:34 15.02.2020
2911 Clear 39 1009 15 10000 2.6 340 06:54 15.02.2020
2912 Clear 39 1009 15 10000 2.6 190 06:36 15.02.2020
2913 Clear 37 1010 17 10000 3.6 50 05:41 15.02.2020
2914 Clear 37 1011 17 10000 3.1 80 04:46 15.02.2020
2915 Clear 35 1012 20 10000 5.1 120 03:39 15.02.2020
2916 Clear 35 1013 21 10000 6.7 100 02:51 15.02.2020
2917 Clear 35 1013 23 10000 5.7 110 02:22 15.02.2020
2918 Clouds 33 1013 26 10000 7.7 90 01:40 15.02.2020
2919 Clouds 31 1013 25 10000 8.2 110 00:42 15.02.2020
2920 Clouds 31 1013 25 10000 8.2 110 00:42 15.02.2020
2921 Clouds 31 1013 25 10000 8.2 110 00:21 15.02.2020
2922 Clouds 29 1013 26 10000 4.1 110 23:40 14.02.2020
2923 Clouds 29 1013 26 10000 4.1 110 23:19 14.02.2020
2924 Clouds 26 1012 29 10000 1.5 110 22:44 14.02.2020
2925 Clouds 25 1012 31 10000 3.12 98 22:23 14.02.2020
2926 Clouds 25 1011 31 10000 3.12 98 21:52 14.02.2020
2927 Clouds 26 1011 29 10000 2.6 170 21:34 14.02.2020
2928 Clouds 26 1010 29 10000 3.1 330 20:59 14.02.2020
2929 Clouds 26 1010 29 10000 3.12 98 20:41 14.02.2020
2930 Clouds 26 1010 29 10000 4.35 75 20:19 14.02.2020
2931 Clouds 27 1009 28 10000 0.5 170 19:54 14.02.2020
2932 Clouds 27 1009 28 10000 2.1 170 19:36 14.02.2020
2933 Clouds 27 1009 28 10000 2.1 170 19:18 14.02.2020
2934 Clouds 27 1009 28 10000 2.6 170 18:54 14.02.2020
2935 Clouds 28 1009 26 10000 2.6 140 18:36 14.02.2020
2936 Clouds 28 1009 26 10000 2.6 140 18:18 14.02.2020
2937 Clouds 30 1008 22 10000 2.6 90 17:40 14.02.2020
2938 Clear 30 1008 22 10000 2.6 90 17:18 14.02.2020
2939 Clear 31 1009 20 10000 2.1 80 16:42 14.02.2020
2940 Clear 31 1009 20 10000 2.1 80 16:42 14.02.2020
2941 Clear 31 1009 20 10000 2.1 80 16:42 14.02.2020
2942 Clear 31 1009 20 10000 2.1 80 16:24 14.02.2020
2943 Clear 32 1009 19 10000 2.1 80 15:58 14.02.2020
2944 Clear 32 1009 19 10000 2.6 80 15:39 14.02.2020
2945 Clear 32 1009 19 10000 2.6 80 15:21 14.02.2020
2946 Clear 33 1009 18 10000 2.6 70 14:59 14.02.2020
2947 Clear 33 1009 18 10000 2.6 70 14:41 14.02.2020
2948 Clear 33 1009 18 10000 2.6 70 14:22 14.02.2020
2949 Clear 35 1009 15 10000 4.1 70 13:56 14.02.2020
2950 Clear 36 1009 14 10000 4.6 70 13:38 14.02.2020
2951 Clear 36 1009 14 10000 4.6 70 13:19 14.02.2020
2952 Clear 36 1009 14 10000 6.7 80 12:56 14.02.2020
2953 Clear 37 1008 13 10000 4.6 120 12:38 14.02.2020
2954 Clear 37 1008 13 10000 4.6 120 12:20 14.02.2020
2955 Clear 38 1008 14 10000 4.6 120 11:55 14.02.2020
2956 Clear 38 1007 14 10000 4.1 120 11:37 14.02.2020
2957 Clear 38 1007 14 10000 4.1 120 11:19 14.02.2020
2958 Clear 39 1007 13 10000 5.1 100 10:41 14.02.2020
2959 Clear 39 1007 13 10000 5.1 100 10:22 14.02.2020
2960 Clear 39 1007 13 10000 5.1 100 10:22 14.02.2020
2961 Clear 40 1006 12 10000 4.6 110 09:45 14.02.2020
2962 Clear 40 1006 11 10000 5.7 180 09:24 14.02.2020
2963 Clear 41 1006 12 10000 5.1 170 08:58 14.02.2020
2964 Clear 39 1006 13 10000 5.1 160 08:39 14.02.2020
2965 Clear 39 1006 13 10000 5.1 160 08:21 14.02.2020
2966 Clear 40 1006 11 10000 5.7 200 07:50 14.02.2020
2967 Clear 40 1007 12 10000 2.1 100 07:29 14.02.2020
2968 Clear 40 1007 12 10000 3.1 130 06:39 14.02.2020
2969 Clear 40 1007 12 10000 3.1 130 06:20 14.02.2020
2970 Clear 39 1008 13 10000 4.1 130 05:29 14.02.2020
2971 Clear 38 1010 14 10000 2.1 240 03:49 14.02.2020
2972 Clear 36 1010 13 10000 2.6 100 02:58 14.02.2020
2973 Clear 34 1011 14 10000 2.6 20 01:57 14.02.2020
2974 Clear 33 1011 16 10000 2.6 10 00:46 14.02.2020
2975 Clear 31 1011 20 10000 2.38 49 00:27 14.02.2020
2976 Clear 29 1011 25 10000 2.1 320 23:57 13.02.2020
2977 Clear 27 1010 30 10000 2.6 300 23:38 13.02.2020
2978 Clear 27 1010 30 10000 2.6 300 23:18 13.02.2020
2979 Clear 24 1010 36 10000 2.1 360 22:40 13.02.2020
2980 Clear 24 1010 36 10000 2.1 360 22:19 13.02.2020
2981 Clear 24 1009 36 10000 2.1 300 21:58 13.02.2020
2982 Clear 25 1009 31 10000 1.5 250 21:39 13.02.2020
2983 Clear 25 1009 31 10000 1.5 250 21:20 13.02.2020
2984 Clear 25 1008 33 10000 3.48 53 20:42 13.02.2020
2985 Clear 25 1008 33 10000 3.24 63 20:22 13.02.2020
2986 Clear 26 1008 31 10000 1.5 110 19:57 13.02.2020
2987 Clear 27 1008 28 10000 2.1 110 19:38 13.02.2020
2988 Clear 27 1008 28 10000 2.1 110 19:20 13.02.2020
2989 Clear 28 1008 26 10000 2.6 110 18:57 13.02.2020
2990 Clear 29 1008 25 10000 2.1 100 18:39 13.02.2020
2991 Clear 29 1008 25 10000 2.1 100 18:20 13.02.2020
2992 Clear 30 1008 23 10000 4.1 80 17:57 13.02.2020
2993 Clear 30 1008 23 10000 4.6 80 17:37 13.02.2020
2994 Clear 30 1008 23 10000 4.6 80 17:18 13.02.2020
2995 Clear 32 1008 21 10000 4.6 80 16:42 13.02.2020
2996 Clear 32 1008 21 10000 4.6 80 16:21 13.02.2020
2997 Clear 32 1008 21 10000 5.7 90 15:57 13.02.2020
2998 Clear 32 1008 21 10000 5.1 80 15:39 13.02.2020
2999 Clear 32 1008 21 10000 5.1 80 15:19 13.02.2020
3000 Clear 32 1008 21 10000 4.1 90 14:59 13.02.2020
3001 Clear 33 1009 19 10000 4.6 100 14:39 13.02.2020
3002 Clear 33 1009 19 10000 4.6 100 14:21 13.02.2020
3003 Clear 34 1009 18 10000 3.6 110 13:48 13.02.2020
3004 Clear 34 1009 18 10000 3.1 110 13:19 13.02.2020
3005 Clear 35 1008 17 10000 4.1 120 12:57 13.02.2020
3006 Clear 36 1008 16 10000 4.6 130 12:38 13.02.2020
3007 Clear 36 1008 16 10000 4.6 130 12:20 13.02.2020
3008 Clear 37 1007 16 10000 4.1 140 11:47 13.02.2020
3009 Clear 37 1007 14 10000 4.6 140 11:21 13.02.2020
3010 Clear 38 1006 14 10000 5.1 150 10:57 13.02.2020
3011 Clear 39 1006 12 10000 5.7 170 10:39 13.02.2020
3012 Clear 39 1006 12 10000 5.7 170 10:20 13.02.2020
3013 Clear 39 1006 13 10000 6.7 170 09:42 13.02.2020
3014 Clear 39 1006 13 10000 6.7 170 09:23 13.02.2020
3015 Clear 40 1006 11 10000 6.7 160 08:45 13.02.2020
3016 Clear 41 1006 12 10000 5.7 160 08:19 13.02.2020
3017 Clear 41 1006 12 10000 5.7 160 08:19 13.02.2020
3018 Clear 41 1006 12 10000 5.7 160 08:19 13.02.2020
3019 Clear 40 1006 11 10000 5.7 170 07:43 13.02.2020
3020 Clear 40 1006 12 10000 4.6 130 07:22 13.02.2020
3021 Clear 40 1007 11 10000 4.6 130 06:52 13.02.2020
3022 Clear 40 1007 12 10000 4.1 190 06:33 13.02.2020
3023 Clear 40 1007 11 10000 5.1 180 05:43 13.02.2020
3024 Clear 39 1009 12 10000 3.1 230 04:39 13.02.2020
3025 Clear 39 1009 12 10000 3.1 230 04:18 13.02.2020
3026 Clear 36 1010 14 10000 3.1 180 03:29 13.02.2020
3027 Clear 36 1010 13 10000 2.6 360 02:55 13.02.2020
3028 Clear 35 1010 13 10000 2.1 320 02:20 13.02.2020
3029 Clear 35 1010 13 10000 2.1 320 02:20 13.02.2020
3030 Clear 33 1011 14 10000 2.6 350 01:40 13.02.2020
3031 Clear 33 1011 14 10000 2.6 350 01:40 13.02.2020
3032 Clear 33 1011 14 10000 2.6 350 01:40 13.02.2020
3033 -273 0 0 0 0 0 01:40 13.02.2020
3034 Clear 33 1011 15 10000 1 260 00:44 13.02.2020
3035 Clear 30 1011 22 10000 0.5 30 00:25 13.02.2020
3036 Clear 26 1010 31 10000 0.5 300 23:42 12.02.2020
3037 Clear 26 1010 31 10000 0.5 300 23:23 12.02.2020
3038 Clear 24 1010 36 10000 1.5 320 22:54 12.02.2020
3039 Clear 23 1010 35 10000 2.1 350 22:36 12.02.2020
3040 Clear 23 1010 35 10000 2.1 350 22:18 12.02.2020
3041 Clear 23 1010 38 10000 1.5 190 21:40 12.02.2020
3042 Clear 23 1010 38 10000 1.5 190 21:20 12.02.2020
3043 Clear 23 1010 38 10000 1.5 190 21:20 12.02.2020
3044 Clear 24 1009 33 10000 1.5 230 20:59 12.02.2020
3045 Clear 23 1009 35 10000 1 330 20:41 12.02.2020
3046 Clear 23 1009 35 10000 1 330 20:41 12.02.2020
3047 Clear 23 1009 35 10000 1 330 20:22 12.02.2020
3048 Clear 25 1009 31 10000 2.1 350 19:56 12.02.2020
3049 Clear 25 1009 31 10000 3.46 38 19:37 12.02.2020
3050 Clear 25 1009 31 10000 3.46 38 19:19 12.02.2020
3051 Clear 26 1009 27 10000 2.1 110 18:47 12.02.2020
3052 Clear 27 1009 26 10000 2.6 90 18:19 12.02.2020
3053 Clear 27 1010 26 10000 3.1 60 17:56 12.02.2020
3054 Clear 26 1010 27 10000 2.1 50 17:37 12.02.2020
3055 Clear 26 1010 27 10000 2.1 50 17:18 12.02.2020
3056 Clear 28 1010 23 10000 2.6 60 16:40 12.02.2020
3057 Clear 28 1010 23 10000 2.6 60 16:20 12.02.2020
3058 Clear 29 1010 21 10000 1 70 15:57 12.02.2020
3059 Clear 30 1010 20 10000 3.6 90 15:36 12.02.2020
3060 Clear 30 1010 20 10000 3.6 90 15:18 12.02.2020
3061 Clear 30 1010 20 10000 2.6 90 14:42 12.02.2020
3062 Clear 30 1010 20 10000 2.6 90 14:21 12.02.2020
3063 Clear 31 1010 18 10000 2.6 90 13:57 12.02.2020
3064 Clear 32 1010 17 10000 2.6 90 13:39 12.02.2020
3065 Clear 32 1010 17 10000 2.6 90 13:20 12.02.2020
3066 Clear 34 1010 15 10000 2.6 110 12:57 12.02.2020
3067 Clear 34 1010 15 10000 3.6 120 12:38 12.02.2020
3068 Clear 34 1010 15 10000 3.6 120 12:18 12.02.2020
3069 Clear 35 1010 14 10000 4.1 130 11:57 12.02.2020
3070 Clear 36 1009 12 10000 5.7 140 11:38 12.02.2020
3071 Clear 36 1009 12 10000 5.7 140 11:20 12.02.2020
3072 Clear 37 1009 13 10000 6.2 140 10:55 12.02.2020
3073 Clear 38 1009 13 10000 5.7 150 10:36 12.02.2020
3074 Clear 38 1009 13 10000 5.7 150 10:18 12.02.2020
3075 Clear 39 1009 12 10000 7.7 160 09:41 12.02.2020
3076 Clear 39 1009 12 10000 7.7 160 09:21 12.02.2020
3077 Clear 39 1009 12 10000 7.7 160 08:57 12.02.2020
3078 Clear 40 1009 11 10000 9.3 150 08:37 12.02.2020
3079 Clear 40 1009 11 10000 9.3 150 08:19 12.02.2020
3080 Clear 40 1009 11 10000 6.2 170 07:44 12.02.2020
3081 Clear 40 1009 11 10000 8.2 180 07:23 12.02.2020
3082 Clear 39 1009 12 10000 6.7 180 06:53 12.02.2020
3083 Clear 39 1010 13 10000 4.6 150 06:21 12.02.2020
3084 Clear 39 1011 13 10000 5.7 170 05:37 12.02.2020
3085 Clear 37 1011 13 10000 4.1 180 04:57 12.02.2020
3086 Clear 38 1011 14 10000 3.1 110 04:39 12.02.2020
3087 Clear 36 1012 14 10000 3.1 140 03:32 12.02.2020
3088 Clear 36 1012 14 10000 3.6 80 02:58 12.02.2020
3089 Clear 35 1013 16 10000 3.6 80 02:28 12.02.2020
3090 Clear 34 1013 17 10000 2.6 40 01:50 12.02.2020
3091 Clear 32 1013 19 10000 1 350 00:45 12.02.2020
3092 Clear 30 1013 23 10000 3.94 87 00:26 12.02.2020
3093 Clear 28 1013 28 10000 3.94 87 23:55 11.02.2020
3094 Clear 25 1013 33 10000 3.94 87 23:37 11.02.2020
3095 Clear 25 1013 33 10000 3.57 57 23:18 11.02.2020
3096 Clear 23 1012 40 10000 2.1 240 22:55 11.02.2020
3097 Clear 21 1012 46 10000 3.57 57 22:36 11.02.2020
3098 Clear 21 1012 46 10000 3.57 57 22:18 11.02.2020
3099 Clear 22 1011 43 10000 3.57 57 21:55 11.02.2020
3100 Clear 22 1012 43 10000 0.5 170 21:36 11.02.2020
3101 Clear 22 1012 43 10000 0.5 170 21:18 11.02.2020
3102 Clear 22 1012 43 10000 0.5 170 21:18 11.02.2020
3103 Clear 22 1011 37 10000 3.57 57 20:39 11.02.2020
3104 Clear 22 1011 37 10000 3.57 57 20:39 11.02.2020
3105 Clear 22 1011 37 10000 3.95 79 20:20 11.02.2020
3106 Clear 23 1011 35 10000 2.1 310 19:59 11.02.2020
3107 Clear 24 1011 33 10000 2.1 300 19:41 11.02.2020
3108 Clear 24 1011 33 10000 2.1 300 19:23 11.02.2020
3109 Clear 24 1011 33 10000 1.5 260 18:55 11.02.2020
3110 Clear 24 1012 33 10000 2.1 240 18:37 11.02.2020
3111 Clear 24 1012 33 10000 2.1 240 18:18 11.02.2020
3112 Clear 25 1012 31 10000 3.95 79 17:40 11.02.2020
3113 Clear 25 1012 31 10000 5.17 110 17:21 11.02.2020
3114 Clear 26 1012 27 10000 5.17 110 16:59 11.02.2020
3115 Clear 27 1012 28 10000 5.17 110 16:40 11.02.2020
3116 Clear 27 1012 28 10000 5.17 110 16:22 11.02.2020
3117 Clear 27 1012 26 10000 2.6 30 15:59 11.02.2020
3118 Clear 29 1012 23 10000 2.6 50 15:41 11.02.2020
3119 Clear 29 1012 23 10000 2.6 50 15:21 11.02.2020
3120 Clear 29 1012 21 10000 3.1 60 14:43 11.02.2020
3121 Clear 29 1012 21 10000 3.1 60 14:43 11.02.2020
3122 Clear 29 1012 21 10000 3.1 60 14:19 11.02.2020
3123 Clear 30 1012 20 10000 3.1 50 13:58 11.02.2020
3124 Clear 30 1012 20 10000 3.1 50 13:58 11.02.2020
3125 Clear 31 1012 19 10000 3.1 70 13:39 11.02.2020
3126 Clear 31 1012 19 10000 3.1 70 13:20 11.02.2020
3127 Clear 31 1012 19 10000 3.1 70 13:20 11.02.2020
3128 Clear 33 1012 17 10000 4.1 100 12:55 11.02.2020
3129 Clear 34 1011 15 10000 3.6 120 12:36 11.02.2020
3130 Clear 34 1011 15 10000 3.6 120 12:18 11.02.2020
3131 Clear 35 1010 14 10000 5.7 130 11:41 11.02.2020
3132 Clear 35 1010 14 10000 5.7 130 11:20 11.02.2020
3133 Clear 36 1010 12 10000 6.2 120 10:55 11.02.2020
3134 Clear 37 1010 13 10000 6.2 130 10:36 11.02.2020
3135 Clear 37 1010 13 10000 6.2 130 10:18 11.02.2020
3136 Clear 37 1010 13 10000 6.2 130 10:18 11.02.2020
3137 Clear 38 1010 13 10000 6.2 120 09:44 11.02.2020
3138 Clear 38 1010 13 10000 6.2 120 09:22 11.02.2020
3139 Clear 38 1010 13 10000 5.1 130 08:57 11.02.2020
3140 Clear 38 1010 12 10000 5.7 150 08:39 11.02.2020
3141 Clouds 38 1010 12 10000 5.7 150 08:20 11.02.2020
3142 Clouds 38 1010 11 10000 5.7 110 07:45 11.02.2020
3143 Clouds 39 1010 11 10000 6.7 120 07:24 11.02.2020
3144 Clouds 38 1011 13 10000 4.6 110 06:43 11.02.2020
3145 Clouds 37 1011 13 10000 5.1 120 06:21 11.02.2020
3146 Clouds 38 1012 13 10000 6.7 150 05:47 11.02.2020
3147 Clouds 37 1012 13 10000 5.1 100 05:22 11.02.2020
3148 Clouds 35 1013 14 10000 6.2 150 04:36 11.02.2020
3149 Clouds 32 1014 21 10000 3.6 130 02:41 11.02.2020
3150 Clouds 32 1014 21 10000 3.6 130 02:22 11.02.2020
3151 Clouds 32 1014 21 10000 5.7 100 01:34 11.02.2020
3152 Clouds 30 1014 25 10000 5.1 60 00:32 11.02.2020
3153 Clouds 28 1014 28 10000 4.1 70 23:52 10.02.2020
3154 Clouds 28 1013 28 10000 4.1 80 23:31 10.02.2020
3155 Clouds 27 1013 28 10000 4.1 90 22:58 10.02.2020
3156 Clouds 27 1013 28 10000 4.1 90 22:38 10.02.2020
3157 Clouds 27 1013 28 10000 4.1 90 22:20 10.02.2020
3158 Clouds 27 1013 28 10000 3.1 70 21:43 10.02.2020
3159 Clouds 28 1012 26 10000 3.6 90 21:25 10.02.2020
3160 Clouds 28 1012 26 10000 3.6 90 21:25 10.02.2020
3161 Clouds 28 1012 26 10000 3.6 80 20:57 10.02.2020
3162 Clouds 28 1012 26 10000 3.6 80 20:57 10.02.2020
3163 Clouds 28 1011 26 10000 4.1 90 20:38 10.02.2020
3164 Clouds 28 1011 26 10000 4.1 90 20:20 10.02.2020
3165 Clouds 28 1012 26 10000 3.1 70 19:58 10.02.2020
3166 Clouds 28 1011 26 10000 3.6 70 19:38 10.02.2020
3167 Clouds 28 1011 26 10000 3.6 70 19:18 10.02.2020
3168 Clouds 29 1011 25 10000 4.6 80 18:58 10.02.2020
3169 Clouds 29 1011 25 10000 3.6 70 18:39 10.02.2020
3170 Clouds 29 1011 25 10000 3.6 70 18:20 10.02.2020
3171 Clouds 29 1011 25 10000 3.1 80 17:56 10.02.2020
3172 Clouds 30 1011 22 10000 3.6 90 17:37 10.02.2020
3173 Clouds 30 1011 22 10000 3.6 90 17:19 10.02.2020
3174 Clouds 30 1011 22 10000 4.6 90 16:58 10.02.2020
3175 Clouds 31 1011 20 10000 5.1 100 16:38 10.02.2020
3176 Clouds 31 1011 20 10000 5.1 100 16:18 10.02.2020
3177 Clouds 32 1011 19 10000 5.1 90 15:42 10.02.2020
3178 Clouds 32 1011 19 10000 5.1 90 15:23 10.02.2020
3179 Clouds 31 1011 22 10000 3.1 110 14:59 10.02.2020
3180 Clouds 32 1010 21 10000 2.6 100 14:41 10.02.2020
3181 Clouds 32 1010 21 10000 2.6 100 14:19 10.02.2020
3182 Clouds 33 1010 19 10000 3.1 120 13:56 10.02.2020
3183 Clouds 33 1010 19 10000 3.1 120 13:56 10.02.2020
3184 Clouds 33 1010 18 10000 3.1 110 13:38 10.02.2020
3185 Clear 33 1010 18 10000 3.1 110 13:18 10.02.2020
3186 Clear 33 1010 18 10000 3.1 110 13:18 10.02.2020
3187 Clear 35 1009 16 10000 4.6 120 12:44 10.02.2020
3188 Clear 35 1009 16 10000 5.1 120 12:25 10.02.2020
3189 Clear 36 1009 15 10000 5.7 120 11:55 10.02.2020
3190 Clear 36 1008 14 10000 5.7 130 11:37 10.02.2020
3191 Clear 36 1008 14 10000 5.7 130 11:19 10.02.2020
3192 Clear 37 1008 13 10000 5.1 130 10:45 10.02.2020
3193 Clear 37 1007 13 10000 6.7 130 10:26 10.02.2020
3194 Clear 38 1007 14 10000 6.7 120 09:45 10.02.2020
3195 Clear 39 1007 13 10000 5.7 160 09:25 10.02.2020
3196 Clear 39 1007 13 10000 3.6 150 08:45 10.02.2020
3197 Clear 39 1007 13 10000 6.7 140 08:22 10.02.2020
3198 Clouds 39 1007 12 10000 5.7 110 07:58 10.02.2020
3199 Clouds 39 1007 13 10000 3.1 210 07:38 10.02.2020
3200 Clouds 39 1007 13 10000 4.6 90 06:59 10.02.2020
3201 Clouds 39 1008 13 10000 5.1 160 05:42 10.02.2020
3202 Clouds 38 1009 13 10000 3.1 40 04:26 10.02.2020
3203 Clouds 37 1009 13 10000 3.1 100 03:31 10.02.2020
3204 Clouds 36 1010 13 10000 3.1 30 02:53 10.02.2020
3205 Clouds 33 1010 16 10000 4.6 80 01:36 10.02.2020
3206 Clouds 32 1010 19 10000 4.6 70 00:46 10.02.2020
3207 Clouds 31 1010 20 10000 4.6 90 00:27 10.02.2020
3208 Clouds 29 1010 25 10000 3.6 80 23:44 09.02.2020
3209 Clouds 27 1009 30 10000 2.6 100 23:26 09.02.2020
3210 Clouds 24 1009 41 10000 2.6 110 22:57 09.02.2020
3211 Clouds 24 1009 41 10000 2.6 120 22:37 09.02.2020
3212 Clouds 24 1009 41 10000 2.6 120 22:19 09.02.2020
3213 Clouds 25 1008 36 10000 2.1 80 21:41 09.02.2020
3214 Clouds 25 1008 36 10000 2.1 80 21:22 09.02.2020
3215 Clouds 25 1008 33 10000 2.6 80 20:46 09.02.2020
3216 Clouds 25 1008 36 10000 2.6 70 20:23 09.02.2020
3217 Clear 25 1007 36 10000 2.1 90 19:57 09.02.2020
3218 Clear 25 1007 36 10000 2.1 90 19:57 09.02.2020
3219 Clear 26 1007 31 10000 2.6 110 19:38 09.02.2020
3220 Clear 26 1007 31 10000 2.6 110 19:20 09.02.2020
3221 Clear 27 1008 30 10000 2.6 80 18:42 09.02.2020
3222 Clear 27 1008 30 10000 2.6 80 18:23 09.02.2020
3223 Clear 27 1008 30 10000 3.1 90 17:59 09.02.2020
3224 Clear 27 1008 30 10000 3.1 60 17:39 09.02.2020
3225 Clear 27 1008 30 10000 3.1 60 17:21 09.02.2020
3226 Clear 27 1008 30 10000 3.1 60 17:21 09.02.2020
3227 Clear 28 1008 28 10000 2.6 70 16:41 09.02.2020
3228 Clear 28 1008 28 10000 2.6 70 16:22 09.02.2020
3229 Clear 29 1008 25 10000 3.1 70 15:59 09.02.2020
3230 Clear 29 1008 25 10000 3.1 70 15:59 09.02.2020
3231 Clear 29 1008 25 10000 2.6 50 15:41 09.02.2020
3232 Clear 29 1008 25 10000 2.6 50 15:21 09.02.2020
3233 Clear 30 1008 23 10000 2.6 60 14:57 09.02.2020
3234 Clear 31 1007 20 10000 3.1 80 14:38 09.02.2020
3235 Clouds 31 1007 20 10000 3.1 80 14:20 09.02.2020
3236 Clouds 31 1007 20 10000 3.6 70 13:43 09.02.2020
3237 Clouds 33 1007 18 10000 3.6 110 13:25 09.02.2020
3238 Clear 34 1007 17 10000 4.1 120 12:56 09.02.2020
3239 Clear 34 1006 16 10000 3.6 120 12:37 09.02.2020
3240 Clear 34 1006 16 10000 3.6 120 12:18 09.02.2020
3241 Clear 36 1006 13 10000 5.1 160 11:41 09.02.2020
3242 Clear 36 1006 13 10000 5.1 160 11:20 09.02.2020
3243 Clear 37 1006 13 10000 4.6 170 10:57 09.02.2020
3244 Clear 38 1005 12 10000 5.7 180 10:38 09.02.2020
3245 Clear 38 1005 12 10000 5.7 180 10:20 09.02.2020
3246 Clear 39 1005 11 10000 4.6 140 09:41 09.02.2020
3247 Clear 39 1005 11 10000 4.6 140 09:21 09.02.2020
3248 Clear 38 1005 12 10000 3.6 170 08:44 09.02.2020
3249 Clear 39 1005 11 10000 1.5 270 08:26 09.02.2020
3250 Clear 39 1005 12 10000 3.6 160 07:57 09.02.2020
3251 Clear 38 1006 12 10000 6.7 180 07:34 09.02.2020
3252 Clear 39 1006 12 10000 5.1 220 06:45 09.02.2020
3253 Clear 38 1007 13 10000 2.6 110 05:57 09.02.2020
3254 Clear 37 1008 13 10000 5.7 210 05:35 09.02.2020
3255 Clear 37 1008 13 10000 2.6 100 04:54 09.02.2020
3256 Clear 36 1009 14 10000 4.6 100 03:51 09.02.2020
3257 Clear 34 1010 16 10000 3.6 60 02:44 09.02.2020
3258 Clear 33 1011 18 10000 5.1 100 01:55 09.02.2020
3259 Clear 32 1011 21 10000 3.6 50 01:34 09.02.2020
3260 Clear 31 1011 22 10000 4.1 70 00:41 09.02.2020
3261 Clear 31 1011 22 10000 4.1 70 00:18 09.02.2020
3262 Clear 25 1011 33 10000 4.64 80 23:42 08.02.2020
3263 Clear 25 1011 33 10000 3.75 71 23:19 08.02.2020
3264 Clear 22 1010 40 10000 3.75 71 22:41 08.02.2020
3265 Clear 22 1010 40 10000 3.75 71 22:21 08.02.2020
3266 Clouds 22 1010 40 10000 1 80 21:58 08.02.2020
3267 Clouds 23 1010 40 10000 2.1 100 21:39 08.02.2020
3268 Clouds 23 1010 40 10000 2.1 100 21:19 08.02.2020
3269 Clouds 24 1010 33 10000 2.1 70 20:55 08.02.2020
3270 Clouds 24 1010 36 10000 2.1 60 20:37 08.02.2020
3271 Clouds 24 1010 36 10000 2.1 60 20:18 08.02.2020
3272 Clouds 24 1010 36 10000 2.1 60 20:18 08.02.2020
3273 Clouds 25 1010 31 10000 1.5 70 19:40 08.02.2020
3274 Clouds 25 1010 31 10000 1.5 70 19:20 08.02.2020
3275 Clouds 26 1010 26 10000 2.1 50 18:59 08.02.2020
3276 Clouds 26 1010 27 10000 2.6 60 18:40 08.02.2020
3277 Clouds 26 1010 27 10000 2.6 60 18:22 08.02.2020
3278 Clouds 27 1011 24 10000 3.6 90 17:42 08.02.2020
3279 Clouds 27 1011 24 10000 3.6 90 17:42 08.02.2020
3280 Clouds 27 1011 24 10000 3.6 90 17:21 08.02.2020
3281 Clouds 29 1011 21 10000 4.1 110 16:56 08.02.2020
3282 Clouds 29 1011 23 10000 3.6 90 16:37 08.02.2020
3283 Clouds 29 1011 23 10000 3.6 90 16:18 08.02.2020
3284 Clear 28 1011 26 10000 3.6 70 15:40 08.02.2020
3285 Clear 28 1011 26 10000 3.6 70 15:19 08.02.2020
3286 Clear 29 1011 25 10000 3.1 50 14:55 08.02.2020
3287 Clear 30 1011 23 10000 3.1 140 14:36 08.02.2020
3288 Clear 30 1011 23 10000 3.1 140 14:18 08.02.2020
3289 Clear 31 1010 22 10000 3.6 150 13:41 08.02.2020
3290 Clear 31 1010 22 10000 3.6 150 13:23 08.02.2020
3291 Clear 32 1010 19 10000 3.1 140 12:49 08.02.2020
3292 Clear 32 1010 19 10000 3.1 140 12:49 08.02.2020
3293 Clear 33 1010 18 10000 3.1 140 12:24 08.02.2020
3294 Clear 34 1010 16 10000 4.1 130 11:59 08.02.2020
3295 Clear 35 1010 14 10000 5.7 140 11:40 08.02.2020
3296 Clear 35 1010 14 10000 5.7 140 11:20 08.02.2020
3297 Clear 36 1009 14 10000 4.1 150 10:43 08.02.2020
3298 Clear 36 1009 14 10000 4.1 150 10:43 08.02.2020
3299 Clear 36 1009 14 10000 4.1 150 10:23 08.02.2020
3300 Clear 37 1009 13 10000 6.7 190 09:53 08.02.2020
3301 Clear 37 1009 13 10000 4.1 150 09:29 08.02.2020
3302 Clear 38 1009 11 10000 8.2 160 08:57 08.02.2020
3303 Clear 38 1009 11 10000 4.6 190 08:38 08.02.2020
3304 Clear 38 1009 11 10000 4.6 190 08:20 08.02.2020
3305 Clear 37 1009 13 10000 4.1 170 07:50 08.02.2020
3306 Clear 38 1009 11 10000 4.6 140 07:31 08.02.2020
3307 Clear 38 1010 13 10000 4.6 190 06:33 08.02.2020
3308 Clear 38 1010 13 10000 4.6 190 06:33 08.02.2020
3309 Clear 37 1010 13 10000 4.1 70 05:50 08.02.2020
3310 Clear 37 1011 14 10000 2.1 40 05:30 08.02.2020
3311 Clear 36 1011 14 10000 4.6 210 04:51 08.02.2020
3312 Clear 36 1012 14 10000 4.6 110 03:55 08.02.2020
3313 Clear 33 1013 21 10000 5.1 80 02:57 08.02.2020
3314 Clouds 33 1013 22 10000 4.6 80 02:20 08.02.2020
3315 Clouds 30 1014 27 10000 4.6 80 01:26 08.02.2020
3316 Clouds 30 1014 27 10000 6.2 80 00:45 08.02.2020
3317 Clouds 29 1014 26 10000 5.1 70 00:22 08.02.2020
3318 Clouds 28 1014 23 10000 3.1 60 23:55 07.02.2020
3319 Clouds 25 1014 23 10000 7.76 97 23:37 07.02.2020
3320 Clouds 25 1014 23 10000 5.66 104 23:19 07.02.2020
3321 Clouds 21 1013 37 10000 1 310 22:40 07.02.2020
3322 Clouds 21 1013 37 10000 1 310 22:19 07.02.2020
3323 Clouds 21 1013 37 10000 1.5 350 21:44 07.02.2020
3324 Clouds 23 1012 27 10000 2.1 110 21:23 07.02.2020
3325 Clouds 25 1012 23 10000 3.1 110 20:58 07.02.2020
3326 Clouds 25 1012 22 10000 3.6 110 20:38 07.02.2020
3327 Clouds 25 1012 22 10000 3.6 110 20:18 07.02.2020
3328 Clouds 24 1012 25 10000 3.6 60 19:42 07.02.2020
3329 Clouds 24 1012 25 10000 3.6 60 19:22 07.02.2020
3330 Clouds 24 1012 25 10000 1 30 18:58 07.02.2020
3331 Clouds 24 1012 25 10000 1 30 18:58 07.02.2020
3332 Clouds 25 1012 23 10000 0.5 60 18:40 07.02.2020
3333 Clouds 25 1012 23 10000 0.5 60 18:20 07.02.2020
3334 Clouds 25 1012 23 10000 2.6 70 17:43 07.02.2020
3335 Clouds 25 1012 25 10000 3.6 70 17:22 07.02.2020
3336 Clouds 25 1013 25 10000 0.5 10 16:57 07.02.2020
3337 Clouds 25 1013 25 10000 5.89 107 16:38 07.02.2020
3338 Clouds 25 1013 25 10000 5.89 107 16:19 07.02.2020
3339 Clouds 26 1013 22 10000 2.1 60 15:47 07.02.2020
3340 Clouds 28 1013 20 10000 3.1 130 15:22 07.02.2020
3341 Clouds 27 1013 22 10000 3.6 150 14:44 07.02.2020
3342 Clouds 27 1013 22 10000 3.6 150 14:26 07.02.2020
3343 Clouds 28 1013 21 10000 3.1 150 13:58 07.02.2020
3344 Clouds 30 1013 17 10000 3.1 160 13:39 07.02.2020
3345 Clouds 30 1013 17 10000 3.1 160 13:21 07.02.2020
3346 Clouds 30 1013 17 10000 3.1 160 13:21 07.02.2020
3347 Clouds 31 1013 16 10000 3.1 160 12:55 07.02.2020
3348 Clouds 32 1013 14 10000 3.6 180 12:37 07.02.2020
3349 Clouds 32 1013 14 10000 3.6 180 12:19 07.02.2020
3350 Clouds 34 1012 12 10000 4.6 180 11:42 07.02.2020
3351 Clouds 34 1012 12 10000 4.6 180 11:20 07.02.2020
3352 Clouds 35 1011 12 10000 6.2 170 10:42 07.02.2020
3353 Clouds 35 1011 12 10000 6.2 170 10:24 07.02.2020
3354 Clouds 36 1011 11 10000 8.2 190 09:56 07.02.2020
3355 Clouds 37 1010 10 10000 6.7 150 09:37 07.02.2020
3356 Clouds 37 1010 10 10000 6.7 150 09:19 07.02.2020
3357 Clouds 37 1010 11 10000 6.7 160 08:42 07.02.2020
3358 Clear 37 1010 11 10000 6.7 160 08:21 07.02.2020
3359 Clear 37 1010 11 10000 8.7 160 07:45 07.02.2020
3360 Clear 37 1011 11 10000 5.1 150 07:26 07.02.2020
3361 Clear 37 1011 11 10000 8.2 180 06:46 07.02.2020
3362 Clear 37 1011 11 10000 3.1 170 06:26 07.02.2020
3363 Clear 37 1012 11 10000 4.6 120 05:45 07.02.2020
3364 Clear 35 1013 15 10000 2.6 210 04:42 07.02.2020
3365 Clear 33 1014 11 10000 4.1 110 02:50 07.02.2020
3366 Clear 33 1015 10 10000 5.1 80 01:42 07.02.2020
3367 Clear 30 1015 15 10000 3.6 90 00:48 07.02.2020
3368 Clear 27 1014 21 10000 1.5 90 00:19 07.02.2020
3369 Clear 27 1014 21 10000 1.5 90 00:19 07.02.2020
3370 Clear 23 1014 33 10000 1.5 200 23:37 06.02.2020
3371 Clear 23 1014 33 10000 1.5 200 23:19 06.02.2020
3372 Clear 19 1014 52 10000 1.5 280 22:44 06.02.2020
3373 Clear 19 1014 52 10000 1.5 280 22:24 06.02.2020
3374 Clear 19 1013 48 10000 2.1 290 21:38 06.02.2020
3375 Clear 19 1013 48 10000 2.1 290 21:19 06.02.2020
3376 Clear 20 1013 49 10000 2.1 290 20:58 06.02.2020
3377 Clear 20 1012 45 10000 2.1 280 20:39 06.02.2020
3378 Clear 20 1012 45 10000 2.1 280 20:19 06.02.2020
3379 Clear 20 1012 45 10000 1 240 19:59 06.02.2020
3380 Clear 20 1012 49 10000 1.5 220 19:40 06.02.2020
3381 Clear 20 1012 49 10000 1.5 220 19:22 06.02.2020
3382 Clear 21 1012 40 10000 3.82 90 18:58 06.02.2020
3383 Clear 21 1012 43 10000 3.82 90 18:39 06.02.2020
3384 Clear 21 1012 43 10000 3.82 90 18:20 06.02.2020
3385 Clear 22 1012 40 10000 3.82 90 17:42 06.02.2020
3386 Clear 22 1012 40 10000 5.69 96 17:21 06.02.2020
3387 Clear 23 1013 38 10000 5.69 96 16:57 06.02.2020
3388 Clear 23 1013 33 10000 2.1 80 16:39 06.02.2020
3389 Clear 23 1013 33 10000 2.1 80 16:20 06.02.2020
3390 Clear 25 1013 22 10000 2.1 70 15:42 06.02.2020
3391 Clear 25 1013 22 10000 2.1 70 15:21 06.02.2020
3392 Clear 25 1013 23 10000 2.6 60 14:48 06.02.2020
3393 Clear 26 1013 22 10000 2.1 130 14:27 06.02.2020
3394 Clear 27 1013 18 10000 3.1 160 13:55 06.02.2020
3395 Clear 28 1012 23 10000 3.6 150 13:36 06.02.2020
3396 Clear 28 1012 23 10000 3.6 150 13:18 06.02.2020
3397 Clear 30 1012 13 10000 3.1 150 12:43 06.02.2020
3398 Clear 30 1012 13 10000 3.1 150 12:43 06.02.2020
3399 Clear 31 1012 12 10000 3.6 150 12:18 06.02.2020
3400 Clear 31 1012 12 10000 3.1 170 11:56 06.02.2020
3401 Clear 32 1012 11 10000 4.6 180 11:37 06.02.2020
3402 Clear 32 1012 11 10000 4.6 180 11:18 06.02.2020
3403 Clear 34 1011 9 10000 4.6 170 10:54 06.02.2020
3404 Clear 34 1011 9 10000 5.1 180 10:36 06.02.2020
3405 Clear 34 1011 9 10000 5.1 180 10:18 06.02.2020
3406 Clear 35 1011 10 10000 4.1 150 09:42 06.02.2020
3407 Clear 35 1011 10 10000 4.1 150 09:20 06.02.2020
3408 Clear 35 1011 10 10000 5.1 190 08:47 06.02.2020
3409 Clear 36 1011 9 10000 3.6 130 08:24 06.02.2020
3410 Clouds 35 1011 11 10000 4.6 200 07:57 06.02.2020
3411 Clouds 36 1011 11 10000 5.7 170 07:33 06.02.2020
3412 Clouds 35 1012 18 10000 4.1 170 06:54 06.02.2020
3413 Clouds 36 1012 11 10000 5.7 160 06:19 06.02.2020
3414 Clouds 35 1013 11 10000 3.6 190 05:40 06.02.2020
3415 Clouds 34 1014 13 10000 3.6 150 04:18 06.02.2020
3416 Clouds 32 1014 13 10000 4.1 80 03:18 06.02.2020
3417 Clouds 30 1015 16 10000 5.7 110 01:57 06.02.2020
3418 Clouds 30 1015 17 10000 5.1 80 01:24 06.02.2020
3419 Clouds 27 1015 21 10000 2.6 100 00:38 06.02.2020
3420 Clouds 27 1015 21 10000 2.6 100 00:19 06.02.2020
3421 Clouds 25 1015 25 10000 2.1 100 23:40 05.02.2020
3422 Clear 25 1015 25 10000 2.1 100 23:22 05.02.2020
3423 Clear 22 1014 37 10000 2.6 140 22:41 05.02.2020
3424 Clear 22 1014 37 10000 2.6 140 22:23 05.02.2020
3425 Clear 21 1013 49 10000 3.1 160 21:58 05.02.2020
3426 Clouds 21 1013 49 10000 2.6 140 21:40 05.02.2020
3427 Clouds 21 1013 49 10000 2.6 140 21:22 05.02.2020
3428 Clear 22 1013 53 10000 0.5 100 20:39 05.02.2020
3429 Clouds 22 1013 53 10000 0.5 100 20:21 05.02.2020
3430 Clouds 23 1012 46 10000 2.1 100 19:59 05.02.2020
3431 Clouds 24 1013 38 10000 2.1 90 19:41 05.02.2020
3432 Clouds 24 1012 41 10000 3.1 130 19:19 05.02.2020
3433 Clouds 24 1012 41 10000 3.1 130 19:19 05.02.2020
3434 Clouds 24 1012 41 10000 3.1 130 18:57 05.02.2020
3435 Clouds 24 1013 47 10000 1.5 80 18:39 05.02.2020
3436 Clouds 25 1012 33 10000 2.6 70 18:19 05.02.2020
3437 Clouds 26 1013 34 10000 2.6 120 17:40 05.02.2020
3438 Clouds 26 1013 34 10000 2.6 120 17:20 05.02.2020
3439 Clouds 26 1013 31 10000 2.6 110 16:59 05.02.2020
3440 Clouds 26 1014 34 10000 2.6 130 16:41 05.02.2020
3441 Clouds 26 1014 34 10000 2.6 130 16:23 05.02.2020
3442 Clouds 26 1014 31 10000 2.1 70 15:56 05.02.2020
3443 Clouds 26 1014 29 10000 2.1 70 15:38 05.02.2020
3444 Clouds 26 1014 29 10000 2.1 70 15:18 05.02.2020
3445 Clouds 27 1014 28 10000 2.6 90 14:42 05.02.2020
3446 Clouds 27 1014 28 10000 2.6 90 14:22 05.02.2020
3447 Clouds 28 1013 24 10000 3.1 70 13:44 05.02.2020
3448 Clouds 30 1013 22 10000 3.6 130 13:24 05.02.2020
3449 Clouds 30 1013 22 10000 3.6 130 12:59 05.02.2020
3450 Clear 30 1012 22 10000 3.6 140 12:38 05.02.2020
3451 Clear 30 1012 22 10000 3.6 140 12:19 05.02.2020
3452 Clouds 32 1012 18 10000 4.1 140 11:41 05.02.2020
3453 Clouds 32 1012 18 10000 4.1 140 11:23 05.02.2020
3454 Clouds 32 1011 18 10000 4.6 140 10:58 05.02.2020
3455 Clouds 32 1011 18 10000 4.6 120 10:39 05.02.2020
3456 Clouds 32 1011 18 10000 4.6 120 10:18 05.02.2020
3457 Clouds 34 1011 16 10000 5.1 130 09:43 05.02.2020
3458 Clouds 34 1011 16 10000 5.1 130 09:22 05.02.2020
3459 Clouds 33 1011 17 10000 6.7 110 08:56 05.02.2020
3460 Clouds 34 1011 16 10000 5.7 100 08:37 05.02.2020
3461 Clouds 34 1011 16 10000 5.7 100 08:19 05.02.2020
3462 Clouds 33 1011 19 10000 2.6 130 07:42 05.02.2020
3463 Clouds 33 1011 19 10000 2.6 130 07:19 05.02.2020
3464 Clouds 32 1012 18 10000 2.6 130 06:39 05.02.2020
3465 Clouds 31 1013 19 10000 4.6 100 06:20 05.02.2020
3466 Clouds 32 1013 18 10000 5.1 150 05:20 05.02.2020
3467 Clouds 31 1013 20 10000 6.2 130 04:58 05.02.2020
3468 Clouds 31 1014 19 10000 6.7 130 04:25 05.02.2020
3469 Clouds 29 1015 23 10000 5.7 110 02:52 05.02.2020
3470 Clouds 29 1015 25 10000 7.2 110 02:21 05.02.2020
3471 Clouds 27 1015 30 10000 6.2 130 01:28 05.02.2020
3472 Clouds 26 1015 34 10000 6.7 130 00:22 05.02.2020
3473 Clouds 25 1015 41 10000 3.6 120 23:40 04.02.2020
3474 Clouds 24 1014 44 10000 2.6 160 23:19 04.02.2020
3475 Clouds 24 1014 44 10000 2.6 160 22:57 04.02.2020
3476 Clouds 24 1014 44 10000 3.1 140 22:39 04.02.2020
3477 Clouds 24 1014 44 10000 3.1 140 22:20 04.02.2020
3478 Clouds 24 1014 44 10000 2.6 160 21:54 04.02.2020
3479 Clouds 25 1013 41 10000 3.6 140 21:36 04.02.2020
3480 Clouds 25 1013 41 10000 3.6 140 21:18 04.02.2020
3481 Clouds 25 1013 38 10000 3.6 120 20:44 04.02.2020
3482 Clouds 25 1013 41 10000 2.6 120 20:21 04.02.2020
3483 Clouds 25 1013 38 10000 4.1 120 19:59 04.02.2020
3484 Clouds 25 1013 36 10000 4.1 120 19:40 04.02.2020
3485 Clouds 25 1013 36 10000 4.1 120 19:22 04.02.2020
3486 Clouds 25 1013 38 10000 3.6 130 18:57 04.02.2020
3487 Clouds 26 1013 36 10000 3.1 120 18:38 04.02.2020
3488 Clouds 26 1013 36 10000 3.1 120 18:38 04.02.2020
3489 Clouds 26 1013 36 10000 3.1 120 18:19 04.02.2020
3490 Clouds 26 1013 36 10000 3.6 130 17:43 04.02.2020
3491 Clouds 26 1014 36 10000 3.6 130 17:21 04.02.2020
3492 Clouds 26 1014 36 10000 3.6 130 16:57 04.02.2020
3493 Clouds 27 1014 36 10000 4.1 120 16:38 04.02.2020
3494 Clouds 27 1014 36 10000 4.1 120 16:19 04.02.2020
3495 Clouds 27 1014 39 10000 4.6 130 15:56 04.02.2020
3496 Clouds 27 1014 39 10000 4.6 130 15:56 04.02.2020
3497 Clouds 27 1014 44 10000 3.1 130 15:38 04.02.2020
3498 Clouds 27 1014 44 10000 3.1 130 15:19 04.02.2020
3499 Clouds 27 1014 44 10000 2.6 130 14:42 04.02.2020
3500 Clouds 27 1014 44 10000 2.6 130 14:23 04.02.2020
3501 Clouds 27 1014 44 10000 2.6 130 13:57 04.02.2020
3502 Clouds 27 1014 44 10000 2.6 110 13:39 04.02.2020
3503 Clouds 27 1014 44 10000 2.6 110 13:20 04.02.2020
3504 Clouds 27 1014 42 10000 3.1 110 12:44 04.02.2020
3505 Clouds 27 1014 44 10000 4.6 130 12:26 04.02.2020
3506 Clouds 27 1013 42 10000 4.1 130 11:58 04.02.2020
3507 Clouds 27 1013 39 10000 5.1 140 11:39 04.02.2020
3508 Clouds 27 1013 39 10000 5.1 140 11:21 04.02.2020
3509 Clouds 28 1013 37 10000 4.6 140 10:55 04.02.2020
3510 Clouds 28 1013 37 10000 5.1 140 10:36 04.02.2020
3511 Clouds 28 1013 37 10000 5.1 140 10:36 04.02.2020
3512 Clouds 28 1013 37 10000 5.1 140 10:18 04.02.2020
3513 Clouds 29 1012 32 10000 5.1 120 09:40 04.02.2020
3514 Clouds 29 1012 32 10000 5.1 120 09:22 04.02.2020
3515 Clouds 29 1012 35 10000 5.1 140 08:50 04.02.2020
3516 Clouds 29 1012 32 10000 4.6 150 08:28 04.02.2020
3517 Clouds 29 1012 32 10000 4.6 150 08:28 04.02.2020
3518 Clouds 29 1012 32 10000 5.1 150 07:57 04.02.2020
3519 Clouds 29 1012 32 10000 5.1 110 07:38 04.02.2020
3520 Clouds 29 1012 32 10000 5.1 110 07:19 04.02.2020
3521 Clouds 28 1013 34 10000 4.6 140 06:42 04.02.2020
3522 Clouds 27 1014 34 10000 5.7 100 05:37 04.02.2020
3523 Clouds 26 1014 39 10000 4.1 110 04:51 04.02.2020
3524 Clouds 26 1015 41 10000 7.2 110 03:49 04.02.2020
3525 Rain 25 1015 44 10000 5.1 130 03:30 04.02.2020
3526 Clouds 24 1015 47 10000 7.2 110 02:49 04.02.2020
3527 Clouds 24 1015 50 10000 6.2 130 02:28 04.02.2020
3528 Clouds 24 1015 50 10000 6.2 120 01:47 04.02.2020
3529 Clouds 23 1016 53 10000 5.1 120 01:19 04.02.2020
3530 Clouds 22 1016 60 10000 5.7 130 00:25 04.02.2020
3531 Clouds 22 1015 64 10000 5.7 130 23:55 03.02.2020
3532 Clouds 22 1015 60 10000 5.7 130 23:37 03.02.2020
3533 Clouds 22 1015 60 10000 5.7 130 23:18 03.02.2020
3534 Clouds 21 1015 68 10000 4.6 130 22:39 03.02.2020
3535 Clouds 21 1015 68 10000 4.6 130 22:19 03.02.2020
3536 Clouds 21 1014 64 10000 5.1 150 21:42 03.02.2020
3537 Clouds 21 1014 64 10000 5.1 150 21:20 03.02.2020
3538 Clouds 22 1014 60 10000 5.7 150 20:57 03.02.2020
3539 Clouds 22 1014 60 10000 5.7 140 20:39 03.02.2020
3540 Clouds 22 1014 60 10000 5.7 140 20:18 03.02.2020
3541 Clouds 23 1014 53 10000 4.6 130 19:42 03.02.2020
3542 Clouds 23 1014 53 10000 4.6 130 19:23 03.02.2020
3543 Clouds 23 1014 53 10000 5.7 140 18:59 03.02.2020
3544 Clouds 24 1014 47 10000 6.2 140 18:41 03.02.2020
3545 Clouds 24 1014 47 10000 6.2 140 18:22 03.02.2020
3546 Clouds 24 1014 47 10000 6.7 150 17:57 03.02.2020
3547 Clouds 25 1014 41 10000 4.6 130 17:39 03.02.2020
3548 Clouds 25 1014 41 10000 4.6 130 17:19 03.02.2020
3549 Clouds 26 1014 39 10000 6.7 130 16:40 03.02.2020
3550 Clouds 26 1014 39 10000 6.7 130 16:22 03.02.2020
3551 Clouds 26 1014 39 10000 6.7 120 15:58 03.02.2020
3552 Clouds 26 1015 39 10000 6.7 120 15:39 03.02.2020
3553 Clouds 26 1015 39 10000 6.7 120 15:20 03.02.2020
3554 Clouds 27 1015 36 10000 6.7 130 14:57 03.02.2020
3555 Clouds 27 1015 36 10000 6.7 130 14:57 03.02.2020
3556 Clouds 27 1015 36 10000 5.1 130 14:38 03.02.2020
3557 Clouds 27 1015 36 10000 5.1 130 14:38 03.02.2020
3558 Clouds 27 1015 36 10000 5.1 130 14:38 03.02.2020
3559 Clouds 27 1015 36 10000 5.1 130 14:19 03.02.2020
3560 Clouds 27 1014 36 10000 6.2 130 13:42 03.02.2020
3561 Clouds 27 1014 36 10000 6.2 130 13:21 03.02.2020
3562 Clouds 28 1014 32 10000 6.7 130 12:58 03.02.2020
3563 Clouds 28 1013 34 10000 5.7 140 12:39 03.02.2020
3564 Clouds 28 1013 34 10000 5.7 140 12:39 03.02.2020
3565 Clouds 28 1013 34 10000 5.7 140 12:21 03.02.2020
3566 Clouds 28 1013 37 10000 6.2 140 11:55 03.02.2020
3567 Clouds 29 1013 37 10000 6.7 140 11:36 03.02.2020
3568 Clouds 29 1013 37 10000 6.7 140 11:36 03.02.2020
3569 Clouds 29 1013 37 10000 6.7 140 11:18 03.02.2020
3570 Clouds 29 1012 37 10000 5.7 130 10:40 03.02.2020
3571 Clouds 29 1012 37 10000 5.7 130 10:21 03.02.2020
3572 Clouds 30 1011 35 10000 6.7 150 09:44 03.02.2020
3573 Clouds 30 1011 35 10000 6.7 150 09:21 03.02.2020
3574 Clouds 30 1012 33 10000 6.2 140 08:42 03.02.2020
3575 Clouds 30 1012 33 10000 6.2 140 08:23 03.02.2020
3576 Clouds 30 1012 33 10000 5.7 140 07:59 03.02.2020
3577 Clouds 30 1012 35 10000 6.2 130 07:40 03.02.2020
3578 Clouds 30 1012 35 10000 6.2 130 07:21 03.02.2020
3579 Clouds 30 1012 30 10000 5.7 160 06:49 03.02.2020
3580 Clouds 28 1013 37 10000 5.1 130 06:27 03.02.2020
3581 Clouds 28 1014 34 10000 5.7 150 05:36 03.02.2020
3582 Clouds 28 1014 37 10000 6.2 110 04:59 03.02.2020
3583 Clouds 25 1016 44 10000 5.7 140 02:58 03.02.2020
3584 Clouds 24 1016 47 10000 6.2 140 02:34 03.02.2020
3585 Clouds 23 1016 49 10000 5.1 130 01:30 03.02.2020
3586 Clouds 23 1016 56 10000 5.7 140 00:46 03.02.2020
3587 Clouds 22 1016 60 10000 5.7 150 00:22 03.02.2020
3588 Clouds 21 1016 83 10000 3.1 150 23:38 02.02.2020
3589 Clouds 21 1016 83 10000 3.1 150 23:20 02.02.2020
3590 Clouds 20 1015 82 10000 2.6 160 22:57 02.02.2020
3591 Clouds 20 1015 88 10000 2.6 150 22:37 02.02.2020
3592 Clouds 20 1015 88 10000 2.6 150 22:37 02.02.2020
3593 Clouds 20 1015 88 10000 2.6 150 22:19 02.02.2020
3594 Clouds 20 1015 88 10000 2.6 140 21:42 02.02.2020
3595 Clouds 20 1015 88 10000 2.6 140 21:24 02.02.2020
3596 Clouds 20 1014 88 10000 2.6 140 20:58 02.02.2020
3597 Clouds 20 1014 88 10000 2.6 150 20:39 02.02.2020
3598 Clouds 20 1014 88 10000 2.6 150 20:21 02.02.2020
3599 Clouds 20 1014 82 10000 2.6 120 19:59 02.02.2020
3600 Clouds 20 1014 82 10000 3.1 130 19:41 02.02.2020
3601 Clouds 20 1014 82 10000 3.1 130 19:23 02.02.2020
3602 Clouds 20 1014 82 10000 4.1 120 18:57 02.02.2020
3603 Clouds 21 1014 77 10000 3.6 120 18:38 02.02.2020
3604 Clouds 21 1014 77 10000 3.6 120 18:20 02.02.2020
3605 Clouds 21 1014 77 10000 3.6 110 17:58 02.02.2020
3606 Clouds 21 1014 77 10000 4.6 110 17:38 02.02.2020
3607 Clouds 21 1014 77 10000 4.6 110 17:18 02.02.2020
3608 Clouds 21 1014 88 10000 4.1 120 16:58 02.02.2020
3609 Rain 21 1015 94 10000 3.1 120 16:38 02.02.2020
3610 Rain 21 1015 94 10000 3.1 120 16:19 02.02.2020
3611 Rain 21 1015 94 10000 3.1 120 16:19 02.02.2020
3612 Clouds 21 1015 94 10000 3.1 100 15:57 02.02.2020
3613 Clouds 21 1015 94 10000 3.1 110 15:37 02.02.2020
3614 Clouds 21 1015 94 10000 3.1 110 15:19 02.02.2020
3615 Clouds 21 1015 94 10000 3.1 100 14:44 02.02.2020
3616 Clouds 21 1015 94 10000 2.1 90 14:19 02.02.2020
3617 Clouds 21 1015 88 10000 2.6 70 13:59 02.02.2020
3618 Clouds 21 1014 88 10000 3.1 70 13:41 02.02.2020
3619 Clouds 21 1014 88 10000 3.1 70 13:21 02.02.2020
3620 Clouds 21 1014 88 10000 2.6 60 12:57 02.02.2020
3621 Clouds 21 1014 88 10000 2.6 60 12:57 02.02.2020
3622 Clouds 22 1014 83 10000 2.6 50 12:38 02.02.2020
3623 Clouds 22 1014 83 10000 2.6 50 12:20 02.02.2020
3624 Clouds 22 1013 83 10000 2.6 100 11:42 02.02.2020
3625 Clouds 22 1013 83 10000 2.6 100 11:19 02.02.2020
3626 Clouds 23 1013 78 10000 4.1 120 10:58 02.02.2020
3627 Clouds 23 1013 78 10000 4.6 120 10:39 02.02.2020
3628 Clouds 23 1013 78 10000 4.6 120 10:21 02.02.2020
3629 Clouds 22 1012 83 10000 4.6 110 09:57 02.02.2020
3630 Clouds 22 1012 83 10000 4.6 130 09:39 02.02.2020
3631 Clouds 22 1012 83 10000 4.6 130 09:20 02.02.2020
3632 Clouds 21 1012 88 10000 4.1 120 08:45 02.02.2020
3633 Clouds 21 1013 88 10000 4.6 140 08:26 02.02.2020
3634 Clouds 20 1013 94 10000 3.6 150 07:47 02.02.2020
3635 Clouds 20 1013 94 10000 3.6 150 07:29 02.02.2020
3636 Rain 19 1014 100 4900 4.1 140 06:46 02.02.2020
3637 Rain 19 1014 100 4900 4.1 140 06:28 02.02.2020
3638 Rain 20 1014 94 6000 3.6 140 05:49 02.02.2020
3639 Rain 20 1014 94 10000 5.1 170 04:58 02.02.2020
3640 Rain 20 1014 94 10000 5.1 170 04:58 02.02.2020
3641 Rain 19 1016 93 6000 4.1 160 03:40 02.02.2020
3642 Drizzle 19 1016 100 10000 5.1 160 02:39 02.02.2020
3643 Drizzle 19 1016 100 6000 4.1 170 01:56 02.02.2020
3644 Drizzle 19 1016 93 6000 5.1 160 01:26 02.02.2020
3645 Rain 19 1016 93 4000 5.7 150 00:44 02.02.2020
3646 Rain 19 1016 93 6000 4.1 130 00:23 02.02.2020
3647 Rain 19 1016 100 6000 3.6 130 23:47 01.02.2020
3648 Rain 19 1016 100 6000 3.6 130 23:47 01.02.2020
3649 Rain 19 1016 100 6000 3.6 130 23:47 01.02.2020
3650 Rain 20 1015 94 10000 4.6 140 23:23 01.02.2020
3651 Rain 21 1015 94 10000 4.1 130 22:59 01.02.2020
3652 Rain 21 1014 94 4500 2.6 150 22:41 01.02.2020
3653 Rain 21 1014 94 4500 2.6 150 22:18 01.02.2020
3654 Rain 21 1014 94 3000 5.1 150 21:39 01.02.2020
3655 Clouds 21 1013 94 10000 6.2 150 21:18 01.02.2020
3656 Rain 21 1013 100 10000 5.1 150 20:41 01.02.2020
3657 Rain 21 1013 100 10000 5.1 150 20:20 01.02.2020
3658 Rain 21 1013 100 3100 4.6 150 19:57 01.02.2020
3659 Drizzle 22 1013 94 6000 6.2 150 19:39 01.02.2020
3660 Drizzle 22 1013 94 6000 6.2 150 19:20 01.02.2020
3661 Clouds 22 1013 94 10000 7.7 160 18:58 01.02.2020
3662 Clouds 23 1012 88 10000 7.2 150 18:40 01.02.2020
3663 Clouds 23 1012 88 10000 7.2 150 18:22 01.02.2020
3664 Clouds 24 1013 88 10000 6.2 150 17:58 01.02.2020
3665 Rain 24 1013 88 10000 6.7 160 17:39 01.02.2020
3666 Rain 24 1013 88 10000 6.7 160 17:39 01.02.2020
3667 Rain 24 1013 88 10000 6.7 160 17:19 01.02.2020
3668 Rain 23 1013 94 6000 7.2 150 16:44 01.02.2020
3669 Clouds 25 1013 83 10000 5.1 130 16:25 01.02.2020
3670 Clouds 25 1013 83 10000 5.1 140 15:59 01.02.2020
3671 Clouds 25 1014 78 10000 6.7 130 15:40 01.02.2020
3672 Clouds 25 1014 78 10000 6.7 130 15:20 01.02.2020
3673 Clouds 25 1014 78 10000 5.7 140 14:41 01.02.2020
3674 Clouds 25 1014 78 10000 5.7 140 14:22 01.02.2020
3675 Clouds 26 1014 74 10000 6.2 130 13:59 01.02.2020
3676 Clouds 26 1014 78 10000 6.2 130 13:41 01.02.2020
3677 Clouds 26 1014 78 10000 6.2 130 13:18 01.02.2020
3678 Clouds 26 1013 83 10000 4.6 130 12:42 01.02.2020
3679 Clouds 26 1013 83 10000 4.6 130 12:24 01.02.2020
3680 Clouds 26 1013 83 10000 5.1 130 11:45 01.02.2020
3681 Clouds 26 1012 83 10000 5.1 130 11:24 01.02.2020
3682 Clouds 27 1012 74 10000 6.7 130 10:59 01.02.2020
3683 Clouds 27 1011 74 10000 7.7 140 10:41 01.02.2020
3684 Clouds 27 1011 74 10000 7.7 140 10:22 01.02.2020
3685 Clouds 27 1011 74 10000 6.7 160 09:59 01.02.2020
3686 Clouds 27 1010 78 10000 6.2 180 09:40 01.02.2020
3687 Clouds 27 1010 78 10000 6.2 180 09:21 01.02.2020
3688 Rain 27 1009 78 10000 6.7 210 08:52 01.02.2020
3689 Clouds 27 1009 78 10000 8.2 200 07:56 01.02.2020
3690 Clouds 27 1009 78 10000 10.3 190 07:38 01.02.2020
3691 Clouds 27 1009 78 10000 10.3 190 07:19 01.02.2020
3692 Rain 32 1009 52 10000 5.7 130 06:42 01.02.2020
3693 Clouds 32 1009 55 10000 5.1 120 05:53 01.02.2020
3694 Rain 32 1011 55 10000 4.1 280 04:22 01.02.2020
3695 Rain 32 1011 55 10000 4.1 280 04:22 01.02.2020
3696 Rain 30 1012 62 10000 4.6 290 03:25 01.02.2020
3697 Clouds 30 1012 66 10000 5.1 300 02:50 01.02.2020
3698 Clouds 29 1012 70 10000 7.7 310 02:30 01.02.2020
3699 Rain 28 1012 74 10000 6.7 300 01:56 01.02.2020
3700 Rain 27 1012 78 10000 7.2 330 01:37 01.02.2020
3701 Clouds 26 1012 83 10000 3.6 10 00:38 01.02.2020
3702 Clouds 26 1012 83 10000 3.6 10 00:19 01.02.2020
3703 Clouds 27 1011 78 10000 5.7 350 23:38 31.01.2020
3704 Clouds 27 1011 78 10000 5.7 350 23:18 31.01.2020
3705 Clouds 27 1011 74 10000 4.6 360 22:54 31.01.2020
3706 Clouds 27 1010 74 10000 3.1 350 22:36 31.01.2020
3707 Clouds 27 1010 74 10000 3.1 350 22:18 31.01.2020
3708 Clouds 27 1009 74 10000 4.1 320 21:39 31.01.2020
3709 Clouds 27 1009 74 10000 4.1 320 21:20 31.01.2020
3710 Clouds 27 1009 74 10000 4.1 320 21:20 31.01.2020
3711 Clouds 27 1009 74 10000 4.1 320 21:20 31.01.2020
3712 Clouds 27 1009 74 10000 4.1 320 21:20 31.01.2020
3713 Clouds 27 1009 74 10000 5.7 330 20:57 31.01.2020
3714 Clouds 27 1009 74 10000 5.7 330 20:57 31.01.2020
3715 Clouds 27 1009 74 10000 5.7 330 20:39 31.01.2020
3716 Clouds 27 1009 74 10000 8.2 340 20:20 31.01.2020
3717 Clouds 27 1009 74 10000 8.2 340 19:56 31.01.2020
3718 Clouds 27 1008 74 10000 8.2 350 19:38 31.01.2020
3719 Clouds 27 1008 74 10000 8.2 350 19:19 31.01.2020
3720 Clouds 28 1008 69 10000 5.7 360 18:45 31.01.2020
3721 Clouds 28 1008 69 10000 5.7 360 18:27 31.01.2020
3722 Clouds 28 1008 69 10000 7.7 10 17:56 31.01.2020
3723 Clouds 28 1008 69 10000 7.7 10 17:56 31.01.2020
3724 Clouds 28 1008 65 10000 5.1 30 17:37 31.01.2020
3725 Clouds 28 1008 65 10000 5.1 30 17:19 31.01.2020
3726 Clouds 28 1009 69 10000 5.1 30 16:56 31.01.2020
3727 Clouds 28 1009 69 10000 6.2 40 16:37 31.01.2020
3728 Clouds 28 1009 69 10000 6.2 40 16:18 31.01.2020
3729 Clouds 28 1009 69 10000 6.7 50 15:41 31.01.2020
3730 Clouds 28 1009 69 10000 6.7 50 15:21 31.01.2020
3731 Clouds 29 1009 70 10000 6.7 70 14:58 31.01.2020
3732 Clouds 29 1009 66 10000 4.6 70 14:39 31.01.2020
3733 Clouds 29 1009 66 10000 4.6 70 14:20 31.01.2020
3734 Clouds 29 1008 66 10000 8.2 90 13:43 31.01.2020
3735 Clouds 30 1008 62 10000 8.7 90 13:25 31.01.2020
3736 Clouds 31 1008 55 10000 4.1 100 12:45 31.01.2020
3737 Clouds 32 1007 46 10000 2.1 40 12:26 31.01.2020
3738 Clouds 33 1007 43 10000 3.6 360 11:56 31.01.2020
3739 Rain 33 1006 43 10000 4.1 350 11:38 31.01.2020
3740 Rain 33 1006 43 10000 4.1 350 11:20 31.01.2020
3741 Clouds 34 1005 41 10000 4.6 330 10:55 31.01.2020
3742 Clouds 35 1005 34 10000 5.7 320 10:37 31.01.2020
3743 Clouds 35 1005 34 10000 5.7 320 10:18 31.01.2020
3744 Rain 35 1004 44 10000 3.1 240 09:42 31.01.2020
3745 Rain 35 1004 44 10000 3.1 240 09:42 31.01.2020
3746 Rain 35 1004 44 10000 3.1 240 09:22 31.01.2020
3747 Clouds 35 1004 41 10000 3.1 270 08:56 31.01.2020
3748 Rain 33 1004 46 10000 7.7 330 08:38 31.01.2020
3749 Rain 33 1004 46 10000 7.7 330 08:20 31.01.2020
3750 Clouds 33 1004 46 10000 7.7 360 07:47 31.01.2020
3751 Clouds 36 1005 34 10000 5.7 310 07:19 31.01.2020
3752 Clouds 36 1005 34 10000 5.7 310 07:19 31.01.2020
3753 Clouds 36 1005 34 10000 7.2 310 06:37 31.01.2020
3754 Clouds 36 1005 37 10000 5.7 320 05:55 31.01.2020
3755 Clouds 34 1006 44 10000 6.7 310 05:20 31.01.2020
3756 Clouds 33 1007 46 10000 8.2 330 04:20 31.01.2020
3757 Clouds 32 1007 52 10000 9.3 330 02:49 31.01.2020
3758 Clouds 29 1007 62 10000 9.3 350 01:30 31.01.2020
3759 Clouds 28 1006 69 10000 8.2 360 00:39 31.01.2020
3760 Clouds 28 1006 69 10000 8.2 360 00:20 31.01.2020
3761 Clouds 27 1006 74 10000 8.7 360 23:40 30.01.2020
3762 Clouds 27 1006 74 10000 8.7 360 23:40 30.01.2020
3763 Clouds 27 1006 74 10000 8.7 360 23:40 30.01.2020
3764 Clouds 27 1006 74 10000 8.7 360 23:21 30.01.2020
3765 Clouds 26 1005 78 10000 7.2 20 22:38 30.01.2020
3766 Clouds 26 1005 78 10000 7.2 20 22:20 30.01.2020
3767 Clouds 26 1005 78 10000 6.2 20 21:58 30.01.2020
3768 Clouds 26 1005 78 10000 5.7 30 21:40 30.01.2020
3769 Clouds 26 1004 83 10000 5.1 20 21:18 30.01.2020
3770 Clouds 26 1004 83 10000 5.1 20 20:56 30.01.2020
3771 Clouds 26 1004 83 10000 5.1 30 20:37 30.01.2020
3772 Clouds 26 1004 83 10000 5.1 30 20:19 30.01.2020
3773 Clouds 26 1004 83 10000 4.1 30 19:42 30.01.2020
3774 Clouds 26 1004 83 10000 4.1 30 19:19 30.01.2020
3775 Clouds 26 1004 83 10000 3.6 40 18:58 30.01.2020
3776 Clouds 26 1004 83 10000 4.1 20 18:36 30.01.2020
3777 Clouds 26 1004 83 10000 4.1 20 18:18 30.01.2020
3778 Clouds 26 1004 83 10000 4.6 20 17:41 30.01.2020
3779 Clouds 26 1004 83 10000 4.6 20 17:19 30.01.2020
3780 Clouds 26 1004 83 10000 5.1 20 16:58 30.01.2020
3781 Clouds 26 1005 83 10000 4.1 20 16:39 30.01.2020
3782 Clouds 26 1005 83 10000 4.1 20 16:20 30.01.2020
3783 Clouds 25 1006 88 10000 2.6 40 15:44 30.01.2020
3784 Clouds 25 1006 88 10000 2.6 40 15:21 30.01.2020
3785 Rain 25 1006 88 6000 3.1 360 14:54 30.01.2020
3786 Clouds 25 1006 83 10000 2.6 360 14:36 30.01.2020
3787 Clouds 25 1006 83 10000 2.6 360 14:18 30.01.2020
3788 Rain 25 1005 83 10000 2.1 320 13:41 30.01.2020
3789 Rain 25 1005 83 10000 2.1 320 13:22 30.01.2020
3790 Clouds 27 1005 74 10000 3.6 50 12:54 30.01.2020
3791 Clouds 28 1005 69 10000 4.1 60 12:36 30.01.2020
3792 Clouds 28 1005 69 10000 4.1 60 12:18 30.01.2020
3793 Rain 28 1003 69 10000 3.6 40 11:40 30.01.2020
3794 Rain 28 1003 69 10000 3.6 40 11:21 30.01.2020
3795 Clouds 29 1003 66 10000 4.6 40 10:57 30.01.2020
3796 Clouds 29 1003 66 10000 4.6 40 10:38 30.01.2020
3797 Clouds 29 1003 66 10000 4.6 40 10:19 30.01.2020
3798 Clouds 29 1002 62 10000 6.2 60 09:43 30.01.2020
3799 Clouds 29 1002 70 10000 7.7 70 09:22 30.01.2020
3800 Clouds 31 1002 58 10000 5.7 20 08:42 30.01.2020
3801 Clouds 31 1002 58 10000 5.7 20 08:22 30.01.2020
3802 Clouds 31 1002 55 10000 5.7 30 07:55 30.01.2020
3803 Clouds 30 1002 62 10000 6.7 30 07:37 30.01.2020
3804 Clouds 30 1002 62 10000 5.7 20 06:56 30.01.2020
3805 Clouds 28 1003 78 10000 3.6 10 06:33 30.01.2020
3806 Rain 25 1003 88 10000 7.7 340 05:53 30.01.2020
3807 Clouds 30 1003 62 10000 6.2 30 05:28 30.01.2020
3808 Clouds 29 1004 66 10000 7.2 30 04:40 30.01.2020
3809 Clouds 29 1004 66 10000 7.7 20 03:46 30.01.2020
3810 Clouds 28 1005 74 10000 8.7 30 02:54 30.01.2020
3811 Rain 24 1005 94 5000 7.2 60 00:56 30.01.2020
3812 Clouds 25 1005 88 10000 4.1 80 00:26 30.01.2020
3813 Rain 24 1005 94 10000 6.2 90 23:51 29.01.2020
3814 Rain 24 1004 94 10000 6.2 90 23:23 29.01.2020
3815 Rain 24 1004 100 10000 5.7 90 22:59 29.01.2020
3816 Rain 24 1004 94 6000 5.7 90 22:40 29.01.2020
3817 Rain 24 1004 94 6000 5.7 90 22:20 29.01.2020
3818 Rain 24 1003 94 10000 5.7 110 21:59 29.01.2020
3819 Rain 23 1003 100 9000 5.7 90 21:40 29.01.2020
3820 Rain 23 1003 100 9000 5.7 90 21:20 29.01.2020
3821 Rain 23 1003 100 2300 6.2 150 20:59 29.01.2020
3822 Rain 23 1003 100 6000 6.7 140 20:39 29.01.2020
3823 Rain 23 1003 100 6000 6.7 140 20:21 29.01.2020
3824 Clouds 23 1003 100 10000 6.7 140 19:57 29.01.2020
3825 Rain 23 1003 100 10000 6.2 150 19:37 29.01.2020
3826 Rain 23 1003 100 10000 6.2 150 19:19 29.01.2020
3827 Rain 23 1003 100 10000 5.1 150 18:54 29.01.2020
3828 Rain 23 1004 100 10000 4.6 160 18:36 29.01.2020
3829 Rain 23 1004 100 10000 4.6 160 18:18 29.01.2020
3830 Rain 23 1005 100 10000 3.6 150 17:40 29.01.2020
3831 Rain 23 1005 100 10000 3.6 150 17:21 29.01.2020
3832 Rain 23 1005 100 10000 3.6 150 17:21 29.01.2020
3833 Rain 23 1006 100 10000 2.6 150 16:42 29.01.2020
3834 Rain 23 1006 100 10000 2.6 150 16:23 29.01.2020
3835 Rain 23 1007 94 9000 3.1 130 15:56 29.01.2020
3836 Rain 23 1007 94 9000 3.1 130 15:56 29.01.2020
3837 Rain 23 1007 94 10000 6.2 90 15:37 29.01.2020
3838 Rain 23 1007 94 10000 6.2 90 15:19 29.01.2020
3839 Rain 23 1008 88 10000 6.2 70 14:43 29.01.2020
3840 Rain 24 1008 88 10000 4.6 80 14:21 29.01.2020
3841 Rain 24 1008 88 10000 4.6 80 14:21 29.01.2020
3842 Clouds 24 1007 88 10000 1.5 200 13:55 29.01.2020
3843 Clouds 24 1007 88 10000 3.1 240 13:37 29.01.2020
3844 Clouds 24 1007 88 10000 3.1 240 13:19 29.01.2020
3845 Rain 23 1007 94 10000 3.1 270 12:55 29.01.2020
3846 Rain 23 1008 94 10000 3.6 270 12:37 29.01.2020
3847 Rain 23 1008 94 10000 3.6 270 12:18 29.01.2020
3848 Rain 23 1008 94 10000 3.6 270 11:44 29.01.2020
3849 Rain 24 1007 88 10000 4.6 280 11:20 29.01.2020
3850 Rain 22 1007 76 0 7.34 140 10:46 29.01.2020
3851 Rain 25 1007 78 10000 3.6 270 10:25 29.01.2020
3852 Rain 25 1007 78 10000 3.6 270 09:58 29.01.2020
3853 Rain 25 1007 78 10000 3.6 270 09:39 29.01.2020
3854 Rain 25 1007 78 10000 3.6 270 09:19 29.01.2020
3855 Rain 25 1008 78 10000 3.6 270 08:46 29.01.2020
3856 Rain 25 1008 78 10000 3.6 270 08:27 29.01.2020
3857 Rain 24 1009 83 10000 3.6 60 07:46 29.01.2020
3858 Clouds 25 1009 78 10000 4.1 50 07:27 29.01.2020
3859 Clouds 28 1009 58 10000 6.2 60 06:56 29.01.2020
3860 Clouds 31 1009 43 10000 4.1 70 06:38 29.01.2020
3861 Clouds 31 1009 43 10000 4.1 70 06:19 29.01.2020
3862 Clouds 30 1009 45 10000 4.6 70 05:50 29.01.2020
3863 Clouds 31 1010 40 10000 7.7 100 05:32 29.01.2020
3864 Clouds 32 1010 35 10000 7.7 80 04:39 29.01.2020
3865 Clouds 32 1010 35 10000 7.2 80 03:59 29.01.2020
3866 Clouds 31 1011 35 10000 4.1 100 02:38 29.01.2020
3867 Clouds 31 1011 38 10000 4.6 130 01:18 29.01.2020
3868 Clouds 30 1011 42 10000 4.6 130 01:18 29.01.2020
3869 Clouds 31 1011 38 10000 4.1 130 00:39 29.01.2020
3870 Clouds 31 1011 38 10000 4.1 130 00:20 29.01.2020
3871 Clouds 29 1011 42 10000 2.6 150 23:40 28.01.2020
3872 Clouds 29 1011 42 10000 2.6 150 23:19 28.01.2020
3873 Clouds 29 1011 42 10000 2.6 150 23:19 28.01.2020
3874 Clouds 29 1010 42 10000 3.1 140 22:49 28.01.2020
3875 Clouds 28 1010 45 10000 3.1 150 22:27 28.01.2020
3876 Clouds 28 1010 45 10000 3.1 150 21:57 28.01.2020
3877 Clouds 28 1009 45 10000 2.1 150 21:38 28.01.2020
3878 Clouds 28 1009 45 10000 2.1 150 21:19 28.01.2020
3879 Clouds 28 1009 45 10000 2.1 150 21:19 28.01.2020
3880 Clouds 28 1009 45 10000 1.5 30 20:46 28.01.2020
3881 Clear 28 1009 45 10000 2.6 280 20:26 28.01.2020
3882 Clear 29 1009 42 10000 2.6 120 19:55 28.01.2020
3883 Clear 30 1009 40 10000 3.1 110 19:37 28.01.2020
3884 Clear 30 1009 40 10000 3.1 110 19:19 28.01.2020
3885 Clouds 31 1009 38 10000 3.1 100 18:42 28.01.2020
3886 Clouds 31 1009 38 10000 3.1 100 18:23 28.01.2020
3887 Clear 31 1009 35 10000 4.6 100 17:59 28.01.2020
3888 Clear 32 1009 33 10000 5.1 90 17:39 28.01.2020
3889 Clear 32 1009 33 10000 5.1 90 17:21 28.01.2020
3890 Clear 32 1010 33 10000 5.7 90 16:58 28.01.2020
3891 Clear 33 1010 33 10000 7.7 90 16:40 28.01.2020
3892 Clear 33 1010 33 10000 7.7 90 16:21 28.01.2020
3893 Clear 33 1010 33 10000 6.2 90 15:47 28.01.2020
3894 Clear 33 1010 33 10000 5.7 100 15:19 28.01.2020
3895 Clear 33 1010 31 10000 4.6 110 14:58 28.01.2020
3896 Clouds 33 1010 31 10000 5.1 130 14:39 28.01.2020
3897 Clouds 33 1010 31 10000 5.1 130 14:39 28.01.2020
3898 Clouds 33 1010 31 10000 5.1 130 14:18 28.01.2020
3899 Clouds 34 1009 30 10000 5.7 120 13:41 28.01.2020
3900 Clouds 34 1009 30 10000 5.7 120 13:23 28.01.2020
3901 Clouds 35 1009 26 10000 7.2 110 12:43 28.01.2020
3902 Clouds 35 1009 26 10000 6.7 110 12:24 28.01.2020
3903 Clouds 36 1009 25 10000 7.7 110 11:56 28.01.2020
3904 Clouds 36 1008 25 10000 8.7 110 11:38 28.01.2020
3905 Clouds 36 1008 25 10000 8.7 110 11:19 28.01.2020
3906 Clouds 36 1007 22 10000 9.3 110 10:41 28.01.2020
3907 Clouds 36 1007 22 10000 9.3 110 10:23 28.01.2020
3908 Clouds 37 1007 23 10000 9.8 110 09:56 28.01.2020
3909 Clouds 37 1007 23 10000 11.8 110 09:37 28.01.2020
3910 Clouds 37 1007 23 10000 11.8 110 09:19 28.01.2020
3911 Clouds 39 1007 21 10000 9.8 120 08:42 28.01.2020
3912 Clouds 39 1007 21 10000 9.8 120 08:21 28.01.2020
3913 Clouds 39 1008 21 10000 8.7 110 07:38 28.01.2020
3914 Clouds 39 1008 20 10000 7.7 130 06:52 28.01.2020
3915 Clouds 38 1008 21 10000 7.7 130 06:29 28.01.2020
3916 Clouds 38 1009 21 10000 6.7 140 05:56 28.01.2020
3917 Clouds 38 1009 21 10000 7.7 150 05:34 28.01.2020
3918 Clear 37 1011 20 10000 7.7 130 04:39 28.01.2020
3919 Clear 36 1012 18 10000 8.2 110 03:36 28.01.2020
3920 Clear 35 1012 20 10000 8.2 110 02:32 28.01.2020
3921 Clear 34 1012 21 10000 7.7 120 01:58 28.01.2020
3922 Clear 33 1012 18 10000 7.7 130 01:40 28.01.2020
3923 Clear 33 1012 18 10000 7.7 130 01:40 28.01.2020
3924 Clear 33 1012 15 10000 5.7 120 00:51 28.01.2020
3925 Clear 32 1012 14 10000 5.7 110 00:29 28.01.2020
3926 Clear 29 1012 19 10000 2.1 140 23:53 27.01.2020
3927 Clear 27 1012 19 10000 2.1 240 23:30 27.01.2020
3928 Clear 24 1012 20 10000 2.6 260 22:59 27.01.2020
3929 Clear 22 1012 20 10000 2.6 290 22:41 27.01.2020
3930 Clear 22 1012 20 10000 2.6 290 22:20 27.01.2020
3931 Clear 23 1011 20 10000 2.6 290 21:56 27.01.2020
3932 Clear 22 1011 20 10000 4.32 170 21:37 27.01.2020
3933 Clear 22 1011 20 10000 4.32 170 21:18 27.01.2020
3934 Clear 24 1011 20 10000 2.6 330 20:54 27.01.2020
3935 Clear 25 1011 20 10000 2.6 330 20:36 27.01.2020
3936 Clouds 25 1011 18 10000 2.6 330 20:18 27.01.2020
3937 Clouds 24 1011 18 10000 2.6 360 19:41 27.01.2020
3938 Clouds 24 1011 18 10000 2.6 360 19:22 27.01.2020
3939 Clouds 24 1011 19 10000 3.1 190 18:56 27.01.2020
3940 Clouds 24 1011 19 10000 3.1 180 18:38 27.01.2020
3941 Clouds 24 1011 19 10000 3.1 180 18:19 27.01.2020
3942 Clouds 26 1011 15 10000 3.1 180 17:39 27.01.2020
3943 Clouds 26 1011 15 10000 3.1 180 17:21 27.01.2020
3944 Clouds 26 1011 15 10000 3.1 180 16:59 27.01.2020
3945 Clouds 26 1012 15 10000 3.1 180 16:41 27.01.2020
3946 Clouds 26 1012 15 10000 3.1 180 16:23 27.01.2020
3947 Clouds 27 1012 14 10000 3.1 180 15:55 27.01.2020
3948 Clouds 28 1012 15 10000 3.1 180 15:37 27.01.2020
3949 Clouds 28 1012 15 10000 3.1 180 15:18 27.01.2020
3950 Clouds 28 1012 14 10000 3.1 170 14:42 27.01.2020
3951 Clouds 29 1012 14 10000 3.6 170 14:22 27.01.2020
3952 Clouds 29 1012 14 10000 3.6 170 14:22 27.01.2020
3953 Clouds 30 1011 20 10000 3.1 170 13:58 27.01.2020
3954 Clouds 31 1011 20 10000 3.1 170 13:39 27.01.2020
3955 Clouds 31 1011 20 10000 3.1 170 13:19 27.01.2020
3956 Clouds 33 1011 13 10000 3.6 160 12:45 27.01.2020
3957 Clouds 34 1011 13 10000 4.1 150 12:23 27.01.2020
3958 Clouds 34 1010 13 10000 5.1 150 11:58 27.01.2020
3959 Clouds 35 1010 12 10000 6.2 140 11:40 27.01.2020
3960 Clouds 36 1009 11 10000 6.7 140 11:20 27.01.2020
3961 Clouds 36 1009 11 10000 6.7 140 10:43 27.01.2020
3962 Clouds 37 1009 12 10000 6.2 150 10:24 27.01.2020
3963 Clouds 37 1009 12 10000 6.7 140 09:54 27.01.2020
3964 Clouds 38 1009 10 10000 5.7 140 09:36 27.01.2020
3965 Clouds 38 1009 10 10000 5.7 140 09:18 27.01.2020
3966 Clouds 37 1009 11 10000 5.1 130 08:42 27.01.2020
3967 Clouds 37 1009 11 10000 5.1 130 08:20 27.01.2020
3968 Clouds 38 1009 10 10000 5.7 120 07:53 27.01.2020
3969 Clouds 38 1009 11 10000 6.7 130 07:33 27.01.2020
3970 Clouds 39 1010 10 10000 5.1 140 06:51 27.01.2020
3971 Clouds 37 1010 11 10000 8.7 140 05:59 27.01.2020
3972 Clouds 36 1011 11 10000 6.7 170 05:18 27.01.2020
3973 Clouds 35 1013 12 10000 5.7 140 03:37 27.01.2020
3974 Clouds 34 1013 10 10000 7.2 130 02:32 27.01.2020
3975 Clouds 33 1014 14 10000 7.2 130 01:29 27.01.2020
3976 Clouds 33 1014 11 10000 7.7 120 00:43 27.01.2020
3977 Clouds 30 1014 14 10000 4.1 100 00:22 27.01.2020
3978 Clouds 29 1014 13 10000 3.1 100 23:59 26.01.2020
3979 Clouds 27 1013 15 10000 8.69 132 23:40 26.01.2020
3980 Clouds 27 1013 15 10000 4.79 157 23:18 26.01.2020
3981 Clouds 21 1012 22 10000 1 350 22:39 26.01.2020
3982 Clouds 21 1012 22 10000 1 350 22:20 26.01.2020
3983 Clouds 21 1012 22 10000 2.1 310 21:59 26.01.2020
3984 Clouds 22 1012 21 10000 2.6 340 21:40 26.01.2020
3985 Clouds 22 1012 21 10000 2.6 340 21:22 26.01.2020
3986 Clouds 22 1012 21 10000 2.6 340 21:22 26.01.2020
3987 Clouds 23 1011 20 10000 2.1 220 20:58 26.01.2020
3988 Clouds 22 1011 19 10000 2.6 280 20:40 26.01.2020
3989 Clouds 22 1011 19 10000 2.6 280 20:20 26.01.2020
3990 Clouds 23 1011 18 10000 2.1 250 19:59 26.01.2020
3991 Clouds 23 1011 18 10000 1.5 240 19:39 26.01.2020
3992 Clouds 23 1011 18 10000 1.5 240 19:39 26.01.2020
3993 Clouds 23 1011 18 10000 1.5 240 19:21 26.01.2020
3994 Clouds 24 1011 17 10000 2.1 230 18:59 26.01.2020
3995 Clouds 24 1011 17 10000 3.75 167 18:39 26.01.2020
3996 Clouds 24 1011 17 10000 3.75 167 18:21 26.01.2020
3997 Clouds 25 1011 15 10000 0.5 170 17:57 26.01.2020
3998 Clouds 25 1011 15 10000 3.6 180 17:38 26.01.2020
3999 Clouds 25 1011 15 10000 3.6 180 17:18 26.01.2020
4000 Clouds 25 1011 15 10000 3.6 180 17:18 26.01.2020
4001 Clouds 25 1011 15 10000 3.6 180 17:18 26.01.2020
4002 Clouds 25 1012 15 10000 3.1 180 16:57 26.01.2020
4003 Clouds 26 1012 13 10000 3.6 170 16:39 26.01.2020
4004 Clouds 26 1012 13 10000 3.6 170 16:19 26.01.2020
4005 Clouds 26 1010 13 0 4.28 126 15:45 26.01.2020
4006 Clouds 26 1010 13 0 4.28 126 15:22 26.01.2020
4007 Clouds 26 1010 13 0 4.28 126 14:58 26.01.2020
4008 Clouds 26 1010 13 0 4.28 126 14:39 26.01.2020
4009 Clear 28 1009 11 0 5.62 143 14:19 26.01.2020
4010 Clear 28 1009 11 0 5.62 143 13:41 26.01.2020
4011 Clear 27 1010 33 0 3.63 81 13:20 26.01.2020
4012 Clear 27 1010 33 0 3.63 81 12:56 26.01.2020
4013 Clear 27 1010 33 0 3.63 81 12:37 26.01.2020
4014 Clear 27 1010 33 0 3.63 81 12:19 26.01.2020
4015 Clear 27 1010 33 0 3.63 81 12:19 26.01.2020
4016 Clear 27 1010 33 0 3.63 81 11:57 26.01.2020
4017 Clear 27 1010 33 0 3.63 81 11:37 26.01.2020
4018 Clear 36 1009 9 10000 6.7 130 11:18 26.01.2020
4019 Clear 36 1009 9 10000 6.7 130 10:55 26.01.2020
4020 Clear 36 1009 9 10000 6.7 130 10:37 26.01.2020
4021 Clear 36 1009 9 10000 6.7 130 10:19 26.01.2020
4022 Clear 37 1009 11 10000 6.2 140 09:41 26.01.2020
4023 Clear 37 1009 11 10000 6.2 140 09:23 26.01.2020
4024 Clear 37 1009 11 10000 5.7 150 08:57 26.01.2020
4025 Clear 36 1009 11 10000 3.1 150 08:39 26.01.2020
4026 Clear 36 1009 8 10000 3.1 150 08:21 26.01.2020
4027 Clouds 37 1009 9 10000 3.1 170 07:47 26.01.2020
4028 Clouds 37 1010 9 10000 5.1 120 07:25 26.01.2020
4029 Clouds 37 1010 9 10000 6.2 150 06:38 26.01.2020
4030 Clouds 37 1010 9 10000 6.2 150 06:18 26.01.2020
4031 Clouds 36 1011 9 10000 5.1 160 05:26 26.01.2020
4032 Clear 35 1013 13 10000 7.2 140 03:23 26.01.2020
4033 Clear 33 1014 11 10000 7.2 130 02:23 26.01.2020
4034 Clear 31 1014 27 10000 7.7 100 01:40 26.01.2020
4035 Clear 31 1014 27 10000 7.7 100 01:20 26.01.2020
4036 Clear 28 1014 15 10000 4.1 110 00:40 26.01.2020
4037 Clear 28 1014 15 10000 4.1 110 00:20 26.01.2020
4038 Clear 28 1011 27 0 8.98 120 23:38 25.01.2020
4039 Clear 22 1011 49 0 3.52 116 23:20 25.01.2020
4040 Clear 22 1011 49 0 3.52 116 22:43 25.01.2020
4041 Clear 22 1011 49 0 3.52 116 22:20 25.01.2020
4042 Clear 22 1011 49 0 3.52 116 21:59 25.01.2020
4043 Clear 22 1011 49 0 3.52 116 21:41 25.01.2020
4044 Clear 22 1011 49 0 3.52 116 21:22 25.01.2020
4045 Clear 22 1011 49 0 3.52 116 20:54 25.01.2020
4046 Clear 22 1011 49 0 3.52 116 20:36 25.01.2020
4047 Clear 23 1009 31 0 3.33 115 20:18 25.01.2020
4048 Clear 23 1009 24 0 4.14 130 19:41 25.01.2020
4049 Clear 23 1009 24 0 4.14 130 19:19 25.01.2020
4050 Clear 23 1009 24 0 4.14 130 18:56 25.01.2020
4051 Clear 23 1009 31 0 3.33 115 18:37 25.01.2020
4052 Clear 23 1009 31 0 3.33 115 18:19 25.01.2020
4053 Clear 23 1009 24 0 4.14 130 17:39 25.01.2020
4054 Clear 25 1010 22 0 3.75 120 17:19 25.01.2020
4055 Clear 25 1010 23 0 4.18 117 16:56 25.01.2020
4056 Clear 25 1010 22 0 3.75 120 16:38 25.01.2020
4057 Clear 25 1010 22 0 3.75 120 16:19 25.01.2020
4058 Clear 25 1010 22 0 3.75 120 15:42 25.01.2020
4059 Clear 25 1010 22 0 3.75 120 15:24 25.01.2020
4060 Clear 25 1010 22 0 3.75 120 14:47 25.01.2020
4061 Clouds 27 1010 18 0 3.99 99 14:20 25.01.2020
4062 Clouds 27 1010 18 0 3.99 99 13:57 25.01.2020
4063 Clouds 27 1010 18 0 3.99 99 13:39 25.01.2020
4064 Clouds 27 1010 27 0 4.01 82 13:18 25.01.2020
4065 Clouds 27 1010 27 0 4.01 82 13:18 25.01.2020
4066 Clouds 32 1011 11 10000 4.6 130 12:42 25.01.2020
4067 Clouds 32 1011 11 10000 4.6 130 12:21 25.01.2020
4068 Clouds 33 1010 9 10000 4.6 140 11:43 25.01.2020
4069 Clouds 33 1010 9 10000 4.6 140 11:21 25.01.2020
4070 Clouds 33 1010 9 10000 4.6 140 11:21 25.01.2020
4071 Clouds 34 1010 9 10000 6.2 130 10:56 25.01.2020
4072 Clouds 34 1010 9 10000 6.7 140 10:38 25.01.2020
4073 Clouds 34 1010 9 10000 6.7 140 10:19 25.01.2020
4074 Clouds 35 1010 8 10000 4.6 150 09:40 25.01.2020
4075 Clouds 35 1010 8 10000 4.6 150 09:20 25.01.2020
4076 Clouds 35 1010 9 10000 6.2 150 08:43 25.01.2020
4077 Clouds 35 1010 8 10000 6.7 150 08:20 25.01.2020
4078 Clouds 34 1010 9 10000 5.1 140 07:41 25.01.2020
4079 Clouds 35 1011 10 10000 5.1 110 06:44 25.01.2020
4080 Clouds 34 1011 9 10000 5.1 140 06:24 25.01.2020
4081 Clouds 33 1012 11 10000 6.2 110 05:44 25.01.2020
4082 Clouds 32 1013 13 10000 8.2 120 04:25 25.01.2020
4083 Clouds 32 1014 19 10000 5.7 110 03:50 25.01.2020
4084 Clouds 31 1014 19 10000 7.7 110 02:40 25.01.2020
4085 Clouds 30 1014 13 10000 7.7 140 01:58 25.01.2020
4086 Clouds 29 1014 14 10000 7.2 110 01:34 25.01.2020
4087 Clouds 27 1014 15 10000 7.2 110 00:41 25.01.2020
4088 Clouds 27 1014 15 10000 7.2 110 00:23 25.01.2020
4089 Clouds 26 1014 19 10000 4.1 120 23:42 24.01.2020
4090 Clouds 26 1014 19 10000 4.1 120 23:24 24.01.2020
4091 Clouds 25 1013 20 10000 3.1 120 22:47 24.01.2020
4092 Clouds 24 1013 23 10000 2.6 110 22:28 24.01.2020
4093 Clouds 23 1013 27 10000 3.1 80 21:59 24.01.2020
4094 Clouds 23 1013 27 10000 2.6 90 21:40 24.01.2020
4095 Clouds 23 1013 27 10000 2.6 90 21:19 24.01.2020
4096 Clouds 23 1013 28 10000 2.6 90 20:44 24.01.2020
4097 Clear 24 1012 29 10000 3.1 110 20:22 24.01.2020
4098 Clouds 24 1012 31 10000 2.6 90 19:58 24.01.2020
4099 Clouds 24 1012 31 10000 2.6 90 19:58 24.01.2020
4100 Clouds 24 1012 31 10000 2.6 110 19:40 24.01.2020
4101 Clouds 24 1012 31 10000 2.6 110 19:22 24.01.2020
4102 Clouds 24 1012 31 10000 2.6 110 19:22 24.01.2020
4103 Clouds 24 1012 33 10000 2.1 120 18:56 24.01.2020
4104 Clouds 25 1013 31 10000 2.6 120 18:37 24.01.2020
4105 Clouds 25 1013 31 10000 2.6 120 18:19 24.01.2020
4106 Clouds 26 1013 29 10000 3.1 140 17:42 24.01.2020
4107 Clouds 26 1013 29 10000 3.1 140 17:21 24.01.2020
4108 Clouds 26 1013 29 10000 3.1 140 17:21 24.01.2020
4109 Clouds 26 1013 29 10000 2.6 130 16:45 24.01.2020
4110 Clouds 26 1013 29 10000 2.6 130 16:22 24.01.2020
4111 Clouds 27 1014 28 10000 2.6 110 15:57 24.01.2020
4112 Clouds 27 1014 28 10000 2.6 90 15:39 24.01.2020
4113 Clouds 27 1014 28 10000 2.6 90 15:20 24.01.2020
4114 Clouds 29 1014 25 10000 3.6 90 14:41 24.01.2020
4115 Clouds 29 1014 25 10000 3.6 90 14:23 24.01.2020
4116 Clouds 29 1014 25 10000 4.6 90 13:57 24.01.2020
4117 Clouds 29 1013 25 10000 5.1 90 13:39 24.01.2020
4118 Clouds 29 1013 25 10000 5.1 90 13:19 24.01.2020
4119 Clouds 30 1013 25 10000 5.7 80 12:41 24.01.2020
4120 Clouds 30 1013 25 10000 5.7 80 12:18 24.01.2020
4121 Clouds 30 1012 25 10000 6.2 80 11:43 24.01.2020
4122 Clouds 31 1011 23 10000 7.2 90 11:19 24.01.2020
4123 Clouds 32 1011 24 10000 7.7 90 10:43 24.01.2020
4124 Clouds 32 1011 22 10000 7.7 100 10:22 24.01.2020
4125 Clouds 33 1010 22 10000 7.2 100 09:56 24.01.2020
4126 Clouds 33 1010 21 10000 7.2 90 09:38 24.01.2020
4127 Clouds 33 1010 21 10000 7.2 90 09:38 24.01.2020
4128 Clouds 33 1010 21 10000 7.2 90 09:20 24.01.2020
4129 Clouds 34 1010 21 10000 8.2 130 08:40 24.01.2020
4130 Clouds 34 1010 21 10000 8.2 130 08:19 24.01.2020
4131 Clear 33 1010 22 10000 8.2 90 07:50 24.01.2020
4132 Clear 33 1011 22 10000 6.2 130 07:28 24.01.2020
4133 Clear 32 1011 22 10000 7.7 90 06:48 24.01.2020
4134 Clear 33 1011 22 10000 6.7 130 06:28 24.01.2020
4135 Clear 33 1012 22 10000 8.2 90 05:58 24.01.2020
4136 Clear 31 1013 23 10000 8.2 90 04:54 24.01.2020
4137 Clear 30 1014 27 10000 7.7 100 02:53 24.01.2020
4138 Clear 29 1014 28 10000 7.7 110 02:24 24.01.2020
4139 Clouds 28 1014 30 10000 7.7 120 01:42 24.01.2020
4140 Clouds 28 1014 30 10000 7.7 120 01:24 24.01.2020
4141 Clouds 28 1014 28 10000 8.2 120 00:20 24.01.2020
4142 Clouds 28 1014 28 10000 7.2 120 23:48 23.01.2020
4143 Clouds 27 1013 30 10000 7.2 120 23:30 23.01.2020
4144 Clouds 26 1013 31 10000 7.7 110 22:59 23.01.2020
4145 Clouds 26 1012 31 10000 6.7 110 22:37 23.01.2020
4146 Clouds 26 1012 31 10000 6.7 110 22:37 23.01.2020
4147 Clouds 26 1012 31 10000 6.7 110 22:19 23.01.2020
4148 Clouds 26 1012 31 10000 6.7 110 22:19 23.01.2020
4149 Clouds 26 1012 31 10000 7.2 120 21:56 23.01.2020
4150 Clouds 27 1011 28 10000 6.2 120 21:38 23.01.2020
4151 Clouds 27 1011 28 10000 6.2 120 21:19 23.01.2020
4152 Clouds 27 1011 28 10000 3.6 130 20:57 23.01.2020
4153 Clouds 27 1011 28 10000 4.1 120 20:38 23.01.2020
4154 Clouds 27 1011 28 10000 4.1 120 20:19 23.01.2020
4155 Clouds 27 1011 28 10000 4.6 120 19:44 23.01.2020
4156 Clouds 28 1011 26 10000 4.1 120 19:24 23.01.2020
4157 Clouds 28 1011 26 10000 4.1 120 18:59 23.01.2020
4158 Clouds 28 1011 26 10000 4.1 110 18:39 23.01.2020
4159 Clouds 28 1011 26 10000 4.1 110 18:20 23.01.2020
4160 Clouds 28 1011 26 10000 3.1 130 17:56 23.01.2020
4161 Clouds 29 1010 25 10000 3.6 120 17:38 23.01.2020
4162 Clouds 29 1010 25 10000 3.6 120 17:18 23.01.2020
4163 Clouds 30 1011 23 10000 4.6 130 16:39 23.01.2020
4164 Clouds 30 1011 23 10000 4.6 130 16:20 23.01.2020
4165 Clouds 30 1011 23 10000 5.1 110 15:58 23.01.2020
4166 Clouds 30 1011 23 10000 5.1 100 15:40 23.01.2020
4167 Clouds 30 1011 23 10000 5.1 100 15:19 23.01.2020
4168 Clouds 31 1011 22 10000 5.7 120 14:59 23.01.2020
4169 Clouds 31 1010 22 10000 4.6 120 14:41 23.01.2020
4170 Clouds 31 1010 22 10000 4.6 120 14:22 23.01.2020
4171 Clouds 32 1010 21 10000 5.7 130 13:56 23.01.2020
4172 Clouds 32 1009 21 10000 6.7 130 13:37 23.01.2020
4173 Clouds 32 1009 21 10000 6.7 130 13:18 23.01.2020
4174 Clouds 33 1009 21 10000 6.2 130 12:43 23.01.2020
4175 Clouds 33 1008 19 10000 6.7 130 12:24 23.01.2020
4176 Clouds 34 1007 20 10000 7.7 130 11:56 23.01.2020
4177 Clouds 35 1007 19 10000 7.2 140 11:37 23.01.2020
4178 Clouds 35 1007 19 10000 7.2 140 11:37 23.01.2020
4179 Clouds 35 1007 19 10000 7.2 140 11:18 23.01.2020
4180 Clouds 36 1006 18 10000 6.7 130 10:43 23.01.2020
4181 Clouds 37 1005 16 10000 6.7 140 10:19 23.01.2020
4182 Clouds 37 1005 16 10000 6.7 150 09:43 23.01.2020
4183 Clouds 38 1005 15 10000 7.2 150 09:25 23.01.2020
4184 Clouds 38 1005 15 10000 6.2 130 08:58 23.01.2020
4185 Clouds 38 1005 15 10000 6.7 180 08:40 23.01.2020
4186 Clouds 38 1005 15 10000 6.7 180 08:21 23.01.2020
4187 Clouds 39 1005 15 10000 6.7 150 07:44 23.01.2020
4188 Clouds 39 1005 15 10000 5.7 190 07:24 23.01.2020
4189 Clouds 40 1005 13 10000 5.7 150 06:51 23.01.2020
4190 Clouds 38 1006 15 10000 4.6 120 06:22 23.01.2020
4191 Clouds 38 1007 16 10000 3.6 180 05:37 23.01.2020
4192 Clouds 38 1007 18 10000 4.1 120 04:24 23.01.2020
4193 Clouds 36 1008 22 10000 5.7 180 02:33 23.01.2020
4194 Clouds 33 1008 41 10000 5.1 290 00:58 23.01.2020
4195 Clouds 32 1008 43 10000 4.6 300 00:27 23.01.2020
4196 Clouds 31 1008 45 10000 6.2 320 23:47 22.01.2020
4197 Clouds 30 1008 48 10000 5.7 330 23:29 22.01.2020
4198 Clouds 30 1007 48 10000 5.7 340 22:58 22.01.2020
4199 Clouds 29 1007 51 10000 4.1 300 22:39 22.01.2020
4200 Clouds 29 1007 51 10000 4.1 300 22:21 22.01.2020
4201 Clouds 29 1005 51 10000 4.6 310 21:39 22.01.2020
4202 Clouds 29 1005 51 10000 4.6 350 21:21 22.01.2020
4203 Clouds 29 1005 51 10000 4.6 350 20:56 22.01.2020
4204 Clouds 30 1005 48 10000 7.2 350 20:37 22.01.2020
4205 Clouds 30 1005 48 10000 7.2 350 20:37 22.01.2020
4206 Clouds 30 1005 48 10000 7.2 350 20:18 22.01.2020
4207 Clouds 30 1005 48 10000 8.2 340 19:55 22.01.2020
4208 Clouds 31 1005 40 10000 7.2 340 19:37 22.01.2020
4209 Clouds 31 1005 40 10000 7.2 340 19:18 22.01.2020
4210 Clouds 32 1005 35 10000 5.7 350 18:56 22.01.2020
4211 Clouds 32 1005 33 10000 4.6 340 18:37 22.01.2020
4212 Clouds 32 1005 33 10000 4.6 340 18:18 22.01.2020
4213 Clouds 32 1005 33 10000 3.1 30 17:40 22.01.2020
4214 Clouds 32 1005 33 10000 3.1 30 17:21 22.01.2020
4215 Clouds 32 1006 33 10000 2.1 20 16:58 22.01.2020
4216 Clouds 32 1006 33 10000 2.6 20 16:39 22.01.2020
4217 Clouds 32 1006 33 10000 2.6 20 16:21 22.01.2020
4218 Clouds 32 1006 31 10000 2.1 360 15:55 22.01.2020
4219 Clouds 33 1006 29 10000 3.6 320 15:37 22.01.2020
4220 Clouds 33 1006 29 10000 3.6 320 15:18 22.01.2020
4221 Clouds 33 1006 29 10000 2.6 30 14:39 22.01.2020
4222 Clouds 33 1006 29 10000 2.6 30 14:20 22.01.2020
4223 Clouds 34 1006 30 10000 3.1 30 13:58 22.01.2020
4224 Clouds 34 1006 30 10000 2.6 20 13:37 22.01.2020
4225 Clouds 34 1006 30 10000 2.6 20 13:37 22.01.2020
4226 Clouds 34 1006 30 10000 2.6 20 13:19 22.01.2020
4227 Clouds 35 1005 28 10000 1 340 12:57 22.01.2020
4228 Clouds 35 1005 28 10000 1 280 12:38 22.01.2020
4229 Clouds 35 1005 28 10000 1 280 12:19 22.01.2020
4230 Clouds 36 1005 26 10000 2.6 270 11:57 22.01.2020
4231 Clouds 36 1005 26 10000 3.1 260 11:38 22.01.2020
4232 Clouds 36 1005 26 10000 3.1 260 11:19 22.01.2020
4233 Clouds 36 1004 26 10000 4.1 240 10:45 22.01.2020
4234 Clouds 36 1004 26 10000 4.6 250 10:21 22.01.2020
4235 Clouds 36 1004 26 10000 6.2 250 09:58 22.01.2020
4236 Clouds 37 1004 25 10000 5.7 230 09:40 22.01.2020
4237 Clouds 37 1004 25 10000 5.7 230 09:21 22.01.2020
4238 Clouds 36 1004 26 10000 5.7 220 08:55 22.01.2020
4239 Clouds 36 1004 28 10000 8.7 240 08:36 22.01.2020
4240 Clouds 36 1004 28 10000 8.7 240 08:18 22.01.2020
4241 Clouds 38 1004 24 10000 3.1 300 07:42 22.01.2020
4242 Clouds 38 1004 24 10000 3.1 300 07:23 22.01.2020
4243 Clouds 37 1005 23 10000 3.1 190 06:34 22.01.2020
4244 Clouds 38 1006 22 10000 2.1 160 05:45 22.01.2020
4245 Clouds 35 1009 28 10000 4.6 330 04:25 22.01.2020
4246 Clouds 35 1009 32 10000 3.6 350 03:26 22.01.2020
4247 Clouds 33 1009 38 10000 4.6 350 02:39 22.01.2020
4248 Clear 31 1010 48 10000 6.2 350 00:47 22.01.2020
4249 Clear 31 1010 48 10000 6.2 350 00:47 22.01.2020
4250 Clear 29 1010 54 10000 6.2 350 00:27 22.01.2020
4251 Clear 28 1010 58 10000 5.7 340 23:55 21.01.2020
4252 Clear 28 1010 58 10000 6.7 340 23:37 21.01.2020
4253 Clear 28 1010 58 10000 6.7 340 23:18 21.01.2020
4254 Clear 27 1009 61 10000 6.2 350 22:40 21.01.2020
4255 Clear 27 1009 61 10000 6.2 350 22:21 21.01.2020
4256 Clear 27 1009 61 10000 6.7 350 21:57 21.01.2020
4257 Clear 27 1008 57 10000 6.2 350 21:38 21.01.2020
4258 Clear 27 1008 57 10000 6.2 350 21:20 21.01.2020
4259 Clear 27 1008 57 10000 4.6 360 20:56 21.01.2020
4260 Clear 28 1008 51 10000 4.1 350 20:37 21.01.2020
4261 Clear 28 1008 51 10000 4.1 350 20:19 21.01.2020
4262 Clear 28 1008 51 10000 3.6 350 19:56 21.01.2020
4263 Clear 28 1008 51 10000 3.6 350 19:56 21.01.2020
4264 Clear 28 1008 51 10000 4.6 340 19:38 21.01.2020
4265 Clear 28 1008 51 10000 4.6 340 19:20 21.01.2020
4266 Clear 28 1008 51 10000 4.6 350 18:55 21.01.2020
4267 Clear 28 1008 51 10000 4.6 350 18:55 21.01.2020
4268 Clear 29 1008 48 10000 4.6 350 18:37 21.01.2020
4269 Clear 29 1008 48 10000 4.6 350 18:18 21.01.2020
4270 Clear 29 1008 48 10000 4.1 350 17:45 21.01.2020
4271 Clear 29 1008 48 10000 4.1 350 17:20 21.01.2020
4272 Clear 29 1009 48 10000 4.6 360 16:59 21.01.2020
4273 Clear 29 1009 48 10000 4.6 360 16:59 21.01.2020
4274 Clear 30 1009 42 10000 4.6 360 16:37 21.01.2020
4275 Clear 30 1009 42 10000 4.6 360 16:19 21.01.2020
4276 Clear 30 1009 42 10000 6.2 10 15:42 21.01.2020
4277 Clear 30 1009 42 10000 6.2 10 15:22 21.01.2020
4278 Clear 31 1009 40 10000 6.7 10 14:59 21.01.2020
4279 Clear 31 1009 40 10000 7.2 10 14:38 21.01.2020
4280 Clouds 31 1009 40 10000 7.2 10 14:19 21.01.2020
4281 Clouds 31 1008 40 10000 7.7 10 13:40 21.01.2020
4282 Clouds 31 1008 40 10000 7.7 10 13:19 21.01.2020
4283 Clouds 32 1008 35 10000 6.7 10 12:44 21.01.2020
4284 Clouds 33 1007 33 10000 7.7 10 12:25 21.01.2020
4285 Clouds 33 1007 19 10000 3.6 50 11:57 21.01.2020
4286 Clouds 34 1007 20 10000 4.1 40 11:39 21.01.2020
4287 Clouds 34 1007 20 10000 4.1 40 11:21 21.01.2020
4288 Clouds 35 1007 19 10000 4.1 50 10:55 21.01.2020
4289 Clouds 35 1006 17 10000 4.1 60 10:37 21.01.2020
4290 Clouds 35 1006 17 10000 4.1 60 10:18 21.01.2020
4291 Clouds 36 1006 16 10000 6.2 50 09:41 21.01.2020
4292 Clouds 36 1006 16 10000 6.2 50 09:22 21.01.2020
4293 Clouds 35 1006 19 10000 4.6 10 08:49 21.01.2020
4294 Clouds 36 1006 18 10000 4.6 60 08:29 21.01.2020
4295 Clouds 35 1007 20 10000 4.6 40 07:59 21.01.2020
4296 Clear 35 1007 21 10000 4.1 20 07:39 21.01.2020
4297 Clear 35 1007 21 10000 4.1 20 07:21 21.01.2020
4298 Clouds 35 1007 21 10000 4.6 20 06:48 21.01.2020
4299 Clear 35 1008 21 10000 6.2 350 06:25 21.01.2020
4300 Clear 35 1009 20 10000 5.7 360 05:42 21.01.2020
4301 Clear 34 1010 23 10000 6.2 10 04:39 21.01.2020
4302 Clear 33 1011 26 10000 5.7 10 02:56 21.01.2020
4303 Clouds 32 1012 25 10000 6.2 360 01:51 21.01.2020
4304 Clouds 30 1012 20 10000 4.6 20 00:57 21.01.2020
4305 Clouds 28 1012 23 10000 2.6 70 00:35 21.01.2020
4306 Clouds 26 1012 26 10000 1.5 80 23:57 20.01.2020
4307 Clouds 25 1012 27 10000 3.1 90 23:37 20.01.2020
4308 Clouds 25 1012 27 10000 3.1 90 23:18 20.01.2020
4309 Clouds 25 1011 27 10000 2.6 100 22:56 20.01.2020
4310 Clouds 24 1011 29 10000 2.6 60 22:36 20.01.2020
4311 Clouds 24 1011 29 10000 2.6 60 22:18 20.01.2020
4312 Clouds 23 1011 31 10000 2.1 60 21:55 20.01.2020
4313 Clouds 22 1011 30 10000 2.1 50 21:36 20.01.2020
4314 Clouds 22 1011 30 10000 2.1 50 21:18 20.01.2020
4315 Clouds 23 1011 28 10000 2.1 80 20:54 20.01.2020
4316 Clouds 24 1010 29 10000 3.6 80 20:36 20.01.2020
4317 Clear 24 1010 29 10000 3.6 80 20:18 20.01.2020
4318 Clear 24 1010 29 10000 3.6 80 20:18 20.01.2020
4319 Clear 24 1010 29 10000 3.6 80 20:18 20.01.2020
4320 Clear 25 1010 27 10000 2.6 100 19:54 20.01.2020
4321 Clear 25 1010 27 10000 2.6 100 19:54 20.01.2020
4322 Clear 26 1010 26 10000 2.6 90 19:36 20.01.2020
4323 Clear 26 1010 26 10000 2.6 90 19:18 20.01.2020
4324 Clear 25 1010 27 10000 3.1 90 18:42 20.01.2020
4325 Clear 25 1010 27 10000 3.1 90 18:21 20.01.2020
4326 Clear 25 1010 25 10000 2.6 60 17:39 20.01.2020
4327 Clear 25 1010 25 10000 2.6 60 17:19 20.01.2020
4328 Clear 26 1011 26 10000 2.6 10 16:48 20.01.2020
4329 Clear 26 1011 26 10000 3.1 100 16:26 20.01.2020
4330 Clear 28 1011 21 10000 3.6 110 15:59 20.01.2020
4331 Clear 29 1011 20 10000 4.1 110 15:40 20.01.2020
4332 Clear 29 1011 20 10000 4.1 110 15:22 20.01.2020
4333 Clear 29 1011 21 10000 4.1 100 14:59 20.01.2020
4334 Clear 29 1011 20 10000 4.6 110 14:40 20.01.2020
4335 Clear 29 1011 20 10000 4.6 110 14:40 20.01.2020
4336 Clouds 29 1011 20 10000 4.6 110 14:21 20.01.2020
4337 Clouds 30 1010 19 10000 5.7 120 13:56 20.01.2020
4338 Clouds 31 1010 18 10000 5.1 120 13:38 20.01.2020
4339 Clouds 31 1010 18 10000 5.1 120 13:38 20.01.2020
4340 Clouds 31 1010 18 10000 5.1 120 13:18 20.01.2020
4341 Clouds 32 1010 18 10000 5.1 120 12:42 20.01.2020
4342 Clouds 32 1010 18 10000 5.1 120 12:23 20.01.2020
4343 Clouds 33 1009 16 10000 5.1 130 11:55 20.01.2020
4344 Clouds 33 1009 16 10000 5.7 130 11:36 20.01.2020
4345 Clouds 33 1009 16 10000 5.7 130 11:18 20.01.2020
4346 Clouds 35 1008 14 10000 4.6 140 10:41 20.01.2020
4347 Clouds 35 1008 14 10000 4.6 140 10:20 20.01.2020
4348 Clouds 35 1007 14 10000 3.6 50 09:41 20.01.2020
4349 Clouds 35 1007 14 10000 3.6 50 09:23 20.01.2020
4350 Clouds 34 1008 14 10000 3.6 30 08:55 20.01.2020
4351 Clouds 36 1008 13 10000 4.6 110 08:31 20.01.2020
4352 Clear 35 1008 14 10000 3.6 110 07:55 20.01.2020
4353 Clear 35 1008 14 10000 3.6 110 07:55 20.01.2020
4354 Clear 35 1008 13 10000 5.1 110 07:37 20.01.2020
4355 Clear 35 1008 13 10000 5.1 110 07:19 20.01.2020
4356 Clear 34 1009 15 10000 2.6 50 06:36 20.01.2020
4357 Clear 33 1010 16 10000 4.1 100 05:56 20.01.2020
4358 Clear 34 1010 15 10000 5.1 90 05:37 20.01.2020
4359 Clear 34 1010 15 10000 5.1 90 05:18 20.01.2020
4360 Clear 31 1011 18 10000 5.1 80 03:47 20.01.2020
4361 Clear 28 1012 20 10000 6.7 90 01:58 20.01.2020
4362 Clear 28 1012 20 10000 6.2 100 01:39 20.01.2020
4363 Clear 28 1012 21 10000 7.2 90 00:55 20.01.2020
4364 Clear 27 1012 22 10000 7.2 110 00:28 20.01.2020
4365 Clear 26 1012 24 10000 7.2 110 23:56 19.01.2020
4366 Clear 25 1012 25 10000 7.2 120 23:37 19.01.2020
4367 Clear 25 1012 25 10000 7.2 120 23:18 19.01.2020
4368 Clear 24 1012 27 10000 4.1 130 22:55 19.01.2020
4369 Clear 23 1012 31 10000 3.6 140 22:36 19.01.2020
4370 Clear 23 1012 31 10000 3.6 140 22:18 19.01.2020
4371 Clear 23 1011 31 10000 3.1 140 21:55 19.01.2020
4372 Clear 23 1011 31 10000 3.1 140 21:55 19.01.2020
4373 Clear 23 1011 31 10000 4.1 120 21:37 19.01.2020
4374 Clear 23 1011 31 10000 4.1 120 21:19 19.01.2020
4375 Clear 23 1011 31 10000 4.1 130 20:55 19.01.2020
4376 Clear 24 1011 29 10000 3.6 120 20:37 19.01.2020
4377 Clouds 24 1011 29 10000 3.6 120 20:18 19.01.2020
4378 Clouds 25 1010 27 10000 3.6 120 19:54 19.01.2020
4379 Clouds 25 1010 29 10000 4.1 130 19:36 19.01.2020
4380 Clouds 25 1010 29 10000 4.1 130 19:18 19.01.2020
4381 Clouds 26 1010 27 10000 4.6 130 18:55 19.01.2020
4382 Clouds 26 1010 29 10000 5.7 130 18:36 19.01.2020
4383 Clouds 26 1010 29 10000 5.7 130 18:18 19.01.2020
4384 Clouds 24 1010 57 10000 2.6 140 17:56 19.01.2020
4385 Clouds 25 1010 53 10000 1.5 170 17:38 19.01.2020
4386 Clouds 25 1010 53 10000 1.5 170 17:18 19.01.2020
4387 Clouds 24 1010 57 10000 1.5 140 16:55 19.01.2020
4388 Clouds 25 1010 53 10000 2.1 200 16:36 19.01.2020
4389 Clouds 25 1010 53 10000 2.1 200 16:18 19.01.2020
4390 Clouds 26 1010 50 10000 2.1 120 15:41 19.01.2020
4391 Clouds 26 1010 50 10000 2.1 120 15:22 19.01.2020
4392 Clouds 26 1010 50 10000 2.1 120 14:59 19.01.2020
4393 Clouds 27 1009 47 10000 2.6 350 14:40 19.01.2020
4394 Clouds 27 1009 47 10000 2.6 350 14:19 19.01.2020
4395 Clouds 27 1009 47 10000 2.1 330 13:58 19.01.2020
4396 Clouds 27 1009 51 10000 2.1 330 13:39 19.01.2020
4397 Clouds 27 1009 51 10000 2.1 330 13:21 19.01.2020
4398 Clouds 27 1009 51 10000 3.6 350 12:58 19.01.2020
4399 Clouds 27 1009 51 10000 3.6 350 12:58 19.01.2020
4400 Clouds 27 1009 51 10000 3.6 350 12:58 19.01.2020
4401 Clouds 27 1009 51 10000 4.1 350 12:40 19.01.2020
4402 Clouds 27 1009 51 10000 4.1 350 12:40 19.01.2020
4403 Clouds 27 1009 51 10000 4.1 350 12:21 19.01.2020
4404 Clouds 27 1008 54 10000 5.7 350 11:56 19.01.2020
4405 Clouds 27 1008 54 10000 6.7 350 11:37 19.01.2020
4406 Clouds 27 1008 54 10000 6.7 350 11:18 19.01.2020
4407 Clouds 29 1007 54 10000 8.7 350 10:39 19.01.2020
4408 Clouds 29 1007 54 10000 8.7 350 10:39 19.01.2020
4409 Clouds 29 1007 54 10000 8.7 350 10:20 19.01.2020
4410 Clouds 30 1006 48 10000 7.7 350 09:57 19.01.2020
4411 Clouds 30 1006 48 10000 7.7 350 09:57 19.01.2020
4412 Clouds 31 1006 40 10000 6.7 360 09:38 19.01.2020
4413 Clouds 31 1006 40 10000 6.7 360 09:19 19.01.2020
4414 Clouds 31 1006 45 10000 6.7 360 08:54 19.01.2020
4415 Clouds 31 1006 43 10000 7.2 350 08:31 19.01.2020
4416 Clouds 34 1006 26 10000 3.1 100 07:49 19.01.2020
4417 Clouds 33 1006 29 10000 4.6 110 07:28 19.01.2020
4418 Clouds 34 1007 30 10000 3.6 40 06:55 19.01.2020
4419 Clouds 32 1007 33 10000 2.1 200 06:21 19.01.2020
4420 Clouds 30 1010 37 10000 5.1 70 03:52 19.01.2020
4421 Clouds 28 1011 48 10000 6.7 40 02:32 19.01.2020
4422 Clouds 26 1011 54 10000 4.1 360 01:39 19.01.2020
4423 Clouds 26 1011 54 10000 4.1 360 01:19 19.01.2020
4424 Clouds 26 1011 57 10000 5.1 350 00:44 19.01.2020
4425 Clouds 26 1010 65 10000 3.1 300 00:19 19.01.2020
4426 Clouds 26 1010 65 10000 3.1 300 23:45 18.01.2020
4427 Rain 26 1010 47 10000 2.6 240 23:24 18.01.2020
4428 Rain 28 1009 23 10000 3.6 60 22:58 18.01.2020
4429 Clouds 28 1008 20 10000 3.6 110 22:40 18.01.2020
4430 Clouds 28 1008 20 10000 3.6 110 22:21 18.01.2020
4431 Rain 28 1008 24 10000 3.1 110 21:57 18.01.2020
4432 Rain 28 1008 42 10000 4.1 120 21:38 18.01.2020
4433 Rain 28 1008 42 10000 4.1 120 21:20 18.01.2020
4434 Rain 28 1008 51 10000 3.1 130 20:44 18.01.2020
4435 Clouds 28 1008 51 10000 2.1 70 20:22 18.01.2020
4436 Clouds 28 1007 51 10000 2.6 60 19:59 18.01.2020
4437 Clouds 28 1007 51 10000 2.6 20 19:41 18.01.2020
4438 Clouds 28 1007 51 10000 2.6 20 19:22 18.01.2020
4439 Clouds 28 1007 48 10000 2.6 10 18:43 18.01.2020
4440 Clouds 28 1007 48 10000 2.6 10 18:24 18.01.2020
4441 Clouds 28 1007 45 10000 2.6 60 17:56 18.01.2020
4442 Clouds 29 1007 45 10000 2.54 43 17:38 18.01.2020
4443 Clouds 29 1007 45 10000 1.94 82 17:19 18.01.2020
4444 Clouds 29 1007 45 10000 2.1 10 16:55 18.01.2020
4445 Clouds 30 1008 42 10000 2.6 340 16:36 18.01.2020
4446 Clouds 30 1008 42 10000 2.6 340 16:18 18.01.2020
4447 Clouds 30 1009 42 10000 3.1 360 15:42 18.01.2020
4448 Clouds 30 1009 42 10000 3.1 360 15:24 18.01.2020
4449 Clouds 30 1008 42 10000 2.6 350 14:57 18.01.2020
4450 Clouds 30 1009 42 10000 4.1 350 14:39 18.01.2020
4451 Clouds 30 1009 42 10000 4.1 350 14:18 18.01.2020
4452 Clouds 31 1008 38 10000 2.6 280 13:44 18.01.2020
4453 Clouds 31 1008 38 10000 2.6 280 13:26 18.01.2020
4454 Clouds 31 1007 38 10000 5.1 280 12:58 18.01.2020
4455 Clouds 31 1007 38 10000 6.7 300 12:39 18.01.2020
4456 Clouds 31 1007 38 10000 6.7 300 12:20 18.01.2020
4457 Clouds 31 1007 40 10000 7.2 300 11:44 18.01.2020
4458 Clouds 31 1006 40 10000 7.7 320 11:22 18.01.2020
4459 Clouds 32 1006 38 10000 7.7 310 10:57 18.01.2020
4460 Clouds 32 1006 40 10000 8.2 300 10:38 18.01.2020
4461 Clouds 32 1006 40 10000 8.2 300 10:19 18.01.2020
4462 Clouds 32 1005 38 6000 6.7 290 09:43 18.01.2020
4463 Clouds 37 1003 11 10000 8.7 120 09:24 18.01.2020
4464 Clouds 39 1003 12 10000 7.2 90 08:55 18.01.2020
4465 Clouds 38 1003 12 10000 5.1 130 08:37 18.01.2020
4466 Clouds 38 1003 12 10000 5.1 130 08:18 18.01.2020
4467 Clouds 39 1003 12 10000 5.1 120 07:45 18.01.2020
4468 Clouds 38 1004 13 10000 4.6 120 07:26 18.01.2020
4469 Clouds 39 1004 12 10000 3.6 80 06:47 18.01.2020
4470 Clouds 38 1005 13 10000 3.1 140 05:58 18.01.2020
4471 Clouds 38 1006 13 10000 3.6 250 05:19 18.01.2020
4472 Clear 35 1009 12 10000 3.6 100 02:53 18.01.2020
4473 Clear 35 1009 12 10000 3.6 100 02:53 18.01.2020
4474 Clear 33 1009 14 10000 6.2 90 01:51 18.01.2020
4475 Clear 33 1009 15 10000 5.7 70 01:20 18.01.2020
4476 Clear 31 1010 17 10000 4.1 80 00:36 18.01.2020
4477 Clear 31 1010 17 10000 4.1 80 00:18 18.01.2020
4478 Clear 28 1010 21 10000 3.6 90 23:40 17.01.2020
4479 Clear 28 1010 21 10000 3.6 90 23:19 17.01.2020
4480 Clear 23 1009 31 10000 0.5 10 22:44 17.01.2020
4481 Clear 23 1009 31 10000 0.5 10 22:21 17.01.2020
4482 Clear 23 1009 31 10000 2.1 130 21:58 17.01.2020
4483 Clear 23 1009 31 10000 2.1 130 21:40 17.01.2020
4484 Clear 23 1009 31 10000 2.1 130 21:22 17.01.2020
4485 Clear 24 1008 29 10000 2.6 120 20:55 17.01.2020
4486 Clear 24 1008 31 10000 1.5 60 20:37 17.01.2020
4487 Clear 24 1008 31 10000 1.5 60 20:18 17.01.2020
4488 Clear 25 1008 27 10000 2.1 50 19:54 17.01.2020
4489 Clear 25 1008 29 10000 0.5 50 19:36 17.01.2020
4490 Clear 25 1008 29 10000 0.5 50 19:18 17.01.2020
4491 Clear 26 1008 26 10000 3.1 90 18:44 17.01.2020
4492 Clear 28 1008 24 10000 3.1 110 18:26 17.01.2020
4493 Clear 28 1008 24 10000 4.1 100 17:56 17.01.2020
4494 Clear 29 1008 23 10000 3.6 120 17:38 17.01.2020
4495 Clear 29 1008 23 10000 3.6 120 17:38 17.01.2020
4496 Clear 29 1008 23 10000 3.6 120 17:19 17.01.2020
4497 Clear 30 1008 22 10000 5.1 110 16:41 17.01.2020
4498 Clear 30 1008 22 10000 5.1 110 16:20 17.01.2020
4499 Clear 30 1009 22 10000 5.1 90 15:48 17.01.2020
4500 Clear 30 1009 22 10000 4.1 90 15:27 17.01.2020
4501 Clear 31 1009 20 10000 4.6 120 14:54 17.01.2020
4502 Clear 32 1009 18 10000 6.2 110 14:36 17.01.2020
4503 Clear 32 1009 18 10000 6.2 110 14:18 17.01.2020
4504 Clear 33 1008 17 10000 4.1 130 13:39 17.01.2020
4505 Clear 33 1008 17 10000 4.1 130 13:19 17.01.2020
4506 Clear 33 1008 17 10000 3.6 130 12:45 17.01.2020
4507 Clear 34 1008 15 10000 4.6 120 12:22 17.01.2020
4508 Clear 35 1008 14 10000 4.6 140 11:40 17.01.2020
4509 Clear 35 1008 14 10000 4.6 140 11:19 17.01.2020
4510 Clear 36 1007 13 10000 3.6 150 10:45 17.01.2020
4511 Clear 37 1007 13 10000 3.6 130 10:23 17.01.2020
4512 Clear 37 1007 13 10000 4.6 150 09:59 17.01.2020
4513 Clear 37 1007 13 10000 4.6 150 09:59 17.01.2020
4514 Clear 38 1007 13 10000 4.6 150 09:41 17.01.2020
4515 Clear 38 1007 13 10000 4.6 150 09:20 17.01.2020
4516 Clear 38 1007 13 10000 4.6 150 09:20 17.01.2020
4517 Clear 37 1007 13 10000 3.6 150 08:46 17.01.2020
4518 Clear 38 1008 13 10000 4.1 140 08:25 17.01.2020
4519 Clear 38 1008 13 10000 4.1 140 08:25 17.01.2020
4520 Clear 37 1008 13 10000 4.6 140 07:56 17.01.2020
4521 Clear 37 1008 13 10000 4.6 140 07:56 17.01.2020
4522 Clear 37 1008 13 10000 5.7 130 07:34 17.01.2020
4523 Clear 37 1008 13 10000 3.1 180 06:59 17.01.2020
4524 Clear 37 1009 13 10000 3.1 230 06:41 17.01.2020
4525 Clear 36 1009 13 10000 3.6 50 05:57 17.01.2020
4526 Clear 33 1008 20 0 5.63 136 03:39 17.01.2020
4527 Clear 33 1008 20 0 5.63 136 02:55 17.01.2020
4528 Clear 29 1010 25 0 7.19 118 01:48 17.01.2020
4529 Clear 29 1010 25 0 7.19 118 01:29 17.01.2020
4530 Clear 28 1009 24 0 6.46 115 00:51 17.01.2020
4531 Clear 28 1011 23 10000 6.7 110 00:28 17.01.2020
4532 Clear 28 1011 23 10000 6.7 110 23:46 16.01.2020
4533 Clear 28 1011 23 10000 6.7 110 23:46 16.01.2020
4534 Clear 28 1011 23 10000 6.7 110 23:26 16.01.2020
4535 Clear 28 1011 23 10000 5.7 110 22:58 16.01.2020
4536 Clear 27 1011 26 10000 4.1 120 22:40 16.01.2020
4537 Clear 27 1011 26 10000 4.1 120 22:20 16.01.2020
4538 Clear 27 1010 26 10000 4.1 120 21:55 16.01.2020
4539 Clear 27 1010 24 10000 4.1 130 21:37 16.01.2020
4540 Clear 27 1010 24 10000 4.1 130 21:18 16.01.2020
4541 Clear 28 1009 24 10000 5.1 130 20:41 16.01.2020
4542 Clear 28 1009 24 10000 5.1 130 20:41 16.01.2020
4543 Clear 28 1009 24 10000 5.1 130 20:22 16.01.2020
4544 Clear 28 1009 26 10000 5.7 130 19:59 16.01.2020
4545 Clear 29 1009 25 10000 5.7 120 19:41 16.01.2020
4546 Clear 29 1009 25 10000 5.7 120 19:22 16.01.2020
4547 Clear 29 1009 25 10000 4.6 120 18:57 16.01.2020
4548 Clear 29 1009 23 10000 5.1 120 18:38 16.01.2020
4549 Clear 29 1009 23 10000 5.1 120 18:20 16.01.2020
4550 Clear 30 1009 22 10000 3.6 120 17:59 16.01.2020
4551 Clear 30 1009 22 10000 3.6 120 17:59 16.01.2020
4552 Clear 30 1009 20 10000 4.6 120 17:40 16.01.2020
4553 Clear 30 1009 20 10000 4.6 120 17:40 16.01.2020
4554 Clear 30 1009 20 10000 4.6 120 17:20 16.01.2020
4555 Clear 30 1010 20 10000 3.6 120 16:42 16.01.2020
4556 Clear 30 1010 20 10000 3.6 120 16:24 16.01.2020
4557 Clear 31 1010 18 10000 3.6 100 15:59 16.01.2020
4558 Clear 32 1010 17 10000 4.1 110 15:39 16.01.2020
4559 Clear 32 1010 17 10000 4.1 110 15:20 16.01.2020
4560 Clear 32 1010 18 10000 4.6 110 14:45 16.01.2020
4561 Clear 33 1010 17 10000 5.1 120 14:24 16.01.2020
4562 Clear 33 1009 16 10000 5.7 130 13:56 16.01.2020
4563 Clear 34 1009 14 10000 4.6 130 13:37 16.01.2020
4564 Clear 34 1009 14 10000 4.6 130 13:19 16.01.2020
4565 Clear 35 1009 14 10000 4.6 130 12:42 16.01.2020
4566 Clear 35 1009 14 10000 4.6 130 12:22 16.01.2020
4567 Clear 36 1009 12 10000 4.6 130 11:43 16.01.2020
4568 Clear 36 1009 12 10000 4.6 130 11:43 16.01.2020
4569 Clear 36 1009 12 10000 5.1 140 11:24 16.01.2020
4570 Clear 37 1008 12 10000 5.7 150 10:59 16.01.2020
4571 Clear 38 1008 10 10000 4.6 110 10:38 16.01.2020
4572 Clear 38 1008 10 10000 4.6 110 10:20 16.01.2020
4573 Clear 38 1008 11 10000 4.6 170 09:56 16.01.2020
4574 Clear 39 1007 10 10000 4.6 130 09:37 16.01.2020
4575 Clear 39 1007 10 10000 4.6 130 09:18 16.01.2020
4576 Clear 39 1008 10 10000 4.6 180 08:44 16.01.2020
4577 Clear 39 1008 10 10000 4.6 180 08:23 16.01.2020
4578 Clouds 39 1008 10 10000 4.1 130 07:43 16.01.2020
4579 Clouds 38 1008 9 10000 5.1 120 07:25 16.01.2020
4580 Clouds 38 1008 9 10000 4.1 170 06:56 16.01.2020
4581 Clouds 39 1009 9 10000 5.1 90 06:37 16.01.2020
4582 Clouds 38 1009 13 10000 3.6 130 05:56 16.01.2020
4583 Clouds 37 1009 13 10000 4.1 150 05:30 16.01.2020
4584 Clouds 36 1010 11 10000 5.1 120 04:37 16.01.2020
4585 Clouds 36 1010 11 10000 5.1 120 04:37 16.01.2020
4586 Clouds 35 1011 11 10000 7.2 130 03:27 16.01.2020
4587 Clouds 33 1012 11 10000 6.2 120 02:29 16.01.2020
4588 Clouds 31 1012 12 10000 7.7 120 00:45 16.01.2020
4589 Clouds 32 1012 13 10000 8.2 110 00:24 16.01.2020
4590 Clouds 30 1012 13 10000 6.7 110 23:48 15.01.2020
4591 Clouds 30 1012 11 10000 4.1 120 23:22 15.01.2020
4592 Clouds 30 1011 11 10000 5.7 110 22:57 15.01.2020
4593 Clouds 29 1011 12 10000 3.6 110 22:39 15.01.2020
4594 Clouds 29 1011 12 10000 3.6 110 22:19 15.01.2020
4595 Clouds 28 1011 12 10000 2.1 90 21:57 15.01.2020
4596 Clouds 29 1011 11 10000 3.1 130 21:37 15.01.2020
4597 Clouds 29 1011 11 10000 3.1 130 21:19 15.01.2020
4598 Clouds 29 1010 11 10000 3.1 120 20:56 15.01.2020
4599 Clouds 30 1010 10 10000 5.7 120 20:38 15.01.2020
4600 Clouds 30 1010 10 10000 5.7 120 20:19 15.01.2020
4601 Clear 30 1010 13 10000 3.6 100 19:54 15.01.2020
4602 Clear 28 1009 20 10000 2.1 110 19:36 15.01.2020
4603 Clear 28 1009 20 10000 2.1 110 19:18 15.01.2020
4604 Clear 28 1009 20 10000 2.1 110 19:18 15.01.2020
4605 Clear 29 1009 17 10000 2.6 130 18:56 15.01.2020
4606 Clear 29 1009 18 10000 2.6 130 18:37 15.01.2020
4607 Clear 29 1009 18 10000 2.6 130 18:37 15.01.2020
4608 Clear 29 1009 18 10000 2.6 130 18:19 15.01.2020
4609 Clear 30 1009 17 10000 4.1 130 17:55 15.01.2020
4610 Clear 29 1008 16 10000 2.6 130 17:36 15.01.2020
4611 Clear 29 1008 16 10000 2.6 130 17:18 15.01.2020
4612 Clear 31 1008 15 10000 2.6 100 16:40 15.01.2020
4613 Clear 31 1008 15 10000 2.6 100 16:21 15.01.2020
4614 Clear 31 1008 14 10000 2.6 110 15:56 15.01.2020
4615 Clear 33 1008 13 10000 3.1 110 15:38 15.01.2020
4616 Clear 33 1008 13 10000 3.1 110 15:18 15.01.2020
4617 Clear 33 1008 13 10000 3.1 120 14:42 15.01.2020
4618 Clouds 33 1008 13 10000 3.1 120 14:19 15.01.2020
4619 Clouds 35 1008 11 10000 3.6 130 13:46 15.01.2020
4620 Clouds 36 1008 11 10000 3.6 110 13:26 15.01.2020
4621 Clear 36 1008 11 10000 4.6 140 12:59 15.01.2020
4622 Clear 37 1008 11 10000 3.6 130 12:39 15.01.2020
4623 Clear 37 1008 11 10000 3.6 130 12:19 15.01.2020
4624 Clear 38 1007 11 10000 4.6 140 11:56 15.01.2020
4625 Clear 39 1007 10 10000 4.6 160 11:37 15.01.2020
4626 Clear 39 1007 10 10000 4.6 160 11:19 15.01.2020
4627 Clear 40 1007 10 10000 4.1 200 10:42 15.01.2020
4628 Clear 40 1007 10 10000 4.1 200 10:24 15.01.2020
4629 Clear 41 1007 9 10000 5.7 170 09:42 15.01.2020
4630 Clear 41 1007 9 10000 5.7 170 09:23 15.01.2020
4631 Clear 41 1007 9 10000 4.1 150 08:56 15.01.2020
4632 Clear 41 1007 9 10000 6.7 160 08:37 15.01.2020
4633 Clouds 41 1007 9 10000 6.7 160 08:19 15.01.2020
4634 Clouds 42 1007 8 10000 3.1 220 07:50 15.01.2020
4635 Clouds 41 1007 9 10000 4.1 100 07:30 15.01.2020
4636 Clouds 41 1008 9 10000 3.6 170 06:44 15.01.2020
4637 Clouds 41 1008 9 10000 3.1 230 06:18 15.01.2020
4638 Clouds 40 1009 8 10000 3.6 160 04:34 15.01.2020
4639 Clouds 38 1011 11 10000 5.1 60 02:30 15.01.2020
4640 Clouds 37 1011 13 10000 4.1 50 01:25 15.01.2020
4641 Clouds 36 1011 9 10000 4.1 40 00:45 15.01.2020
4642 Clouds 35 1011 12 10000 5.1 50 00:26 15.01.2020
4643 Clouds 33 1011 12 10000 4.08 104 23:47 14.01.2020
4644 Clouds 29 1011 20 10000 1.5 310 23:29 14.01.2020
4645 Clouds 27 1011 22 10000 2.6 280 22:59 14.01.2020
4646 Clouds 27 1010 21 10000 2.1 330 22:40 14.01.2020
4647 Clouds 27 1010 21 10000 2.1 330 22:19 14.01.2020
4648 Clouds 27 1010 22 10000 2.52 118 21:58 14.01.2020
4649 Clouds 27 1010 21 10000 1.5 340 21:39 14.01.2020
4650 Clouds 27 1010 21 10000 1.5 340 21:20 14.01.2020
4651 Clouds 27 1009 21 10000 2.52 118 20:56 14.01.2020
4652 Clouds 29 1009 18 10000 2.52 118 20:38 14.01.2020
4653 Clouds 29 1009 18 10000 4.3 92 20:19 14.01.2020
4654 Clouds 29 1009 18 10000 4.3 92 19:55 14.01.2020
4655 Clouds 29 1009 18 10000 4.3 92 19:37 14.01.2020
4656 Clouds 29 1009 18 10000 4.3 92 19:18 14.01.2020
4657 Clouds 30 1009 17 10000 1.5 270 18:41 14.01.2020
4658 Clouds 30 1009 17 10000 1.5 270 18:20 14.01.2020
4659 Clouds 30 1009 17 10000 1.5 270 17:58 14.01.2020
4660 Clouds 31 1009 16 10000 4.3 92 17:37 14.01.2020
4661 Clear 31 1009 16 10000 4.78 103 17:18 14.01.2020
4662 Clear 31 1009 15 10000 1 70 16:44 14.01.2020
4663 Clear 32 1009 13 10000 1.5 130 16:23 14.01.2020
4664 Clear 33 1009 14 10000 2.6 130 15:58 14.01.2020
4665 Clear 33 1010 14 10000 2.1 90 15:40 14.01.2020
4666 Clear 33 1010 14 10000 2.1 90 15:19 14.01.2020
4667 Clear 34 1010 12 10000 4.1 130 14:45 14.01.2020
4668 Clouds 34 1010 12 10000 4.1 130 14:21 14.01.2020
4669 Clouds 34 1009 13 10000 4.6 130 13:57 14.01.2020
4670 Clouds 34 1009 13 10000 3.6 120 13:39 14.01.2020
4671 Clouds 34 1009 13 10000 3.6 120 13:19 14.01.2020
4672 Clouds 36 1009 11 10000 4.1 130 12:42 14.01.2020
4673 Clouds 36 1009 11 10000 4.1 130 12:22 14.01.2020
4674 Clouds 37 1008 12 10000 5.7 140 11:56 14.01.2020
4675 Clouds 38 1008 10 10000 7.2 130 11:36 14.01.2020
4676 Clouds 38 1008 10 10000 7.2 130 11:18 14.01.2020
4677 Clouds 39 1007 11 10000 6.2 130 10:40 14.01.2020
4678 Clouds 39 1007 11 10000 6.2 130 10:20 14.01.2020
4679 Clouds 40 1007 11 10000 6.2 120 09:58 14.01.2020
4680 Clouds 41 1007 9 10000 6.7 150 09:40 14.01.2020
4681 Clouds 41 1007 9 10000 6.7 150 09:21 14.01.2020
4682 Clouds 41 1007 9 10000 5.7 100 08:48 14.01.2020
4683 Clouds 41 1007 10 10000 5.7 150 08:26 14.01.2020
4684 Clouds 41 1008 9 10000 3.1 230 07:56 14.01.2020
4685 Clouds 41 1008 9 10000 5.7 180 07:37 14.01.2020
4686 Clouds 40 1009 10 10000 3.1 240 06:57 14.01.2020
4687 Clouds 40 1009 10 10000 3.6 210 06:39 14.01.2020
4688 Clouds 40 1009 10 10000 3.6 210 06:39 14.01.2020
4689 Clouds 39 1010 10 10000 3.1 220 05:33 14.01.2020
4690 Clouds 39 1011 10 10000 2.6 120 04:22 14.01.2020
4691 Clouds 38 1011 9 10000 2.6 140 03:35 14.01.2020
4692 Clouds 37 1012 13 10000 2.6 130 02:26 14.01.2020
4693 Clear 35 1013 9 10000 4.6 80 01:18 14.01.2020
4694 Clear 33 1013 11 10000 5.7 50 00:38 14.01.2020
4695 Clear 32 1013 11 10000 4.6 90 23:59 13.01.2020
4696 Clear 31 1013 12 10000 4.6 100 23:37 13.01.2020
4697 Clear 31 1013 12 10000 4.6 100 23:18 13.01.2020
4698 Clear 26 1012 21 10000 2.1 90 22:45 13.01.2020
4699 Clear 26 1012 21 10000 2.1 90 22:22 13.01.2020
4700 Clear 26 1011 21 10000 3.1 90 21:58 13.01.2020
4701 Clear 26 1011 21 10000 3.1 90 21:58 13.01.2020
4702 Clear 27 1011 21 10000 2.6 90 21:39 13.01.2020
4703 Clear 27 1011 21 10000 2.6 90 21:19 13.01.2020
4704 Clear 27 1011 15 10000 2.6 90 20:59 13.01.2020
4705 Clear 29 1011 13 10000 3.6 90 20:41 13.01.2020
4706 Clouds 29 1011 13 10000 3.6 90 20:22 13.01.2020
4707 Clouds 30 1011 13 10000 4.1 80 19:59 13.01.2020
4708 Clouds 30 1010 13 10000 5.1 80 19:40 13.01.2020
4709 Clouds 30 1010 13 10000 5.1 80 19:20 13.01.2020
4710 Clouds 31 1010 12 10000 4.6 80 18:56 13.01.2020
4711 Clouds 31 1010 12 10000 3.6 80 18:37 13.01.2020
4712 Clouds 31 1010 12 10000 3.6 80 18:19 13.01.2020
4713 Clouds 32 1010 13 10000 4.1 110 17:44 13.01.2020
4714 Clouds 32 1010 13 10000 4.1 110 17:25 13.01.2020
4715 Clouds 32 1010 13 10000 4.1 110 16:58 13.01.2020
4716 Clouds 29 1009 18 0 4.47 93 16:38 13.01.2020
4717 Clouds 29 1009 18 0 4.47 93 16:20 13.01.2020
4718 Clouds 29 1009 18 0 4.47 93 15:54 13.01.2020
4719 Clouds 29 1009 18 0 4.47 93 15:36 13.01.2020
4720 Clouds 29 1009 18 0 4.47 93 15:18 13.01.2020
4721 Clouds 29 1009 18 0 4.47 93 14:40 13.01.2020
4722 Clouds 31 1008 17 0 5.55 110 14:22 13.01.2020
4723 Clouds 31 1008 17 0 5.55 110 13:55 13.01.2020
4724 Clouds 31 1008 17 0 5.55 110 13:37 13.01.2020
4725 Clouds 31 1008 15 0 5.97 114 13:19 13.01.2020
4726 Clouds 37 1009 13 10000 5.7 140 12:43 13.01.2020
4727 Clouds 37 1009 13 10000 5.7 140 12:23 13.01.2020
4728 Clouds 37 1009 13 10000 5.7 140 12:23 13.01.2020
4729 Clouds 37 1009 13 10000 5.7 140 11:58 13.01.2020
4730 Clouds 38 1008 11 10000 5.1 140 11:38 13.01.2020
4731 Clouds 38 1008 11 10000 5.1 140 11:19 13.01.2020
4732 Clouds 38 1008 13 10000 4.6 160 10:56 13.01.2020
4733 Clouds 39 1008 12 10000 3.1 150 10:37 13.01.2020
4734 Clouds 39 1008 12 10000 3.1 150 10:19 13.01.2020
4735 Clouds 39 1007 12 10000 4.6 230 09:43 13.01.2020
4736 Clouds 39 1007 12 10000 4.6 230 09:24 13.01.2020
4737 Clouds 41 1007 12 10000 3.1 130 08:57 13.01.2020
4738 Clouds 40 1007 11 10000 3.6 140 08:37 13.01.2020
4739 Clouds 40 1007 11 10000 3.1 80 08:18 13.01.2020
4740 Clouds 39 1007 11 10000 4.6 200 07:43 13.01.2020
4741 Clouds 39 1007 11 10000 4.6 200 07:24 13.01.2020
4742 Clouds 40 1008 11 10000 3.1 100 06:37 13.01.2020
4743 Clouds 39 1009 11 10000 3.1 100 05:37 13.01.2020
4744 Clouds 39 1009 11 10000 3.1 100 05:37 13.01.2020
4745 Clouds 38 1009 11 10000 2.6 310 04:56 13.01.2020
4746 Clouds 35 1011 13 10000 3.6 70 03:38 13.01.2020
4747 Clouds 35 1011 11 10000 4.6 50 02:49 13.01.2020
4748 Clouds 34 1011 14 10000 5.7 50 02:30 13.01.2020
4749 Clouds 34 1011 14 10000 5.7 50 02:30 13.01.2020
4750 Clouds 32 1012 14 10000 4.6 60 01:33 13.01.2020
4751 Clouds 31 1012 12 10000 5.7 60 00:44 13.01.2020
4752 Clouds 30 1012 13 10000 3.6 70 00:26 13.01.2020
4753 Clouds 29 1012 14 10000 3.6 100 23:57 12.01.2020
4754 Clouds 29 1012 14 10000 3.6 100 23:57 12.01.2020
4755 Clouds 28 1012 17 10000 3.52 123 23:39 12.01.2020
4756 Clouds 28 1012 17 10000 7.85 120 23:21 12.01.2020
4757 Clouds 25 1011 23 10000 7.85 120 22:43 12.01.2020
4758 Clouds 25 1011 23 10000 7.85 120 22:43 12.01.2020
4759 Clouds 25 1011 23 10000 7.85 120 22:25 12.01.2020
4760 Clouds 26 1011 21 10000 7.85 120 21:59 12.01.2020
4761 Clouds 25 1011 23 10000 2.1 170 21:40 12.01.2020
4762 Clouds 25 1011 23 10000 2.1 170 21:20 12.01.2020
4763 Clouds 26 1010 21 10000 2.6 150 20:58 12.01.2020
4764 Clouds 26 1010 22 10000 2.6 170 20:39 12.01.2020
4765 Clouds 26 1010 22 10000 2.6 170 20:21 12.01.2020
4766 Clouds 27 1010 21 10000 2.6 150 19:56 12.01.2020
4767 Clouds 27 1010 21 10000 2.6 150 19:56 12.01.2020
4768 Clouds 28 1010 20 10000 3.1 160 19:38 12.01.2020
4769 Clouds 28 1010 20 10000 3.1 160 19:19 12.01.2020
4770 Clouds 28 1010 20 10000 3.1 160 19:19 12.01.2020
4771 Clouds 28 1010 18 10000 2.6 140 18:58 12.01.2020
4772 Clouds 28 1010 18 10000 2.6 140 18:58 12.01.2020
4773 Clouds 28 1010 20 10000 3.1 140 18:40 12.01.2020
4774 Clouds 28 1010 20 10000 3.1 140 18:40 12.01.2020
4775 Clouds 28 1010 20 10000 3.1 140 18:21 12.01.2020
4776 Clouds 28 1010 20 10000 3.1 140 17:57 12.01.2020
4777 Clouds 28 1010 21 10000 3.6 120 17:38 12.01.2020
4778 Clouds 28 1010 21 10000 3.6 120 17:19 12.01.2020
4779 Clouds 29 1010 20 10000 2.6 130 16:55 12.01.2020
4780 Clouds 28 1011 23 10000 2.6 140 16:37 12.01.2020
4781 Clouds 28 1011 23 10000 2.6 140 16:18 12.01.2020
4782 Clouds 30 1011 20 10000 3.6 120 15:42 12.01.2020
4783 Clouds 30 1011 20 10000 3.6 120 15:24 12.01.2020
4784 Clouds 30 1011 20 10000 3.1 130 14:57 12.01.2020
4785 Clouds 31 1011 18 10000 4.1 110 14:38 12.01.2020
4786 Clouds 31 1011 18 10000 4.1 110 14:19 12.01.2020
4787 Clouds 32 1011 18 10000 5.1 130 13:43 12.01.2020
4788 Clouds 32 1011 18 10000 5.1 130 13:24 12.01.2020
4789 Clouds 32 1011 18 10000 4.6 130 12:58 12.01.2020
4790 Clouds 33 1010 18 10000 6.2 130 12:39 12.01.2020
4791 Clouds 33 1010 18 10000 6.2 130 12:20 12.01.2020
4792 Clouds 33 1010 18 10000 6.2 120 11:58 12.01.2020
4793 Clouds 33 1010 18 10000 5.7 130 11:38 12.01.2020
4794 Clouds 33 1010 18 10000 5.7 130 11:19 12.01.2020
4795 Clouds 35 1009 17 10000 6.7 110 10:41 12.01.2020
4796 Clouds 35 1009 17 10000 6.7 110 10:41 12.01.2020
4797 Clouds 35 1009 17 10000 6.7 110 10:22 12.01.2020
4798 Clouds 35 1009 16 10000 7.2 110 09:57 12.01.2020
4799 Clouds 35 1009 16 10000 6.7 110 09:38 12.01.2020
4800 Clouds 35 1009 16 10000 6.7 110 09:18 12.01.2020
4801 Clouds 35 1009 16 10000 7.2 110 08:44 12.01.2020
4802 Clouds 35 1009 16 10000 6.7 100 08:20 12.01.2020
4803 Clouds 36 1009 15 10000 7.7 90 07:40 12.01.2020
4804 Clouds 36 1009 15 10000 7.7 90 07:22 12.01.2020
4805 Clouds 36 1010 16 10000 5.7 100 06:43 12.01.2020
4806 Clouds 37 1010 17 10000 7.7 90 06:24 12.01.2020
4807 Clouds 35 1011 17 10000 8.7 80 05:24 12.01.2020
4808 Clouds 32 1012 19 10000 6.2 130 03:55 12.01.2020
4809 Clouds 32 1013 19 10000 5.1 130 03:22 12.01.2020
4810 Clouds 29 1014 23 10000 6.2 120 02:33 12.01.2020
4811 Clouds 28 1014 24 10000 5.7 110 01:43 12.01.2020
4812 Clouds 26 1014 27 10000 4.6 90 01:22 12.01.2020
4813 Clouds 26 1015 29 10000 5.1 120 00:40 12.01.2020
4814 Clouds 26 1015 29 10000 5.1 120 00:40 12.01.2020
4815 Clouds 26 1015 29 10000 5.1 120 00:20 12.01.2020
4816 Clouds 24 1015 36 10000 4.1 140 23:42 11.01.2020
4817 Clouds 24 1015 36 10000 4.1 140 23:19 11.01.2020
4818 Clouds 23 1015 40 10000 4.1 140 22:57 11.01.2020
4819 Clouds 23 1015 43 10000 4.1 150 22:39 11.01.2020
4820 Clouds 23 1015 43 10000 4.1 150 22:20 11.01.2020
4821 Clouds 23 1014 43 10000 4.6 140 21:55 11.01.2020
4822 Clouds 23 1014 46 10000 4.6 150 21:37 11.01.2020
4823 Clouds 23 1014 46 10000 4.6 150 21:18 11.01.2020
4824 Clouds 23 1014 43 10000 4.6 150 20:40 11.01.2020
4825 Clouds 23 1014 43 10000 4.6 150 20:22 11.01.2020
4826 Clouds 23 1014 43 10000 5.1 150 19:58 11.01.2020
4827 Clouds 23 1014 43 10000 5.1 150 19:38 11.01.2020
4828 Clouds 23 1014 43 10000 5.1 150 19:38 11.01.2020
4829 Clouds 23 1014 43 10000 5.1 150 19:20 11.01.2020
4830 Clouds 24 1014 41 10000 5.1 150 18:57 11.01.2020
4831 Clouds 24 1014 41 10000 4.6 150 18:37 11.01.2020
4832 Clouds 24 1014 41 10000 4.6 150 18:19 11.01.2020
4833 Clouds 24 1014 41 10000 4.6 150 17:57 11.01.2020
4834 Clouds 24 1015 41 10000 5.1 140 17:39 11.01.2020
4835 Clouds 24 1015 41 10000 5.1 140 17:19 11.01.2020
4836 Clouds 25 1015 38 10000 6.7 140 16:44 11.01.2020
4837 Clouds 25 1015 38 10000 6.7 140 16:25 11.01.2020
4838 Clouds 25 1015 38 10000 6.7 150 15:57 11.01.2020
4839 Clouds 26 1015 34 10000 7.7 150 15:39 11.01.2020
4840 Clouds 26 1015 34 10000 7.7 150 15:20 11.01.2020
4841 Clouds 28 1015 30 10000 6.7 130 14:47 11.01.2020
4842 Clouds 28 1015 30 10000 8.7 130 14:26 11.01.2020
4843 Clouds 29 1015 26 9000 7.7 130 13:59 11.01.2020
4844 Clouds 29 1014 28 9000 7.7 120 13:38 11.01.2020
4845 Clouds 29 1014 28 9000 7.7 120 13:20 11.01.2020
4846 Clouds 30 1014 27 9000 7.7 120 12:56 11.01.2020
4847 Clouds 30 1014 27 7000 8.2 130 12:37 11.01.2020
4848 Clouds 30 1014 27 7000 8.2 130 12:19 11.01.2020
4849 Clouds 30 1014 27 6000 7.2 130 11:45 11.01.2020
4850 Clouds 31 1013 27 6000 7.2 130 11:24 11.01.2020
4851 Clouds 31 1013 25 4700 7.7 130 10:50 11.01.2020
4852 Clouds 32 1012 25 4200 7.7 140 10:30 11.01.2020
4853 Clouds 32 1012 25 4100 7.2 140 09:44 11.01.2020
4854 Clouds 33 1012 24 3800 6.7 140 09:21 11.01.2020
4855 Clouds 33 1012 24 3800 6.7 140 09:21 11.01.2020
4856 Clouds 33 1012 22 3600 7.2 140 08:59 11.01.2020
4857 Clouds 33 1012 22 3400 8.2 130 08:40 11.01.2020
4858 Clouds 33 1012 22 3400 8.2 130 08:19 11.01.2020
4859 Clouds 33 1012 22 3700 8.2 160 07:43 11.01.2020
4860 Clouds 33 1012 22 3800 6.7 150 07:24 11.01.2020
4861 Clouds 33 1012 22 3500 6.7 130 06:43 11.01.2020
4862 Clouds 32 1013 24 3400 5.7 140 05:30 11.01.2020
4863 Clouds 30 1014 27 3600 6.7 160 04:42 11.01.2020
4864 Clouds 30 1014 27 3600 6.7 160 04:24 11.01.2020
4865 Clouds 28 1014 32 4400 7.7 110 02:48 11.01.2020
4866 Clouds 27 1015 34 10000 7.2 140 01:47 11.01.2020
4867 Clouds 26 1015 41 10000 5.7 130 01:27 11.01.2020
4868 Clouds 26 1015 41 10000 5.7 130 01:27 11.01.2020
4869 Clouds 25 1015 44 10000 7.2 150 00:52 11.01.2020
4870 Clouds 25 1015 47 10000 7.2 150 00:25 11.01.2020
4871 Clouds 25 1015 50 10000 6.7 150 23:58 10.01.2020
4872 Clouds 25 1015 50 10000 6.2 150 23:39 10.01.2020
4873 Clouds 25 1015 50 10000 6.2 150 23:39 10.01.2020
4874 Clouds 25 1015 50 10000 6.2 150 23:20 10.01.2020
4875 Clouds 24 1014 53 10000 7.7 150 22:41 10.01.2020
4876 Clouds 24 1014 53 10000 7.7 150 22:22 10.01.2020
4877 Clouds 25 1014 50 10000 7.2 150 21:59 10.01.2020
4878 Clouds 25 1013 50 10000 7.7 150 21:41 10.01.2020
4879 Clouds 25 1013 50 10000 7.7 150 21:20 10.01.2020
4880 Clouds 26 1013 47 8000 6.7 150 20:57 10.01.2020
4881 Clouds 26 1013 47 4900 7.7 140 20:38 10.01.2020
4882 Clouds 26 1013 47 4900 7.7 140 20:19 10.01.2020
4883 Clouds 27 1013 44 2600 7.2 150 19:40 10.01.2020
4884 Clouds 27 1013 44 2600 7.2 150 19:21 10.01.2020
4885 Clouds 27 1013 47 2200 7.7 150 18:55 10.01.2020
4886 Clouds 28 1013 45 1700 7.2 150 18:37 10.01.2020
4887 Clouds 28 1013 45 1700 7.2 150 18:18 10.01.2020
4888 Clouds 28 1013 45 1500 7.7 150 17:56 10.01.2020
4889 Clouds 29 1013 42 1500 8.2 150 17:37 10.01.2020
4890 Clouds 29 1013 42 1500 8.2 150 17:19 10.01.2020
4891 Clouds 31 1012 38 600 11.3 160 16:41 10.01.2020
4892 Clouds 31 1012 38 600 11.3 160 16:21 10.01.2020
4893 Clouds 32 1012 35 600 11.3 160 15:56 10.01.2020
4894 Clouds 32 1012 35 600 11.3 160 15:56 10.01.2020
4895 Clouds 32 1011 38 200 13.4 160 15:37 10.01.2020
4896 Clouds 32 1011 38 200 13.4 160 15:19 10.01.2020
4897 Clouds 35 1010 28 350 13.4 170 14:57 10.01.2020
4898 Clouds 36 1010 26 6000 5.1 220 14:39 10.01.2020
4899 Clouds 36 1010 26 6000 5.1 220 14:19 10.01.2020
4900 Clouds 37 1009 22 10000 3.6 220 13:54 10.01.2020
4901 Clouds 37 1008 22 10000 5.7 220 13:36 10.01.2020
4902 Clouds 37 1008 22 10000 5.7 220 13:18 10.01.2020
4903 Clouds 38 1008 21 10000 2.6 150 12:54 10.01.2020
4904 Clouds 38 1008 18 10000 4.6 90 12:36 10.01.2020
4905 Clouds 38 1008 18 10000 4.6 90 12:18 10.01.2020
4906 Clouds 40 1007 16 10000 5.1 60 11:42 10.01.2020
4907 Clouds 40 1007 16 10000 5.1 60 11:42 10.01.2020
4908 Clouds 40 1007 16 10000 5.1 60 11:21 10.01.2020
4909 Clouds 40 1006 15 10000 6.2 50 10:59 10.01.2020
4910 Clouds 41 1006 14 10000 6.7 90 10:38 10.01.2020
4911 Clouds 41 1006 14 10000 6.7 90 10:19 10.01.2020
4912 Clouds 41 1006 14 10000 4.6 130 09:46 10.01.2020
4913 Clouds 41 1006 14 10000 4.6 100 09:26 10.01.2020
4914 Clouds 42 1006 14 10000 5.1 130 08:57 10.01.2020
4915 Clouds 41 1006 14 10000 3.1 360 08:37 10.01.2020
4916 Clouds 41 1006 14 10000 3.1 360 08:18 10.01.2020
4917 Clouds 41 1006 15 10000 4.6 130 07:41 10.01.2020
4918 Clouds 41 1006 15 10000 4.6 130 07:21 10.01.2020
4919 Clouds 41 1007 15 10000 4.1 170 06:41 10.01.2020
4920 Clouds 41 1007 15 10000 4.1 170 06:23 10.01.2020
4921 Clouds 40 1008 19 10000 3.1 240 05:19 10.01.2020
4922 Clouds 39 1009 21 10000 3.1 50 03:32 10.01.2020
4923 Clouds 38 1009 22 10000 5.7 320 02:52 10.01.2020
4924 Clouds 37 1010 25 10000 5.7 310 02:20 10.01.2020
4925 Clouds 36 1010 26 10000 5.7 320 01:32 10.01.2020
4926 Clouds 36 1010 28 10000 5.7 330 00:51 10.01.2020
4927 Clouds 35 1010 30 10000 6.7 320 00:33 10.01.2020
4928 Clouds 34 1010 30 10000 6.7 330 23:57 09.01.2020
4929 Clouds 34 1010 30 10000 6.7 330 23:57 09.01.2020
4930 Clouds 34 1010 30 10000 6.7 340 23:36 09.01.2020
4931 Clouds 34 1010 30 10000 6.7 340 23:18 09.01.2020
4932 Clouds 33 1010 29 10000 5.7 350 22:56 09.01.2020
4933 Clouds 32 1009 29 10000 5.7 350 22:37 09.01.2020
4934 Clouds 32 1009 29 10000 5.7 350 22:18 09.01.2020
4935 Clouds 31 1009 31 10000 3.6 330 21:54 09.01.2020
4936 Clouds 32 1008 29 10000 4.1 360 21:36 09.01.2020
4937 Clouds 33 1008 27 10000 4.1 360 21:18 09.01.2020
4938 Clouds 32 1008 29 10000 4.1 360 21:18 09.01.2020
4939 Clouds 33 1008 27 10000 4.1 360 20:54 09.01.2020
4940 Clouds 33 1007 27 10000 4.1 360 20:36 09.01.2020
4941 Clouds 33 1007 27 10000 4.1 360 20:18 09.01.2020
4942 Clouds 34 1007 24 10000 4.6 20 19:39 09.01.2020
4943 Clouds 34 1007 24 10000 4.6 20 19:20 09.01.2020
4944 Clouds 34 1007 26 10000 4.1 30 18:57 09.01.2020
4945 Clouds 34 1007 24 10000 3.6 30 18:39 09.01.2020
4946 Clouds 34 1007 24 10000 3.6 30 18:20 09.01.2020
4947 Clouds 34 1007 24 10000 4.6 40 17:41 09.01.2020
4948 Clouds 34 1007 24 10000 4.6 40 17:41 09.01.2020
4949 Clouds 35 1007 21 10000 4.1 40 17:19 09.01.2020
4950 Clouds 33 1008 24 10000 3.6 50 16:58 09.01.2020
4951 Clouds 33 1008 22 10000 3.1 40 16:39 09.01.2020
4952 Clouds 33 1008 22 10000 3.1 40 16:20 09.01.2020
4953 Clouds 33 1008 22 10000 2.6 50 15:43 09.01.2020
4954 Clouds 34 1008 21 10000 3.1 50 15:22 09.01.2020
4955 Clouds 34 1008 20 10000 2.6 40 14:58 09.01.2020
4956 Clouds 36 1008 18 10000 3.6 50 14:39 09.01.2020
4957 Clouds 36 1008 18 10000 3.6 50 14:19 09.01.2020
4958 Clouds 35 1007 19 10000 3.6 50 13:55 09.01.2020
4959 Clouds 35 1007 19 10000 3.1 50 13:37 09.01.2020
4960 Clouds 35 1007 19 10000 3.1 50 13:18 09.01.2020
4961 Clouds 35 1007 19 10000 2.6 60 12:42 09.01.2020
4962 Clouds 36 1006 18 10000 3.1 60 12:24 09.01.2020
4963 Clouds 37 1006 16 10000 3.1 60 11:59 09.01.2020
4964 Clouds 37 1006 16 10000 3.1 60 11:41 09.01.2020
4965 Clouds 38 1006 15 10000 3.6 70 11:23 09.01.2020
4966 Clouds 39 1006 14 10000 4.6 60 10:57 09.01.2020
4967 Clouds 39 1005 14 10000 5.7 70 10:39 09.01.2020
4968 Clouds 39 1005 14 10000 5.7 70 10:20 09.01.2020
4969 Clouds 40 1005 14 10000 4.6 80 09:41 09.01.2020
4970 Clouds 40 1005 14 10000 4.6 50 09:41 09.01.2020
4971 Clouds 40 1005 14 10000 4.6 80 09:41 09.01.2020
4972 Clouds 40 1005 14 10000 4.6 80 09:23 09.01.2020
4973 Clouds 41 1005 14 10000 7.2 50 08:56 09.01.2020
4974 Clouds 42 1005 14 10000 6.7 70 08:38 09.01.2020
4975 Clouds 42 1005 14 10000 6.7 70 08:19 09.01.2020
4976 Clouds 41 1005 13 10000 4.1 20 07:45 09.01.2020
4977 Clouds 40 1006 15 10000 8.7 100 07:27 09.01.2020
4978 Clouds 40 1006 15 10000 6.7 30 06:39 09.01.2020
4979 Clouds 40 1006 15 10000 6.7 30 06:21 09.01.2020
4980 Clouds 40 1007 16 10000 7.2 30 05:50 09.01.2020
4981 Clouds 41 1008 14 10000 5.7 80 04:46 09.01.2020
4982 Clouds 40 1009 19 10000 7.7 20 03:55 09.01.2020
4983 Clouds 39 1009 20 10000 7.7 20 03:26 09.01.2020
4984 Clouds 37 1010 23 10000 8.7 30 02:31 09.01.2020
4985 Clouds 37 1010 23 10000 7.7 20 01:40 09.01.2020
4986 Clouds 36 1010 23 10000 5.1 10 00:44 09.01.2020
4987 Clouds 35 1010 26 10000 5.7 20 00:22 09.01.2020
4988 Clouds 34 1010 26 10000 5.1 30 23:56 08.01.2020
4989 Clouds 33 1010 22 10000 2.1 50 23:37 08.01.2020
4990 Clouds 33 1010 22 10000 2.1 50 23:19 08.01.2020
4991 Clouds 28 1009 28 10000 3.1 70 22:39 08.01.2020
4992 Clouds 28 1009 28 10000 3.1 70 22:21 08.01.2020
4993 Clouds 28 1009 28 10000 3.1 70 22:21 08.01.2020
4994 Clouds 27 1009 30 10000 3.1 70 21:58 08.01.2020
4995 Clouds 28 1009 28 10000 2.6 80 21:39 08.01.2020
4996 Clouds 28 1009 28 10000 2.6 80 21:20 08.01.2020
4997 Clouds 29 1009 26 10000 2.6 90 20:58 08.01.2020
4998 Clouds 29 1009 28 10000 3.6 80 20:39 08.01.2020
4999 Clouds 29 1009 28 10000 3.6 80 20:20 08.01.2020
5000 Clouds 28 1008 30 10000 3.1 80 19:56 08.01.2020
5001 Clouds 28 1008 30 10000 3.1 80 19:56 08.01.2020
5002 Clouds 28 1009 30 10000 2.6 50 19:37 08.01.2020
5003 Clouds 28 1009 30 10000 2.6 50 19:19 08.01.2020
5004 Clouds 28 1009 30 10000 2.6 50 19:19 08.01.2020
5005 Clouds 28 1009 32 10000 2.1 80 18:55 08.01.2020
5006 Clouds 29 1009 28 10000 1.5 90 18:37 08.01.2020
5007 Clouds 29 1009 28 10000 1.5 90 18:18 08.01.2020
5008 Clouds 29 1008 30 10000 2.6 100 17:48 08.01.2020
5009 Clouds 30 1008 27 10000 2.6 80 17:24 08.01.2020
5010 Clouds 30 1009 27 10000 2.6 100 16:58 08.01.2020
5011 Clouds 31 1009 25 10000 2.6 100 16:39 08.01.2020
5012 Clouds 31 1009 25 10000 2.6 100 16:19 08.01.2020
5013 Clouds 30 1009 27 10000 2.6 110 15:59 08.01.2020
5014 Clouds 31 1010 23 10000 2.1 90 15:40 08.01.2020
5015 Clouds 31 1010 23 10000 2.1 90 15:20 08.01.2020
5016 Clouds 32 1010 24 10000 2.1 60 14:56 08.01.2020
5017 Clouds 32 1010 22 10000 2.6 110 14:38 08.01.2020
5018 Clouds 32 1010 22 10000 2.6 110 14:19 08.01.2020
5019 Clouds 34 1009 20 10000 3.1 130 13:39 08.01.2020
5020 Clouds 34 1009 20 10000 3.1 130 13:19 08.01.2020
5021 Clouds 36 1009 18 10000 4.1 130 12:42 08.01.2020
5022 Clouds 36 1009 18 10000 4.1 130 12:19 08.01.2020
5023 Clouds 36 1008 16 10000 4.6 120 11:55 08.01.2020
5024 Clouds 37 1008 14 10000 5.7 130 11:37 08.01.2020
5025 Clouds 37 1008 14 10000 5.7 130 11:18 08.01.2020
5026 Clouds 38 1008 15 10000 5.7 120 10:54 08.01.2020
5027 Clouds 38 1008 14 10000 5.7 120 10:36 08.01.2020
5028 Clouds 38 1008 14 10000 5.7 120 10:18 08.01.2020
5029 Clouds 39 1007 14 10000 4.1 130 09:41 08.01.2020
5030 Clouds 39 1007 14 10000 4.1 130 09:19 08.01.2020
5031 Clouds 39 1007 14 10000 5.1 120 08:56 08.01.2020
5032 Clouds 39 1007 13 10000 3.6 100 08:37 08.01.2020
5033 Clouds 39 1007 13 10000 3.6 100 08:18 08.01.2020
5034 Clouds 40 1007 13 10000 3.6 100 07:47 08.01.2020
5035 Clouds 40 1008 13 10000 3.6 70 07:29 08.01.2020
5036 Clouds 39 1008 15 10000 7.2 110 06:44 08.01.2020
5037 Clouds 39 1009 14 10000 4.1 70 05:59 08.01.2020
5038 Clouds 39 1009 15 10000 5.7 90 05:38 08.01.2020
5039 Clouds 38 1010 17 10000 4.6 70 04:54 08.01.2020
5040 Clouds 36 1011 20 10000 7.2 80 03:33 08.01.2020
5041 Clouds 35 1012 23 10000 7.7 80 02:44 08.01.2020
5042 Clouds 34 1012 24 10000 7.7 120 02:19 08.01.2020
5043 Clouds 33 1012 26 10000 6.7 80 01:40 08.01.2020
5044 Clouds 31 1013 29 10000 4.6 90 00:54 08.01.2020
5045 Clouds 30 1013 30 10000 4.1 110 00:26 08.01.2020
5046 Clouds 28 1013 37 9000 4.1 100 23:47 07.01.2020
5047 Clouds 28 1012 37 9000 3.1 70 23:22 07.01.2020
5048 Clouds 25 1012 50 8000 2.1 50 22:58 07.01.2020
5049 Clouds 24 1012 53 8000 3.6 90 22:39 07.01.2020
5050 Clouds 24 1012 53 8000 3.6 90 22:19 07.01.2020
5051 Clouds 24 1011 53 8000 2.6 100 21:54 07.01.2020
5052 Clouds 25 1011 47 8000 2.6 120 21:36 07.01.2020
5053 Clouds 25 1011 47 8000 2.6 120 21:36 07.01.2020
5054 Clouds 25 1011 47 8000 2.6 120 21:18 07.01.2020
5055 Clouds 27 1011 42 8000 2.6 110 20:41 07.01.2020
5056 Clouds 27 1011 42 8000 2.6 110 20:41 07.01.2020
5057 Clouds 27 1011 42 8000 2.6 110 20:22 07.01.2020
5058 Clouds 27 1010 39 8000 2.6 100 19:59 07.01.2020
5059 Clouds 27 1010 39 8000 1.5 100 19:38 07.01.2020
5060 Clouds 27 1010 39 8000 1.5 100 19:19 07.01.2020
5061 Clouds 27 1010 39 8000 2.6 120 18:56 07.01.2020
5062 Clouds 28 1011 37 8000 2.6 110 18:38 07.01.2020
5063 Clouds 28 1011 37 8000 2.6 110 18:18 07.01.2020
5064 Clouds 28 1011 37 8000 2.6 100 17:56 07.01.2020
5065 Clouds 28 1011 37 7000 2.6 130 17:37 07.01.2020
5066 Clouds 28 1011 37 7000 2.6 130 17:18 07.01.2020
5067 Clouds 28 1011 37 7000 2.1 110 16:55 07.01.2020
5068 Clouds 28 1011 37 7000 2.6 110 16:37 07.01.2020
5069 Clouds 28 1011 37 7000 2.6 110 16:18 07.01.2020
5070 Clouds 29 1012 35 6000 2.6 110 15:43 07.01.2020
5071 Clouds 29 1012 35 6000 2.1 110 15:24 07.01.2020
5072 Clouds 29 1012 35 6000 2.1 110 15:24 07.01.2020
5073 Clouds 30 1012 30 6000 2.6 120 14:58 07.01.2020
5074 Clouds 30 1012 30 6000 2.6 120 14:58 07.01.2020
5075 Clouds 30 1012 30 6000 2.6 120 14:40 07.01.2020
5076 Clouds 30 1012 30 6000 2.6 140 14:21 07.01.2020
5077 Clouds 31 1012 29 6000 2.6 130 13:46 07.01.2020
5078 Clouds 31 1012 29 6000 3.6 130 13:21 07.01.2020
5079 Clouds 32 1011 25 6000 4.6 130 12:56 07.01.2020
5080 Clouds 32 1011 27 6000 4.6 130 12:38 07.01.2020
5081 Clouds 32 1011 27 6000 4.6 130 12:19 07.01.2020
5082 Clouds 33 1011 26 6000 4.6 130 11:41 07.01.2020
5083 Clouds 33 1010 24 6000 4.6 120 11:23 07.01.2020
5084 Clouds 33 1010 22 8000 5.7 120 10:57 07.01.2020
5085 Clouds 33 1010 22 8000 5.7 120 10:57 07.01.2020
5086 Clouds 34 1010 23 7000 5.7 120 10:39 07.01.2020
5087 Clouds 34 1010 23 7000 5.7 120 10:39 07.01.2020
5088 Clouds 34 1010 23 7000 5.7 120 10:21 07.01.2020
5089 Clouds 34 1009 23 9000 5.1 140 09:39 07.01.2020
5090 Clouds 34 1009 23 9000 5.1 140 09:21 07.01.2020
5091 Clouds 34 1009 23 9000 5.1 140 09:21 07.01.2020
5092 Clouds 34 1009 23 9000 5.1 140 09:21 07.01.2020
5093 Clouds 34 1009 24 9000 5.7 120 08:59 07.01.2020
5094 Clouds 34 1009 24 9000 5.7 120 08:41 07.01.2020
5095 Clouds 35 1009 21 10000 5.1 110 08:18 07.01.2020
5096 Clouds 34 1010 24 10000 5.7 90 07:42 07.01.2020
5097 Clouds 34 1010 24 10000 5.7 90 07:18 07.01.2020
5098 Clouds 34 1010 24 10000 5.7 110 06:36 07.01.2020
5099 Clouds 34 1011 24 10000 6.7 110 05:59 07.01.2020
5100 Clouds 34 1011 24 10000 5.7 110 05:40 07.01.2020
5101 Clouds 32 1012 29 10000 5.1 70 03:46 07.01.2020
5102 Clouds 32 1013 29 10000 4.1 150 03:24 07.01.2020
5103 Clouds 29 1013 35 10000 4.6 80 02:19 07.01.2020
5104 Clouds 28 1014 39 10000 6.2 90 01:40 07.01.2020
5105 Clouds 27 1014 42 10000 4.6 90 00:57 07.01.2020
5106 Clouds 25 1014 47 10000 3.6 110 00:21 07.01.2020
5107 Clouds 24 1014 53 10000 2.1 100 23:57 06.01.2020
5108 Clouds 24 1014 53 10000 2.1 120 23:37 06.01.2020
5109 Clouds 24 1014 53 10000 2.1 120 23:19 06.01.2020
5110 Clouds 23 1013 56 10000 7.85 120 22:44 06.01.2020
5111 Clouds 23 1013 56 10000 7.85 120 22:44 06.01.2020
5112 Clouds 22 1013 64 10000 7.85 120 22:24 06.01.2020
5113 Clouds 21 1013 64 10000 7.85 120 21:58 06.01.2020
5114 Clouds 21 1012 64 10000 7.85 120 21:39 06.01.2020
5115 Clouds 21 1012 64 10000 7.85 120 21:20 06.01.2020
5116 Clouds 21 1012 64 10000 7.85 120 21:20 06.01.2020
5117 Clouds 21 1012 64 10000 7.85 120 20:57 06.01.2020
5118 Clouds 22 1012 60 10000 2.1 180 20:39 06.01.2020
5119 Clouds 22 1012 60 10000 2.1 180 20:20 06.01.2020
5120 Clouds 22 1012 60 10000 2.6 150 19:57 06.01.2020
5121 Clouds 22 1012 60 10000 2.1 140 19:38 06.01.2020
5122 Clouds 22 1012 60 10000 2.1 140 19:20 06.01.2020
5123 Clouds 23 1012 56 10000 2.1 160 18:48 06.01.2020
5124 Clouds 23 1012 56 10000 2.1 160 18:48 06.01.2020
5125 Clouds 23 1012 56 10000 2.1 160 18:23 06.01.2020
5126 Clouds 23 1012 56 10000 2.1 160 17:59 06.01.2020
5127 Clouds 23 1012 56 10000 2.1 150 17:38 06.01.2020
5128 Clouds 23 1012 56 10000 2.1 150 17:18 06.01.2020
5129 Clouds 24 1013 50 10000 2.1 130 16:46 06.01.2020
5130 Clouds 24 1013 50 10000 2.1 130 16:46 06.01.2020
5131 Clouds 24 1013 50 10000 0.5 90 16:27 06.01.2020
5132 Clouds 24 1014 53 10000 1 40 15:59 06.01.2020
5133 Clouds 24 1014 50 10000 1.5 70 15:39 06.01.2020
5134 Clouds 24 1014 50 10000 1.5 70 15:19 06.01.2020
5135 Clouds 24 1014 50 10000 2.1 70 14:58 06.01.2020
5136 Clouds 24 1014 50 10000 2.6 70 14:39 06.01.2020
5137 Clouds 24 1014 50 10000 2.6 70 14:19 06.01.2020
5138 Clouds 24 1014 47 10000 2.6 70 13:54 06.01.2020
5139 Clouds 24 1014 47 10000 3.1 90 13:36 06.01.2020
5140 Clouds 24 1014 47 10000 3.1 90 13:18 06.01.2020
5141 Clouds 25 1014 44 10000 3.6 120 12:41 06.01.2020
5142 Clouds 25 1014 44 10000 3.6 130 12:20 06.01.2020
5143 Clouds 25 1014 44 10000 4.1 130 11:57 06.01.2020
5144 Clouds 25 1013 44 10000 3.6 130 11:38 06.01.2020
5145 Clouds 25 1013 44 10000 3.6 130 11:38 06.01.2020
5146 Clouds 25 1013 44 10000 3.6 130 11:20 06.01.2020
5147 Clouds 26 1013 39 10000 4.6 130 10:43 06.01.2020
5148 Clouds 26 1013 39 10000 4.6 130 10:43 06.01.2020
5149 Clouds 26 1013 41 10000 4.6 140 10:24 06.01.2020
5150 Clouds 27 1012 36 10000 4.6 120 09:42 06.01.2020
5151 Clouds 27 1012 36 9000 4.1 140 09:24 06.01.2020
5152 Clouds 27 1012 36 9000 4.1 130 08:58 06.01.2020
5153 Clouds 27 1012 39 9000 3.6 130 08:40 06.01.2020
5154 Clouds 27 1012 39 9000 3.6 130 08:21 06.01.2020
5155 Clouds 26 1012 44 10000 3.1 120 07:48 06.01.2020
5156 Clouds 25 1013 47 10000 2.6 150 07:21 06.01.2020
5157 Clouds 25 1013 47 10000 2.6 150 07:21 06.01.2020
5158 Clouds 25 1013 50 10000 2.1 130 06:41 06.01.2020
5159 Clouds 24 1014 50 10000 3.6 110 05:51 06.01.2020
5160 Clouds 24 1014 53 10000 2.6 90 05:29 06.01.2020
5161 Clouds 23 1014 56 10000 3.6 150 04:25 06.01.2020
5162 Clouds 22 1015 60 10000 3.6 150 03:52 06.01.2020
5163 Clouds 20 1015 72 10000 3.6 150 02:32 06.01.2020
5164 Clouds 20 1016 72 10000 4.6 180 01:55 06.01.2020
5165 Clouds 20 1016 72 10000 4.1 180 01:32 06.01.2020
5166 Clouds 20 1016 77 10000 4.1 190 00:48 06.01.2020
5167 Clouds 20 1016 72 10000 4.6 180 00:29 06.01.2020
5168 Clouds 19 1016 82 10000 4.1 190 23:59 05.01.2020
5169 Clouds 19 1016 82 10000 4.1 190 23:40 05.01.2020
5170 Clouds 19 1016 82 10000 4.1 190 23:21 05.01.2020
5171 Clouds 19 1015 82 10000 3.6 180 22:40 05.01.2020
5172 Clouds 19 1015 82 10000 3.6 180 22:21 05.01.2020
5173 Clouds 19 1014 82 10000 3.1 190 21:58 05.01.2020
5174 Clouds 19 1014 77 10000 3.6 140 21:40 05.01.2020
5175 Clouds 19 1014 77 10000 3.6 140 21:20 05.01.2020
5176 Clouds 19 1014 77 10000 3.1 170 20:58 05.01.2020
5177 Clouds 19 1014 77 10000 3.6 150 20:39 05.01.2020
5178 Clouds 19 1014 77 10000 3.6 150 20:19 05.01.2020
5179 Clouds 19 1014 77 10000 4.1 150 19:58 05.01.2020
5180 Clouds 19 1014 77 10000 4.1 170 19:39 05.01.2020
5181 Clouds 19 1014 77 10000 4.1 170 19:20 05.01.2020
5182 Clouds 20 1014 72 10000 4.6 180 18:56 05.01.2020
5183 Clouds 20 1014 72 10000 4.1 160 18:37 05.01.2020
5184 Clouds 20 1014 72 10000 4.1 160 18:19 05.01.2020
5185 Clouds 20 1014 72 10000 4.1 170 17:58 05.01.2020
5186 Clouds 20 1014 72 10000 4.1 180 17:38 05.01.2020
5187 Clouds 20 1014 72 10000 4.1 180 17:19 05.01.2020
5188 Clouds 21 1014 64 10000 3.6 170 16:56 05.01.2020
5189 Clouds 21 1015 64 10000 4.1 170 16:38 05.01.2020
5190 Clouds 21 1015 64 10000 4.1 170 16:19 05.01.2020
5191 Clouds 21 1015 64 10000 4.1 170 16:19 05.01.2020
5192 Clouds 22 1015 60 10000 3.6 160 15:38 05.01.2020
5193 Clouds 22 1015 60 10000 3.6 160 15:20 05.01.2020
5194 Clouds 22 1016 60 10000 4.1 160 14:55 05.01.2020
5195 Clouds 22 1016 60 10000 4.1 160 14:55 05.01.2020
5196 Clouds 22 1015 60 10000 5.1 170 14:37 05.01.2020
5197 Clouds 22 1015 60 10000 5.1 170 14:19 05.01.2020
5198 Clouds 22 1015 60 10000 5.1 170 13:56 05.01.2020
5199 Clouds 23 1015 56 10000 6.2 170 13:37 05.01.2020
5200 Clouds 23 1015 56 10000 6.2 170 13:18 05.01.2020
5201 Clouds 23 1015 56 10000 6.2 170 13:18 05.01.2020
5202 Clouds 24 1015 50 10000 7.7 170 12:55 05.01.2020
5203 Clouds 24 1015 50 10000 7.2 170 12:37 05.01.2020
5204 Clouds 24 1015 50 10000 7.2 170 12:18 05.01.2020
5205 Clouds 25 1014 44 10000 6.7 170 11:43 05.01.2020
5206 Clouds 25 1014 44 10000 6.7 170 11:43 05.01.2020
5207 Clouds 25 1014 44 10000 6.7 170 11:43 05.01.2020
5208 Clouds 26 1014 41 10000 7.2 170 11:20 05.01.2020
5209 Clouds 26 1013 39 10000 7.2 180 10:58 05.01.2020
5210 Clouds 27 1013 36 10000 6.7 170 10:39 05.01.2020
5211 Clouds 27 1013 36 10000 6.7 170 10:39 05.01.2020
5212 Clouds 27 1013 36 10000 6.7 170 10:39 05.01.2020
5213 Clouds 27 1013 36 10000 6.7 170 10:39 05.01.2020
5214 Clouds 27 1013 36 10000 6.7 170 10:39 05.01.2020
5215 Clouds 27 1013 36 10000 6.7 170 10:19 05.01.2020
5216 Clouds 28 1013 37 10000 6.2 180 09:42 05.01.2020
5217 Clouds 28 1012 37 10000 6.7 190 09:22 05.01.2020
5218 Clouds 28 1012 37 10000 7.7 190 08:50 05.01.2020
5219 Clouds 29 1012 35 10000 7.2 170 08:30 05.01.2020
5220 Clouds 29 1012 37 10000 6.7 170 07:56 05.01.2020
5221 Clouds 29 1012 37 10000 5.1 150 07:37 05.01.2020
5222 Clouds 29 1012 37 10000 5.1 150 07:19 05.01.2020
5223 Clouds 29 1013 37 10000 5.7 130 05:59 05.01.2020
5224 Clouds 28 1014 45 10000 4.6 120 05:33 05.01.2020
5225 Clouds 28 1014 45 10000 4.6 120 05:33 05.01.2020
5226 Clouds 27 1014 44 10000 5.7 120 04:43 05.01.2020
5227 Clouds 27 1015 44 10000 5.7 120 04:18 05.01.2020
5228 Clouds 27 1015 44 10000 5.7 120 04:18 05.01.2020
5229 Clouds 27 1015 44 10000 5.7 120 04:18 05.01.2020
5230 Clouds 24 1016 57 10000 4.6 150 02:46 05.01.2020
5231 Clouds 23 1016 64 10000 5.1 150 02:24 05.01.2020
5232 Clouds 22 1016 64 10000 4.6 160 01:48 05.01.2020
5233 Clouds 21 1016 73 10000 4.1 180 01:19 05.01.2020
5234 Clouds 21 1016 73 10000 4.6 180 00:41 05.01.2020
5235 Clouds 21 1016 73 10000 4.6 180 00:23 05.01.2020
5236 Clouds 20 1016 72 10000 4.6 180 23:59 04.01.2020
5237 Clouds 20 1016 72 10000 4.6 180 23:59 04.01.2020
5238 Clouds 20 1016 77 10000 4.6 190 23:39 04.01.2020
5239 Clouds 20 1016 77 10000 4.6 190 23:19 04.01.2020
5240 Clouds 19 1015 82 10000 4.6 180 22:40 04.01.2020
5241 Clouds 19 1015 82 10000 4.6 180 22:40 04.01.2020
5242 Clouds 19 1015 82 10000 4.6 180 22:21 04.01.2020
5243 Clouds 20 1015 77 10000 3.1 170 21:57 04.01.2020
5244 Clouds 20 1015 77 10000 3.1 170 21:57 04.01.2020
5245 Clouds 20 1015 77 10000 3.1 170 21:57 04.01.2020
5246 Clouds 20 1015 77 10000 4.1 160 21:39 04.01.2020
5247 Clouds 20 1015 77 10000 4.1 160 21:20 04.01.2020
5248 Clouds 20 1015 77 10000 4.1 160 21:20 04.01.2020
5249 Clouds 20 1014 77 10000 4.6 170 20:58 04.01.2020
5250 Clouds 20 1014 77 10000 5.1 170 20:39 04.01.2020
5251 Clouds 20 1014 77 10000 5.1 170 20:39 04.01.2020
5252 Clouds 20 1014 77 10000 5.1 170 20:21 04.01.2020
5253 Clouds 20 1014 77 10000 3.1 180 19:56 04.01.2020
5254 Clouds 20 1014 82 9000 3.1 190 19:37 04.01.2020
5255 Clouds 20 1014 82 9000 3.1 190 19:18 04.01.2020
5256 Clouds 20 1014 77 10000 3.1 210 18:54 04.01.2020
5257 Clouds 20 1014 77 8000 3.6 200 18:36 04.01.2020
5258 Clouds 20 1014 77 8000 3.6 200 18:18 04.01.2020
5259 Clouds 20 1014 82 5000 5.1 210 17:40 04.01.2020
5260 Clouds 20 1014 82 5000 5.1 210 17:22 04.01.2020
5261 Rain 20 1015 82 5000 4.6 200 16:55 04.01.2020
5262 Rain 20 1015 82 5000 4.6 200 16:55 04.01.2020
5263 Rain 20 1015 82 4600 5.1 200 16:36 04.01.2020
5264 Rain 20 1015 82 4600 5.1 200 16:36 04.01.2020
5265 Rain 20 1015 82 4600 5.1 200 16:18 04.01.2020
5266 Clouds 21 1015 77 4100 6.7 210 15:42 04.01.2020
5267 Clouds 21 1015 77 2900 7.7 200 15:20 04.01.2020
5268 Rain 21 1015 83 2600 6.7 200 14:59 04.01.2020
5269 Rain 21 1015 83 2600 6.7 200 14:59 04.01.2020
5270 Rain 21 1015 83 2600 6.7 200 14:59 04.01.2020
5271 Rain 22 1015 78 1900 8.2 210 14:40 04.01.2020
5272 Rain 22 1015 78 1900 8.2 210 14:40 04.01.2020
5273 Rain 22 1015 78 1900 8.2 210 14:20 04.01.2020
5274 Rain 22 1014 78 2300 8.7 210 13:58 04.01.2020
5275 Rain 23 1013 83 2800 10.3 220 13:37 04.01.2020
5276 Rain 23 1013 83 2800 10.3 220 13:19 04.01.2020
5277 Rain 23 1013 88 1800 14.9 250 12:42 04.01.2020
5278 Clouds 35 1010 24 10000 3.6 60 12:20 04.01.2020
5279 Clouds 35 1010 24 10000 3.6 60 12:20 04.01.2020
5280 Clouds 35 1007 23 10000 5.1 190 11:59 04.01.2020
5281 Clouds 35 1007 23 10000 6.2 180 11:41 04.01.2020
5282 Clouds 35 1007 23 10000 6.2 180 11:20 04.01.2020
5283 Clouds 35 1006 24 10000 6.7 190 10:59 04.01.2020
5284 Clouds 36 1006 23 10000 5.7 190 10:38 04.01.2020
5285 Clouds 36 1006 23 10000 5.7 190 10:19 04.01.2020
5286 Clouds 35 1006 28 10000 4.6 220 09:43 04.01.2020
5287 Clouds 35 1006 28 10000 4.6 220 09:43 04.01.2020
5288 Clouds 35 1006 28 10000 4.6 220 09:25 04.01.2020
5289 Clouds 34 1006 30 10000 6.7 230 08:47 04.01.2020
5290 Clouds 33 1006 33 10000 8.7 260 08:28 04.01.2020
5291 Rain 33 1006 33 5000 7.7 290 07:52 04.01.2020
5292 Rain 33 1006 33 5000 7.7 290 07:52 04.01.2020
5293 Rain 36 1007 23 10000 4.1 360 07:33 04.01.2020
5294 Clouds 38 1007 18 10000 3.1 160 06:43 04.01.2020
5295 Clouds 39 1007 18 10000 4.1 150 05:52 04.01.2020
5296 Clouds 37 1008 19 10000 3.1 170 04:48 04.01.2020
5297 Clouds 36 1009 22 10000 4.1 100 04:28 04.01.2020
5298 Clouds 35 1010 24 8000 4.6 130 03:20 04.01.2020
5299 Clouds 34 1011 26 8000 4.6 170 02:38 04.01.2020
5300 Clouds 34 1011 26 8000 4.6 170 02:18 04.01.2020
5301 Clouds 32 1011 29 8000 5.1 140 01:32 04.01.2020
5302 Clouds 32 1011 29 8000 5.1 140 01:32 04.01.2020
5303 Clouds 32 1012 29 8000 5.7 120 00:58 04.01.2020
5304 Clouds 32 1012 33 10000 6.2 150 00:29 04.01.2020
5305 Clouds 31 1011 35 10000 6.2 150 23:53 03.01.2020
5306 Clouds 29 1011 48 10000 3.6 170 23:28 03.01.2020
5307 Clouds 29 1011 48 10000 3.1 240 22:55 03.01.2020
5308 Clouds 28 1011 48 10000 2.1 260 22:37 03.01.2020
5309 Clouds 28 1011 48 10000 2.1 260 22:18 03.01.2020
5310 Clouds 28 1010 48 10000 1.5 230 21:56 03.01.2020
5311 Clouds 28 1009 48 10000 3.6 270 21:37 03.01.2020
5312 Clouds 28 1009 48 10000 3.6 270 21:18 03.01.2020
5313 Clouds 28 1009 48 10000 3.6 260 20:54 03.01.2020
5314 Clouds 28 1009 48 10000 2.6 240 20:36 03.01.2020
5315 Clouds 28 1009 48 10000 2.6 240 20:18 03.01.2020
5316 Clouds 29 1009 45 10000 2.52 302 19:41 03.01.2020
5317 Clouds 29 1009 45 10000 3.6 30 19:23 03.01.2020
5318 Clouds 29 1008 45 10000 3.6 70 18:47 03.01.2020
5319 Clouds 30 1007 40 10000 7.7 230 18:27 03.01.2020
5320 Rain 29 1008 48 10000 8.7 230 17:58 03.01.2020
5321 Rain 29 1009 51 10000 7.7 230 17:40 03.01.2020
5322 Rain 29 1009 51 10000 7.7 230 17:21 03.01.2020
5323 Rain 29 1009 51 10000 7.7 230 17:21 03.01.2020
5324 Clouds 31 1010 38 10000 4.6 70 16:44 03.01.2020
5325 Clear 30 1009 42 10000 3.1 200 16:25 03.01.2020
5326 Clear 31 1009 40 10000 3.1 240 15:59 03.01.2020
5327 Rain 30 1009 51 10000 3.6 190 15:41 03.01.2020
5328 Rain 30 1009 51 10000 3.6 190 15:19 03.01.2020
5329 Clear 34 1009 30 10000 4.6 150 14:39 03.01.2020
5330 Clouds 34 1009 30 10000 4.6 150 14:20 03.01.2020
5331 Clouds 35 1008 26 10000 6.7 200 13:57 03.01.2020
5332 Clouds 35 1008 24 10000 6.2 200 13:38 03.01.2020
5333 Clouds 35 1008 24 10000 6.2 200 13:20 03.01.2020
5334 Clouds 36 1007 22 10000 6.2 230 12:41 03.01.2020
5335 Clouds 37 1007 14 10000 2.1 190 12:22 03.01.2020
5336 Clouds 37 1006 14 10000 3.6 220 11:53 03.01.2020
5337 Clouds 39 1005 13 10000 4.1 290 11:34 03.01.2020
5338 Clouds 40 1005 11 10000 3.69 313 10:58 03.01.2020
5339 Clouds 40 1005 11 10000 2.6 260 10:39 03.01.2020
5340 Clouds 40 1005 11 10000 2.6 260 10:21 03.01.2020
5341 Clouds 40 1005 11 10000 3.6 290 09:54 03.01.2020
5342 Clouds 40 1005 11 10000 9.3 360 09:36 03.01.2020
5343 Clouds 40 1005 11 10000 9.3 360 09:18 03.01.2020
5344 Clouds 41 1005 11 10000 2.6 290 08:44 03.01.2020
5345 Clouds 41 1005 12 10000 4.1 350 08:21 03.01.2020
5346 Clouds 41 1005 12 10000 5.7 330 07:42 03.01.2020
5347 Clouds 40 1005 11 10000 5.7 10 07:19 03.01.2020
5348 Clouds 41 1006 12 10000 3.1 310 06:57 03.01.2020
5349 Clouds 41 1006 12 10000 5.1 290 06:37 03.01.2020
5350 Clouds 41 1006 12 10000 5.1 290 06:18 03.01.2020
5351 Clouds 43 1008 11 10000 6.7 350 04:42 03.01.2020
5352 Clouds 40 1010 13 10000 8.2 340 03:34 03.01.2020
5353 Clouds 40 1010 13 10000 7.7 350 02:47 03.01.2020
5354 Clear 39 1011 15 10000 7.7 360 01:47 03.01.2020
5355 Clear 37 1011 18 10000 6.2 10 00:57 03.01.2020
5356 Clear 35 1011 17 10000 4.6 10 00:33 03.01.2020
5357 Clear 35 1011 13 10000 3.6 40 23:58 02.01.2020
5358 Clear 34 1011 15 10000 3.6 30 23:39 02.01.2020
5359 Clear 34 1011 15 10000 3.6 30 23:19 02.01.2020
5360 Clear 32 1011 20 10000 3.1 50 22:58 02.01.2020
5361 Clear 32 1011 20 10000 3.1 50 22:58 02.01.2020
5362 Clear 30 1011 20 10000 2.6 70 22:39 02.01.2020
5363 Clear 30 1011 20 10000 2.6 70 22:19 02.01.2020
5364 Clear 29 1011 20 10000 2.6 40 21:54 02.01.2020
5365 Clear 29 1011 20 10000 3.1 60 21:36 02.01.2020
5366 Clear 29 1011 20 10000 3.1 60 21:36 02.01.2020
5367 Clear 29 1011 20 10000 3.1 60 21:18 02.01.2020
5368 Clear 32 1010 20 10000 3.6 60 20:40 02.01.2020
5369 Clear 32 1010 17 10000 3.6 60 20:21 02.01.2020
5370 Clear 32 1010 13 10000 3.1 30 19:56 02.01.2020
5371 Clear 31 1010 14 10000 1.5 350 19:38 02.01.2020
5372 Clear 31 1010 14 10000 1.5 350 19:19 02.01.2020
5373 Clear 30 1010 15 10000 3.1 350 18:58 02.01.2020
5374 Clear 32 1009 13 10000 4.6 100 18:40 02.01.2020
5375 Clear 32 1009 13 10000 4.6 100 18:22 02.01.2020
5376 Clear 32 1010 13 10000 4.1 70 17:57 02.01.2020
5377 Clear 31 1010 14 10000 3.1 80 17:37 02.01.2020
5378 Clear 31 1010 14 10000 3.1 80 17:19 02.01.2020
5379 Clear 31 1010 14 10000 3.1 60 16:57 02.01.2020
5380 Clear 31 1010 14 10000 3.1 80 16:38 02.01.2020
5381 Clear 31 1010 14 10000 3.1 80 16:20 02.01.2020
5382 Clear 32 1011 13 10000 3.1 90 15:45 02.01.2020
5383 Clear 33 1011 14 10000 3.1 110 15:24 02.01.2020
5384 Clear 33 1011 14 10000 3.1 110 14:59 02.01.2020
5385 Clear 34 1011 13 10000 3.6 90 14:39 02.01.2020
5386 Clear 34 1011 13 10000 3.6 90 14:39 02.01.2020
5387 Clouds 34 1011 13 10000 2.6 100 14:21 02.01.2020
5388 Clouds 34 1011 13 10000 2.6 100 13:58 02.01.2020
5389 Clouds 35 1010 13 10000 3.6 110 13:40 02.01.2020
5390 Clouds 35 1010 13 10000 3.6 110 13:19 02.01.2020
5391 Clouds 36 1010 11 10000 3.1 110 12:43 02.01.2020
5392 Clouds 38 1010 12 10000 4.6 110 12:23 02.01.2020
5393 Clouds 39 1009 11 10000 4.6 100 11:42 02.01.2020
5394 Clouds 39 1009 11 10000 4.6 100 11:23 02.01.2020
5395 Clouds 40 1009 11 10000 5.1 120 10:56 02.01.2020
5396 Clouds 40 1009 11 10000 4.1 110 10:36 02.01.2020
5397 Clouds 40 1009 11 10000 4.1 110 10:18 02.01.2020
5398 Clouds 41 1009 10 10000 6.2 120 09:41 02.01.2020
5399 Clouds 41 1009 11 10000 3.6 140 09:21 02.01.2020
5400 Clouds 40 1009 11 10000 3.1 250 08:41 02.01.2020
5401 Clouds 41 1010 10 10000 4.6 150 08:22 02.01.2020
5402 Clouds 41 1010 9 10000 2.1 50 07:47 02.01.2020
5403 Clouds 42 1010 9 10000 4.1 170 07:27 02.01.2020
5404 Clouds 41 1011 10 10000 3.6 190 06:43 02.01.2020
5405 Clouds 41 1012 10 10000 3.1 80 05:42 02.01.2020
5406 Clear 40 1014 11 10000 3.6 100 04:36 02.01.2020
5407 Clear 39 1014 10 10000 3.6 30 03:54 02.01.2020
5408 Clear 37 1016 11 10000 3.6 350 02:21 02.01.2020
5409 Clear 35 1016 11 10000 3.6 30 01:57 02.01.2020
5410 Clear 35 1017 16 10000 4.1 60 01:26 02.01.2020
5411 Clear 34 1017 10 10000 4.1 70 00:49 02.01.2020
5412 Clear 33 1017 14 10000 4.6 70 00:26 02.01.2020
5413 Clear 33 1017 14 10000 4.6 70 00:26 02.01.2020
5414 Clear 32 1017 14 10000 3.6 50 23:43 01.01.2020
5415 Clear 32 1017 14 10000 3.6 50 23:43 01.01.2020
5416 Clear 30 1017 13 10000 3.6 60 23:23 01.01.2020
5417 Clear 25 1016 17 10000 1.5 150 22:39 01.01.2020
5418 Clear 25 1016 17 10000 1.5 150 22:21 01.01.2020
5419 Clear 24 1015 19 10000 2.6 170 21:58 01.01.2020
5420 Clear 24 1015 19 10000 2.6 170 21:40 01.01.2020
5421 Clear 25 1015 17 10000 2.1 120 21:20 01.01.2020
5422 Clear 25 1015 17 10000 2.1 120 21:20 01.01.2020
5423 Clear 25 1015 17 10000 5.85 91 20:58 01.01.2020
5424 Clear 25 1014 17 10000 2.1 90 20:38 01.01.2020
5425 Clouds 25 1014 17 10000 2.1 90 20:20 01.01.2020
5426 Clouds 25 1014 17 10000 2.1 90 20:20 01.01.2020
5427 Clouds 25 1014 16 10000 0.5 10 19:57 01.01.2020
5428 Clouds 26 1014 16 10000 2.1 80 19:38 01.01.2020
5429 Clouds 26 1014 16 10000 2.1 80 19:20 01.01.2020
5430 Clouds 28 1014 15 10000 2.1 70 18:57 01.01.2020
5431 Clouds 29 1014 14 10000 2.6 120 18:37 01.01.2020
5432 Clouds 29 1014 14 10000 2.6 120 18:19 01.01.2020
5433 Clouds 30 1014 13 10000 3.6 100 17:57 01.01.2020
5434 Clouds 30 1014 16 10000 4.6 90 17:39 01.01.2020
5435 Clouds 30 1014 19 10000 4.6 90 17:19 01.01.2020
5436 Clouds 31 1015 19 10000 4.1 110 16:56 01.01.2020
5437 Clouds 32 1015 13 10000 4.6 110 16:37 01.01.2020
5438 Clouds 32 1015 13 10000 4.6 110 16:19 01.01.2020
5439 Clouds 32 1015 13 10000 4.6 110 16:19 01.01.2020
5440 Clouds 32 1015 14 10000 4.6 110 15:54 01.01.2020
5441 Clouds 33 1015 15 10000 4.6 110 15:36 01.01.2020
5442 Clouds 33 1015 15 10000 4.6 110 15:18 01.01.2020
5443 Clouds 33 1015 15 10000 4.1 130 14:41 01.01.2020
5444 Clouds 33 1015 15 10000 4.1 130 14:22 01.01.2020
5445 Clouds 34 1014 15 10000 4.1 120 13:56 01.01.2020
5446 Clouds 34 1014 14 10000 4.6 120 13:37 01.01.2020
5447 Clouds 34 1014 14 10000 4.6 120 13:19 01.01.2020
5448 Clouds 35 1014 13 10000 4.1 130 12:57 01.01.2020
5449 Clouds 35 1013 14 10000 4.1 130 12:39 01.01.2020
5450 Clouds 35 1013 14 10000 4.1 130 12:19 01.01.2020
5451 Clouds 35 1013 14 10000 4.1 130 12:19 01.01.2020
5452 Clouds 36 1013 13 10000 5.7 120 11:56 01.01.2020
5453 Clouds 36 1012 13 10000 5.1 130 11:37 01.01.2020
5454 Clouds 36 1012 13 10000 5.1 130 11:18 01.01.2020
5455 Clouds 37 1012 13 10000 5.7 130 10:41 01.01.2020
5456 Clouds 38 1011 13 10000 5.7 140 10:21 01.01.2020
5457 Clouds 38 1011 13 10000 6.2 140 09:59 01.01.2020
5458 Clouds 38 1011 13 10000 6.2 110 09:38 01.01.2020
5459 Clouds 38 1011 13 10000 6.2 110 09:19 01.01.2020
5460 Clouds 40 1011 12 10000 6.7 140 08:56 01.01.2020
5461 Clouds 39 1011 12 10000 3.6 170 08:37 01.01.2020
5462 Clouds 39 1011 12 10000 3.6 170 08:19 01.01.2020
5463 Clouds 39 1011 12 10000 4.1 110 07:54 01.01.2020
5464 Clouds 39 1012 13 10000 5.1 120 07:36 01.01.2020
5465 Clouds 39 1012 13 10000 5.1 120 06:45 01.01.2020
5466 Clouds 39 1012 13 10000 5.1 110 06:21 01.01.2020
5467 Clear 37 1014 14 10000 5.1 100 05:22 01.01.2020
5468 Clear 36 1014 14 10000 3.1 150 03:46 01.01.2020
5469 Clear 36 1015 13 10000 4.6 170 03:23 01.01.2020
5470 Clear 36 1015 13 10000 4.6 170 03:23 01.01.2020
5471 Clear 35 1015 14 10000 3.1 120 02:57 01.01.2020
5472 Clear 33 1015 16 10000 3.6 150 02:36 01.01.2020
5473 Clouds 33 1016 17 10000 4.1 120 01:57 01.01.2020
5474 Clouds 32 1016 18 10000 3.6 110 01:38 01.01.2020
5475 Clouds 32 1016 18 10000 3.6 110 01:20 01.01.2020
5476 Clouds 31 1016 16 10000 3.6 100 00:44 01.01.2020
5477 Clouds 31 1016 16 10000 3.6 100 00:44 01.01.2020
5478 Clouds 31 1016 18 10000 5.1 120 00:25 01.01.2020
5479 Clouds 29 1016 20 10000 4.6 120 23:41 31.12.2019
5480 Clouds 28 1016 23 10000 3.6 100 23:21 31.12.2019
5481 Clouds 26 1015 27 10000 5.9 115 22:57 31.12.2019
5482 Clouds 24 1015 31 10000 1 220 22:39 31.12.2019
5483 Clouds 24 1015 31 10000 1 220 22:20 31.12.2019
5484 Clouds 23 1015 33 10000 2.1 240 21:57 31.12.2019
5485 Clouds 24 1014 31 10000 2.6 140 21:39 31.12.2019
5486 Clouds 24 1014 31 10000 2.6 140 21:20 31.12.2019
5487 Clouds 25 1014 31 10000 0.5 130 20:55 31.12.2019
5488 Clouds 25 1013 31 10000 2.6 130 20:37 31.12.2019
5489 Clear 25 1013 31 10000 2.6 130 20:18 31.12.2019
5490 Clear 25 1013 31 10000 2.6 100 19:43 31.12.2019
5491 Clear 25 1013 31 10000 2.6 160 19:24 31.12.2019
5492 Clear 25 1013 29 10000 6.11 114 18:59 31.12.2019
5493 Clear 26 1013 29 10000 6.11 114 18:40 31.12.2019
5494 Clear 26 1013 29 10000 6.11 114 18:20 31.12.2019
5495 Clear 27 1013 28 10000 0.5 150 17:57 31.12.2019
5496 Clear 28 1013 26 10000 2.6 120 17:38 31.12.2019
5497 Clear 28 1013 26 10000 2.6 120 17:19 31.12.2019
5498 Clear 28 1013 26 10000 2.6 120 17:19 31.12.2019
5499 Clear 29 1013 25 10000 3.6 110 16:57 31.12.2019
5500 Clear 29 1013 25 10000 3.6 110 16:57 31.12.2019
5501 Clear 30 1013 23 10000 5.1 110 16:38 31.12.2019
5502 Clear 30 1013 23 10000 5.1 110 16:19 31.12.2019
5503 -273 0 0 0 0 0 15:57 31.12.2019
5504 Clear 30 1013 23 10000 4.6 110 15:39 31.12.2019
5505 Clear 30 1013 23 10000 4.6 110 15:21 31.12.2019
5506 Clear 31 1013 22 10000 4.6 120 14:58 31.12.2019
5507 Clear 31 1013 23 10000 5.1 120 14:39 31.12.2019
5508 Clear 31 1013 23 10000 5.1 120 14:19 31.12.2019
5509 Clear 32 1013 22 10000 5.1 130 13:58 31.12.2019
5510 Clear 33 1012 22 10000 6.7 130 13:40 31.12.2019
5511 Clear 33 1012 22 10000 6.7 130 13:21 31.12.2019
5512 Clear 33 1012 22 10000 5.7 130 12:58 31.12.2019
5513 Clear 34 1011 21 10000 5.1 130 12:40 31.12.2019
5514 Clear 34 1011 21 10000 5.1 130 12:20 31.12.2019
5515 Clear 35 1011 20 10000 5.7 130 11:56 31.12.2019
5516 Clear 35 1010 21 10000 5.7 140 11:38 31.12.2019
5517 Clear 35 1010 21 10000 5.7 140 11:20 31.12.2019
5518 Clear 36 1010 20 10000 6.2 140 10:58 31.12.2019
5519 Clear 37 1009 19 10000 5.7 140 10:38 31.12.2019
5520 Clear 37 1009 19 10000 5.7 140 10:20 31.12.2019
5521 Clear 38 1009 17 10000 5.1 130 09:59 31.12.2019
5522 Clear 38 1009 17 10000 6.2 110 09:39 31.12.2019
5523 Clear 38 1009 17 10000 6.2 110 09:20 31.12.2019
5524 Clear 38 1009 17 10000 3.6 120 08:57 31.12.2019
5525 Clear 38 1009 17 10000 5.7 130 08:37 31.12.2019
5526 Clear 38 1009 17 10000 5.7 130 08:19 31.12.2019
5527 Clear 38 1010 18 10000 5.7 170 07:43 31.12.2019
5528 Clear 38 1010 18 10000 4.1 150 07:20 31.12.2019
5529 Clear 38 1011 19 10000 4.6 140 06:50 31.12.2019
5530 Clear 37 1011 20 10000 4.6 120 05:57 31.12.2019
5531 Clear 35 1012 24 10000 4.6 120 04:28 31.12.2019
5532 Clear 33 1013 29 10000 4.6 110 03:28 31.12.2019
5533 Clear 32 1013 31 10000 6.2 110 02:54 31.12.2019
5534 Clear 32 1013 31 10000 6.2 110 02:54 31.12.2019
5535 Clear 32 1013 31 10000 6.2 110 02:54 31.12.2019
5536 Clouds 31 1013 40 10000 6.2 150 01:58 31.12.2019
5537 Clouds 32 1013 35 10000 6.7 160 01:40 31.12.2019
5538 Clear 32 1013 35 10000 6.7 160 01:22 31.12.2019
5539 Clear 29 1012 51 10000 3.6 270 00:45 31.12.2019
5540 Clear 29 1012 51 10000 3.6 270 00:22 31.12.2019
5541 Clear 27 1012 61 10000 3.1 280 23:56 30.12.2019
5542 Clear 26 1012 65 10000 3.1 290 23:38 30.12.2019
5543 Clear 26 1012 65 10000 3.1 290 23:19 30.12.2019
5544 Clear 25 1012 73 10000 2.6 330 22:57 30.12.2019
5545 Clear 25 1012 73 10000 2.6 330 22:57 30.12.2019
5546 Clear 24 1012 83 10000 2.1 210 22:38 30.12.2019
5547 Clear 24 1012 83 10000 2.1 210 22:19 30.12.2019
5548 Clear 24 1011 78 10000 0.5 150 21:56 30.12.2019
5549 Clear 24 1011 78 10000 3.1 280 21:38 30.12.2019
5550 Clear 24 1011 78 10000 3.1 280 21:18 30.12.2019
5551 Clear 25 1010 69 10000 2.6 270 20:56 30.12.2019
5552 Clear 25 1010 69 10000 2.6 270 20:56 30.12.2019
5553 Clear 25 1011 69 10000 3.6 270 20:38 30.12.2019
5554 Rain 25 1011 69 10000 3.6 270 20:19 30.12.2019
5555 Clouds 26 1010 61 10000 2.1 270 19:56 30.12.2019
5556 Rain 26 1011 65 10000 6.7 30 19:37 30.12.2019
5557 Rain 26 1011 65 10000 6.7 30 19:37 30.12.2019
5558 Rain 26 1011 65 10000 6.7 30 19:18 30.12.2019
5559 Rain 26 1011 65 10000 0.5 60 18:56 30.12.2019
5560 Clouds 27 1011 54 10000 3.6 350 18:37 30.12.2019
5561 Clouds 27 1011 54 10000 3.6 350 18:19 30.12.2019
5562 Rain 28 1011 48 10000 3.6 340 17:54 30.12.2019
5563 Rain 27 1012 57 10000 3.6 280 17:36 30.12.2019
5564 Rain 27 1012 57 10000 3.6 280 17:18 30.12.2019
5565 Clouds 27 1012 57 6000 8.2 190 16:41 30.12.2019
5566 Clouds 27 1012 57 6000 8.2 190 16:41 30.12.2019
5567 Clouds 27 1012 57 6000 8.2 190 16:21 30.12.2019
5568 Clouds 29 1012 51 10000 9.8 200 15:58 30.12.2019
5569 Clouds 27 1010 61 10000 1.5 10 15:39 30.12.2019
5570 Clouds 27 1010 61 10000 1.5 10 15:20 30.12.2019
5571 Clouds 27 1010 61 10000 1.5 10 15:20 30.12.2019
5572 Clouds 27 1010 61 10000 1.5 10 15:20 30.12.2019
5573 Rain 28 1010 54 10000 4.6 330 14:56 30.12.2019
5574 Rain 28 1010 58 10000 8.2 340 14:38 30.12.2019
5575 Rain 28 1010 58 10000 8.2 340 14:18 30.12.2019
5576 Rain 30 1010 45 10000 8.7 340 13:43 30.12.2019
5577 Rain 30 1010 45 10000 8.7 340 13:24 30.12.2019
5578 Clouds 30 1010 48 10000 6.2 360 12:59 30.12.2019
5579 Clouds 30 1010 48 10000 6.2 360 12:41 30.12.2019
5580 Clouds 29 1010 54 10000 1 20 12:19 30.12.2019
5581 Rain 29 1010 62 10000 4.1 360 11:58 30.12.2019
5582 Rain 30 1009 48 10000 4.6 360 11:39 30.12.2019
5583 Rain 30 1009 48 10000 4.6 360 11:18 30.12.2019
5584 Clouds 29 1009 58 10000 4.1 360 10:43 30.12.2019
5585 Rain 31 1008 48 10000 7.2 350 10:21 30.12.2019
5586 Clouds 36 1008 25 10000 5.7 40 09:55 30.12.2019
5587 Clouds 37 1007 22 10000 7.7 70 09:37 30.12.2019
5588 Clouds 37 1007 22 10000 7.7 70 09:19 30.12.2019
5589 Rain 38 1007 21 10000 8.2 30 08:46 30.12.2019
5590 Rain 42 1007 13 10000 4.1 180 08:23 30.12.2019
5591 Clouds 42 1007 13 10000 5.7 230 07:55 30.12.2019
5592 Rain 42 1007 13 10000 2.1 320 07:33 30.12.2019
5593 Rain 42 1008 13 10000 6.2 250 06:51 30.12.2019
5594 Clouds 41 1009 13 10000 4.6 320 04:50 30.12.2019
5595 Clouds 40 1010 16 10000 4.1 280 03:52 30.12.2019
5596 Clouds 38 1011 19 10000 3.1 270 02:47 30.12.2019
5597 Clouds 38 1011 18 10000 3.6 340 02:29 30.12.2019
5598 Clouds 36 1012 20 10000 2.6 220 01:47 30.12.2019
5599 Clouds 36 1012 22 10000 3.1 210 01:19 30.12.2019
5600 Clouds 35 1012 23 10000 3.1 200 00:42 30.12.2019
5601 Clouds 32 1012 31 10000 3.1 250 23:59 29.12.2019
5602 Clouds 31 1012 33 10000 2.6 250 23:38 29.12.2019
5603 Clouds 29 1011 35 10000 2.6 240 23:20 29.12.2019
5604 Clouds 29 1011 35 10000 2.6 240 22:41 29.12.2019
5605 -273 0 0 0 0 0 22:22 29.12.2019
5606 Clouds 27 1011 34 10000 0.5 180 21:57 29.12.2019
5607 Clouds 27 1010 39 10000 2.1 90 21:39 29.12.2019
5608 Clouds 27 1010 39 10000 2.1 90 21:20 29.12.2019
5609 Clouds 27 1010 36 10000 0.5 50 20:57 29.12.2019
5610 Clouds 28 1009 37 10000 1.5 50 20:38 29.12.2019
5611 Clouds 28 1009 37 10000 1.5 50 20:20 29.12.2019
5612 Clouds 28 1010 34 10000 0.5 360 19:58 29.12.2019
5613 Clouds 29 1010 32 10000 4.38 316 19:39 29.12.2019
5614 Clouds 29 1010 32 10000 4.38 316 19:20 29.12.2019
5615 Clouds 30 1010 33 10000 4.38 316 18:55 29.12.2019
5616 Clouds 31 1010 31 10000 2.6 330 18:37 29.12.2019
5617 Clouds 31 1010 31 10000 2.6 330 18:19 29.12.2019
5618 Clouds 31 1010 31 10000 2.6 330 18:19 29.12.2019
5619 Clouds 31 1010 31 10000 3.1 310 17:56 29.12.2019
5620 Clouds 31 1010 31 10000 3.6 270 17:38 29.12.2019
5621 Clouds 31 1010 31 10000 3.6 270 17:38 29.12.2019
5622 Clouds 31 1010 31 10000 3.6 270 17:19 29.12.2019
5623 Clouds 31 1011 33 10000 4.6 280 16:56 29.12.2019
5624 Clouds 31 1011 33 10000 6.7 270 16:36 29.12.2019
5625 Clouds 31 1011 33 10000 6.7 270 16:36 29.12.2019
5626 Clouds 31 1011 33 10000 6.7 270 16:18 29.12.2019
5627 Clouds 32 1011 29 10000 7.7 270 15:56 29.12.2019
5628 Clouds 33 1011 26 5000 7.2 290 15:38 29.12.2019
5629 Clouds 33 1011 26 5000 7.2 290 15:19 29.12.2019
5630 Clouds 32 1010 18 10000 2.6 60 14:55 29.12.2019
5631 Clouds 34 1010 16 10000 2.6 70 14:37 29.12.2019
5632 Clouds 34 1010 16 10000 2.6 70 14:37 29.12.2019
5633 Clouds 34 1010 16 10000 2.6 70 14:18 29.12.2019
5634 Clouds 34 1010 16 10000 2.6 70 14:18 29.12.2019
5635 Clouds 34 1010 16 10000 3.6 80 13:55 29.12.2019
5636 Clouds 35 1010 14 10000 3.1 70 13:37 29.12.2019
5637 Clouds 35 1010 14 10000 3.1 70 13:18 29.12.2019
5638 Clouds 35 1009 14 10000 3.1 70 12:42 29.12.2019
5639 Clouds 37 1009 13 10000 3.6 70 12:24 29.12.2019
5640 Clouds 38 1009 13 10000 4.6 90 11:55 29.12.2019
5641 Clouds 39 1009 11 10000 4.6 80 11:37 29.12.2019
5642 Clouds 39 1009 11 10000 4.6 80 11:19 29.12.2019
5643 Clouds 39 1008 12 10000 4.1 90 10:41 29.12.2019
5644 Clouds 40 1008 11 10000 4.1 100 10:21 29.12.2019
5645 Clouds 40 1008 11 10000 5.1 80 09:54 29.12.2019
5646 Clouds 41 1008 11 10000 5.7 60 09:36 29.12.2019
5647 Clouds 41 1008 11 10000 5.7 60 09:18 29.12.2019
5648 Clouds 42 1008 11 10000 3.6 50 08:46 29.12.2019
5649 Clouds 42 1009 9 10000 5.7 110 08:24 29.12.2019
5650 Clouds 42 1009 11 10000 4.1 20 07:54 29.12.2019
5651 Clouds 42 1009 11 10000 4.1 20 07:54 29.12.2019
5652 Clouds 41 1009 11 10000 3.6 80 07:27 29.12.2019
5653 Clouds 41 1010 12 10000 3.1 340 06:53 29.12.2019
5654 Clouds 40 1010 11 10000 3.6 360 06:23 29.12.2019
5655 Clouds 41 1010 12 10000 3.6 160 05:48 29.12.2019
5656 Clear 40 1011 11 10000 4.25 88 04:34 29.12.2019
5657 Clear 40 1012 12 10000 6.7 350 03:40 29.12.2019
5658 Clear 40 1012 12 10000 6.7 350 03:19 29.12.2019
5659 Clear 39 1013 12 10000 3.6 350 02:19 29.12.2019
5660 Clear 37 1014 13 10000 6.7 10 01:31 29.12.2019
5661 Clear 36 1014 15 10000 7.2 10 00:51 29.12.2019
5662 Clear 36 1013 16 10000 5.7 360 00:27 29.12.2019
5663 Clear 35 1014 17 10000 3.6 360 23:56 28.12.2019
5664 Clear 33 1014 22 10000 2.6 40 23:37 28.12.2019
5665 Clear 33 1014 22 10000 2.6 40 23:18 28.12.2019
5666 Clear 28 1013 34 10000 6.15 34 22:38 28.12.2019
5667 Clear 28 1013 34 10000 6.15 34 22:38 28.12.2019
5668 Clear 28 1013 34 10000 6.15 34 22:19 28.12.2019
5669 Clear 26 1013 36 10000 2.1 100 21:57 28.12.2019
5670 Clear 26 1012 36 10000 2.1 90 21:38 28.12.2019
5671 Clear 26 1012 36 10000 2.1 90 21:38 28.12.2019
5672 Clear 26 1012 36 10000 2.1 90 21:20 28.12.2019
5673 Clear 27 1012 34 10000 1.5 110 20:55 28.12.2019
5674 Clear 27 1012 34 10000 1.5 110 20:55 28.12.2019
5675 Clear 27 1011 32 10000 6.15 34 20:36 28.12.2019
5676 Clear 27 1011 32 10000 5.37 56 20:18 28.12.2019
5677 Clouds 27 1011 34 10000 4 65 19:54 28.12.2019
5678 Clouds 28 1011 32 10000 1.5 30 19:36 28.12.2019
5679 Clouds 28 1011 32 10000 1.5 30 19:18 28.12.2019
5680 Clouds 29 1011 32 10000 2.1 80 18:42 28.12.2019
5681 Clouds 28 1011 34 10000 2.1 60 18:20 28.12.2019
5682 Clouds 29 1011 30 10000 2.1 90 17:59 28.12.2019
5683 Clouds 30 1011 30 10000 4 65 17:40 28.12.2019
5684 Clear 30 1011 30 10000 4.08 66 17:21 28.12.2019
5685 Clear 30 1011 30 10000 4.08 66 16:51 28.12.2019
5686 Clear 31 1011 29 10000 2.6 10 16:27 28.12.2019
5687 Clear 31 1011 29 10000 2.6 30 15:58 28.12.2019
5688 Clear 32 1012 27 10000 2.6 30 15:39 28.12.2019
5689 Clear 32 1012 27 10000 2.6 30 15:21 28.12.2019
5690 Clear 32 1012 27 10000 2.6 30 15:21 28.12.2019
5691 Clear 32 1012 27 10000 2.6 30 15:21 28.12.2019
5692 Clear 32 1012 27 10000 1 50 14:47 28.12.2019
5693 Clear 32 1012 27 10000 3.1 50 14:25 28.12.2019
5694 Clouds 33 1012 26 10000 2.6 50 13:58 28.12.2019
5695 Clouds 33 1012 27 10000 3.1 40 13:39 28.12.2019
5696 Clouds 33 1012 27 10000 3.1 40 13:20 28.12.2019
5697 Clouds 34 1011 26 10000 3.1 40 12:55 28.12.2019
5698 Clouds 35 1011 23 10000 3.6 50 12:36 28.12.2019
5699 Clouds 35 1011 23 10000 3.6 50 12:18 28.12.2019
5700 Clouds 36 1010 22 10000 7.7 60 11:39 28.12.2019
5701 Clouds 36 1010 22 10000 7.7 60 11:21 28.12.2019
5702 Clouds 36 1010 23 10000 8.2 60 10:46 28.12.2019
5703 Clouds 37 1009 22 10000 8.7 60 10:23 28.12.2019
5704 Clouds 37 1009 22 10000 9.8 80 09:59 28.12.2019
5705 Clouds 40 1008 19 10000 11.3 80 09:41 28.12.2019
5706 Clouds 40 1008 19 10000 11.3 80 09:23 28.12.2019
5707 Clouds 41 1008 12 10000 3.6 70 08:45 28.12.2019
5708 Clouds 41 1008 12 10000 5.7 170 08:27 28.12.2019
5709 Clouds 41 1008 12 10000 5.1 130 07:59 28.12.2019
5710 Clouds 40 1009 14 10000 2.1 100 07:39 28.12.2019
5711 Clouds 40 1009 12 10000 6.2 130 06:50 28.12.2019
5712 Clouds 40 1010 13 10000 2.6 110 05:31 28.12.2019
5713 Clouds 40 1011 15 10000 3.6 130 03:47 28.12.2019
5714 Clouds 39 1012 18 10000 3.6 20 02:49 28.12.2019
5715 Clear 38 1012 21 10000 6.2 10 02:19 28.12.2019
5716 Clear 37 1012 23 10000 6.2 360 01:50 28.12.2019
5717 Clear 36 1012 25 10000 7.7 360 01:20 28.12.2019
5718 Clear 35 1012 28 10000 6.7 360 00:41 28.12.2019
5719 Clear 35 1012 30 10000 7.2 10 00:23 28.12.2019
5720 Clear 34 1012 30 10000 6.2 360 23:45 27.12.2019
5721 Clear 33 1012 31 10000 5.7 360 23:20 27.12.2019
5722 Clear 31 1011 25 10000 8.4 20 22:58 27.12.2019
5723 Clear 28 1011 26 10000 8.4 20 22:39 27.12.2019
5724 Clear 28 1011 26 10000 8.4 20 22:20 27.12.2019
5725 Clear 27 1011 26 10000 8.4 20 21:58 27.12.2019
5726 Clear 28 1010 24 10000 8.4 20 21:38 27.12.2019
5727 Clear 28 1010 24 10000 8.4 20 21:19 27.12.2019
5728 Clear 28 1010 23 10000 1.5 150 20:42 27.12.2019
5729 Clear 28 1009 24 10000 3.1 150 20:23 27.12.2019
5730 Clear 30 1009 28 10000 2.1 80 19:54 27.12.2019
5731 Clear 30 1009 30 10000 2.6 50 19:36 27.12.2019
5732 Clear 30 1009 30 10000 2.6 50 19:18 27.12.2019
5733 Clear 29 1009 21 10000 3.1 50 18:40 27.12.2019
5734 Clear 29 1009 21 10000 3.1 50 18:22 27.12.2019
5735 Clear 29 1009 18 10000 2.6 120 17:58 27.12.2019
5736 Clear 29 1009 18 10000 1 360 17:40 27.12.2019
5737 Clouds 29 1009 18 10000 1 360 17:19 27.12.2019
5738 Clouds 30 1009 19 10000 2.1 100 16:59 27.12.2019
5739 Clouds 30 1010 19 10000 2.6 120 16:39 27.12.2019
5740 Clouds 30 1010 19 10000 2.6 120 16:20 27.12.2019
5741 Clouds 33 1010 17 10000 2.6 100 15:45 27.12.2019
5742 Clouds 32 1010 17 10000 2.6 100 15:23 27.12.2019
5743 Clouds 33 1010 17 10000 2.6 80 14:58 27.12.2019
5744 Clouds 33 1010 16 10000 3.1 70 14:40 27.12.2019
5745 Clouds 33 1010 16 10000 3.1 70 14:21 27.12.2019
5746 Clouds 35 1010 14 10000 3.1 110 13:57 27.12.2019
5747 Clouds 36 1009 13 10000 3.6 120 13:38 27.12.2019
5748 Clouds 36 1009 13 10000 3.6 120 13:38 27.12.2019
5749 Clear 36 1009 13 10000 3.6 120 13:20 27.12.2019
5750 Clear 37 1009 13 10000 3.6 120 12:42 27.12.2019
5751 Clear 37 1009 13 10000 4.6 120 12:23 27.12.2019
5752 Clear 38 1009 13 10000 5.1 120 11:46 27.12.2019
5753 Clear 39 1008 11 10000 5.1 110 11:27 27.12.2019
5754 Clear 39 1008 12 10000 7.2 130 10:59 27.12.2019
5755 Clear 40 1008 11 10000 5.7 130 10:40 27.12.2019
5756 Clear 40 1008 11 10000 5.7 130 10:22 27.12.2019
5757 Clear 41 1007 11 10000 7.7 90 09:46 27.12.2019
5758 Clear 41 1007 11 10000 7.2 150 09:22 27.12.2019
5759 Clear 42 1007 9 10000 7.7 140 08:59 27.12.2019
5760 Clear 42 1007 9 10000 7.7 140 08:59 27.12.2019
5761 Clear 41 1007 10 10000 6.7 140 08:38 27.12.2019
5762 Clear 42 1007 9 10000 6.2 130 07:53 27.12.2019
5763 Clear 42 1007 9 10000 6.7 140 07:34 27.12.2019
5764 Clear 41 1008 10 10000 5.7 120 06:39 27.12.2019
5765 Clear 41 1009 9 10000 4.6 70 05:52 27.12.2019
5766 Clear 40 1011 9 10000 5.1 130 03:47 27.12.2019
5767 Clear 38 1011 10 10000 5.7 90 02:25 27.12.2019
5768 Clouds 38 1011 10 10000 7.2 80 01:42 27.12.2019
5769 Clouds 36 1012 12 10000 6.2 80 01:20 27.12.2019
5770 Clouds 36 1012 11 10000 6.2 90 00:46 27.12.2019
5771 Clouds 34 1012 14 10000 4.6 90 00:24 27.12.2019
5772 Clouds 31 1012 12 10000 2.1 120 23:42 26.12.2019
5773 Clouds 31 1012 12 10000 2.1 120 23:24 26.12.2019
5774 Clouds 28 1012 15 10000 0.5 300 22:58 26.12.2019
5775 Clouds 25 1012 16 10000 4.17 107 22:37 26.12.2019
5776 Clouds 25 1012 16 10000 4.17 107 22:18 26.12.2019
5777 Clouds 24 1011 16 10000 4.17 107 21:39 26.12.2019
5778 Clouds 24 1011 16 10000 4.17 107 21:21 26.12.2019
5779 Clouds 24 1011 19 10000 1.5 290 20:47 26.12.2019
5780 Clouds 24 1011 19 10000 1.5 210 20:24 26.12.2019
5781 Clear 26 1011 16 10000 1.5 250 19:59 26.12.2019
5782 Clear 26 1011 16 10000 1.5 250 19:40 26.12.2019
5783 Clear 26 1011 16 10000 2.1 290 19:22 26.12.2019
5784 Clear 26 1011 16 10000 2.1 300 18:59 26.12.2019
5785 Clear 27 1011 15 10000 1.5 170 18:40 26.12.2019
5786 Clear 27 1011 15 10000 1.5 170 18:20 26.12.2019
5787 Clear 28 1011 15 10000 5.07 100 17:58 26.12.2019
5788 Clear 29 1011 13 10000 1 20 17:40 26.12.2019
5789 Clear 29 1011 13 10000 1 20 17:19 26.12.2019
5790 Clear 30 1011 13 10000 2.1 100 16:46 26.12.2019
5791 Clear 32 1011 15 10000 3.1 120 16:26 26.12.2019
5792 Clear 33 1012 15 10000 4.1 120 15:56 26.12.2019
5793 Clear 34 1012 15 10000 4.1 110 15:38 26.12.2019
5794 Clear 34 1012 15 10000 4.1 110 15:18 26.12.2019
5795 Clear 34 1012 15 10000 4.1 110 15:18 26.12.2019
5796 Clear 34 1012 12 10000 4.1 110 14:41 26.12.2019
5797 Clear 34 1012 12 10000 4.6 120 14:23 26.12.2019
5798 Clear 35 1012 11 10000 4.6 120 13:45 26.12.2019
5799 Clouds 35 1011 11 10000 3.6 130 13:24 26.12.2019
5800 Clouds 36 1011 11 10000 4.1 130 12:59 26.12.2019
5801 Clouds 36 1011 11 10000 4.1 130 12:59 26.12.2019
5802 Clouds 36 1011 11 10000 4.1 130 12:40 26.12.2019
5803 Clouds 36 1011 11 10000 4.1 130 12:21 26.12.2019
5804 Clouds 38 1011 9 10000 4.6 130 11:58 26.12.2019
5805 Clouds 38 1011 9 10000 4.6 130 11:58 26.12.2019
5806 Clouds 38 1010 9 10000 5.1 130 11:40 26.12.2019
5807 Clear 38 1010 9 10000 5.1 130 11:20 26.12.2019
5808 Clear 39 1010 10 10000 5.7 130 10:49 26.12.2019
5809 Clear 40 1010 8 10000 4.1 130 10:20 26.12.2019
5810 Clear 40 1010 8 10000 4.1 110 09:53 26.12.2019
5811 Clear 40 1010 8 10000 5.7 120 09:32 26.12.2019
5812 Clear 41 1009 9 10000 7.2 140 08:57 26.12.2019
5813 Clear 42 1010 8 10000 6.7 130 08:38 26.12.2019
5814 Clear 42 1010 8 10000 6.7 130 08:20 26.12.2019
5815 Clear 41 1010 9 10000 4.6 120 07:31 26.12.2019
5816 Clear 41 1010 9 10000 4.6 190 06:56 26.12.2019
5817 Clear 41 1011 9 10000 5.7 150 06:33 26.12.2019
5818 Clear 41 1011 9 10000 3.6 130 05:49 26.12.2019
5819 Clear 40 1012 7 10000 3.6 110 04:59 26.12.2019
5820 Clear 39 1013 8 10000 3.6 140 04:32 26.12.2019
5821 Clear 39 1013 9 10000 7.7 100 03:19 26.12.2019
5822 Clear 39 1013 9 10000 7.7 100 02:40 26.12.2019
5823 Clouds 38 1014 10 10000 7.7 70 02:19 26.12.2019
5824 Clouds 37 1014 9 10000 7.2 80 01:41 26.12.2019
5825 Clouds 37 1014 9 10000 7.2 80 01:22 26.12.2019
5826 Clouds 36 1014 8 10000 6.7 70 00:41 26.12.2019
5827 Clouds 36 1015 8 10000 7.2 50 00:22 26.12.2019
5828 Clouds 33 1015 10 10000 4.1 70 23:42 25.12.2019
5829 Clouds 33 1015 19 10000 4.1 70 23:21 25.12.2019
5830 Clouds 32 1014 19 10000 4.1 40 22:59 25.12.2019
5831 Clouds 32 1014 19 10000 4.1 40 22:40 25.12.2019
5832 Clouds 29 1014 16 10000 2.6 60 22:22 25.12.2019
5833 Clouds 28 1013 19 10000 2.1 100 21:59 25.12.2019
5834 Clouds 28 1013 19 10000 2.1 100 21:40 25.12.2019
5835 Clouds 29 1013 16 10000 2.6 100 21:21 25.12.2019
5836 Clouds 28 1013 17 10000 2.6 80 20:57 25.12.2019
5837 Clouds 29 1012 16 10000 2.1 70 20:39 25.12.2019
5838 Clear 29 1012 16 10000 2.1 70 20:18 25.12.2019
5839 Clear 29 1012 16 10000 2.1 70 20:18 25.12.2019
5840 Clear 29 1012 16 10000 2.1 70 20:18 25.12.2019
5841 Clear 29 1012 19 10000 1.5 90 19:43 25.12.2019
5842 Clear 29 1012 19 10000 1.5 90 19:43 25.12.2019
5843 Clear 30 1012 15 10000 2.1 90 19:25 25.12.2019
5844 Clear 31 1012 19 10000 2.1 70 18:59 25.12.2019
5845 Clear 32 1012 19 10000 3.1 100 18:38 25.12.2019
5846 Clear 32 1012 19 10000 3.1 100 18:38 25.12.2019
5847 Clear 32 1012 19 10000 3.1 100 18:19 25.12.2019
5848 Clear 34 1012 19 10000 6.2 100 17:42 25.12.2019
5849 Clear 34 1012 16 10000 6.2 100 17:20 25.12.2019
5850 Clear 34 1012 12 10000 8.7 100 16:59 25.12.2019
5851 Clear 34 1012 12 10000 8.7 110 16:38 25.12.2019
5852 Clear 34 1012 12 10000 8.7 110 16:19 25.12.2019
5853 Clouds 35 1012 16 10000 9.3 110 15:57 25.12.2019
5854 Clouds 36 1012 11 8000 10.3 110 15:39 25.12.2019
5855 Clouds 36 1012 11 8000 10.3 110 15:20 25.12.2019
5856 Clouds 37 1012 10 8000 9.8 110 14:57 25.12.2019
5857 Clouds 38 1012 10 9000 10.8 120 14:39 25.12.2019
5858 Clouds 38 1012 10 9000 10.8 120 14:20 25.12.2019
5859 Clouds 38 1011 11 10000 7.2 120 13:45 25.12.2019
5860 Clouds 39 1011 10 10000 8.7 120 13:21 25.12.2019
5861 Clouds 39 1010 10 10000 8.2 120 12:57 25.12.2019
5862 Clouds 40 1009 10 10000 6.2 130 12:38 25.12.2019
5863 Clouds 40 1009 10 10000 6.2 130 12:19 25.12.2019
5864 Clouds 40 1009 10 10000 6.7 130 11:43 25.12.2019
5865 Clouds 41 1009 9 10000 7.7 120 11:22 25.12.2019
5866 Clouds 42 1008 9 10000 7.2 130 10:59 25.12.2019
5867 Clouds 43 1008 8 10000 7.7 130 10:37 25.12.2019
5868 Clouds 43 1008 8 10000 7.7 130 10:19 25.12.2019
5869 Clouds 44 1008 7 10000 6.7 120 09:44 25.12.2019
5870 Clouds 44 1007 7 10000 6.7 140 09:26 25.12.2019
5871 Clouds 44 1007 8 10000 4.6 160 08:46 25.12.2019
5872 Clouds 45 1007 7 10000 6.2 100 08:26 25.12.2019
5873 Clouds 45 1007 7 10000 4.6 90 07:48 25.12.2019
5874 Clouds 45 1007 7 10000 5.7 120 07:29 25.12.2019
5875 Clouds 45 1008 7 10000 4.1 160 06:49 25.12.2019
5876 Clouds 44 1008 7 10000 5.7 120 06:22 25.12.2019
5877 Clouds 44 1009 8 10000 3.6 10 04:50 25.12.2019
5878 Clouds 43 1010 8 10000 2.6 270 04:26 25.12.2019
5879 Clouds 43 1010 8 10000 2.1 360 03:58 25.12.2019
5880 Clouds 43 1010 8 10000 2.1 360 03:40 25.12.2019
5881 Clouds 42 1011 9 10000 3.6 10 02:39 25.12.2019
5882 Clear 41 1012 9 10000 4.1 80 01:58 25.12.2019
5883 Clear 40 1012 10 10000 5.1 90 01:25 25.12.2019
5884 Clear 39 1012 10 10000 5.7 100 00:48 25.12.2019
5885 Clear 38 1012 9 10000 5.1 100 00:28 25.12.2019
5886 Clear 37 1012 11 10000 5.1 110 23:55 24.12.2019
5887 Clear 35 1011 12 10000 3.1 120 23:37 24.12.2019
5888 Clear 35 1011 12 10000 3.1 120 23:19 24.12.2019
5889 Clear 31 1011 21 10000 2.1 10 22:39 24.12.2019
5890 Clear 31 1011 21 10000 2.1 10 22:20 24.12.2019
5891 Clear 30 1011 13 10000 2.6 50 21:42 24.12.2019
5892 Clear 30 1010 21 10000 5.7 160 21:22 24.12.2019
5893 Clear 30 1010 21 10000 5.7 160 21:22 24.12.2019
5894 Clear 28 1009 15 10000 1.5 230 20:45 24.12.2019
5895 Clear 28 1009 14 10000 4.19 315 20:24 24.12.2019
5896 Clear 28 1009 14 10000 1.5 210 19:57 24.12.2019
5897 Clear 29 1009 14 10000 1 140 19:39 24.12.2019
5898 Clear 29 1009 14 10000 1 140 19:19 24.12.2019
5899 Clear 29 1009 14 10000 3.56 340 18:42 24.12.2019
5900 Clear 31 1009 21 10000 1.5 360 18:23 24.12.2019
5901 Clear 31 1009 12 10000 2.6 340 17:50 24.12.2019
5902 Clear 32 1010 21 10000 2.6 340 17:24 24.12.2019
5903 Clear 32 1010 11 10000 4.31 2 16:59 24.12.2019
5904 Clear 32 1010 11 10000 4.31 2 16:41 24.12.2019
5905 Clear 32 1011 11 10000 1.5 270 16:23 24.12.2019
5906 Clear 32 1011 11 10000 1.5 270 16:23 24.12.2019
5907 Clear 32 1011 11 10000 1.5 270 16:22 24.12.2019
5908 Clear 32 1011 11 10000 1.5 350 15:58 24.12.2019
5909 Clear 34 1011 17 10000 2.6 30 15:39 24.12.2019
5910 Clear 34 1011 17 10000 2.6 30 15:20 24.12.2019
5911 Clear 35 1011 17 10000 2.1 60 14:59 24.12.2019
5912 Clear 35 1011 17 10000 2.1 60 14:59 24.12.2019
5913 Clear 35 1011 17 10000 2.1 60 14:41 24.12.2019
5914 Clouds 34 1011 10 10000 2.1 130 14:22 24.12.2019
5915 Clouds 35 1011 13 10000 2.1 150 13:57 24.12.2019
5916 Clouds 36 1011 9 10000 2.6 150 13:39 24.12.2019
5917 Clouds 36 1011 9 10000 2.6 150 13:20 24.12.2019
5918 Clouds 37 1011 16 10000 3.1 140 12:58 24.12.2019
5919 Clouds 38 1010 16 10000 3.1 150 12:38 24.12.2019
5920 Clouds 38 1010 16 10000 3.1 150 12:19 24.12.2019
5921 Clouds 40 1010 7 10000 3.1 140 11:58 24.12.2019
5922 Clouds 41 1010 16 10000 4.1 130 11:38 24.12.2019
5923 Clouds 41 1010 16 10000 4.1 130 11:38 24.12.2019
5924 Clouds 41 1010 7 10000 4.1 130 11:20 24.12.2019
5925 Clouds 42 1009 6 10000 5.7 140 10:57 24.12.2019
5926 Clouds 43 1009 7 10000 5.7 130 10:38 24.12.2019
5927 Clouds 43 1009 7 10000 5.7 130 10:20 24.12.2019
5928 Clouds 44 1009 7 10000 7.2 130 09:58 24.12.2019
5929 Clouds 44 1009 7 10000 7.2 130 09:40 24.12.2019
5930 Clouds 44 1008 7 10000 7.2 110 09:21 24.12.2019
5931 Clouds 45 1008 6 10000 4.1 180 08:47 24.12.2019
5932 Clouds 45 1008 5 10000 6.7 110 08:24 24.12.2019
5933 Clouds 45 1008 5 10000 3.6 120 07:59 24.12.2019
5934 Clouds 45 1009 5 10000 6.2 110 07:39 24.12.2019
5935 Clouds 45 1009 5 10000 6.2 110 07:21 24.12.2019
5936 Clouds 45 1009 6 10000 7.7 90 06:40 24.12.2019
5937 Clouds 45 1009 6 10000 7.7 90 06:19 24.12.2019
5938 Clouds 45 1010 6 10000 5.7 130 05:51 24.12.2019
5939 Clear 44 1010 5 10000 6.7 60 05:19 24.12.2019
5940 Clear 43 1011 8 10000 4.6 110 04:21 24.12.2019
5941 Clear 43 1011 8 10000 3.6 70 03:46 24.12.2019
5942 Clear 43 1012 8 10000 6.7 80 02:29 24.12.2019
5943 Clear 41 1013 8 10000 7.7 80 01:54 24.12.2019
5944 Clear 40 1013 8 10000 7.7 90 01:26 24.12.2019
5945 Clear 39 1013 10 10000 7.7 60 00:58 24.12.2019
5946 Clear 38 1013 11 10000 5.1 90 00:39 24.12.2019
5947 Clear 38 1013 11 10000 5.1 90 00:19 24.12.2019
5948 Clear 37 1013 11 10000 3.1 120 23:42 23.12.2019
5949 Clear 37 1013 11 10000 3.1 120 23:42 23.12.2019
5950 Clear 33 1013 13 10000 8.44 75 23:24 23.12.2019
5951 Clear 31 1013 15 10000 4.63 77 22:57 23.12.2019
5952 Clear 29 1013 16 10000 4.63 77 22:38 23.12.2019
5953 Clear 29 1013 16 10000 4.63 77 22:19 23.12.2019
5954 Clear 27 1013 18 10000 1 40 21:56 23.12.2019
5955 Clear 27 1012 15 10000 4.63 77 21:36 23.12.2019
5956 Clear 27 1012 15 10000 4.63 77 21:18 23.12.2019
5957 Clear 27 1012 18 10000 4.63 77 20:57 23.12.2019
5958 Clear 26 1012 15 10000 4.63 77 20:39 23.12.2019
5959 Clear 26 1012 15 10000 5.41 87 20:18 23.12.2019
5960 Clear 26 1012 16 10000 0.5 360 19:56 23.12.2019
5961 Clear 27 1011 14 10000 1.5 300 19:38 23.12.2019
5962 Clear 27 1011 14 10000 1.5 300 19:19 23.12.2019
5963 Clear 28 1012 15 10000 2.1 350 18:58 23.12.2019
5964 Clear 28 1012 15 10000 2.1 350 18:58 23.12.2019
5965 Clear 27 1012 13 10000 5.21 90 18:38 23.12.2019
5966 Clear 27 1012 13 10000 5.21 90 18:20 23.12.2019
5967 Clear 28 1012 14 10000 5.21 90 17:56 23.12.2019
5968 Clear 29 1012 14 10000 2.1 340 17:37 23.12.2019
5969 Clouds 29 1012 14 10000 2.1 340 17:19 23.12.2019
5970 Clouds 29 1012 13 10000 0.5 280 16:54 23.12.2019
5971 Clouds 29 1012 12 10000 1.5 220 16:36 23.12.2019
5972 Clouds 29 1012 12 10000 1.5 220 16:18 23.12.2019
5973 Clouds 30 1013 12 10000 1 360 15:55 23.12.2019
5974 Clouds 31 1013 11 10000 2.1 120 15:36 23.12.2019
5975 Clouds 31 1013 11 10000 2.1 120 15:18 23.12.2019
5976 Clouds 33 1013 14 10000 3.1 80 14:42 23.12.2019
5977 Clear 33 1013 12 10000 2.6 70 14:24 23.12.2019
5978 Clear 35 1013 12 10000 2.6 90 13:59 23.12.2019
5979 Clear 35 1013 12 10000 2.6 90 13:59 23.12.2019
5980 Clear 35 1013 12 10000 2.6 90 13:40 23.12.2019
5981 Clouds 35 1012 10 10000 3.1 140 13:22 23.12.2019
5982 Clouds 37 1012 9 10000 3.1 110 12:58 23.12.2019
5983 Clouds 38 1012 8 10000 3.6 110 12:39 23.12.2019
5984 Clouds 38 1012 8 10000 3.6 110 12:20 23.12.2019
5985 Clouds 38 1011 8 10000 3.1 90 11:45 23.12.2019
5986 Clouds 40 1011 7 10000 3.6 100 11:26 23.12.2019
5987 Clouds 41 1011 6 10000 4.6 100 10:59 23.12.2019
5988 Clouds 41 1011 6 10000 4.6 100 10:41 23.12.2019
5989 Clouds 42 1010 6 10000 6.2 100 10:21 23.12.2019
5990 Clouds 42 1010 6 10000 5.1 100 09:59 23.12.2019
5991 Clouds 43 1010 6 10000 7.7 90 09:40 23.12.2019
5992 Clouds 43 1010 6 10000 7.7 90 09:21 23.12.2019
5993 Clouds 43 1010 8 10000 5.1 100 08:58 23.12.2019
5994 Clouds 43 1010 8 10000 6.7 60 08:40 23.12.2019
5995 Clear 43 1010 7 10000 6.7 60 08:22 23.12.2019
5996 Clear 43 1010 7 10000 4.6 110 07:47 23.12.2019
5997 Clear 43 1010 7 10000 3.6 120 07:20 23.12.2019
5998 Clear 44 1011 7 10000 7.7 50 06:57 23.12.2019
5999 Clear 43 1011 7 10000 6.7 50 06:26 23.12.2019
6000 Clear 42 1011 8 10000 3.6 350 05:56 23.12.2019
6001 Clear 43 1012 7 10000 8.2 50 05:29 23.12.2019
6002 Clear 42 1013 8 10000 5.7 100 04:31 23.12.2019
6003 Clear 41 1013 8 10000 7.7 40 03:24 23.12.2019
6004 Dust 41 1014 9 10000 7.7 90 02:41 23.12.2019
6005 Dust 41 1014 9 10000 7.7 90 02:19 23.12.2019
6006 Clear 40 1014 8 10000 4.1 40 01:42 23.12.2019
6007 Clear 39 1015 10 10000 2.6 350 01:20 23.12.2019
6008 Clear 37 1015 11 10000 1.5 230 00:43 23.12.2019
6009 Clear 35 1015 10 10000 6.18 57 00:22 23.12.2019
6010 Clear 30 1014 13 10000 1 270 23:39 22.12.2019
6011 Clear 30 1014 13 10000 1 270 23:21 22.12.2019
6012 Clear 27 1014 18 10000 2.1 250 22:58 22.12.2019
6013 Clear 24 1014 19 10000 2.6 240 22:39 22.12.2019
6014 Clear 24 1014 19 10000 2.6 240 22:19 22.12.2019
6015 Clear 24 1014 18 10000 2.6 300 21:57 22.12.2019
6016 Clear 24 1013 19 10000 2.1 280 21:39 22.12.2019
6017 Clear 24 1013 19 10000 2.1 280 21:21 22.12.2019
6018 Clear 24 1013 19 10000 3.1 290 20:57 22.12.2019
6019 Clear 24 1013 17 10000 2.1 290 20:38 22.12.2019
6020 Clear 24 1013 17 10000 2.1 290 20:18 22.12.2019
6021 Clear 25 1013 18 10000 2.1 250 19:55 22.12.2019
6022 Clear 25 1013 18 10000 2.1 250 19:55 22.12.2019
6023 Clear 25 1012 16 10000 2.6 230 19:37 22.12.2019
6024 Clear 25 1012 16 10000 2.6 230 19:18 22.12.2019
6025 Clear 27 1012 13 10000 5 47 18:40 22.12.2019
6026 Clear 27 1012 13 10000 5 47 18:22 22.12.2019
6027 Clear 27 1013 13 10000 5 47 17:55 22.12.2019
6028 Clear 28 1013 13 10000 2.1 90 17:37 22.12.2019
6029 Clear 28 1013 13 10000 2.1 90 17:18 22.12.2019
6030 Clear 29 1013 13 10000 2.6 60 16:56 22.12.2019
6031 Clear 30 1013 12 10000 2.6 60 16:37 22.12.2019
6032 Clear 30 1013 12 10000 2.6 60 16:19 22.12.2019
6033 Clear 31 1013 11 10000 3.1 70 15:55 22.12.2019
6034 Clear 31 1013 11 10000 2.6 60 15:36 22.12.2019
6035 Clear 31 1013 11 10000 2.6 60 15:18 22.12.2019
6036 Clear 32 1013 11 10000 2.6 60 14:39 22.12.2019
6037 Clear 32 1013 11 10000 2.6 60 14:20 22.12.2019
6038 Clear 33 1013 10 10000 3.6 90 13:57 22.12.2019
6039 Clear 34 1012 10 10000 3.6 90 13:38 22.12.2019
6040 Clear 34 1012 10 10000 3.6 90 13:20 22.12.2019
6041 Clear 35 1012 9 10000 3.6 80 12:57 22.12.2019
6042 Clear 36 1012 8 10000 4.6 90 12:39 22.12.2019
6043 Clear 36 1012 8 10000 4.6 90 12:20 22.12.2019
6044 Clear 38 1011 8 10000 5.1 90 11:59 22.12.2019
6045 Clear 38 1011 11 10000 6.2 90 11:39 22.12.2019
6046 Clear 38 1011 8 10000 6.2 90 11:20 22.12.2019
6047 Clear 39 1010 9 10000 5.7 90 10:58 22.12.2019
6048 Clear 40 1010 8 10000 7.2 90 10:40 22.12.2019
6049 Clear 40 1010 8 10000 7.2 90 10:20 22.12.2019
6050 Clear 41 1010 9 10000 7.2 100 09:58 22.12.2019
6051 Clear 41 1010 8 10000 6.7 90 09:40 22.12.2019
6052 Clear 41 1010 8 10000 6.7 90 09:21 22.12.2019
6053 Clear 41 1010 9 10000 7.7 60 08:45 22.12.2019
6054 Clear 42 1010 8 10000 6.7 70 08:23 22.12.2019
6055 Clear 42 1010 8 10000 8.7 90 07:50 22.12.2019
6056 Clear 42 1010 9 10000 7.7 110 07:22 22.12.2019
6057 Clear 42 1010 9 10000 11.8 90 06:57 22.12.2019
6058 Clear 42 1010 9 10000 7.7 110 06:27 22.12.2019
6059 Clear 42 1011 9 10000 8.2 120 05:43 22.12.2019
6060 Clear 42 1011 9 10000 8.7 80 05:21 22.12.2019
6061 Clear 41 1012 9 10000 9.3 100 04:27 22.12.2019
6062 Clear 40 1013 10 10000 6.7 90 03:24 22.12.2019
6063 Clear 39 1013 10 10000 5.1 140 02:34 22.12.2019
6064 Clear 38 1014 11 10000 4.6 60 01:32 22.12.2019
6065 Clear 37 1014 11 10000 4.6 50 00:57 22.12.2019
6066 Clear 34 1014 12 10000 1.5 110 00:38 22.12.2019
6067 Clear 34 1014 12 10000 1.5 110 00:20 22.12.2019
6068 Clear 29 1014 20 10000 1.5 210 23:41 21.12.2019
6069 Clear 29 1014 20 10000 1.5 210 23:22 21.12.2019
6070 Clear 27 1014 21 10000 5.78 40 22:57 21.12.2019
6071 Clear 25 1013 22 10000 5.78 40 22:39 21.12.2019
6072 Clear 25 1013 22 10000 5.78 40 22:18 21.12.2019
6073 Clear 25 1013 22 10000 5.78 40 22:18 21.12.2019
6074 Clear 24 1013 22 10000 5.78 40 21:55 21.12.2019
6075 Clear 25 1013 20 10000 1 20 21:36 21.12.2019
6076 Clear 25 1013 20 10000 1 20 21:18 21.12.2019
6077 Clear 25 1012 17 10000 2.1 120 20:57 21.12.2019
6078 Clear 25 1012 17 10000 5.9 42 20:37 21.12.2019
6079 Clear 25 1012 16 10000 5.67 53 20:19 21.12.2019
6080 Clear 26 1012 16 10000 5.67 53 19:55 21.12.2019
6081 Clear 26 1012 16 10000 5.67 53 19:36 21.12.2019
6082 Clear 26 1012 16 10000 5.67 53 19:18 21.12.2019
6083 Clear 26 1011 16 10000 5.67 53 18:41 21.12.2019
6084 Clear 27 1011 15 10000 5.67 53 18:23 21.12.2019
6085 Clear 27 1011 15 10000 5.67 53 18:23 21.12.2019
6086 Clear 28 1011 15 10000 5.67 53 17:56 21.12.2019
6087 Clear 29 1012 14 10000 1.5 10 17:38 21.12.2019
6088 Clear 29 1012 14 10000 1.5 10 17:20 21.12.2019
6089 Clear 29 1011 13 10000 2.6 60 16:57 21.12.2019
6090 Clear 31 1012 12 10000 4.1 80 16:38 21.12.2019
6091 Clear 31 1012 12 10000 4.1 80 16:18 21.12.2019
6092 Clear 31 1012 13 10000 4.6 90 15:55 21.12.2019
6093 Clear 31 1012 13 10000 4.6 100 15:37 21.12.2019
6094 Clear 31 1012 13 10000 4.6 100 15:18 21.12.2019
6095 Clear 32 1012 13 10000 3.6 100 14:41 21.12.2019
6096 Clear 33 1012 12 10000 3.1 90 14:23 21.12.2019
6097 Clear 34 1012 12 10000 3.6 90 13:58 21.12.2019
6098 Clear 34 1012 12 10000 3.6 90 13:58 21.12.2019
6099 Clear 34 1012 12 10000 3.1 80 13:39 21.12.2019
6100 Clear 34 1012 12 10000 3.1 80 13:19 21.12.2019
6101 Clear 35 1011 12 10000 3.1 100 12:56 21.12.2019
6102 Clear 37 1011 11 10000 4.1 100 12:38 21.12.2019
6103 Clear 37 1011 11 10000 4.1 100 12:19 21.12.2019
6104 Clear 37 1011 11 10000 4.6 90 11:46 21.12.2019
6105 Clear 39 1010 10 10000 4.6 90 11:27 21.12.2019
6106 Clear 40 1010 10 10000 6.7 90 10:58 21.12.2019
6107 Clear 41 1009 9 10000 6.7 100 10:39 21.12.2019
6108 Clear 41 1009 9 10000 6.7 100 10:21 21.12.2019
6109 Clear 41 1009 9 10000 6.7 110 09:57 21.12.2019
6110 Clear 42 1009 8 10000 7.2 90 09:39 21.12.2019
6111 Clear 42 1009 8 10000 7.2 90 09:39 21.12.2019
6112 Clear 42 1009 8 10000 7.2 90 09:19 21.12.2019
6113 Clear 42 1009 8 10000 5.7 100 08:46 21.12.2019
6114 Clear 42 1009 8 10000 6.7 70 08:26 21.12.2019
6115 Clear 42 1009 9 10000 6.7 90 07:47 21.12.2019
6116 Clear 42 1009 9 10000 6.7 110 07:23 21.12.2019
6117 Clear 41 1009 10 10000 9.8 110 06:47 21.12.2019
6118 Clear 42 1010 9 10000 8.7 70 06:28 21.12.2019
6119 Clear 42 1010 9 10000 8.7 110 05:58 21.12.2019
6120 Clear 41 1011 11 10000 8.2 100 04:59 21.12.2019
6121 Clear 41 1012 11 10000 8.7 110 04:33 21.12.2019
6122 Clear 40 1012 11 10000 6.7 100 03:56 21.12.2019
6123 Clouds 39 1013 14 10000 6.2 60 02:19 21.12.2019
6124 Clouds 37 1014 14 10000 5.7 110 01:41 21.12.2019
6125 Clouds 37 1014 14 10000 5.7 110 01:23 21.12.2019
6126 Clear 36 1014 19 10000 6.7 130 00:39 21.12.2019
6127 Clear 36 1014 19 10000 6.7 130 00:19 21.12.2019
6128 Clear 34 1013 23 10000 4.1 110 23:38 20.12.2019
6129 Clear 34 1013 23 10000 4.1 110 23:19 20.12.2019
6130 Clear 31 1013 27 10000 2.1 150 22:57 20.12.2019
6131 Clear 28 1013 34 10000 2.1 180 22:36 20.12.2019
6132 Clear 28 1013 34 10000 2.1 180 22:18 20.12.2019
6133 Clear 27 1012 39 10000 3.6 190 21:40 20.12.2019
6134 Clear 27 1011 32 10000 2.6 110 21:20 20.12.2019
6135 Clear 28 1011 32 10000 2.6 70 20:56 20.12.2019
6136 Clear 29 1010 30 10000 2.6 30 20:36 20.12.2019
6137 Clouds 29 1010 30 10000 2.6 30 20:18 20.12.2019
6138 Clouds 29 1010 30 10000 2.1 50 19:42 20.12.2019
6139 Clouds 29 1010 30 10000 2.1 60 19:20 20.12.2019
6140 Clouds 29 1010 30 10000 2.6 30 18:58 20.12.2019
6141 Clouds 29 1010 30 10000 0.5 10 18:38 20.12.2019
6142 Clouds 29 1010 30 10000 0.5 10 18:20 20.12.2019
6143 Clouds 31 1011 29 10000 2.6 360 17:54 20.12.2019
6144 Clouds 31 1011 29 10000 2.6 360 17:36 20.12.2019
6145 Clouds 31 1011 29 10000 2.6 360 17:18 20.12.2019
6146 Clouds 32 1011 27 10000 2.6 130 16:40 20.12.2019
6147 Clouds 32 1011 27 10000 2.6 130 16:20 20.12.2019
6148 Clouds 33 1012 26 10000 3.6 130 15:57 20.12.2019
6149 Clouds 34 1012 23 10000 6.2 160 15:39 20.12.2019
6150 Clouds 34 1012 23 10000 6.2 160 15:20 20.12.2019
6151 Clouds 33 1011 27 10000 8.7 170 14:58 20.12.2019
6152 Clouds 34 1011 21 10000 2.1 350 14:39 20.12.2019
6153 Rain 34 1011 21 10000 2.1 350 14:21 20.12.2019
6154 Rain 35 1009 19 10000 6.2 350 13:42 20.12.2019
6155 Rain 35 1009 19 10000 6.2 350 13:21 20.12.2019
6156 Rain 35 1009 21 10000 9.3 350 12:59 20.12.2019
6157 Rain 37 1010 16 10000 7.7 350 12:41 20.12.2019
6158 Rain 37 1010 16 10000 7.7 350 12:19 20.12.2019
6159 Rain 36 1009 14 10000 2.6 20 11:59 20.12.2019
6160 Rain 36 1009 16 10000 2.1 90 11:39 20.12.2019
6161 Rain 36 1009 16 10000 2.1 90 11:20 20.12.2019
6162 Rain 38 1008 13 10000 2.6 120 10:59 20.12.2019
6163 Clouds 38 1008 13 10000 2.1 290 10:41 20.12.2019
6164 Clouds 38 1008 13 10000 2.1 290 10:20 20.12.2019
6165 Rain 38 1008 13 10000 8.2 360 09:55 20.12.2019
6166 Rain 36 1010 18 10000 7.7 340 09:37 20.12.2019
6167 Rain 36 1010 18 10000 7.7 340 09:19 20.12.2019
6168 Clouds 38 1009 15 10000 10.8 60 08:42 20.12.2019
6169 Clouds 38 1009 15 10000 10.8 60 08:22 20.12.2019
6170 Clouds 39 1008 14 6000 11.8 130 07:58 20.12.2019
6171 Clouds 40 1008 12 10000 6.2 60 07:40 20.12.2019
6172 Clouds 40 1008 12 10000 6.2 60 07:19 20.12.2019
6173 Clouds 41 1007 12 10000 7.2 10 06:51 20.12.2019
6174 Clouds 42 1008 11 10000 4.6 30 06:31 20.12.2019
6175 Clouds 43 1008 10 10000 5.7 60 05:53 20.12.2019
6176 Clouds 44 1008 11 10000 4.6 70 05:34 20.12.2019
6177 Clouds 43 1009 10 10000 5.1 280 04:30 20.12.2019
6178 Clouds 42 1010 13 10000 3.6 290 03:29 20.12.2019
6179 Clouds 41 1011 12 10000 1.5 340 02:41 20.12.2019
6180 Clouds 40 1011 12 10000 2.6 350 01:44 20.12.2019
6181 Clouds 40 1012 12 10000 2.1 350 01:18 20.12.2019
6182 Clouds 37 1012 13 10000 2.6 10 00:41 20.12.2019
6183 Clouds 37 1012 13 10000 2.6 10 00:20 20.12.2019
6184 Clouds 36 1011 14 10000 4.1 60 23:43 19.12.2019
6185 Clouds 36 1011 14 10000 4.1 60 23:24 19.12.2019
6186 Clear 35 1011 16 10000 4.1 70 22:56 19.12.2019
6187 Clear 31 1010 20 10000 1.5 250 22:36 19.12.2019
6188 Clear 31 1010 20 10000 1.5 250 22:18 19.12.2019
6189 Clear 30 1009 20 10000 3.1 30 21:42 19.12.2019
6190 Clear 30 1009 20 10000 3.1 30 21:42 19.12.2019
6191 Clear 30 1009 20 10000 3.1 30 21:20 19.12.2019
6192 Clear 31 1009 19 10000 3.1 10 20:59 19.12.2019
6193 Clear 32 1009 19 10000 4.6 10 20:39 19.12.2019
6194 Clouds 32 1009 19 10000 4.6 10 20:21 19.12.2019
6195 Clouds 32 1009 19 10000 4.1 360 19:59 19.12.2019
6196 Clouds 32 1008 18 10000 3.6 360 19:40 19.12.2019
6197 Clouds 32 1008 18 10000 3.6 360 19:20 19.12.2019
6198 Clouds 30 1008 20 10000 2.6 10 18:59 19.12.2019
6199 Clouds 31 1008 18 10000 2.1 350 18:40 19.12.2019
6200 Clouds 31 1008 18 10000 2.1 350 18:40 19.12.2019
6201 Clouds 31 1008 18 10000 2.1 350 18:20 19.12.2019
6202 Clouds 33 1008 17 10000 3.1 320 17:56 19.12.2019
6203 Clouds 34 1009 17 10000 2.1 340 17:38 19.12.2019
6204 Clouds 34 1009 17 10000 2.1 340 17:18 19.12.2019
6205 Clouds 34 1009 16 10000 2.6 340 16:56 19.12.2019
6206 Clouds 34 1009 16 10000 2.6 340 16:56 19.12.2019
6207 Clouds 34 1009 15 10000 4.6 330 16:38 19.12.2019
6208 Clouds 34 1009 15 10000 4.6 330 16:19 19.12.2019
6209 Clouds 35 1009 14 10000 4.1 350 15:58 19.12.2019
6210 Clouds 35 1010 14 10000 3.6 340 15:38 19.12.2019
6211 Clouds 35 1010 14 10000 3.6 340 15:19 19.12.2019
6212 Clouds 36 1010 12 10000 3.1 350 14:57 19.12.2019
6213 Clouds 37 1010 12 10000 3.6 30 14:38 19.12.2019
6214 Clouds 38 1010 10 10000 4.6 20 14:18 19.12.2019
6215 Clouds 37 1009 19 10000 4.1 90 13:39 19.12.2019
6216 Clouds 37 1009 22 10000 4.1 90 13:20 19.12.2019
6217 Clouds 38 1009 9 10000 3.1 70 12:58 19.12.2019
6218 Clouds 38 1009 22 10000 2.6 60 12:40 19.12.2019
6219 Clouds 38 1009 22 10000 2.6 60 12:19 19.12.2019
6220 Clouds 38 1009 22 10000 2.6 60 12:19 19.12.2019
6221 Clouds 40 1008 7 10000 3.6 120 11:59 19.12.2019
6222 Clouds 41 1008 22 10000 2.1 50 11:40 19.12.2019
6223 Clouds 42 1008 6 10000 2.6 360 11:18 19.12.2019
6224 Clouds 42 1008 6 10000 2.6 360 10:58 19.12.2019
6225 Clouds 42 1008 6 10000 2.6 360 10:58 19.12.2019
6226 Clouds 42 1007 6 10000 6.2 350 10:38 19.12.2019
6227 Clouds 42 1007 6 10000 6.2 350 10:20 19.12.2019
6228 Clouds 43 1007 6 10000 4.1 150 09:56 19.12.2019
6229 Clouds 43 1007 6 10000 3.1 60 09:37 19.12.2019
6230 Clouds 43 1007 6 10000 3.1 60 09:18 19.12.2019
6231 Clouds 43 1007 6 10000 4.6 110 08:55 19.12.2019
6232 Clouds 44 1007 5 10000 4.1 110 08:36 19.12.2019
6233 Clouds 44 1007 5 10000 4.1 110 08:18 19.12.2019
6234 Clouds 44 1007 6 10000 6.7 90 07:40 19.12.2019
6235 Clouds 44 1007 6 10000 6.7 90 07:22 19.12.2019
6236 Clouds 44 1007 5 10000 4.1 140 06:52 19.12.2019
6237 Clouds 44 1007 5 10000 4.1 140 06:52 19.12.2019
6238 Clouds 44 1008 5 10000 4.1 130 06:33 19.12.2019
6239 Clouds 43 1008 6 10000 3.6 190 05:59 19.12.2019
6240 Clouds 44 1008 5 10000 4.1 180 05:41 19.12.2019
6241 Clouds 44 1008 5 10000 4.1 180 05:18 19.12.2019
6242 Clouds 42 1010 6 10000 2.6 20 03:46 19.12.2019
6243 Clouds 41 1011 9 10000 4.6 20 02:25 19.12.2019
6244 Clouds 39 1011 11 10000 3.6 20 01:24 19.12.2019
6245 Clouds 34 1011 18 10000 1.5 360 00:45 19.12.2019
6246 Clouds 34 1011 18 10000 1.5 360 00:25 19.12.2019
6247 Clouds 33 1011 18 10000 0.5 360 23:59 18.12.2019
6248 Clouds 31 1011 20 10000 2.1 210 23:41 18.12.2019
6249 Clouds 31 1011 20 10000 2.1 210 23:19 18.12.2019
6250 Clouds 29 1011 23 10000 1 260 22:56 18.12.2019
6251 Clouds 26 1010 27 10000 2.6 350 22:37 18.12.2019
6252 Clouds 26 1010 27 10000 2.6 350 22:19 18.12.2019
6253 Clouds 26 1010 27 10000 2.82 87 21:57 18.12.2019
6254 Clouds 27 1009 28 10000 1.5 260 21:39 18.12.2019
6255 Clouds 27 1009 28 10000 1.5 260 21:19 18.12.2019
6256 Clouds 26 1009 26 10000 2.1 240 20:55 18.12.2019
6257 Clouds 28 1009 24 10000 2.1 30 20:37 18.12.2019
6258 Clouds 28 1009 24 10000 2.1 30 20:19 18.12.2019
6259 Clear 30 1009 22 10000 3.6 350 19:55 18.12.2019
6260 Clear 29 1009 23 10000 3.6 350 19:37 18.12.2019
6261 Clear 29 1009 23 10000 3.6 350 19:18 18.12.2019
6262 Clear 29 1009 23 10000 3.6 350 19:18 18.12.2019
6263 Clear 30 1009 22 10000 2.1 30 18:44 18.12.2019
6264 Clear 30 1009 22 10000 2.1 30 18:25 18.12.2019
6265 Clear 32 1009 21 10000 2.1 20 17:57 18.12.2019
6266 Clear 31 1010 20 10000 3.1 350 17:39 18.12.2019
6267 Clear 31 1010 20 10000 3.1 350 17:19 18.12.2019
6268 Clear 31 1010 20 10000 3.1 350 17:19 18.12.2019
6269 Clear 31 1010 22 10000 2.6 10 16:56 18.12.2019
6270 Clear 32 1010 22 10000 2.1 360 16:38 18.12.2019
6271 Clear 32 1010 22 10000 2.1 360 16:20 18.12.2019
6272 Clear 33 1010 19 10000 1 260 15:55 18.12.2019
6273 Clear 33 1010 18 10000 1.5 310 15:37 18.12.2019
6274 Clear 33 1010 18 10000 1.5 310 15:18 18.12.2019
6275 Clear 36 1010 16 10000 2.6 350 14:40 18.12.2019
6276 Clouds 36 1010 16 10000 2.6 350 14:21 18.12.2019
6277 Clouds 37 1010 14 10000 3.1 320 13:57 18.12.2019
6278 Clouds 38 1010 14 10000 5.1 340 13:38 18.12.2019
6279 Clouds 38 1010 14 10000 5.1 340 13:19 18.12.2019
6280 Clouds 37 1010 10 10000 3.6 10 12:57 18.12.2019
6281 Clouds 38 1009 8 10000 3.1 140 12:38 18.12.2019
6282 Clouds 38 1009 8 10000 3.1 140 12:19 18.12.2019
6283 Clouds 39 1009 8 10000 3.6 150 11:55 18.12.2019
6284 Clouds 39 1009 8 10000 3.6 150 11:55 18.12.2019
6285 Clouds 40 1009 7 10000 3.1 130 11:37 18.12.2019
6286 Clouds 40 1009 7 10000 3.1 130 11:18 18.12.2019
6287 Clouds 41 1008 6 10000 4.1 130 10:55 18.12.2019
6288 Clouds 41 1008 7 10000 4.1 110 10:37 18.12.2019
6289 Clouds 41 1008 7 10000 4.1 110 10:19 18.12.2019
6290 Clouds 42 1008 6 10000 3.1 70 09:43 18.12.2019
6291 Clouds 42 1008 6 10000 3.1 70 09:18 18.12.2019
6292 Clouds 42 1008 6 10000 5.1 80 08:40 18.12.2019
6293 Clouds 42 1008 6 10000 5.1 80 08:21 18.12.2019
6294 Clouds 43 1008 9 10000 6.7 40 07:43 18.12.2019
6295 Clouds 44 1008 5 10000 4.6 140 07:23 18.12.2019
6296 Clouds 43 1008 6 10000 6.2 90 06:55 18.12.2019
6297 Clouds 43 1009 9 10000 3.1 20 06:27 18.12.2019
6298 Clouds 44 1009 9 10000 5.1 90 05:47 18.12.2019
6299 Clouds 43 1010 10 10000 8.2 70 04:52 18.12.2019
6300 Clouds 41 1012 7 10000 9.8 60 02:55 18.12.2019
6301 Clouds 41 1012 6 10000 9.8 70 02:36 18.12.2019
6302 Clouds 41 1012 6 10000 9.8 70 02:18 18.12.2019
6303 Clouds 41 1012 14 10000 9.3 60 01:40 18.12.2019
6304 Clouds 41 1012 11 10000 9.3 60 01:21 18.12.2019
6305 Clouds 38 1012 8 10000 9.3 60 00:40 18.12.2019
6306 Clouds 38 1012 8 10000 9.3 60 00:22 18.12.2019
6307 Clouds 37 1012 9 10000 8.2 70 23:56 17.12.2019
6308 Clouds 36 1012 8 10000 5.7 80 23:37 17.12.2019
6309 Clouds 36 1012 8 10000 5.7 80 23:18 17.12.2019
6310 Clouds 36 1012 8 10000 5.7 80 23:18 17.12.2019
6311 Clouds 33 1012 11 10000 4.6 80 22:55 17.12.2019
6312 Clouds 30 1011 12 10000 3.6 80 22:37 17.12.2019
6313 Clouds 30 1011 12 10000 3.6 80 22:18 17.12.2019
6314 Clouds 24 1011 14 10000 0.5 140 21:55 17.12.2019
6315 Clouds 24 1011 14 10000 0.5 140 21:55 17.12.2019
6316 Clouds 24 1011 14 10000 0.5 140 21:55 17.12.2019
6317 Clouds 22 1011 14 10000 1 220 21:36 17.12.2019
6318 Clouds 22 1011 14 10000 1 220 21:18 17.12.2019
6319 Clouds 23 1011 12 10000 6.24 87 20:55 17.12.2019
6320 Clouds 25 1010 13 10000 6.24 87 20:37 17.12.2019
6321 Clouds 25 1010 13 10000 5.07 106 20:18 17.12.2019
6322 Clouds 25 1010 13 10000 5.07 106 19:41 17.12.2019
6323 Clouds 25 1010 13 10000 5.07 106 19:20 17.12.2019
6324 Clouds 25 1010 13 10000 1 270 18:58 17.12.2019
6325 Clouds 25 1010 13 10000 5.07 106 18:40 17.12.2019
6326 Clouds 25 1010 13 10000 5.07 106 18:21 17.12.2019
6327 Clouds 27 1010 11 10000 5.07 106 17:58 17.12.2019
6328 Clouds 27 1010 11 10000 2.1 300 17:39 17.12.2019
6329 Clouds 27 1010 11 10000 2.1 300 17:19 17.12.2019
6330 Clouds 27 1011 10 10000 5.78 90 16:56 17.12.2019
6331 Clouds 29 1011 9 10000 5.78 90 16:37 17.12.2019
6332 Clouds 29 1011 9 10000 5.78 90 16:18 17.12.2019
6333 Clouds 29 1011 9 10000 0.5 30 15:55 17.12.2019
6334 Clouds 32 1011 9 10000 2.6 50 15:36 17.12.2019
6335 Clouds 32 1011 9 10000 2.6 50 15:18 17.12.2019
6336 Clouds 31 1011 10 10000 2.6 50 14:54 17.12.2019
6337 Clouds 32 1011 8 10000 3.1 130 14:36 17.12.2019
6338 Clouds 32 1011 8 10000 3.1 130 14:36 17.12.2019
6339 Clouds 32 1011 8 10000 3.1 130 14:18 17.12.2019
6340 Clouds 32 1011 8 10000 3.6 140 13:54 17.12.2019
6341 Clouds 33 1011 7 10000 3.1 150 13:36 17.12.2019
6342 Clouds 33 1011 7 10000 3.1 150 13:18 17.12.2019
6343 Clouds 35 1010 8 10000 3.6 150 12:39 17.12.2019
6344 Clouds 35 1010 8 10000 3.6 150 12:19 17.12.2019
6345 Clouds 36 1010 7 10000 3.6 150 11:59 17.12.2019
6346 Clouds 38 1010 5 10000 3.6 150 11:37 17.12.2019
6347 Clouds 40 1009 5 10000 3.6 120 11:19 17.12.2019
6348 Clouds 40 1009 5 10000 3.6 120 10:58 17.12.2019
6349 Clouds 41 1009 5 10000 3.6 110 10:39 17.12.2019
6350 Clouds 41 1009 5 10000 3.6 110 10:20 17.12.2019
6351 Clouds 41 1009 5 10000 3.6 120 09:58 17.12.2019
6352 Clouds 41 1009 5 10000 3.6 120 09:40 17.12.2019
6353 Clouds 41 1009 5 10000 3.6 120 09:19 17.12.2019
6354 Clouds 41 1008 5 10000 4.6 100 08:55 17.12.2019
6355 Clouds 41 1008 5 10000 4.6 170 08:36 17.12.2019
6356 Clouds 41 1008 5 10000 4.6 170 08:18 17.12.2019
6357 Clouds 42 1009 4 10000 5.1 140 07:42 17.12.2019
6358 Clouds 42 1009 4 10000 5.1 140 07:23 17.12.2019
6359 Clouds 42 1009 6 10000 3.6 90 06:53 17.12.2019
6360 Clouds 43 1009 6 10000 6.2 110 06:32 17.12.2019
6361 Clouds 41 1010 5 10000 2.6 110 05:50 17.12.2019
6362 Clouds 41 1010 5 10000 2.6 110 05:50 17.12.2019
6363 Clouds 41 1010 5 10000 2.6 110 05:31 17.12.2019
6364 Clouds 40 1011 6 10000 4.1 130 04:00 17.12.2019
6365 Clouds 40 1012 7 10000 6.7 100 02:26 17.12.2019
6366 Clouds 37 1013 9 10000 7.7 90 01:22 17.12.2019
6367 Clouds 36 1013 8 10000 7.7 80 00:48 17.12.2019
6368 Clouds 35 1013 8 10000 3.1 90 00:22 17.12.2019
6369 Clouds 31 1013 10 10000 6.19 95 23:58 16.12.2019
6370 Clouds 29 1013 10 10000 1.5 300 23:40 16.12.2019
6371 Clouds 26 1013 12 10000 1.5 270 23:18 16.12.2019
6372 Clouds 26 1013 12 10000 1.5 270 22:54 16.12.2019
6373 Clouds 22 1013 14 10000 1.5 290 22:36 16.12.2019
6374 Clouds 22 1013 14 10000 1.5 290 22:18 16.12.2019
6375 Clouds 21 1012 15 10000 2.1 310 21:54 16.12.2019
6376 Clouds 20 1012 16 10000 2.6 310 21:36 16.12.2019
6377 Clouds 20 1012 16 10000 2.6 310 21:36 16.12.2019
6378 Clouds 20 1012 16 10000 2.6 310 21:18 16.12.2019
6379 Clouds 21 1011 15 10000 2.1 300 20:55 16.12.2019
6380 Clouds 22 1011 14 10000 2.1 300 20:37 16.12.2019
6381 Clouds 22 1011 14 10000 2.1 300 20:18 16.12.2019
6382 Clear 22 1011 14 10000 2.1 300 20:18 16.12.2019
6383 Clouds 21 1011 15 10000 2.1 290 19:54 16.12.2019
6384 Clouds 23 1011 13 10000 2.1 320 19:36 16.12.2019
6385 Clouds 23 1011 13 10000 2.1 320 19:18 16.12.2019
6386 Clouds 23 1011 13 10000 1.5 340 18:42 16.12.2019
6387 Clouds 23 1011 13 10000 4.09 96 18:20 16.12.2019
6388 Clouds 23 1011 13 10000 4.09 96 18:20 16.12.2019
6389 Clouds 23 1011 13 10000 4.09 96 17:59 16.12.2019
6390 Clouds 24 1011 14 10000 1.5 330 17:40 16.12.2019
6391 Clouds 24 1011 14 10000 1.5 330 17:40 16.12.2019
6392 Clouds 24 1011 14 10000 1.5 330 17:21 16.12.2019
6393 Clouds 25 1011 12 10000 1.5 350 16:58 16.12.2019
6394 Clouds 26 1011 13 10000 1.5 360 16:39 16.12.2019
6395 Clouds 26 1011 13 10000 1.5 360 16:20 16.12.2019
6396 Clouds 27 1012 11 10000 1.5 360 15:59 16.12.2019
6397 Clouds 27 1012 10 10000 1.5 10 15:39 16.12.2019
6398 Clouds 27 1012 10 10000 1.5 10 15:21 16.12.2019
6399 Clouds 29 1012 10 10000 2.1 90 14:57 16.12.2019
6400 Clouds 29 1012 9 10000 0.5 140 14:37 16.12.2019
6401 Clouds 29 1012 9 10000 0.5 140 14:37 16.12.2019
6402 Clouds 29 1012 9 10000 0.5 140 14:37 16.12.2019
6403 Clouds 29 1012 9 10000 0.5 140 14:19 16.12.2019
6404 Clouds 30 1012 9 10000 2.1 160 13:56 16.12.2019
6405 Clouds 31 1011 9 10000 3.1 150 13:38 16.12.2019
6406 Clouds 31 1011 9 10000 3.1 150 13:19 16.12.2019
6407 Clouds 32 1011 8 10000 3.6 160 12:58 16.12.2019
6408 Clouds 33 1011 9 10000 3.6 150 12:39 16.12.2019
6409 Clouds 33 1011 9 10000 3.6 150 12:19 16.12.2019
6410 Clouds 34 1010 7 10000 3.6 150 11:58 16.12.2019
6411 Clouds 36 1010 7 10000 3.6 140 11:40 16.12.2019
6412 Clouds 36 1010 7 10000 3.6 140 11:20 16.12.2019
6413 Clouds 38 1010 6 10000 4.1 140 10:57 16.12.2019
6414 Clouds 38 1009 7 10000 4.1 110 10:38 16.12.2019
6415 Clouds 38 1009 7 10000 4.1 110 10:19 16.12.2019
6416 Clouds 39 1009 6 10000 4.1 130 09:45 16.12.2019
6417 Clouds 39 1009 6 10000 5.7 130 09:27 16.12.2019
6418 Clouds 39 1009 6 10000 4.6 180 08:41 16.12.2019
6419 Clear 39 1009 6 10000 4.6 180 08:21 16.12.2019
6420 Clear 39 1009 6 10000 4.6 130 07:59 16.12.2019
6421 Clear 40 1009 4 10000 2.6 80 07:41 16.12.2019
6422 Clear 40 1009 4 10000 2.6 80 07:20 16.12.2019
6423 Clear 39 1010 6 10000 4.1 190 06:41 16.12.2019
6424 Clear 39 1010 6 10000 4.1 190 06:22 16.12.2019
6425 Clear 38 1011 5 10000 5.1 130 05:47 16.12.2019
6426 Clear 38 1011 5 10000 5.1 130 05:29 16.12.2019
6427 Clear 37 1013 6 10000 4.1 70 03:41 16.12.2019
6428 Clear 35 1013 8 10000 3.6 30 01:57 16.12.2019
6429 Clear 34 1014 9 10000 3.1 40 01:39 16.12.2019
6430 Clear 33 1014 9 10000 3.1 50 00:41 16.12.2019
6431 Clear 33 1014 9 10000 3.1 50 00:23 16.12.2019
6432 Clear 29 1014 9 10000 5.38 77 23:58 15.12.2019
6433 Clear 26 1013 9 10000 5.38 77 23:37 15.12.2019
6434 Clear 24 1013 9 10000 3.5 61 23:19 15.12.2019
6435 Clear 24 1013 9 10000 3.5 61 22:54 15.12.2019
6436 Clear 20 1012 12 10000 2.1 80 22:36 15.12.2019
6437 Clear 20 1012 12 10000 2.1 80 22:18 15.12.2019
6438 Clear 20 1012 12 10000 2.1 80 22:18 15.12.2019
6439 Clear 17 1012 12 10000 3.1 100 21:54 15.12.2019
6440 Clear 17 1012 13 10000 2.1 170 21:36 15.12.2019
6441 Clear 17 1012 13 10000 2.1 170 21:18 15.12.2019
6442 Clear 18 1011 12 10000 1.5 290 20:54 15.12.2019
6443 Clear 19 1011 13 10000 0.5 130 20:36 15.12.2019
6444 Clear 19 1011 13 10000 0.5 130 20:18 15.12.2019
6445 Clear 19 1011 12 10000 4.07 78 19:54 15.12.2019
6446 Clear 19 1011 12 10000 4.07 78 19:54 15.12.2019
6447 Clear 19 1011 12 10000 4.3 79 19:36 15.12.2019
6448 Clear 19 1011 12 10000 4.3 79 19:18 15.12.2019
6449 Clear 19 1011 12 10000 4.07 78 18:54 15.12.2019
6450 Clear 19 1011 12 10000 2.6 120 18:36 15.12.2019
6451 Clear 22 1011 10 10000 2.6 130 18:18 15.12.2019
6452 Clear 22 1011 10 10000 2.6 130 17:54 15.12.2019
6453 Clear 21 1011 10 10000 4.07 78 17:36 15.12.2019
6454 Clear 21 1011 10 10000 5.24 95 17:18 15.12.2019
6455 Clear 22 1012 10 10000 5.41 93 16:42 15.12.2019
6456 Clear 22 1012 10 10000 5.41 93 16:22 15.12.2019
6457 Clear 23 1012 11 10000 5.41 93 15:57 15.12.2019
6458 Clear 23 1012 11 10000 5.41 93 15:38 15.12.2019
6459 Clear 23 1012 11 10000 5.24 95 15:19 15.12.2019
6460 Clear 23 1012 11 10000 5.41 93 15:19 15.12.2019
6461 Clear 24 1012 9 10000 2.6 90 14:56 15.12.2019
6462 Clear 25 1012 9 10000 2.6 90 14:37 15.12.2019
6463 Clouds 25 1012 9 10000 2.6 90 14:19 15.12.2019
6464 Clouds 27 1012 9 10000 2.1 80 13:58 15.12.2019
6465 Clouds 28 1012 8 10000 2.6 130 13:38 15.12.2019
6466 Clouds 28 1012 8 10000 2.6 130 13:19 15.12.2019
6467 Clouds 29 1012 8 10000 2.6 120 12:57 15.12.2019
6468 Clouds 30 1011 7 10000 2.6 130 12:39 15.12.2019
6469 Clouds 30 1011 7 10000 2.6 130 12:39 15.12.2019
6470 Clouds 30 1011 7 10000 2.6 130 12:20 15.12.2019
6471 Clouds 31 1011 6 10000 3.6 130 11:56 15.12.2019
6472 Clouds 34 1011 5 10000 3.6 120 11:36 15.12.2019
6473 Clouds 35 1011 5 10000 3.6 130 11:18 15.12.2019
6474 Clouds 35 1011 5 10000 3.6 130 10:55 15.12.2019
6475 Clouds 36 1010 4 10000 3.1 160 10:36 15.12.2019
6476 Clouds 36 1010 4 10000 3.1 160 10:18 15.12.2019
6477 Clouds 37 1010 4 10000 5.7 170 09:40 15.12.2019
6478 Clouds 37 1010 4 10000 5.7 170 09:20 15.12.2019
6479 Clouds 38 1010 4 10000 4.6 140 08:58 15.12.2019
6480 Clouds 37 1010 4 10000 3.6 200 08:39 15.12.2019
6481 Clear 37 1010 4 10000 3.6 200 08:20 15.12.2019
6482 Clear 37 1010 4 10000 3.1 110 07:56 15.12.2019
6483 Clear 37 1010 4 10000 6.7 190 07:34 15.12.2019
6484 Clear 37 1011 4 10000 4.1 210 06:44 15.12.2019
6485 Clear 37 1011 6 10000 5.7 130 06:19 15.12.2019
6486 Clear 36 1012 6 10000 6.2 120 05:26 15.12.2019
6487 Clear 36 1012 6 10000 3.6 120 04:47 15.12.2019
6488 Clear 35 1013 6 10000 6.2 130 03:22 15.12.2019
6489 Clear 33 1014 8 10000 5.1 120 02:33 15.12.2019
6490 Clear 32 1014 8 10000 5.1 100 01:46 15.12.2019
6491 Clear 32 1014 8 10000 5.1 80 01:28 15.12.2019
6492 Clear 31 1015 9 10000 6.2 90 00:54 15.12.2019
6493 Clear 30 1015 9 10000 5.7 70 00:35 15.12.2019
6494 Clear 28 1015 10 10000 4.1 90 23:58 14.12.2019
6495 Clear 28 1015 10 10000 4.1 90 23:58 14.12.2019
6496 Clear 25 1015 12 10000 4.92 88 23:39 14.12.2019
6497 Clear 22 1014 14 10000 3.53 72 23:19 14.12.2019
6498 Clear 22 1014 14 10000 3.53 72 22:57 14.12.2019
6499 Clear 19 1014 19 10000 3.53 72 22:39 14.12.2019
6500 Clear 19 1014 19 10000 3.53 72 22:39 14.12.2019
6501 Clear 19 1014 19 10000 3.53 72 22:20 14.12.2019
6502 Clear 17 1014 20 10000 3.53 72 21:55 14.12.2019
6503 Clear 17 1014 20 10000 3.53 72 21:55 14.12.2019
6504 Clear 16 1014 23 10000 3.53 72 21:37 14.12.2019
6505 Clear 16 1014 23 10000 3.53 72 21:18 14.12.2019
6506 Clear 17 1013 20 10000 2.1 290 20:54 14.12.2019
6507 Clear 17 1013 20 10000 2.1 310 20:36 14.12.2019
6508 Clear 17 1013 20 10000 2.1 310 20:18 14.12.2019
6509 Clear 18 1013 17 10000 2.6 300 19:40 14.12.2019
6510 Clear 18 1013 17 10000 2.6 300 19:21 14.12.2019
6511 Clear 19 1013 17 10000 2.1 270 18:57 14.12.2019
6512 Clear 19 1013 16 10000 2.1 270 18:39 14.12.2019
6513 Clear 19 1013 16 10000 2.1 270 18:21 14.12.2019
6514 Clear 20 1013 16 10000 3.31 71 17:57 14.12.2019
6515 Clear 20 1013 16 10000 3.31 71 17:38 14.12.2019
6516 Clear 20 1013 16 10000 3.68 75 17:20 14.12.2019
6517 Clear 21 1013 15 10000 3.68 75 16:41 14.12.2019
6518 Clear 21 1013 15 10000 3.68 75 16:19 14.12.2019
6519 Clear 23 1014 12 10000 2.1 110 15:55 14.12.2019
6520 Clear 24 1014 13 10000 2.1 90 15:36 14.12.2019
6521 Clear 24 1014 13 10000 2.1 90 15:18 14.12.2019
6522 Clear 25 1014 12 10000 2.6 80 14:40 14.12.2019
6523 Clear 25 1014 12 10000 2.6 80 14:22 14.12.2019
6524 Clear 26 1014 10 10000 3.1 100 13:59 14.12.2019
6525 Clear 28 1014 10 10000 3.1 110 13:41 14.12.2019
6526 Clear 28 1014 10 10000 3.1 110 13:41 14.12.2019
6527 Clear 28 1014 10 10000 3.1 110 13:19 14.12.2019
6528 Clear 29 1014 9 10000 3.6 120 12:56 14.12.2019
6529 Clear 29 1014 9 10000 2.6 110 12:37 14.12.2019
6530 Clear 29 1014 9 10000 2.6 110 12:19 14.12.2019
6531 Clear 30 1014 9 10000 3.1 130 11:56 14.12.2019
6532 Clear 31 1013 9 10000 3.1 130 11:37 14.12.2019
6533 Clear 32 1013 8 10000 4.1 120 11:18 14.12.2019
6534 Clear 32 1013 8 10000 4.1 120 10:56 14.12.2019
6535 Clear 33 1013 9 10000 4.1 170 10:38 14.12.2019
6536 Clear 33 1013 9 10000 4.1 170 10:19 14.12.2019
6537 Clear 33 1013 9 10000 3.6 120 09:43 14.12.2019
6538 Clear 34 1013 9 10000 3.6 150 09:21 14.12.2019
6539 Clear 33 1013 10 10000 3.6 100 08:56 14.12.2019
6540 Clear 33 1013 10 10000 3.6 100 08:56 14.12.2019
6541 Clear 34 1013 10 10000 5.1 40 08:37 14.12.2019
6542 Clouds 34 1013 10 10000 5.1 40 08:18 14.12.2019
6543 Clouds 33 1014 17 10000 3.6 60 07:40 14.12.2019
6544 Clouds 33 1014 17 10000 3.6 60 07:40 14.12.2019
6545 Clouds 33 1014 13 10000 4.6 130 07:20 14.12.2019
6546 Clouds 33 1014 13 10000 4.6 100 06:45 14.12.2019
6547 Clouds 33 1014 13 10000 4.6 100 06:22 14.12.2019
6548 Clouds 31 1016 14 10000 4.6 60 05:35 14.12.2019
6549 Clouds 29 1017 14 10000 7.2 110 03:34 14.12.2019
6550 Clouds 29 1018 15 10000 7.2 80 02:23 14.12.2019
6551 Clouds 28 1018 15 10000 8.2 80 01:44 14.12.2019
6552 Clouds 27 1018 18 10000 4.1 110 00:58 14.12.2019
6553 Clouds 26 1018 22 10000 3.6 100 00:40 14.12.2019
6554 Clouds 26 1018 22 10000 3.6 100 00:19 14.12.2019
6555 Clouds 24 1017 31 10000 3.6 120 23:41 13.12.2019
6556 Clouds 24 1017 31 10000 3.6 120 23:19 13.12.2019
6557 Clouds 24 1017 29 10000 3.6 110 22:56 13.12.2019
6558 Clouds 23 1017 31 10000 2.1 80 22:37 13.12.2019
6559 Clouds 23 1017 31 10000 2.1 80 22:18 13.12.2019
6560 Clouds 24 1017 29 10000 2.1 160 21:42 13.12.2019
6561 Clouds 23 1017 31 10000 2.1 170 21:21 13.12.2019
6562 Clouds 24 1016 27 10000 1.5 160 20:58 13.12.2019
6563 Clouds 24 1016 27 10000 2.6 130 20:39 13.12.2019
6564 Clouds 24 1016 27 10000 2.6 130 20:19 13.12.2019
6565 Clouds 24 1016 27 10000 2.6 130 19:56 13.12.2019
6566 Clouds 24 1016 27 10000 1.5 150 19:38 13.12.2019
6567 Clouds 24 1016 27 10000 1.5 150 19:18 13.12.2019
6568 Clouds 25 1016 25 10000 2.1 140 18:42 13.12.2019
6569 Clouds 25 1016 25 10000 2.1 140 18:42 13.12.2019
6570 Clouds 25 1016 25 10000 2.1 140 18:20 13.12.2019
6571 Clouds 25 1016 25 10000 1.5 160 17:59 13.12.2019
6572 Clouds 25 1016 23 10000 2.1 150 17:39 13.12.2019
6573 Clouds 25 1016 23 10000 2.1 150 17:18 13.12.2019
6574 Clouds 25 1016 23 10000 2.1 150 17:18 13.12.2019
6575 Clouds 25 1017 25 10000 3.1 140 16:56 13.12.2019
6576 Clouds 25 1017 23 10000 4.6 130 16:38 13.12.2019
6577 Clouds 25 1017 23 10000 4.6 130 16:19 13.12.2019
6578 Clouds 26 1017 24 10000 2.6 150 15:42 13.12.2019
6579 Clouds 26 1017 24 10000 2.6 150 15:42 13.12.2019
6580 Clouds 26 1017 24 10000 2.6 150 15:21 13.12.2019
6581 Clouds 26 1017 24 10000 3.1 130 14:57 13.12.2019
6582 Clouds 26 1017 24 10000 3.1 120 14:37 13.12.2019
6583 Clouds 26 1017 24 10000 3.1 120 14:19 13.12.2019
6584 Clouds 27 1017 22 10000 4.1 150 13:43 13.12.2019
6585 Clouds 27 1017 22 10000 4.1 150 13:24 13.12.2019
6586 Clouds 27 1017 22 10000 4.1 150 13:24 13.12.2019
6587 Clouds 27 1017 22 10000 5.1 150 12:57 13.12.2019
6588 Clouds 28 1017 23 10000 4.6 140 12:39 13.12.2019
6589 Clouds 28 1017 23 10000 4.6 140 12:18 13.12.2019
6590 Clouds 28 1017 24 10000 5.7 150 11:43 13.12.2019
6591 Clouds 28 1017 24 10000 5.7 150 11:25 13.12.2019
6592 Clouds 29 1016 23 10000 6.7 160 10:56 13.12.2019
6593 Clouds 30 1016 22 10000 6.2 150 10:38 13.12.2019
6594 Clouds 30 1016 22 10000 6.2 150 10:20 13.12.2019
6595 Clouds 31 1015 20 10000 7.2 160 09:42 13.12.2019
6596 Clouds 31 1015 20 10000 7.2 160 09:21 13.12.2019
6597 Clouds 32 1015 21 10000 7.2 130 08:45 13.12.2019
6598 Clouds 32 1015 21 10000 7.2 130 08:27 13.12.2019
6599 Clouds 33 1015 19 10000 6.2 130 07:50 13.12.2019
6600 Clouds 33 1015 18 10000 7.2 120 07:26 13.12.2019
6601 Clouds 33 1015 18 10000 7.2 130 06:57 13.12.2019
6602 Clouds 33 1016 19 10000 7.2 130 06:31 13.12.2019
6603 Clouds 32 1016 22 10000 8.2 110 05:51 13.12.2019
6604 Clouds 32 1016 22 10000 6.7 150 05:31 13.12.2019
6605 Clouds 32 1017 22 10000 7.7 120 04:54 13.12.2019
6606 Clouds 30 1017 23 10000 6.2 140 03:52 13.12.2019
6607 Clouds 28 1018 30 10000 6.7 130 02:35 13.12.2019
6608 Clouds 27 1019 32 10000 6.7 130 01:51 13.12.2019
6609 Clouds 26 1019 34 10000 7.2 130 01:25 13.12.2019
6610 Clouds 26 1018 31 10000 7.2 120 00:46 13.12.2019
6611 Clouds 25 1019 33 10000 7.7 110 00:24 13.12.2019
6612 Clouds 24 1018 36 10000 7.2 130 23:42 12.12.2019
6613 Clouds 24 1018 36 10000 7.2 130 23:24 12.12.2019
6614 Clouds 24 1018 33 10000 5.1 130 22:56 12.12.2019
6615 Clouds 24 1017 33 10000 4.6 120 22:38 12.12.2019
6616 Clouds 24 1017 33 10000 4.6 120 22:38 12.12.2019
6617 Clouds 24 1017 33 10000 4.6 120 22:19 12.12.2019
6618 Clouds 24 1017 31 10000 4.1 130 21:55 12.12.2019
6619 Rain 24 1016 31 10000 8.2 130 21:37 12.12.2019
6620 Rain 24 1016 31 10000 8.2 130 21:19 12.12.2019
6621 Clouds 24 1017 31 10000 6.2 90 20:58 12.12.2019
6622 Clouds 24 1017 31 10000 3.6 110 20:39 12.12.2019
6623 Clouds 24 1017 31 10000 3.6 110 20:21 12.12.2019
6624 Clouds 24 1017 31 10000 7.2 110 19:55 12.12.2019
6625 Clouds 24 1017 31 10000 7.2 130 19:37 12.12.2019
6626 Clouds 24 1017 31 10000 7.2 130 19:18 12.12.2019
6627 Clouds 25 1017 29 10000 5.7 140 18:55 12.12.2019
6628 Clouds 25 1018 29 10000 5.7 130 18:36 12.12.2019
6629 Clouds 25 1018 27 10000 6.7 140 18:18 12.12.2019
6630 Clouds 25 1018 27 10000 6.7 140 17:55 12.12.2019
6631 Clouds 25 1018 27 10000 6.7 140 17:55 12.12.2019
6632 Clouds 26 1018 26 10000 5.7 150 17:37 12.12.2019
6633 Clouds 26 1018 26 10000 5.7 150 17:18 12.12.2019
6634 Clouds 26 1019 26 10000 7.2 150 16:42 12.12.2019
6635 Clouds 26 1019 26 10000 7.2 150 16:21 12.12.2019
6636 Clouds 27 1019 26 10000 8.2 160 15:59 12.12.2019
6637 Clouds 27 1019 24 10000 7.2 150 15:41 12.12.2019
6638 Clouds 27 1019 24 10000 7.2 150 15:19 12.12.2019
6639 Clouds 27 1019 24 10000 9.3 150 14:57 12.12.2019
6640 Clouds 28 1019 21 5000 9.8 150 14:36 12.12.2019
6641 Clouds 28 1019 21 5000 9.8 150 14:18 12.12.2019
6642 Clouds 29 1018 20 3200 8.7 150 13:54 12.12.2019
6643 Clouds 29 1018 20 1900 10.8 150 13:36 12.12.2019
6644 Clouds 29 1018 20 1900 10.8 150 13:18 12.12.2019
6645 Clouds 31 1016 16 3500 9.3 140 12:41 12.12.2019
6646 Clouds 31 1016 16 3500 9.3 140 12:22 12.12.2019
6647 Clouds 32 1016 13 3700 9.3 140 11:59 12.12.2019
6648 Clouds 32 1015 19 1500 10.8 140 11:40 12.12.2019
6649 Clouds 32 1015 11 1500 10.8 140 11:21 12.12.2019
6650 Clouds 33 1014 13 4100 10.3 140 10:58 12.12.2019
6651 Clouds 34 1013 13 1800 11.3 150 10:40 12.12.2019
6652 Clouds 34 1013 13 1800 11.3 150 10:21 12.12.2019
6653 Clouds 34 1013 13 1800 11.3 150 10:21 12.12.2019
6654 Clouds 35 1012 11 4100 8.7 140 09:56 12.12.2019
6655 Clouds 35 1012 12 1500 9.8 150 09:38 12.12.2019
6656 Clouds 35 1012 12 1500 9.8 150 09:19 12.12.2019
6657 Clouds 35 1012 12 1500 9.8 150 09:19 12.12.2019
6658 Clouds 37 1011 11 3700 11.3 140 08:46 12.12.2019
6659 Clouds 38 1011 9 6000 9.3 140 08:28 12.12.2019
6660 Clouds 39 1011 9 10000 9.3 140 07:50 12.12.2019
6661 Clouds 39 1011 9 5000 9.8 150 07:28 12.12.2019
6662 Clouds 40 1011 8 10000 7.7 120 06:57 12.12.2019
6663 Clouds 39 1011 9 10000 7.7 140 06:36 12.12.2019
6664 Clouds 38 1012 9 10000 7.2 150 05:49 12.12.2019
6665 Clear 38 1012 9 10000 6.7 140 05:25 12.12.2019
6666 Clear 38 1012 9 10000 7.2 140 04:28 12.12.2019
6667 Clear 35 1013 12 10000 6.7 130 02:41 12.12.2019
6668 Clear 35 1013 12 10000 6.7 130 02:22 12.12.2019
6669 Clear 35 1013 12 10000 7.2 140 01:54 12.12.2019
6670 Clear 35 1013 11 10000 6.7 130 01:35 12.12.2019
6671 Clear 35 1013 12<